<?xml version='1.0' encoding='UTF-8'?><gpx version="1.1" creator="JPX - https://github.com/jenetics/jpx" xmlns="http://www.topografix.com/GPX/1/1"><trk><trkseg><trkpt lat="43.626556371102936" lon="11.46207199234918"><ele>121.8</ele><time>2026-05-02T13:08:02Z</time></trkpt><trkpt lat="43.626497659265546" lon="11.462217022862287"><ele>121.6</ele><time>2026-05-02T13:08:04Z</time></trkpt><trkpt lat="43.62641830488869" lon="11.462277399611942"><ele>121.39999999999999</ele><time>2026-05-02T13:08:05Z</time></trkpt><trkpt lat="43.62634477192833" lon="11.462375595732006"><ele>121.19999999999999</ele><time>2026-05-02T13:08:06Z</time></trkpt><trkpt lat="43.62626439282483" lon="11.462482511116226"><ele>121.0</ele><time>2026-05-02T13:08:07Z</time></trkpt><trkpt lat="43.62618333065668" lon="11.462590335066704"><ele>121.4</ele><time>2026-05-02T13:08:08Z</time></trkpt><trkpt lat="43.62610300823824" lon="11.462693494174975"><ele>121.8</ele><time>2026-05-02T13:08:09Z</time></trkpt><trkpt lat="43.62602710458709" lon="11.462787962215678"><ele>122.20000000000002</ele><time>2026-05-02T13:08:10Z</time></trkpt><trkpt lat="43.62596830996434" lon="11.462890241642876"><ele>122.60000000000001</ele><time>2026-05-02T13:08:11Z</time></trkpt><trkpt lat="43.62589477966638" lon="11.462955507075183"><ele>123.0</ele><time>2026-05-02T13:08:12Z</time></trkpt><trkpt lat="43.625829673540906" lon="11.463012677690767"><ele>123.0</ele><time>2026-05-02T13:08:12.999Z</time></trkpt><trkpt lat="43.625766244072544" lon="11.463062900717137"><ele>123.00000000000001</ele><time>2026-05-02T13:08:13.999Z</time></trkpt><trkpt lat="43.625680750902326" lon="11.463098444711072"><ele>123.00000000000001</ele><time>2026-05-02T13:08:14.999Z</time></trkpt><trkpt lat="43.625580821769354" lon="11.463134587825643"><ele>123.0</ele><time>2026-05-02T13:08:15.999Z</time></trkpt><trkpt lat="43.62547315534472" lon="11.463166388641307"><ele>123.0</ele><time>2026-05-02T13:08:16.999Z</time></trkpt><trkpt lat="43.625355177933365" lon="11.463189250829632"><ele>123.5</ele><time>2026-05-02T13:08:17.999Z</time></trkpt><trkpt lat="43.625226685123515" lon="11.463178006093424"><ele>124.0</ele><time>2026-05-02T13:08:18.999Z</time></trkpt><trkpt lat="43.625098614641324" lon="11.46320244591991"><ele>124.5</ele><time>2026-05-02T13:08:19.999Z</time></trkpt><trkpt lat="43.62496745760496" lon="11.463227474757815"><ele>125.0</ele><time>2026-05-02T13:08:20.999Z</time></trkpt><trkpt lat="43.62483688063215" lon="11.463253127936053"><ele>125.0</ele><time>2026-05-02T13:08:21.999Z</time></trkpt><trkpt lat="43.62470336605916" lon="11.463287527671444"><ele>125.0</ele><time>2026-05-02T13:08:22.999Z</time></trkpt><trkpt lat="43.62457408932748" lon="11.46331163543573"><ele>125.0</ele><time>2026-05-02T13:08:23.999Z</time></trkpt><trkpt lat="43.62444576967464" lon="11.463335410791089"><ele>125.0</ele><time>2026-05-02T13:08:24.999Z</time></trkpt><trkpt lat="43.624313652460465" lon="11.463365727002397"><ele>125.25</ele><time>2026-05-02T13:08:25.999Z</time></trkpt><trkpt lat="43.62418431953358" lon="11.463389236449519"><ele>125.5</ele><time>2026-05-02T13:08:26.999Z</time></trkpt><trkpt lat="43.624046000849454" lon="11.463418144433913"><ele>125.75</ele><time>2026-05-02T13:08:27.999Z</time></trkpt><trkpt lat="43.623924161052656" lon="11.463426881934511"><ele>126.0</ele><time>2026-05-02T13:08:28.999Z</time></trkpt><trkpt lat="43.62382409493378" lon="11.463443034715192"><ele>126.0</ele><time>2026-05-02T13:08:29.999Z</time></trkpt><trkpt lat="43.62373145018281" lon="11.463452337692605"><ele>126.0</ele><time>2026-05-02T13:08:30.999Z</time></trkpt><trkpt lat="43.62363628463142" lon="11.463448103727202"><ele>126.0</ele><time>2026-05-02T13:08:31.999Z</time></trkpt><trkpt lat="43.62354397204186" lon="11.463412564103429"><ele>126.0</ele><time>2026-05-02T13:08:32.999Z</time></trkpt><trkpt lat="43.623466032474234" lon="11.463448530356633"><ele>126.0</ele><time>2026-05-02T13:08:33.999Z</time></trkpt><trkpt lat="43.623396099986735" lon="11.463159958385177"><ele>126.0</ele><time>2026-05-02T13:08:34.999Z</time></trkpt><trkpt lat="43.62330560274128" lon="11.46301530343253"><ele>126.0</ele><time>2026-05-02T13:08:35.999Z</time></trkpt><trkpt lat="43.62322070403815" lon="11.462869911635622"><ele>126.0</ele><time>2026-05-02T13:08:36.999Z</time></trkpt><trkpt lat="43.62312754283455" lon="11.462733362414259"><ele>126.0</ele><time>2026-05-02T13:08:37.999Z</time></trkpt><trkpt lat="43.62306943052042" lon="11.462566359750248"><ele>126.0</ele><time>2026-05-02T13:08:38.999Z</time></trkpt><trkpt lat="43.62300092379608" lon="11.46240345087406"><ele>126.0</ele><time>2026-05-02T13:08:39.999Z</time></trkpt><trkpt lat="43.62292980855422" lon="11.462231621822799"><ele>126.0</ele><time>2026-05-02T13:08:40.999Z</time></trkpt><trkpt lat="43.62285725735607" lon="11.462056351708014"><ele>126.0</ele><time>2026-05-02T13:08:41.999Z</time></trkpt><trkpt lat="43.62278425177123" lon="11.461879983888508"><ele>126.0</ele><time>2026-05-02T13:08:42.999Z</time></trkpt><trkpt lat="43.62270992651956" lon="11.461701930553373"><ele>126.0</ele><time>2026-05-02T13:08:43.999Z</time></trkpt><trkpt lat="43.622639173922096" lon="11.461530156268793"><ele>126.0</ele><time>2026-05-02T13:08:44.999Z</time></trkpt><trkpt lat="43.622576599556425" lon="11.461376033740484"><ele>126.0</ele><time>2026-05-02T13:08:45.999Z</time></trkpt><trkpt lat="43.622520011253755" lon="11.461236655001338"><ele>126.4</ele><time>2026-05-02T13:08:46.999Z</time></trkpt><trkpt lat="43.622470183006385" lon="11.461110905869957"><ele>126.8</ele><time>2026-05-02T13:08:47.999Z</time></trkpt><trkpt lat="43.622424201972" lon="11.460993959897584"><ele>127.20000000000002</ele><time>2026-05-02T13:08:48.999Z</time></trkpt><trkpt lat="43.62238655869791" lon="11.460894651499506"><ele>127.60000000000001</ele><time>2026-05-02T13:08:49.999Z</time></trkpt><trkpt lat="43.62235959122122" lon="11.460803035920296"><ele>128.0</ele><time>2026-05-02T13:08:50.999Z</time></trkpt><trkpt lat="43.622244088207964" lon="11.460775886200631"><ele>128.0</ele><time>2026-05-02T13:08:51.999Z</time></trkpt><trkpt lat="43.6221410019215" lon="11.460749636754647"><ele>128.0</ele><time>2026-05-02T13:08:52.999Z</time></trkpt><trkpt lat="43.62200417843852" lon="11.460729683645893"><ele>128.0</ele><time>2026-05-02T13:08:53.999Z</time></trkpt><trkpt lat="43.62184935644416" lon="11.460636865801852"><ele>128.0</ele><time>2026-05-02T13:08:54.999Z</time></trkpt><trkpt lat="43.621651132536805" lon="11.460538615550051"><ele>128.0</ele><time>2026-05-02T13:08:55.999Z</time></trkpt><trkpt lat="43.62142749957614" lon="11.460445586467126"><ele>128.0</ele><time>2026-05-02T13:08:56.999Z</time></trkpt><trkpt lat="43.62119933457916" lon="11.46032185086401"><ele>128.0</ele><time>2026-05-02T13:08:57.999Z</time></trkpt><trkpt lat="43.620987339558916" lon="11.46021836989184"><ele>128.0</ele><time>2026-05-02T13:08:58.999Z</time></trkpt><trkpt lat="43.62079695512791" lon="11.4601311000258"><ele>128.0</ele><time>2026-05-02T13:08:59.999Z</time></trkpt><trkpt lat="43.62062101245734" lon="11.460045537917722"><ele>128.0</ele><time>2026-05-02T13:09:00.999Z</time></trkpt><trkpt lat="43.62045028498396" lon="11.459956329126175"><ele>128.0</ele><time>2026-05-02T13:09:01.999Z</time></trkpt><trkpt lat="43.620282539845526" lon="11.459871579912"><ele>128.0</ele><time>2026-05-02T13:09:02.999Z</time></trkpt><trkpt lat="43.6201132583021" lon="11.459792876729638"><ele>128.66666666666666</ele><time>2026-05-02T13:09:03.999Z</time></trkpt><trkpt lat="43.61994856600405" lon="11.459713739772992"><ele>129.33333333333334</ele><time>2026-05-02T13:09:04.999Z</time></trkpt><trkpt lat="43.619790152546045" lon="11.459633065228108"><ele>130.0</ele><time>2026-05-02T13:09:05.999Z</time></trkpt><trkpt lat="43.61963819134679" lon="11.459556888164823"><ele>130.0</ele><time>2026-05-02T13:09:06.999Z</time></trkpt><trkpt lat="43.61948801576783" lon="11.459490532665209"><ele>130.0</ele><time>2026-05-02T13:09:07.999Z</time></trkpt><trkpt lat="43.6193385922328" lon="11.459439243313044"><ele>130.0</ele><time>2026-05-02T13:09:08.999Z</time></trkpt><trkpt lat="43.6191936806702" lon="11.45940508525086"><ele>130.0</ele><time>2026-05-02T13:09:09.999Z</time></trkpt><trkpt lat="43.61904357492454" lon="11.45938852891784"><ele>130.0</ele><time>2026-05-02T13:09:10.999Z</time></trkpt><trkpt lat="43.61888453505245" lon="11.459383253989301"><ele>130.0</ele><time>2026-05-02T13:09:11.999Z</time></trkpt><trkpt lat="43.61871795070711" lon="11.459392731787466"><ele>130.33333333333334</ele><time>2026-05-02T13:09:12.999Z</time></trkpt><trkpt lat="43.61854806907936" lon="11.459406901144451"><ele>130.66666666666666</ele><time>2026-05-02T13:09:13.999Z</time></trkpt><trkpt lat="43.61837652986782" lon="11.459430361314563"><ele>131.0</ele><time>2026-05-02T13:09:14.999Z</time></trkpt><trkpt lat="43.61821146404169" lon="11.459456684739298"><ele>131.0</ele><time>2026-05-02T13:09:15.999Z</time></trkpt><trkpt lat="43.61805509685024" lon="11.459488011305291"><ele>131.0</ele><time>2026-05-02T13:09:16.999Z</time></trkpt><trkpt lat="43.617908626826676" lon="11.45951534050616"><ele>131.0</ele><time>2026-05-02T13:09:17.999Z</time></trkpt><trkpt lat="43.61776789915276" lon="11.459531536108727"><ele>131.0</ele><time>2026-05-02T13:09:18.999Z</time></trkpt><trkpt lat="43.617626030849124" lon="11.459499897003733"><ele>131.33333333333331</ele><time>2026-05-02T13:09:19.999Z</time></trkpt><trkpt lat="43.61748033473122" lon="11.459441200749023"><ele>131.66666666666666</ele><time>2026-05-02T13:09:20.999Z</time></trkpt><trkpt lat="43.61732373749857" lon="11.45937478435966"><ele>132.0</ele><time>2026-05-02T13:09:21.999Z</time></trkpt><trkpt lat="43.617160510373274" lon="11.459304864679748"><ele>132.0</ele><time>2026-05-02T13:09:22.999Z</time></trkpt><trkpt lat="43.61699021379316" lon="11.459239088806477"><ele>132.0</ele><time>2026-05-02T13:09:23.999Z</time></trkpt><trkpt lat="43.61681078944356" lon="11.459185626165967"><ele>132.0</ele><time>2026-05-02T13:09:24.999Z</time></trkpt><trkpt lat="43.61662479689128" lon="11.45916671844168"><ele>132.33333333333334</ele><time>2026-05-02T13:09:25.999Z</time></trkpt><trkpt lat="43.61643294755951" lon="11.45913406224367"><ele>132.66666666666669</ele><time>2026-05-02T13:09:26.999Z</time></trkpt><trkpt lat="43.616239707445736" lon="11.459101405050601"><ele>133.0</ele><time>2026-05-02T13:09:27.999Z</time></trkpt><trkpt lat="43.61605828382011" lon="11.459067436771596"><ele>133.33333333333334</ele><time>2026-05-02T13:09:28.999Z</time></trkpt><trkpt lat="43.615889246634254" lon="11.459027320188676"><ele>133.66666666666666</ele><time>2026-05-02T13:09:29.999Z</time></trkpt><trkpt lat="43.615747031800026" lon="11.458939479730194"><ele>134.0</ele><time>2026-05-02T13:09:30.999Z</time></trkpt><trkpt lat="43.615608032693444" lon="11.458847282467236"><ele>134.33333333333331</ele><time>2026-05-02T13:09:31.999Z</time></trkpt><trkpt lat="43.61548159762931" lon="11.458725407759514"><ele>134.66666666666666</ele><time>2026-05-02T13:09:32.999Z</time></trkpt><trkpt lat="43.615355701244795" lon="11.458588550304885"><ele>135.0</ele><time>2026-05-02T13:09:33.999Z</time></trkpt><trkpt lat="43.615224814186156" lon="11.458430524060438"><ele>135.0</ele><time>2026-05-02T13:09:34.999Z</time></trkpt><trkpt lat="43.61509596956116" lon="11.458274334716794"><ele>135.0</ele><time>2026-05-02T13:09:35.999Z</time></trkpt><trkpt lat="43.61497486728649" lon="11.458124325713557"><ele>135.0</ele><time>2026-05-02T13:09:36.999Z</time></trkpt><trkpt lat="43.61486367143015" lon="11.457978852007011"><ele>135.0</ele><time>2026-05-02T13:09:37.999Z</time></trkpt><trkpt lat="43.61477066725666" lon="11.457848789251628"><ele>135.0</ele><time>2026-05-02T13:09:38.999Z</time></trkpt><trkpt lat="43.614705658329015" lon="11.457729465769223"><ele>135.0</ele><time>2026-05-02T13:09:39.999Z</time></trkpt><trkpt lat="43.61467263941781" lon="11.45762452879592"><ele>135.0</ele><time>2026-05-02T13:09:40.999Z</time></trkpt><trkpt lat="43.614643396676186" lon="11.457523307856297"><ele>135.0</ele><time>2026-05-02T13:09:41.999Z</time></trkpt><trkpt lat="43.61460734184605" lon="11.45739283075894"><ele>135.66666666666666</ele><time>2026-05-02T13:09:43.999Z</time></trkpt><trkpt lat="43.61435725329825" lon="11.457525917648704"><ele>136.33333333333331</ele><time>2026-05-02T13:09:45.999Z</time></trkpt><trkpt lat="43.61425057828165" lon="11.457600772977083"><ele>137.0</ele><time>2026-05-02T13:09:46.999Z</time></trkpt><trkpt lat="43.61413647439452" lon="11.457675078847515"><ele>137.0</ele><time>2026-05-02T13:09:47.999Z</time></trkpt><trkpt lat="43.614001590278946" lon="11.4577461558029"><ele>137.0</ele><time>2026-05-02T13:09:48.999Z</time></trkpt><trkpt lat="43.61386920200352" lon="11.457810350885953"><ele>137.0</ele><time>2026-05-02T13:09:49.999Z</time></trkpt><trkpt lat="43.613730679138285" lon="11.457863784175569"><ele>137.0</ele><time>2026-05-02T13:09:50.999Z</time></trkpt><trkpt lat="43.61359960650658" lon="11.457931155206026"><ele>138.5</ele><time>2026-05-02T13:09:51.999Z</time></trkpt><trkpt lat="43.61347928109014" lon="11.457995911752603"><ele>140.0</ele><time>2026-05-02T13:09:52.999Z</time></trkpt><trkpt lat="43.61336280891335" lon="11.45806445164387"><ele>141.5</ele><time>2026-05-02T13:09:53.999Z</time></trkpt><trkpt lat="43.613251206185474" lon="11.458126832379659"><ele>143.0</ele><time>2026-05-02T13:09:54.999Z</time></trkpt><trkpt lat="43.613130193748475" lon="11.458147556100766"><ele>143.0</ele><time>2026-05-02T13:09:55.999Z</time></trkpt><trkpt lat="43.6130118616768" lon="11.458171877962718"><ele>143.0</ele><time>2026-05-02T13:09:56.999Z</time></trkpt><trkpt lat="43.612896134033015" lon="11.458189636824379"><ele>143.0</ele><time>2026-05-02T13:09:57.999Z</time></trkpt><trkpt lat="43.612768431028634" lon="11.458201904806781"><ele>143.0</ele><time>2026-05-02T13:09:58.999Z</time></trkpt><trkpt lat="43.612634718170746" lon="11.458211624686486"><ele>144.0</ele><time>2026-05-02T13:09:59.999Z</time></trkpt><trkpt lat="43.61249696116221" lon="11.45822093612323"><ele>145.0</ele><time>2026-05-02T13:10:00.999Z</time></trkpt><trkpt lat="43.61235462700362" lon="11.458254331404778"><ele>146.0</ele><time>2026-05-02T13:10:01.999Z</time></trkpt><trkpt lat="43.612215817376416" lon="11.458265693071379"><ele>147.0</ele><time>2026-05-02T13:10:02.999Z</time></trkpt><trkpt lat="43.612072568698686" lon="11.458256945663384"><ele>146.75</ele><time>2026-05-02T13:10:03.999Z</time></trkpt><trkpt lat="43.611930451760365" lon="11.458268691004594"><ele>146.5</ele><time>2026-05-02T13:10:04.999Z</time></trkpt><trkpt lat="43.6117893474031" lon="11.45827845822875"><ele>146.25</ele><time>2026-05-02T13:10:05.999Z</time></trkpt><trkpt lat="43.611644591853604" lon="11.458294470728848"><ele>146.0</ele><time>2026-05-02T13:10:06.999Z</time></trkpt><trkpt lat="43.611514350354604" lon="11.458310263106737"><ele>146.0</ele><time>2026-05-02T13:10:07.999Z</time></trkpt><trkpt lat="43.61136900324766" lon="11.458320896485358"><ele>146.0</ele><time>2026-05-02T13:10:08.999Z</time></trkpt><trkpt lat="43.61121938979953" lon="11.458335524755025"><ele>146.0</ele><time>2026-05-02T13:10:09.999Z</time></trkpt><trkpt lat="43.61107365319154" lon="11.45830681006162"><ele>146.0</ele><time>2026-05-02T13:10:10.999Z</time></trkpt><trkpt lat="43.610924426221644" lon="11.458276223350625"><ele>146.25</ele><time>2026-05-02T13:10:11.999Z</time></trkpt><trkpt lat="43.610781729077274" lon="11.458232818026712"><ele>146.5</ele><time>2026-05-02T13:10:12.999Z</time></trkpt><trkpt lat="43.61064674390434" lon="11.45816405350193"><ele>146.75</ele><time>2026-05-02T13:10:13.999Z</time></trkpt><trkpt lat="43.610511579554704" lon="11.458079562326848"><ele>147.0</ele><time>2026-05-02T13:10:14.999Z</time></trkpt><trkpt lat="43.610377433818755" lon="11.457973203630734"><ele>148.33333333333334</ele><time>2026-05-02T13:10:15.999Z</time></trkpt><trkpt lat="43.61023991492359" lon="11.45786077866492"><ele>149.66666666666669</ele><time>2026-05-02T13:10:16.999Z</time></trkpt><trkpt lat="43.6101030371229" lon="11.457744556227121"><ele>151.0</ele><time>2026-05-02T13:10:17.999Z</time></trkpt><trkpt lat="43.60996391492391" lon="11.457625689793591"><ele>151.0</ele><time>2026-05-02T13:10:18.999Z</time></trkpt><trkpt lat="43.60982353577464" lon="11.45750577231856"><ele>151.0</ele><time>2026-05-02T13:10:19.999Z</time></trkpt><trkpt lat="43.60968104757038" lon="11.4573840532323"><ele>151.0</ele><time>2026-05-02T13:10:20.999Z</time></trkpt><trkpt lat="43.60953949623752" lon="11.457261904786362"><ele>152.0</ele><time>2026-05-02T13:10:21.999Z</time></trkpt><trkpt lat="43.609407965900644" lon="11.457148219647054"><ele>153.0</ele><time>2026-05-02T13:10:22.999Z</time></trkpt><trkpt lat="43.609290870123104" lon="11.457044422787572"><ele>154.0</ele><time>2026-05-02T13:10:23.999Z</time></trkpt><trkpt lat="43.609187208239064" lon="11.456929882973764"><ele>155.0</ele><time>2026-05-02T13:10:24.999Z</time></trkpt><trkpt lat="43.609102234796744" lon="11.456805614666813"><ele>155.5</ele><time>2026-05-02T13:10:25.999Z</time></trkpt><trkpt lat="43.609034384087614" lon="11.456661405574797"><ele>156.0</ele><time>2026-05-02T13:10:26.999Z</time></trkpt><trkpt lat="43.60898773343407" lon="11.456501992637584"><ele>156.5</ele><time>2026-05-02T13:10:27.999Z</time></trkpt><trkpt lat="43.6089466444297" lon="11.456321598497901"><ele>157.0</ele><time>2026-05-02T13:10:28.999Z</time></trkpt><trkpt lat="43.608934180860125" lon="11.456144551127775"><ele>157.8</ele><time>2026-05-02T13:10:29.999Z</time></trkpt><trkpt lat="43.60891317769194" lon="11.455958209342946"><ele>158.6</ele><time>2026-05-02T13:10:30.999Z</time></trkpt><trkpt lat="43.60889524474189" lon="11.455799106920676"><ele>159.4</ele><time>2026-05-02T13:10:31.999Z</time></trkpt><trkpt lat="43.60887653365041" lon="11.455659200101298"><ele>160.20000000000002</ele><time>2026-05-02T13:10:32.999Z</time></trkpt><trkpt lat="43.60884715465184" lon="11.455538133746305"><ele>161.0</ele><time>2026-05-02T13:10:33.999Z</time></trkpt><trkpt lat="43.608782256838474" lon="11.455448486185904"><ele>160.4</ele><time>2026-05-02T13:10:34.999Z</time></trkpt><trkpt lat="43.608684780272135" lon="11.455418741422543"><ele>159.8</ele><time>2026-05-02T13:10:35.999Z</time></trkpt><trkpt lat="43.6085851136597" lon="11.455426021164795"><ele>159.20000000000002</ele><time>2026-05-02T13:10:36.999Z</time></trkpt><trkpt lat="43.60847947129494" lon="11.455493122842352"><ele>158.60000000000002</ele><time>2026-05-02T13:10:37.999Z</time></trkpt><trkpt lat="43.60839504677814" lon="11.455612226089407"><ele>158.0</ele><time>2026-05-02T13:10:38.999Z</time></trkpt><trkpt lat="43.60830667378905" lon="11.455737778379838"><ele>158.0</ele><time>2026-05-02T13:10:39.999Z</time></trkpt><trkpt lat="43.60820721983148" lon="11.455843097170778"><ele>158.0</ele><time>2026-05-02T13:10:40.999Z</time></trkpt><trkpt lat="43.60810140890805" lon="11.4559102606894"><ele>158.0</ele><time>2026-05-02T13:10:41.999Z</time></trkpt><trkpt lat="43.60799362835333" lon="11.455881883989548"><ele>158.0</ele><time>2026-05-02T13:10:42.999Z</time></trkpt><trkpt lat="43.6078976863706" lon="11.455828393864785"><ele>158.0</ele><time>2026-05-02T13:10:43.999Z</time></trkpt><trkpt lat="43.60784213859055" lon="11.455725994660092"><ele>158.0</ele><time>2026-05-02T13:10:44.999Z</time></trkpt><trkpt lat="43.607774709565604" lon="11.455608910384354"><ele>158.0</ele><time>2026-05-02T13:10:45.999Z</time></trkpt><trkpt lat="43.607699796394854" lon="11.455481422664224"><ele>158.0</ele><time>2026-05-02T13:10:46.999Z</time></trkpt><trkpt lat="43.60762336978083" lon="11.455351359450766"><ele>158.0</ele><time>2026-05-02T13:10:47.999Z</time></trkpt><trkpt lat="43.6075376008829" lon="11.455215699058854"><ele>161.25</ele><time>2026-05-02T13:10:48.999Z</time></trkpt><trkpt lat="43.60743597663558" lon="11.455097380877058"><ele>164.5</ele><time>2026-05-02T13:10:49.999Z</time></trkpt><trkpt lat="43.607342881258774" lon="11.454971418765071"><ele>167.75</ele><time>2026-05-02T13:10:50.999Z</time></trkpt><trkpt lat="43.60724413961012" lon="11.454878431700498"><ele>171.0</ele><time>2026-05-02T13:10:51.999Z</time></trkpt><trkpt lat="43.607141622310394" lon="11.45480557102884"><ele>171.0</ele><time>2026-05-02T13:10:52.999Z</time></trkpt><trkpt lat="43.60703835477476" lon="11.454756493958655"><ele>171.0</ele><time>2026-05-02T13:10:53.999Z</time></trkpt><trkpt lat="43.60693203070708" lon="11.454751455555884"><ele>171.0</ele><time>2026-05-02T13:10:54.999Z</time></trkpt><trkpt lat="43.60682327348125" lon="11.454772774745313"><ele>171.0</ele><time>2026-05-02T13:10:55.999Z</time></trkpt><trkpt lat="43.60672838006237" lon="11.45477760028211"><ele>171.0</ele><time>2026-05-02T13:10:56.999Z</time></trkpt><trkpt lat="43.60664440459275" lon="11.454784062834516"><ele>170.60000000000002</ele><time>2026-05-02T13:10:57.999Z</time></trkpt><trkpt lat="43.60655483758328" lon="11.454758691851996"><ele>170.2</ele><time>2026-05-02T13:10:58.999Z</time></trkpt><trkpt lat="43.606490965104534" lon="11.454650104752131"><ele>169.8</ele><time>2026-05-02T13:10:59.999Z</time></trkpt><trkpt lat="43.606428031397776" lon="11.45455274706654"><ele>169.39999999999998</ele><time>2026-05-02T13:11:00.999Z</time></trkpt><trkpt lat="43.60635811411825" lon="11.454431281149184"><ele>169.0</ele><time>2026-05-02T13:11:01.999Z</time></trkpt><trkpt lat="43.60628689647403" lon="11.45429436133044"><ele>171.25</ele><time>2026-05-02T13:11:02.999Z</time></trkpt><trkpt lat="43.60621721389628" lon="11.454141940836767"><ele>173.5</ele><time>2026-05-02T13:11:03.999Z</time></trkpt><trkpt lat="43.606139345028716" lon="11.453995774213306"><ele>175.75</ele><time>2026-05-02T13:11:04.999Z</time></trkpt><trkpt lat="43.60605370889133" lon="11.453858973621582"><ele>178.0</ele><time>2026-05-02T13:11:05.999Z</time></trkpt><trkpt lat="43.60596862109933" lon="11.453713312545153"><ele>181.0</ele><time>2026-05-02T13:11:06.999Z</time></trkpt><trkpt lat="43.605890701389555" lon="11.453576932816187"><ele>184.0</ele><time>2026-05-02T13:11:07.999Z</time></trkpt><trkpt lat="43.60582720831884" lon="11.453446843887583"><ele>187.0</ele><time>2026-05-02T13:11:08.999Z</time></trkpt><trkpt lat="43.60576985497999" lon="11.453308334767627"><ele>190.0</ele><time>2026-05-02T13:11:09.999Z</time></trkpt><trkpt lat="43.605733890966754" lon="11.453148228913824"><ele>190.0</ele><time>2026-05-02T13:11:10.999Z</time></trkpt><trkpt lat="43.60568131412288" lon="11.452986549501993"><ele>190.0</ele><time>2026-05-02T13:11:11.999Z</time></trkpt><trkpt lat="43.60560038788803" lon="11.452838607694254"><ele>190.0</ele><time>2026-05-02T13:11:12.999Z</time></trkpt><trkpt lat="43.60552684904779" lon="11.452674947902103"><ele>190.0</ele><time>2026-05-02T13:11:13.999Z</time></trkpt><trkpt lat="43.605445103153144" lon="11.452520170387398"><ele>189.75</ele><time>2026-05-02T13:11:14.999Z</time></trkpt><trkpt lat="43.60536111753758" lon="11.452367513171929"><ele>189.5</ele><time>2026-05-02T13:11:15.999Z</time></trkpt><trkpt lat="43.605276237296096" lon="11.452234316119394"><ele>189.25</ele><time>2026-05-02T13:11:16.999Z</time></trkpt><trkpt lat="43.605203783941235" lon="11.452120170390982"><ele>189.0</ele><time>2026-05-02T13:11:17.999Z</time></trkpt><trkpt lat="43.60513130752114" lon="11.452025454195336"><ele>192.5</ele><time>2026-05-02T13:11:18.999Z</time></trkpt><trkpt lat="43.60503210754074" lon="11.4519461864392"><ele>196.0</ele><time>2026-05-02T13:11:19.999Z</time></trkpt><trkpt lat="43.604907217960005" lon="11.451885442535445"><ele>199.5</ele><time>2026-05-02T13:11:20.999Z</time></trkpt><trkpt lat="43.604764509622356" lon="11.451849780096437"><ele>203.0</ele><time>2026-05-02T13:11:21.999Z</time></trkpt><trkpt lat="43.60463119504391" lon="11.451843212848619"><ele>203.0</ele><time>2026-05-02T13:11:22.999Z</time></trkpt><trkpt lat="43.60453113063788" lon="11.451804316388854"><ele>203.0</ele><time>2026-05-02T13:11:23.999Z</time></trkpt><trkpt lat="43.6044581462731" lon="11.451747527809115"><ele>203.0</ele><time>2026-05-02T13:11:24.999Z</time></trkpt><trkpt lat="43.60440872185757" lon="11.451665611034674"><ele>203.0</ele><time>2026-05-02T13:11:25.999Z</time></trkpt><trkpt lat="43.60441645043604" lon="11.45152304648266"><ele>203.0</ele><time>2026-05-02T13:11:27.999Z</time></trkpt><trkpt lat="43.6045583122865" lon="11.451509494757673"><ele>203.0</ele><time>2026-05-02T13:11:29.999Z</time></trkpt><trkpt lat="43.60467176640491" lon="11.451598744120904"><ele>203.0</ele><time>2026-05-02T13:11:30.999Z</time></trkpt><trkpt lat="43.604810541943095" lon="11.45155230285997"><ele>203.0</ele><time>2026-05-02T13:11:31.999Z</time></trkpt><trkpt lat="43.60498182296862" lon="11.451408622205367"><ele>207.66666666666669</ele><time>2026-05-02T13:11:32.999Z</time></trkpt><trkpt lat="43.60514863812327" lon="11.451290320359378"><ele>212.33333333333331</ele><time>2026-05-02T13:11:33.999Z</time></trkpt><trkpt lat="43.6052937093563" lon="11.451198566395176"><ele>217.0</ele><time>2026-05-02T13:11:34.999Z</time></trkpt><trkpt lat="43.60543090365696" lon="11.451114024414572"><ele>217.25</ele><time>2026-05-02T13:11:35.999Z</time></trkpt><trkpt lat="43.60554951593853" lon="11.451014747825672"><ele>217.5</ele><time>2026-05-02T13:11:36.999Z</time></trkpt><trkpt lat="43.605647710875985" lon="11.450897980340526"><ele>217.75</ele><time>2026-05-02T13:11:37.999Z</time></trkpt><trkpt lat="43.60572747125565" lon="11.450772152110593"><ele>218.0</ele><time>2026-05-02T13:11:38.999Z</time></trkpt><trkpt lat="43.605784833864966" lon="11.450641675727777"><ele>218.0</ele><time>2026-05-02T13:11:39.999Z</time></trkpt><trkpt lat="43.60582442539816" lon="11.450509413848549"><ele>218.0</ele><time>2026-05-02T13:11:40.999Z</time></trkpt><trkpt lat="43.605833844554844" lon="11.45035975565982"><ele>218.0</ele><time>2026-05-02T13:11:41.999Z</time></trkpt><trkpt lat="43.60581371097336" lon="11.450215902738607"><ele>218.0</ele><time>2026-05-02T13:11:42.999Z</time></trkpt><trkpt lat="43.60577457102695" lon="11.450073301777337"><ele>218.0</ele><time>2026-05-02T13:11:43.999Z</time></trkpt><trkpt lat="43.605750872924006" lon="11.449949476427893"><ele>218.0</ele><time>2026-05-02T13:11:44.999Z</time></trkpt><trkpt lat="43.60573905858431" lon="11.449824638148725"><ele>218.0</ele><time>2026-05-02T13:11:45.999Z</time></trkpt><trkpt lat="43.60573308833284" lon="11.449666533198462"><ele>218.0</ele><time>2026-05-02T13:11:46.999Z</time></trkpt><trkpt lat="43.60571923160168" lon="11.449477961405288"><ele>218.0</ele><time>2026-05-02T13:11:47.999Z</time></trkpt><trkpt lat="43.6056927050619" lon="11.44930008561028"><ele>218.0</ele><time>2026-05-02T13:11:48.999Z</time></trkpt><trkpt lat="43.60564621965039" lon="11.44914885051441"><ele>218.0</ele><time>2026-05-02T13:11:49.999Z</time></trkpt><trkpt lat="43.605574433580315" lon="11.449036886304222"><ele>218.0</ele><time>2026-05-02T13:11:50.999Z</time></trkpt><trkpt lat="43.60547494913536" lon="11.448956148936826"><ele>218.0</ele><time>2026-05-02T13:11:51.999Z</time></trkpt><trkpt lat="43.605343687943346" lon="11.448906773703529"><ele>219.5</ele><time>2026-05-02T13:11:52.999Z</time></trkpt><trkpt lat="43.60520904377661" lon="11.44885571275615"><ele>221.0</ele><time>2026-05-02T13:11:53.999Z</time></trkpt><trkpt lat="43.60507541438916" lon="11.448797253842665"><ele>222.5</ele><time>2026-05-02T13:11:54.999Z</time></trkpt><trkpt lat="43.60494427154618" lon="11.448748363744109"><ele>224.0</ele><time>2026-05-02T13:11:55.999Z</time></trkpt><trkpt lat="43.604807163548585" lon="11.448724078145426"><ele>224.0</ele><time>2026-05-02T13:11:56.999Z</time></trkpt><trkpt lat="43.60465938036714" lon="11.448697137975481"><ele>224.0</ele><time>2026-05-02T13:11:57.999Z</time></trkpt><trkpt lat="43.60450992347963" lon="11.44866940476882"><ele>224.0</ele><time>2026-05-02T13:11:58.999Z</time></trkpt><trkpt lat="43.60434736889065" lon="11.44863214239186"><ele>225.75</ele><time>2026-05-02T13:11:59.999Z</time></trkpt><trkpt lat="43.60418804256031" lon="11.448608091175702"><ele>227.5</ele><time>2026-05-02T13:12:00.999Z</time></trkpt><trkpt lat="43.604039082757794" lon="11.448585316626245"><ele>229.25</ele><time>2026-05-02T13:12:01.999Z</time></trkpt><trkpt lat="43.603916178273565" lon="11.448529939380343"><ele>231.0</ele><time>2026-05-02T13:12:02.999Z</time></trkpt><trkpt lat="43.60382304114167" lon="11.448468726531136"><ele>231.0</ele><time>2026-05-02T13:12:03.999Z</time></trkpt><trkpt lat="43.60374104317066" lon="11.448382423676374"><ele>231.0</ele><time>2026-05-02T13:12:04.999Z</time></trkpt><trkpt lat="43.60367795029702" lon="11.448253467969012"><ele>231.0</ele><time>2026-05-02T13:12:05.999Z</time></trkpt><trkpt lat="43.60358761194408" lon="11.448080879761894"><ele>231.0</ele><time>2026-05-02T13:12:06.999Z</time></trkpt><trkpt lat="43.60348493760991" lon="11.447885206849916"><ele>234.0</ele><time>2026-05-02T13:12:07.999Z</time></trkpt><trkpt lat="43.60338891669033" lon="11.447701180051014"><ele>237.0</ele><time>2026-05-02T13:12:08.999Z</time></trkpt><trkpt lat="43.60330123868658" lon="11.447527661772124"><ele>240.0</ele><time>2026-05-02T13:12:09.999Z</time></trkpt><trkpt lat="43.60323190581353" lon="11.447375068616156"><ele>243.0</ele><time>2026-05-02T13:12:10.999Z</time></trkpt><trkpt lat="43.60319642160593" lon="11.44724873613564"><ele>243.0</ele><time>2026-05-02T13:12:11.999Z</time></trkpt><trkpt lat="43.60318921042546" lon="11.447130629150601"><ele>243.0</ele><time>2026-05-02T13:12:12.999Z</time></trkpt><trkpt lat="43.60321723485119" lon="11.447041965540683"><ele>243.0</ele><time>2026-05-02T13:12:13.999Z</time></trkpt><trkpt lat="43.603275848609435" lon="11.446963933408897"><ele>243.0</ele><time>2026-05-02T13:12:14.999Z</time></trkpt><trkpt lat="43.60335324306495" lon="11.44690850531393"><ele>243.0</ele><time>2026-05-02T13:12:15.999Z</time></trkpt><trkpt lat="43.60344516960923" lon="11.446893133742972"><ele>243.0</ele><time>2026-05-02T13:12:16.999Z</time></trkpt><trkpt lat="43.60355807143731" lon="11.44686169355293"><ele>245.0</ele><time>2026-05-02T13:12:17.999Z</time></trkpt><trkpt lat="43.60365420367584" lon="11.4467938322574"><ele>247.0</ele><time>2026-05-02T13:12:18.999Z</time></trkpt><trkpt lat="43.6037224582578" lon="11.446713850753369"><ele>249.0</ele><time>2026-05-02T13:12:19.999Z</time></trkpt><trkpt lat="43.603758549788274" lon="11.446599332350381"><ele>251.0</ele><time>2026-05-02T13:12:20.999Z</time></trkpt><trkpt lat="43.60377153575524" lon="11.446450696290023"><ele>253.0</ele><time>2026-05-02T13:12:21.999Z</time></trkpt><trkpt lat="43.60376323723679" lon="11.446270382917525"><ele>253.25</ele><time>2026-05-02T13:12:22.999Z</time></trkpt><trkpt lat="43.60372766552675" lon="11.446082818252663"><ele>253.5</ele><time>2026-05-02T13:12:23.999Z</time></trkpt><trkpt lat="43.603691061878905" lon="11.445906114078836"><ele>253.75</ele><time>2026-05-02T13:12:24.999Z</time></trkpt><trkpt lat="43.603647062237705" lon="11.445739268174053"><ele>254.0</ele><time>2026-05-02T13:12:25.999Z</time></trkpt><trkpt lat="43.60358295369831" lon="11.445573080985719"><ele>256.25</ele><time>2026-05-02T13:12:26.999Z</time></trkpt><trkpt lat="43.60351085201891" lon="11.445410541019879"><ele>258.5</ele><time>2026-05-02T13:12:27.999Z</time></trkpt><trkpt lat="43.603426855018654" lon="11.445256201937742"><ele>260.75</ele><time>2026-05-02T13:12:28.999Z</time></trkpt><trkpt lat="43.60332611993561" lon="11.445128772083129"><ele>263.0</ele><time>2026-05-02T13:12:29.999Z</time></trkpt><trkpt lat="43.603210218714594" lon="11.445036543345731"><ele>263.0</ele><time>2026-05-02T13:12:30.999Z</time></trkpt><trkpt lat="43.60307706765167" lon="11.44497651208445"><ele>263.0</ele><time>2026-05-02T13:12:31.999Z</time></trkpt><trkpt lat="43.60294630341355" lon="11.44490440850272"><ele>263.0</ele><time>2026-05-02T13:12:32.999Z</time></trkpt><trkpt lat="43.60283688830359" lon="11.444802762728493"><ele>263.0</ele><time>2026-05-02T13:12:33.999Z</time></trkpt><trkpt lat="43.60273900253797" lon="11.444701605511609"><ele>264.25</ele><time>2026-05-02T13:12:34.999Z</time></trkpt><trkpt lat="43.60265915922857" lon="11.44458166973428"><ele>265.5</ele><time>2026-05-02T13:12:35.999Z</time></trkpt><trkpt lat="43.60258680381787" lon="11.44443119197634"><ele>266.75</ele><time>2026-05-02T13:12:36.999Z</time></trkpt><trkpt lat="43.60250238917046" lon="11.444259655981737"><ele>268.0</ele><time>2026-05-02T13:12:37.999Z</time></trkpt><trkpt lat="43.60240262852566" lon="11.444135505593804"><ele>268.0</ele><time>2026-05-02T13:12:38.999Z</time></trkpt><trkpt lat="43.60232139737764" lon="11.44402472355476"><ele>268.0</ele><time>2026-05-02T13:12:39.999Z</time></trkpt><trkpt lat="43.60221575229118" lon="11.443963623965342"><ele>268.0</ele><time>2026-05-02T13:12:40.999Z</time></trkpt><trkpt lat="43.602080282296356" lon="11.443934331018076"><ele>268.0</ele><time>2026-05-02T13:12:41.999Z</time></trkpt><trkpt lat="43.60192013858461" lon="11.443908764516705"><ele>268.3333333333333</ele><time>2026-05-02T13:12:42.999Z</time></trkpt><trkpt lat="43.601760086223045" lon="11.443843341577086"><ele>268.6666666666667</ele><time>2026-05-02T13:12:43.999Z</time></trkpt><trkpt lat="43.601606951315745" lon="11.443795742788888"><ele>269.0</ele><time>2026-05-02T13:12:44.999Z</time></trkpt><trkpt lat="43.60145419420899" lon="11.443749636547716"><ele>269.0</ele><time>2026-05-02T13:12:45.999Z</time></trkpt><trkpt lat="43.60130003850326" lon="11.44370226782774"><ele>269.0</ele><time>2026-05-02T13:12:46.999Z</time></trkpt><trkpt lat="43.60114177368561" lon="11.443652676990498"><ele>269.0</ele><time>2026-05-02T13:12:47.999Z</time></trkpt><trkpt lat="43.60098308848015" lon="11.443602954442982"><ele>269.5</ele><time>2026-05-02T13:12:48.999Z</time></trkpt><trkpt lat="43.600827645233906" lon="11.443556334559965"><ele>270.0</ele><time>2026-05-02T13:12:49.999Z</time></trkpt><trkpt lat="43.600692035544476" lon="11.44351498848315"><ele>270.5</ele><time>2026-05-02T13:12:50.999Z</time></trkpt><trkpt lat="43.60056520209715" lon="11.443478055970365"><ele>271.0</ele><time>2026-05-02T13:12:51.999Z</time></trkpt><trkpt lat="43.600443832919744" lon="11.44344151729856"><ele>270.75</ele><time>2026-05-02T13:12:52.999Z</time></trkpt><trkpt lat="43.600318282770644" lon="11.44340338566596"><ele>270.5</ele><time>2026-05-02T13:12:53.999Z</time></trkpt><trkpt lat="43.60018177115556" lon="11.443363962819275"><ele>270.25</ele><time>2026-05-02T13:12:54.999Z</time></trkpt><trkpt lat="43.60004111080694" lon="11.443323577841541"><ele>270.0</ele><time>2026-05-02T13:12:55.999Z</time></trkpt><trkpt lat="43.59989340162974" lon="11.443282502137395"><ele>270.0</ele><time>2026-05-02T13:12:56.999Z</time></trkpt><trkpt lat="43.59974305192467" lon="11.443244561216721"><ele>270.0</ele><time>2026-05-02T13:12:57.999Z</time></trkpt><trkpt lat="43.599595391805785" lon="11.44321396465505"><ele>270.0</ele><time>2026-05-02T13:12:58.999Z</time></trkpt><trkpt lat="43.59946177332905" lon="11.443189288643563"><ele>270.0</ele><time>2026-05-02T13:12:59.999Z</time></trkpt><trkpt lat="43.599341622679844" lon="11.443167099788399"><ele>270.5</ele><time>2026-05-02T13:13:00.999Z</time></trkpt><trkpt lat="43.599228619017794" lon="11.443150418076144"><ele>271.0</ele><time>2026-05-02T13:13:01.999Z</time></trkpt><trkpt lat="43.59911307040241" lon="11.443167317528037"><ele>271.5</ele><time>2026-05-02T13:13:02.999Z</time></trkpt><trkpt lat="43.599002690974956" lon="11.44317153863856"><ele>272.0</ele><time>2026-05-02T13:13:03.999Z</time></trkpt><trkpt lat="43.59888611149337" lon="11.44321002058619"><ele>272.0</ele><time>2026-05-02T13:13:04.999Z</time></trkpt><trkpt lat="43.598764564831704" lon="11.44327435099208"><ele>272.0</ele><time>2026-05-02T13:13:05.999Z</time></trkpt><trkpt lat="43.59865064198413" lon="11.443338165172666"><ele>272.0</ele><time>2026-05-02T13:13:06.999Z</time></trkpt><trkpt lat="43.598540373749664" lon="11.443359117524428"><ele>272.0</ele><time>2026-05-02T13:13:07.999Z</time></trkpt><trkpt lat="43.598438062589" lon="11.443388758071256"><ele>272.0</ele><time>2026-05-02T13:13:08.999Z</time></trkpt><trkpt lat="43.598335619360924" lon="11.443388236794247"><ele>272.0</ele><time>2026-05-02T13:13:09.999Z</time></trkpt><trkpt lat="43.59823203140178" lon="11.443335876760095"><ele>272.0</ele><time>2026-05-02T13:13:10.999Z</time></trkpt><trkpt lat="43.59809950622586" lon="11.443272295806068"><ele>272.0</ele><time>2026-05-02T13:13:11.999Z</time></trkpt><trkpt lat="43.59794252039049" lon="11.443195936207863"><ele>271.75</ele><time>2026-05-02T13:13:12.999Z</time></trkpt><trkpt lat="43.59778708102233" lon="11.443119555884634"><ele>271.5</ele><time>2026-05-02T13:13:13.999Z</time></trkpt><trkpt lat="43.59765334436725" lon="11.443055598425975"><ele>271.25</ele><time>2026-05-02T13:13:14.999Z</time></trkpt><trkpt lat="43.59753232101581" lon="11.443001818275196"><ele>271.0</ele><time>2026-05-02T13:13:15.999Z</time></trkpt><trkpt lat="43.597445532792385" lon="11.442960903016903"><ele>271.0</ele><time>2026-05-02T13:13:16.999Z</time></trkpt><trkpt lat="43.597372514615486" lon="11.442880973909308"><ele>271.0</ele><time>2026-05-02T13:13:18.999Z</time></trkpt><trkpt lat="43.59741615834858" lon="11.442767386238193"><ele>271.0</ele><time>2026-05-02T13:13:19.999Z</time></trkpt><trkpt lat="43.59739878204272" lon="11.442663943074558"><ele>271.0</ele><time>2026-05-02T13:13:20.999Z</time></trkpt><trkpt lat="43.597369001941665" lon="11.442582925668322"><ele>271.0</ele><time>2026-05-02T13:13:21.999Z</time></trkpt><trkpt lat="43.597347529922686" lon="11.44240781123128"><ele>271.0</ele><time>2026-05-02T13:13:23.999Z</time></trkpt><trkpt lat="43.5973347716259" lon="11.442315330360426"><ele>271.0</ele><time>2026-05-02T13:13:24.999Z</time></trkpt><trkpt lat="43.59732185099125" lon="11.442224956158846"><ele>271.0</ele><time>2026-05-02T13:13:25.999Z</time></trkpt><trkpt lat="43.597298315022115" lon="11.44206020165563"><ele>271.0</ele><time>2026-05-02T13:13:27.999Z</time></trkpt><trkpt lat="43.59726905487728" lon="11.441892487558281"><ele>271.0</ele><time>2026-05-02T13:13:29.999Z</time></trkpt><trkpt lat="43.59725637239261" lon="11.441806047643018"><ele>271.0</ele><time>2026-05-02T13:13:30.999Z</time></trkpt><trkpt lat="43.597244997259985" lon="11.441719451564005"><ele>271.6</ele><time>2026-05-02T13:13:31.999Z</time></trkpt><trkpt lat="43.597222672393684" lon="11.4415593184536"><ele>272.20000000000005</ele><time>2026-05-02T13:13:33.999Z</time></trkpt><trkpt lat="43.59725473796322" lon="11.441416018115538"><ele>272.79999999999995</ele><time>2026-05-02T13:13:35.999Z</time></trkpt><trkpt lat="43.59726614037435" lon="11.441260219081224"><ele>273.4</ele><time>2026-05-02T13:13:37.999Z</time></trkpt><trkpt lat="43.59728065883452" lon="11.441167283692002"><ele>274.0</ele><time>2026-05-02T13:13:38.999Z</time></trkpt><trkpt lat="43.59731029814664" lon="11.441068445536883"><ele>274.0</ele><time>2026-05-02T13:13:39.999Z</time></trkpt><trkpt lat="43.597313239726354" lon="11.440957966460822"><ele>274.0</ele><time>2026-05-02T13:13:40.999Z</time></trkpt><trkpt lat="43.59733609171544" lon="11.440854517598993"><ele>274.0</ele><time>2026-05-02T13:13:41.999Z</time></trkpt><trkpt lat="43.59734361387994" lon="11.440745216143185"><ele>274.0</ele><time>2026-05-02T13:13:42.999Z</time></trkpt><trkpt lat="43.597371777714585" lon="11.440633544994986"><ele>274.0</ele><time>2026-05-02T13:13:43.999Z</time></trkpt><trkpt lat="43.597391441549526" lon="11.440508761838055"><ele>274.0</ele><time>2026-05-02T13:13:44.999Z</time></trkpt><trkpt lat="43.59741025161848" lon="11.440391510664723"><ele>274.0</ele><time>2026-05-02T13:13:45.999Z</time></trkpt><trkpt lat="43.5974301798638" lon="11.440267289260536"><ele>274.0</ele><time>2026-05-02T13:13:46.999Z</time></trkpt><trkpt lat="43.597449511535316" lon="11.44014678687507"><ele>274.0</ele><time>2026-05-02T13:13:47.999Z</time></trkpt><trkpt lat="43.59746101736463" lon="11.440026839829182"><ele>274.0</ele><time>2026-05-02T13:13:48.999Z</time></trkpt><trkpt lat="43.59747713923773" lon="11.439900077755286"><ele>274.0</ele><time>2026-05-02T13:13:49.999Z</time></trkpt><trkpt lat="43.597494950757444" lon="11.43977194813381"><ele>274.0</ele><time>2026-05-02T13:13:50.999Z</time></trkpt><trkpt lat="43.59751409565687" lon="11.439641626584438"><ele>274.0</ele><time>2026-05-02T13:13:51.999Z</time></trkpt><trkpt lat="43.597542322477686" lon="11.4395108504033"><ele>274.0</ele><time>2026-05-02T13:13:52.999Z</time></trkpt><trkpt lat="43.59756692392358" lon="11.439376211684985"><ele>274.0</ele><time>2026-05-02T13:13:53.999Z</time></trkpt><trkpt lat="43.597588665217515" lon="11.439239357152783"><ele>274.0</ele><time>2026-05-02T13:13:54.999Z</time></trkpt><trkpt lat="43.597605778900146" lon="11.43909567036694"><ele>274.5</ele><time>2026-05-02T13:13:55.999Z</time></trkpt><trkpt lat="43.59762430154283" lon="11.438956124687337"><ele>275.0</ele><time>2026-05-02T13:13:56.999Z</time></trkpt><trkpt lat="43.597661706938716" lon="11.438824082393694"><ele>275.5</ele><time>2026-05-02T13:13:57.999Z</time></trkpt><trkpt lat="43.5976672574581" lon="11.43870143219325"><ele>276.0</ele><time>2026-05-02T13:13:58.999Z</time></trkpt><trkpt lat="43.59768869308842" lon="11.438601662171095"><ele>276.5</ele><time>2026-05-02T13:13:59.999Z</time></trkpt><trkpt lat="43.597702918020985" lon="11.438507180202116"><ele>277.0</ele><time>2026-05-02T13:14:00.999Z</time></trkpt><trkpt lat="43.59771229976591" lon="11.438415703701466"><ele>277.2857142857143</ele><time>2026-05-02T13:14:01.999Z</time></trkpt><trkpt lat="43.59772831749457" lon="11.43832357465473"><ele>277.57142857142856</ele><time>2026-05-02T13:14:02.999Z</time></trkpt><trkpt lat="43.5977461513196" lon="11.438231051967575"><ele>277.85714285714283</ele><time>2026-05-02T13:14:03.999Z</time></trkpt><trkpt lat="43.59776090897114" lon="11.438146263048411"><ele>278.1428571428571</ele><time>2026-05-02T13:14:04.999Z</time></trkpt><trkpt lat="43.597775411242466" lon="11.438050242833475"><ele>278.42857142857144</ele><time>2026-05-02T13:14:05.999Z</time></trkpt><trkpt lat="43.597789837874956" lon="11.437960804378143"><ele>278.71428571428567</ele><time>2026-05-02T13:14:06.999Z</time></trkpt><trkpt lat="43.59780139588989" lon="11.437858376317887"><ele>279.0</ele><time>2026-05-02T13:14:07.999Z</time></trkpt><trkpt lat="43.59781108094085" lon="11.43776368231397"><ele>279.1666666666667</ele><time>2026-05-02T13:14:08.999Z</time></trkpt><trkpt lat="43.59783471879802" lon="11.437660858981612"><ele>279.3333333333333</ele><time>2026-05-02T13:14:09.999Z</time></trkpt><trkpt lat="43.59784431873618" lon="11.43754941567703"><ele>279.5</ele><time>2026-05-02T13:14:10.999Z</time></trkpt><trkpt lat="43.597851466784824" lon="11.437437005676916"><ele>279.66666666666663</ele><time>2026-05-02T13:14:11.999Z</time></trkpt><trkpt lat="43.59785609938786" lon="11.4373309758716"><ele>279.8333333333333</ele><time>2026-05-02T13:14:12.999Z</time></trkpt><trkpt lat="43.59785958568956" lon="11.437235043231109"><ele>280.0</ele><time>2026-05-02T13:14:13.999Z</time></trkpt><trkpt lat="43.59785925026348" lon="11.437144022313955"><ele>280.3333333333333</ele><time>2026-05-02T13:14:14.999Z</time></trkpt><trkpt lat="43.59785651339789" lon="11.437016362459364"><ele>280.66666666666663</ele><time>2026-05-02T13:14:16.999Z</time></trkpt><trkpt lat="43.5978530299355" lon="11.436905192860314"><ele>281.0</ele><time>2026-05-02T13:14:18.999Z</time></trkpt><trkpt lat="43.597844807520225" lon="11.436783105501222"><ele>281.3333333333333</ele><time>2026-05-02T13:14:20.999Z</time></trkpt><trkpt lat="43.5978289139131" lon="11.436634743443449"><ele>281.6666666666667</ele><time>2026-05-02T13:14:22.999Z</time></trkpt><trkpt lat="43.597823053023674" lon="11.436541480997843"><ele>282.0</ele><time>2026-05-02T13:14:23.999Z</time></trkpt><trkpt lat="43.597816848651284" lon="11.436438377889415"><ele>282.0</ele><time>2026-05-02T13:14:24.999Z</time></trkpt><trkpt lat="43.59781673298783" lon="11.436327439912755"><ele>282.0</ele><time>2026-05-02T13:14:25.999Z</time></trkpt><trkpt lat="43.59782267047307" lon="11.436211843806072"><ele>282.0</ele><time>2026-05-02T13:14:26.999Z</time></trkpt><trkpt lat="43.597833165150796" lon="11.43608972196433"><ele>282.0</ele><time>2026-05-02T13:14:27.999Z</time></trkpt><trkpt lat="43.597847067634916" lon="11.435964323518503"><ele>282.0</ele><time>2026-05-02T13:14:28.999Z</time></trkpt><trkpt lat="43.597862469356386" lon="11.435838575729663"><ele>282.0</ele><time>2026-05-02T13:14:29.999Z</time></trkpt><trkpt lat="43.597879229832834" lon="11.435708290089158"><ele>282.0</ele><time>2026-05-02T13:14:30.999Z</time></trkpt><trkpt lat="43.59789763458228" lon="11.435578566592442"><ele>282.0</ele><time>2026-05-02T13:14:31.999Z</time></trkpt><trkpt lat="43.59791620009668" lon="11.435468533010198"><ele>282.0</ele><time>2026-05-02T13:14:32.999Z</time></trkpt><trkpt lat="43.59793121332574" lon="11.43538037393526"><ele>282.0</ele><time>2026-05-02T13:14:33.999Z</time></trkpt><trkpt lat="43.59794606667881" lon="11.435291658859608"><ele>282.0</ele><time>2026-05-02T13:14:34.999Z</time></trkpt><trkpt lat="43.59795906512645" lon="11.4352060805926"><ele>282.0</ele><time>2026-05-02T13:14:35.999Z</time></trkpt><trkpt lat="43.59798255120499" lon="11.435057577996176"><ele>282.0</ele><time>2026-05-02T13:14:37.999Z</time></trkpt><trkpt lat="43.59800568251931" lon="11.434911703227987"><ele>282.0</ele><time>2026-05-02T13:14:39.999Z</time></trkpt><trkpt lat="43.59803119873741" lon="11.434772360052536"><ele>282.0</ele><time>2026-05-02T13:14:41.999Z</time></trkpt><trkpt lat="43.59806051075956" lon="11.434626204987673"><ele>282.0</ele><time>2026-05-02T13:14:43.999Z</time></trkpt><trkpt lat="43.598091450315984" lon="11.434455314924119"><ele>282.0</ele><time>2026-05-02T13:14:45.999Z</time></trkpt><trkpt lat="43.598127012033835" lon="11.434350178781958"><ele>282.0</ele><time>2026-05-02T13:14:46.999Z</time></trkpt><trkpt lat="43.598149917459494" lon="11.4342264986531"><ele>282.0</ele><time>2026-05-02T13:14:47.999Z</time></trkpt><trkpt lat="43.59817310409289" lon="11.43409735453578"><ele>282.0</ele><time>2026-05-02T13:14:48.999Z</time></trkpt><trkpt lat="43.598197367170464" lon="11.433963632786657"><ele>282.0</ele><time>2026-05-02T13:14:49.999Z</time></trkpt><trkpt lat="43.59822335333269" lon="11.433827029373383"><ele>281.4</ele><time>2026-05-02T13:14:50.999Z</time></trkpt><trkpt lat="43.598235749477496" lon="11.433684149948185"><ele>280.79999999999995</ele><time>2026-05-02T13:14:51.999Z</time></trkpt><trkpt lat="43.598265435204716" lon="11.43354610098632"><ele>280.2</ele><time>2026-05-02T13:14:52.999Z</time></trkpt><trkpt lat="43.59829834300839" lon="11.433399794614468"><ele>279.59999999999997</ele><time>2026-05-02T13:14:53.999Z</time></trkpt><trkpt lat="43.59833223384287" lon="11.433249186548172"><ele>279.0</ele><time>2026-05-02T13:14:54.999Z</time></trkpt><trkpt lat="43.59836392634934" lon="11.433099264404436"><ele>279.2</ele><time>2026-05-02T13:14:55.999Z</time></trkpt><trkpt lat="43.59839405423827" lon="11.432950676141296"><ele>279.4</ele><time>2026-05-02T13:14:56.999Z</time></trkpt><trkpt lat="43.59842167363221" lon="11.432809478936564"><ele>279.6</ele><time>2026-05-02T13:14:57.999Z</time></trkpt><trkpt lat="43.59844916217742" lon="11.43266325138442"><ele>279.8</ele><time>2026-05-02T13:14:58.999Z</time></trkpt><trkpt lat="43.598475743312356" lon="11.43251620357776"><ele>280.0</ele><time>2026-05-02T13:14:59.999Z</time></trkpt><trkpt lat="43.59850554801686" lon="11.432341183992051"><ele>280.0</ele><time>2026-05-02T13:15:00.999Z</time></trkpt><trkpt lat="43.598552815377396" lon="11.432117160391797"><ele>280.0</ele><time>2026-05-02T13:15:01.999Z</time></trkpt><trkpt lat="43.59859164913848" lon="11.431885497293612"><ele>280.0</ele><time>2026-05-02T13:15:02.999Z</time></trkpt><trkpt lat="43.59862625726602" lon="11.431710820893393"><ele>280.0</ele><time>2026-05-02T13:15:03.999Z</time></trkpt><trkpt lat="43.598651546860836" lon="11.431554916607848"><ele>280.0</ele><time>2026-05-02T13:15:04.999Z</time></trkpt><trkpt lat="43.59867562541957" lon="11.431407744962895"><ele>280.0</ele><time>2026-05-02T13:15:05.999Z</time></trkpt><trkpt lat="43.598704244041485" lon="11.431245984799"><ele>280.0</ele><time>2026-05-02T13:15:06.999Z</time></trkpt><trkpt lat="43.5987365029266" lon="11.43109086290998"><ele>282.25</ele><time>2026-05-02T13:15:07.999Z</time></trkpt><trkpt lat="43.598767455036956" lon="11.430948747502647"><ele>284.5</ele><time>2026-05-02T13:15:08.999Z</time></trkpt><trkpt lat="43.59879878357149" lon="11.430797612424248"><ele>286.75</ele><time>2026-05-02T13:15:09.999Z</time></trkpt><trkpt lat="43.5988362970738" lon="11.430646019600415"><ele>289.0</ele><time>2026-05-02T13:15:10.999Z</time></trkpt><trkpt lat="43.59888200049793" lon="11.43049053880591"><ele>289.25</ele><time>2026-05-02T13:15:11.999Z</time></trkpt><trkpt lat="43.598931774733416" lon="11.430331434283046"><ele>289.5</ele><time>2026-05-02T13:15:12.999Z</time></trkpt><trkpt lat="43.59897363921944" lon="11.430169244861498"><ele>289.75</ele><time>2026-05-02T13:15:13.999Z</time></trkpt><trkpt lat="43.59901740204906" lon="11.430017510569606"><ele>290.0</ele><time>2026-05-02T13:15:14.999Z</time></trkpt><trkpt lat="43.599063634427104" lon="11.429878136216676"><ele>290.0</ele><time>2026-05-02T13:15:15.999Z</time></trkpt><trkpt lat="43.599106972813736" lon="11.429733971339285"><ele>290.0</ele><time>2026-05-02T13:15:16.999Z</time></trkpt><trkpt lat="43.599144072886844" lon="11.429589717338287"><ele>290.0</ele><time>2026-05-02T13:15:17.999Z</time></trkpt><trkpt lat="43.59918304108783" lon="11.429442832705112"><ele>290.0</ele><time>2026-05-02T13:15:18.999Z</time></trkpt><trkpt lat="43.59922567728033" lon="11.429290008845518"><ele>289.75</ele><time>2026-05-02T13:15:19.999Z</time></trkpt><trkpt lat="43.59926544362367" lon="11.429135130848186"><ele>289.5</ele><time>2026-05-02T13:15:20.999Z</time></trkpt><trkpt lat="43.599295322562455" lon="11.428966860344932"><ele>289.25</ele><time>2026-05-02T13:15:21.999Z</time></trkpt><trkpt lat="43.59931172136317" lon="11.428797016368804"><ele>289.0</ele><time>2026-05-02T13:15:22.999Z</time></trkpt><trkpt lat="43.59932080248416" lon="11.428623138523955"><ele>288.75</ele><time>2026-05-02T13:15:23.999Z</time></trkpt><trkpt lat="43.599307032138256" lon="11.428440154299356"><ele>288.5</ele><time>2026-05-02T13:15:24.999Z</time></trkpt><trkpt lat="43.5992936297626" lon="11.428251587048054"><ele>288.25</ele><time>2026-05-02T13:15:25.999Z</time></trkpt><trkpt lat="43.59928498216771" lon="11.42806984225142"><ele>288.0</ele><time>2026-05-02T13:15:26.999Z</time></trkpt><trkpt lat="43.59927080683263" lon="11.42788524667015"><ele>287.6</ele><time>2026-05-02T13:15:27.999Z</time></trkpt><trkpt lat="43.59926720899589" lon="11.427723572568151"><ele>287.20000000000005</ele><time>2026-05-02T13:15:28.999Z</time></trkpt><trkpt lat="43.5992560841092" lon="11.427576333084767"><ele>286.8</ele><time>2026-05-02T13:15:29.999Z</time></trkpt><trkpt lat="43.599252975710165" lon="11.427430220752996"><ele>286.40000000000003</ele><time>2026-05-02T13:15:30.999Z</time></trkpt><trkpt lat="43.599246413883456" lon="11.427269880632341"><ele>286.0</ele><time>2026-05-02T13:15:31.999Z</time></trkpt><trkpt lat="43.5992717702259" lon="11.427116892387124"><ele>285.5</ele><time>2026-05-02T13:15:32.999Z</time></trkpt><trkpt lat="43.59928456267797" lon="11.426956479222582"><ele>285.0</ele><time>2026-05-02T13:15:33.999Z</time></trkpt><trkpt lat="43.59929216729157" lon="11.426792223010374"><ele>284.5</ele><time>2026-05-02T13:15:34.999Z</time></trkpt><trkpt lat="43.59931954028852" lon="11.426635550135499"><ele>284.0</ele><time>2026-05-02T13:15:35.999Z</time></trkpt><trkpt lat="43.59934557717675" lon="11.426466898944518"><ele>283.0</ele><time>2026-05-02T13:15:36.999Z</time></trkpt><trkpt lat="43.599376428612125" lon="11.426300517975495"><ele>282.0</ele><time>2026-05-02T13:15:37.999Z</time></trkpt><trkpt lat="43.59940704674643" lon="11.426131104268974"><ele>281.0</ele><time>2026-05-02T13:15:38.999Z</time></trkpt><trkpt lat="43.59943353287882" lon="11.425966319467063"><ele>280.0</ele><time>2026-05-02T13:15:39.999Z</time></trkpt><trkpt lat="43.599457809535856" lon="11.425799494889965"><ele>280.0</ele><time>2026-05-02T13:15:40.999Z</time></trkpt><trkpt lat="43.59948200833147" lon="11.425634412468215"><ele>280.0</ele><time>2026-05-02T13:15:41.999Z</time></trkpt><trkpt lat="43.59949980915139" lon="11.425464608906452"><ele>280.0</ele><time>2026-05-02T13:15:42.999Z</time></trkpt><trkpt lat="43.59950369892391" lon="11.425295507137886"><ele>280.0</ele><time>2026-05-02T13:15:44Z</time></trkpt><trkpt lat="43.599484922816664" lon="11.425116882534743"><ele>280.3333333333333</ele><time>2026-05-02T13:15:45Z</time></trkpt><trkpt lat="43.599466319873564" lon="11.424920679300591"><ele>280.6666666666667</ele><time>2026-05-02T13:15:46Z</time></trkpt><trkpt lat="43.599439343174836" lon="11.424671480674592"><ele>281.0</ele><time>2026-05-02T13:15:47Z</time></trkpt><trkpt lat="43.59941406216314" lon="11.424459831266184"><ele>282.2</ele><time>2026-05-02T13:15:48Z</time></trkpt><trkpt lat="43.59939649924049" lon="11.424283718145583"><ele>283.40000000000003</ele><time>2026-05-02T13:15:49Z</time></trkpt><trkpt lat="43.59938231819387" lon="11.424134422731635"><ele>284.6</ele><time>2026-05-02T13:15:50Z</time></trkpt><trkpt lat="43.59939388593334" lon="11.42400293395053"><ele>285.8</ele><time>2026-05-02T13:15:51Z</time></trkpt><trkpt lat="43.599406872466986" lon="11.423864335454875"><ele>287.0</ele><time>2026-05-02T13:15:52Z</time></trkpt><trkpt lat="43.599448525656726" lon="11.423738503215732"><ele>287.0</ele><time>2026-05-02T13:15:53Z</time></trkpt><trkpt lat="43.599482841504454" lon="11.423607764990145"><ele>287.0</ele><time>2026-05-02T13:15:54Z</time></trkpt><trkpt lat="43.599519272181574" lon="11.423467284828243"><ele>287.0</ele><time>2026-05-02T13:15:55Z</time></trkpt><trkpt lat="43.59954186604004" lon="11.423314243237932"><ele>287.0</ele><time>2026-05-02T13:15:56Z</time></trkpt><trkpt lat="43.599592305615936" lon="11.42316326861448"><ele>287.0</ele><time>2026-05-02T13:15:57Z</time></trkpt><trkpt lat="43.59963333654575" lon="11.423001581518715"><ele>287.5</ele><time>2026-05-02T13:15:58Z</time></trkpt><trkpt lat="43.599672348894885" lon="11.422840512302901"><ele>288.0</ele><time>2026-05-02T13:15:59Z</time></trkpt><trkpt lat="43.59971245877694" lon="11.422677292839303"><ele>288.5</ele><time>2026-05-02T13:16:00Z</time></trkpt><trkpt lat="43.59975154246733" lon="11.422517609969098"><ele>289.0</ele><time>2026-05-02T13:16:01Z</time></trkpt><trkpt lat="43.59979366491991" lon="11.42235802724154"><ele>289.0</ele><time>2026-05-02T13:16:02Z</time></trkpt><trkpt lat="43.59983330716521" lon="11.422198747019701"><ele>289.0</ele><time>2026-05-02T13:16:03Z</time></trkpt><trkpt lat="43.59986406813238" lon="11.422050727033882"><ele>289.0</ele><time>2026-05-02T13:16:04Z</time></trkpt><trkpt lat="43.59989822434983" lon="11.421898134623133"><ele>289.0</ele><time>2026-05-02T13:16:05Z</time></trkpt><trkpt lat="43.59995348654872" lon="11.421740668014333"><ele>289.5</ele><time>2026-05-02T13:16:06Z</time></trkpt><trkpt lat="43.599993823727814" lon="11.421584277887023"><ele>290.0</ele><time>2026-05-02T13:16:07Z</time></trkpt><trkpt lat="43.600020859779264" lon="11.421429521476984"><ele>290.5</ele><time>2026-05-02T13:16:08Z</time></trkpt><trkpt lat="43.60006649018202" lon="11.421279126431708"><ele>291.0</ele><time>2026-05-02T13:16:09Z</time></trkpt><trkpt lat="43.60009854089485" lon="11.421120037502432"><ele>291.25</ele><time>2026-05-02T13:16:10Z</time></trkpt><trkpt lat="43.60014338969084" lon="11.420961762362603"><ele>291.5</ele><time>2026-05-02T13:16:11Z</time></trkpt><trkpt lat="43.6001805204466" lon="11.420819058124922"><ele>291.75</ele><time>2026-05-02T13:16:12Z</time></trkpt><trkpt lat="43.600221477445665" lon="11.420675903580666"><ele>292.0</ele><time>2026-05-02T13:16:13Z</time></trkpt><trkpt lat="43.60025358313764" lon="11.420534357323634"><ele>291.6</ele><time>2026-05-02T13:16:14Z</time></trkpt><trkpt lat="43.60028320754473" lon="11.420391393511101"><ele>291.2</ele><time>2026-05-02T13:16:15Z</time></trkpt><trkpt lat="43.60033054805375" lon="11.420263096343675"><ele>290.8</ele><time>2026-05-02T13:16:16Z</time></trkpt><trkpt lat="43.6003636737867" lon="11.420131658509135"><ele>290.4</ele><time>2026-05-02T13:16:17Z</time></trkpt><trkpt lat="43.60039279524982" lon="11.419996523931482"><ele>290.0</ele><time>2026-05-02T13:16:18Z</time></trkpt><trkpt lat="43.6004251903036" lon="11.419867864893995"><ele>291.83333333333337</ele><time>2026-05-02T13:16:19Z</time></trkpt><trkpt lat="43.60045616249295" lon="11.419752910579062"><ele>293.6666666666667</ele><time>2026-05-02T13:16:20Z</time></trkpt><trkpt lat="43.60048219991161" lon="11.419650662680484"><ele>295.5</ele><time>2026-05-02T13:16:21Z</time></trkpt><trkpt lat="43.600502305475416" lon="11.419567294009205"><ele>297.3333333333333</ele><time>2026-05-02T13:16:22Z</time></trkpt><trkpt lat="43.600547889913095" lon="11.419475592445911"><ele>299.16666666666663</ele><time>2026-05-02T13:16:24Z</time></trkpt><trkpt lat="43.600656600000605" lon="11.419508477962813"><ele>301.0</ele><time>2026-05-02T13:16:26Z</time></trkpt><trkpt lat="43.60075967639107" lon="11.419529443080462"><ele>301.0</ele><time>2026-05-02T13:16:27Z</time></trkpt><trkpt lat="43.60086059307796" lon="11.419577641133985"><ele>301.0</ele><time>2026-05-02T13:16:28Z</time></trkpt><trkpt lat="43.600984971197455" lon="11.419598275831358"><ele>301.0</ele><time>2026-05-02T13:16:29Z</time></trkpt><trkpt lat="43.60106625324473" lon="11.41961647592857"><ele>301.0</ele><time>2026-05-02T13:16:30Z</time></trkpt><trkpt lat="43.60113023001345" lon="11.419635775263146"><ele>301.0</ele><time>2026-05-02T13:16:31Z</time></trkpt><trkpt lat="43.60123317551165" lon="11.41959070459835"><ele>302.2</ele><time>2026-05-02T13:16:33Z</time></trkpt><trkpt lat="43.60125356664067" lon="11.419435351617853"><ele>303.40000000000003</ele><time>2026-05-02T13:16:34Z</time></trkpt><trkpt lat="43.60127755615271" lon="11.419305874033796"><ele>304.6</ele><time>2026-05-02T13:16:35Z</time></trkpt><trkpt lat="43.601313419307324" lon="11.419157582467397"><ele>305.8</ele><time>2026-05-02T13:16:36Z</time></trkpt><trkpt lat="43.60137011888654" lon="11.419016599971611"><ele>307.0</ele><time>2026-05-02T13:16:37Z</time></trkpt><trkpt lat="43.60140884118186" lon="11.418905692411164"><ele>306.6</ele><time>2026-05-02T13:16:38Z</time></trkpt><trkpt lat="43.60144274631017" lon="11.418809513153624"><ele>306.2</ele><time>2026-05-02T13:16:39Z</time></trkpt><trkpt lat="43.60149765457385" lon="11.41872724787189"><ele>305.8</ele><time>2026-05-02T13:16:40Z</time></trkpt><trkpt lat="43.60156223168427" lon="11.418616029487701"><ele>305.4</ele><time>2026-05-02T13:16:41Z</time></trkpt><trkpt lat="43.60164235800638" lon="11.418473365393845"><ele>305.0</ele><time>2026-05-02T13:16:42Z</time></trkpt><trkpt lat="43.601731262892116" lon="11.41835484627541"><ele>305.0</ele><time>2026-05-02T13:16:43Z</time></trkpt><trkpt lat="43.601814835699685" lon="11.418212597801872"><ele>305.0</ele><time>2026-05-02T13:16:44Z</time></trkpt><trkpt lat="43.60188345273359" lon="11.418096066908227"><ele>305.0</ele><time>2026-05-02T13:16:45Z</time></trkpt><trkpt lat="43.6019434731009" lon="11.417976904985819"><ele>305.0</ele><time>2026-05-02T13:16:46Z</time></trkpt><trkpt lat="43.60198882703041" lon="11.417841874388703"><ele>304.8</ele><time>2026-05-02T13:16:47Z</time></trkpt><trkpt lat="43.60201600439051" lon="11.417713587411482"><ele>304.6</ele><time>2026-05-02T13:16:48Z</time></trkpt><trkpt lat="43.60204784270633" lon="11.417608191921198"><ele>304.4</ele><time>2026-05-02T13:16:49Z</time></trkpt><trkpt lat="43.602069566271545" lon="11.41751916097164"><ele>304.2</ele><time>2026-05-02T13:16:50Z</time></trkpt><trkpt lat="43.60209543483722" lon="11.417412968021731"><ele>304.0</ele><time>2026-05-02T13:17:00Z</time></trkpt><trkpt lat="43.6019592997134" lon="11.417295984929295"><ele>303.59999999999997</ele><time>2026-05-02T13:17:01Z</time></trkpt><trkpt lat="43.60189443475557" lon="11.417222494335837"><ele>303.2</ele><time>2026-05-02T13:17:02Z</time></trkpt><trkpt lat="43.60184259190226" lon="11.417118568628931"><ele>302.79999999999995</ele><time>2026-05-02T13:17:03Z</time></trkpt><trkpt lat="43.60181048331161" lon="11.416989154356076"><ele>302.4</ele><time>2026-05-02T13:17:04Z</time></trkpt><trkpt lat="43.60182254765882" lon="11.416835657100217"><ele>302.0</ele><time>2026-05-02T13:17:05Z</time></trkpt><trkpt lat="43.601838392971516" lon="11.416672795910829"><ele>303.0</ele><time>2026-05-02T13:17:06Z</time></trkpt><trkpt lat="43.601842322466545" lon="11.416493522811157"><ele>304.0</ele><time>2026-05-02T13:17:07Z</time></trkpt><trkpt lat="43.601864273129394" lon="11.416299601611296"><ele>305.0</ele><time>2026-05-02T13:17:08Z</time></trkpt><trkpt lat="43.601889238293374" lon="11.416093796381304"><ele>306.0</ele><time>2026-05-02T13:17:09Z</time></trkpt><trkpt lat="43.601911790100694" lon="11.415883606961705"><ele>306.25</ele><time>2026-05-02T13:17:10Z</time></trkpt><trkpt lat="43.60193077925731" lon="11.415696413449952"><ele>306.5</ele><time>2026-05-02T13:17:11Z</time></trkpt><trkpt lat="43.60194725503435" lon="11.415523986832126"><ele>306.75</ele><time>2026-05-02T13:17:12Z</time></trkpt><trkpt lat="43.60196345259677" lon="11.415357287623504"><ele>307.0</ele><time>2026-05-02T13:17:13Z</time></trkpt><trkpt lat="43.60198001980946" lon="11.415194664019024"><ele>306.6</ele><time>2026-05-02T13:17:14Z</time></trkpt><trkpt lat="43.6019978577626" lon="11.415038367160417"><ele>306.2</ele><time>2026-05-02T13:17:15Z</time></trkpt><trkpt lat="43.602011320082894" lon="11.414884307264982"><ele>305.8</ele><time>2026-05-02T13:17:16Z</time></trkpt><trkpt lat="43.60201953366002" lon="11.414733079806947"><ele>305.4</ele><time>2026-05-02T13:17:17Z</time></trkpt><trkpt lat="43.60200935344579" lon="11.414579335169838"><ele>305.0</ele><time>2026-05-02T13:17:18Z</time></trkpt><trkpt lat="43.60199204749391" lon="11.41441430688307"><ele>303.5</ele><time>2026-05-02T13:17:19Z</time></trkpt><trkpt lat="43.60197153367484" lon="11.414243917948385"><ele>302.0</ele><time>2026-05-02T13:17:20Z</time></trkpt><trkpt lat="43.60194847201914" lon="11.41407760988788"><ele>300.5</ele><time>2026-05-02T13:17:21Z</time></trkpt><trkpt lat="43.60192902004011" lon="11.413918885415553"><ele>299.0</ele><time>2026-05-02T13:17:22Z</time></trkpt><trkpt lat="43.601911816583964" lon="11.41376880752177"><ele>298.2</ele><time>2026-05-02T13:17:23Z</time></trkpt><trkpt lat="43.6019224424327" lon="11.413620832334715"><ele>297.4</ele><time>2026-05-02T13:17:24Z</time></trkpt><trkpt lat="43.601940682932984" lon="11.41347189526006"><ele>296.6</ele><time>2026-05-02T13:17:25Z</time></trkpt><trkpt lat="43.60196042374628" lon="11.413332551779076"><ele>295.8</ele><time>2026-05-02T13:17:26Z</time></trkpt><trkpt lat="43.60199209522313" lon="11.413200709637657"><ele>295.0</ele><time>2026-05-02T13:17:27Z</time></trkpt><trkpt lat="43.60197738031369" lon="11.413067643032985"><ele>295.5</ele><time>2026-05-02T13:17:28Z</time></trkpt><trkpt lat="43.60192687518955" lon="11.412936477944015"><ele>296.0</ele><time>2026-05-02T13:17:29Z</time></trkpt><trkpt lat="43.60184205679072" lon="11.412825458503825"><ele>296.5</ele><time>2026-05-02T13:17:30Z</time></trkpt><trkpt lat="43.601727572036374" lon="11.41276271782398"><ele>297.0</ele><time>2026-05-02T13:17:31Z</time></trkpt><trkpt lat="43.60160991350638" lon="11.41276418296664"><ele>297.0</ele><time>2026-05-02T13:17:32Z</time></trkpt><trkpt lat="43.6015096707854" lon="11.412778504237284"><ele>297.0</ele><time>2026-05-02T13:17:33Z</time></trkpt><trkpt lat="43.601425139024094" lon="11.412781867714877"><ele>297.0</ele><time>2026-05-02T13:17:34Z</time></trkpt><trkpt lat="43.6013644557283" lon="11.4127429363667"><ele>297.0</ele><time>2026-05-02T13:17:35Z</time></trkpt><trkpt lat="43.601357065442606" lon="11.41262701450743"><ele>297.0</ele><time>2026-05-02T13:17:36Z</time></trkpt><trkpt lat="43.601350477990344" lon="11.412487022256322"><ele>297.0</ele><time>2026-05-02T13:17:37Z</time></trkpt><trkpt lat="43.601379454281734" lon="11.41232856125309"><ele>297.0</ele><time>2026-05-02T13:17:38Z</time></trkpt><trkpt lat="43.601410051497766" lon="11.412162169172296"><ele>297.0</ele><time>2026-05-02T13:17:39Z</time></trkpt><trkpt lat="43.60142891325886" lon="11.412026390433976"><ele>297.0</ele><time>2026-05-02T13:17:40Z</time></trkpt><trkpt lat="43.6013975732964" lon="11.411907335246667"><ele>297.0</ele><time>2026-05-02T13:17:41Z</time></trkpt><trkpt lat="43.60136824554003" lon="11.411817861575328"><ele>297.0</ele><time>2026-05-02T13:17:42Z</time></trkpt><trkpt lat="43.601318256484774" lon="11.411756642411037"><ele>297.2</ele><time>2026-05-02T13:17:43Z</time></trkpt><trkpt lat="43.60120298825837" lon="11.411780084421707"><ele>297.4</ele><time>2026-05-02T13:17:44Z</time></trkpt><trkpt lat="43.601104588690546" lon="11.411847084235893"><ele>297.6</ele><time>2026-05-02T13:17:45Z</time></trkpt><trkpt lat="43.60100618927373" lon="11.411932046106351"><ele>297.8</ele><time>2026-05-02T13:17:46Z</time></trkpt><trkpt lat="43.60091457403938" lon="11.411986798914109"><ele>298.0</ele><time>2026-05-02T13:17:47Z</time></trkpt><trkpt lat="43.60083007529642" lon="11.412029039545315"><ele>298.0</ele><time>2026-05-02T13:17:48Z</time></trkpt><trkpt lat="43.60075186173025" lon="11.412063723582909"><ele>298.0</ele><time>2026-05-02T13:17:49Z</time></trkpt><trkpt lat="43.60067733490446" lon="11.412060701720781"><ele>298.0</ele><time>2026-05-02T13:17:50Z</time></trkpt><trkpt lat="43.60059534424687" lon="11.412009195832148"><ele>298.0</ele><time>2026-05-02T13:17:51Z</time></trkpt><trkpt lat="43.6005437229875" lon="11.41187402809018"><ele>298.0</ele><time>2026-05-02T13:17:52Z</time></trkpt><trkpt lat="43.600494770794846" lon="11.411727757820143"><ele>298.0</ele><time>2026-05-02T13:17:53Z</time></trkpt><trkpt lat="43.600482969835966" lon="11.41157595366158"><ele>298.0</ele><time>2026-05-02T13:17:54Z</time></trkpt><trkpt lat="43.600495101519755" lon="11.411408923664082"><ele>298.0</ele><time>2026-05-02T13:17:55Z</time></trkpt><trkpt lat="43.60052631019672" lon="11.411230853054079"><ele>298.0</ele><time>2026-05-02T13:17:56Z</time></trkpt><trkpt lat="43.60059517908509" lon="11.411076156420723"><ele>300.0</ele><time>2026-05-02T13:17:57Z</time></trkpt><trkpt lat="43.60065381463938" lon="11.410917291938226"><ele>302.0</ele><time>2026-05-02T13:17:58Z</time></trkpt><trkpt lat="43.600689996296325" lon="11.410740300242404"><ele>304.0</ele><time>2026-05-02T13:17:59Z</time></trkpt><trkpt lat="43.6007280831319" lon="11.410544215710567"><ele>306.0</ele><time>2026-05-02T13:18:00Z</time></trkpt><trkpt lat="43.60076076661853" lon="11.410336327030908"><ele>307.3333333333333</ele><time>2026-05-02T13:18:01Z</time></trkpt><trkpt lat="43.600790074870254" lon="11.410128637864851"><ele>308.66666666666663</ele><time>2026-05-02T13:18:02Z</time></trkpt><trkpt lat="43.600791353759554" lon="11.409914133640726"><ele>310.0</ele><time>2026-05-02T13:18:03Z</time></trkpt><trkpt lat="43.60074914671131" lon="11.40969418451801"><ele>312.3333333333333</ele><time>2026-05-02T13:18:04Z</time></trkpt><trkpt lat="43.60066602582941" lon="11.409476250975306"><ele>314.6666666666667</ele><time>2026-05-02T13:18:05Z</time></trkpt><trkpt lat="43.600571225158745" lon="11.409275336596231"><ele>317.0</ele><time>2026-05-02T13:18:06Z</time></trkpt><trkpt lat="43.60048482543174" lon="11.409097312178751"><ele>317.0</ele><time>2026-05-02T13:18:07Z</time></trkpt><trkpt lat="43.6004171635304" lon="11.408939289634016"><ele>317.0</ele><time>2026-05-02T13:18:08Z</time></trkpt><trkpt lat="43.60036283202953" lon="11.408783975676572"><ele>317.0</ele><time>2026-05-02T13:18:09Z</time></trkpt><trkpt lat="43.60034881908012" lon="11.40862201060679"><ele>317.0</ele><time>2026-05-02T13:18:10Z</time></trkpt><trkpt lat="43.600350770553405" lon="11.408486307337464"><ele>315.75</ele><time>2026-05-02T13:18:11Z</time></trkpt><trkpt lat="43.60035949362095" lon="11.408344776245286"><ele>314.5</ele><time>2026-05-02T13:18:12Z</time></trkpt><trkpt lat="43.60048840161055" lon="11.408268395659803"><ele>313.25</ele><time>2026-05-02T13:18:13Z</time></trkpt><trkpt lat="43.600629928550575" lon="11.40821385286342"><ele>312.0</ele><time>2026-05-02T13:18:14Z</time></trkpt><trkpt lat="43.60078490371494" lon="11.408139323878517"><ele>312.0</ele><time>2026-05-02T13:18:15Z</time></trkpt><trkpt lat="43.60090904244366" lon="11.408055165156446"><ele>312.0</ele><time>2026-05-02T13:18:16Z</time></trkpt><trkpt lat="43.60101677257391" lon="11.40794053733601"><ele>312.0</ele><time>2026-05-02T13:18:17Z</time></trkpt><trkpt lat="43.60108896739055" lon="11.407760227181615"><ele>312.0</ele><time>2026-05-02T13:18:18Z</time></trkpt><trkpt lat="43.60109189629127" lon="11.407526692883149"><ele>312.3333333333333</ele><time>2026-05-02T13:18:19Z</time></trkpt><trkpt lat="43.60104069708297" lon="11.407272509842416"><ele>312.66666666666663</ele><time>2026-05-02T13:18:20Z</time></trkpt><trkpt lat="43.60096958108669" lon="11.407007217071646"><ele>313.0</ele><time>2026-05-02T13:18:21Z</time></trkpt><trkpt lat="43.600888855222216" lon="11.406733387680818"><ele>313.0</ele><time>2026-05-02T13:18:22Z</time></trkpt><trkpt lat="43.60080354603002" lon="11.406473075946993"><ele>313.0</ele><time>2026-05-02T13:18:23Z</time></trkpt><trkpt lat="43.60071990121451" lon="11.406249935475616"><ele>313.0</ele><time>2026-05-02T13:18:24Z</time></trkpt><trkpt lat="43.60063269271307" lon="11.406060831691294"><ele>312.0</ele><time>2026-05-02T13:18:25Z</time></trkpt><trkpt lat="43.600511030174765" lon="11.405893081042748"><ele>311.0</ele><time>2026-05-02T13:18:26Z</time></trkpt><trkpt lat="43.600355745692404" lon="11.40575179797068"><ele>310.0</ele><time>2026-05-02T13:18:27Z</time></trkpt><trkpt lat="43.60017415169207" lon="11.40564903119383"><ele>310.0</ele><time>2026-05-02T13:18:28Z</time></trkpt><trkpt lat="43.599998317014034" lon="11.405543577169915"><ele>310.0</ele><time>2026-05-02T13:18:29Z</time></trkpt><trkpt lat="43.599851074568086" lon="11.40539716636563"><ele>310.0</ele><time>2026-05-02T13:18:30Z</time></trkpt><trkpt lat="43.599739925271265" lon="11.405183407599122"><ele>310.0</ele><time>2026-05-02T13:18:31Z</time></trkpt><trkpt lat="43.599615603263146" lon="11.404956773227257"><ele>310.0</ele><time>2026-05-02T13:18:32Z</time></trkpt><trkpt lat="43.59947161861037" lon="11.40473037126398"><ele>310.0</ele><time>2026-05-02T13:18:33Z</time></trkpt><trkpt lat="43.599346201387476" lon="11.404491039793644"><ele>310.0</ele><time>2026-05-02T13:18:34Z</time></trkpt><trkpt lat="43.599234321485284" lon="11.404298375993193"><ele>310.0</ele><time>2026-05-02T13:18:35Z</time></trkpt><trkpt lat="43.5991593623502" lon="11.40412663359206"><ele>310.0</ele><time>2026-05-02T13:18:36Z</time></trkpt><trkpt lat="43.59909760135547" lon="11.403998326347724"><ele>310.0</ele><time>2026-05-02T13:18:37Z</time></trkpt><trkpt lat="43.59906930094704" lon="11.403876226607709"><ele>311.0</ele><time>2026-05-02T13:18:38Z</time></trkpt><trkpt lat="43.59909248129762" lon="11.403760120555821"><ele>312.0</ele><time>2026-05-02T13:18:39Z</time></trkpt><trkpt lat="43.599168210134245" lon="11.403670260171301"><ele>313.0</ele><time>2026-05-02T13:18:40Z</time></trkpt><trkpt lat="43.599282774657645" lon="11.403605724177966"><ele>314.0</ele><time>2026-05-02T13:18:41Z</time></trkpt><trkpt lat="43.59943083761289" lon="11.403476502321261"><ele>316.6666666666667</ele><time>2026-05-02T13:18:42Z</time></trkpt><trkpt lat="43.59959984121231" lon="11.403326850875303"><ele>319.3333333333333</ele><time>2026-05-02T13:18:43Z</time></trkpt><trkpt lat="43.59978143278034" lon="11.403141053988461"><ele>322.0</ele><time>2026-05-02T13:18:44Z</time></trkpt><trkpt lat="43.59997576258626" lon="11.402971584959449"><ele>322.0</ele><time>2026-05-02T13:18:45Z</time></trkpt><trkpt lat="43.60013651998201" lon="11.402835271344465"><ele>322.0</ele><time>2026-05-02T13:18:46Z</time></trkpt><trkpt lat="43.60027723330479" lon="11.402714836035166"><ele>322.0</ele><time>2026-05-02T13:18:47Z</time></trkpt><trkpt lat="43.6003960454156" lon="11.40258688941557"><ele>321.66666666666663</ele><time>2026-05-02T13:18:48Z</time></trkpt><trkpt lat="43.60050245128737" lon="11.4024346795231"><ele>321.3333333333333</ele><time>2026-05-02T13:18:49Z</time></trkpt><trkpt lat="43.600573715479676" lon="11.402213921952212"><ele>321.0</ele><time>2026-05-02T13:18:50Z</time></trkpt><trkpt lat="43.6006108726054" lon="11.401950689131462"><ele>321.0</ele><time>2026-05-02T13:18:51Z</time></trkpt><trkpt lat="43.6006375152856" lon="11.401658397344546"><ele>321.0</ele><time>2026-05-02T13:18:52Z</time></trkpt><trkpt lat="43.60067140958244" lon="11.401358287824499"><ele>321.0</ele><time>2026-05-02T13:18:53Z</time></trkpt><trkpt lat="43.60071493449145" lon="11.401052086427093"><ele>320.3333333333333</ele><time>2026-05-02T13:18:54Z</time></trkpt><trkpt lat="43.60075478794613" lon="11.400744013382276"><ele>319.66666666666663</ele><time>2026-05-02T13:18:55Z</time></trkpt><trkpt lat="43.60079474163205" lon="11.40045917315873"><ele>319.0</ele><time>2026-05-02T13:18:56Z</time></trkpt><trkpt lat="43.60083375982199" lon="11.400198880046084"><ele>319.0</ele><time>2026-05-02T13:18:57Z</time></trkpt><trkpt lat="43.60086729368685" lon="11.399965321347043"><ele>319.0</ele><time>2026-05-02T13:18:58Z</time></trkpt><trkpt lat="43.60089167096587" lon="11.39974909832401"><ele>319.0</ele><time>2026-05-02T13:18:59Z</time></trkpt><trkpt lat="43.60090980254891" lon="11.399551001003642"><ele>320.3333333333333</ele><time>2026-05-02T13:19:00Z</time></trkpt><trkpt lat="43.600895668889926" lon="11.399340169575467"><ele>321.6666666666667</ele><time>2026-05-02T13:19:01Z</time></trkpt><trkpt lat="43.600835470271136" lon="11.399112470691072"><ele>323.0</ele><time>2026-05-02T13:19:02Z</time></trkpt><trkpt lat="43.60073537126572" lon="11.398892157146552"><ele>322.6666666666667</ele><time>2026-05-02T13:19:03Z</time></trkpt><trkpt lat="43.60061236629841" lon="11.398670091382266"><ele>322.3333333333333</ele><time>2026-05-02T13:19:04Z</time></trkpt><trkpt lat="43.60048185351897" lon="11.398438556679002"><ele>322.0</ele><time>2026-05-02T13:19:05Z</time></trkpt><trkpt lat="43.600326199847814" lon="11.398209595018619"><ele>326.5</ele><time>2026-05-02T13:19:06Z</time></trkpt><trkpt lat="43.600161542924596" lon="11.397987856442553"><ele>331.0</ele><time>2026-05-02T13:19:07Z</time></trkpt><trkpt lat="43.59998337480582" lon="11.397787313431087"><ele>331.0</ele><time>2026-05-02T13:19:08Z</time></trkpt><trkpt lat="43.59981397134838" lon="11.397596896514905"><ele>331.0</ele><time>2026-05-02T13:19:09Z</time></trkpt><trkpt lat="43.599656262070496" lon="11.39743543729827"><ele>331.0</ele><time>2026-05-02T13:19:10Z</time></trkpt><trkpt lat="43.59948632912194" lon="11.397293310203343"><ele>329.3333333333333</ele><time>2026-05-02T13:19:11Z</time></trkpt><trkpt lat="43.599310758247036" lon="11.397172113201488"><ele>327.6666666666667</ele><time>2026-05-02T13:19:12Z</time></trkpt><trkpt lat="43.59912925119033" lon="11.397045145777073"><ele>326.0</ele><time>2026-05-02T13:19:13Z</time></trkpt><trkpt lat="43.59895492802115" lon="11.396891880820595"><ele>326.0</ele><time>2026-05-02T13:19:14Z</time></trkpt><trkpt lat="43.598822546553635" lon="11.396667028095615"><ele>326.0</ele><time>2026-05-02T13:19:15Z</time></trkpt><trkpt lat="43.5986818061109" lon="11.39642851874693"><ele>326.0</ele><time>2026-05-02T13:19:16Z</time></trkpt><trkpt lat="43.59852418517189" lon="11.396162463519856"><ele>324.5</ele><time>2026-05-02T13:19:17Z</time></trkpt><trkpt lat="43.59836443406643" lon="11.395892812737888"><ele>323.0</ele><time>2026-05-02T13:19:18Z</time></trkpt><trkpt lat="43.598236795756115" lon="11.395654523867043"><ele>324.6666666666667</ele><time>2026-05-02T13:19:19Z</time></trkpt><trkpt lat="43.59813660726543" lon="11.39542676853903"><ele>326.3333333333333</ele><time>2026-05-02T13:19:20Z</time></trkpt><trkpt lat="43.5980657249617" lon="11.395183806178622"><ele>328.0</ele><time>2026-05-02T13:19:21Z</time></trkpt><trkpt lat="43.598014489567554" lon="11.3949261268651"><ele>328.0</ele><time>2026-05-02T13:19:22Z</time></trkpt><trkpt lat="43.59799422315277" lon="11.394677573845039"><ele>328.0</ele><time>2026-05-02T13:19:23Z</time></trkpt><trkpt lat="43.59797857266016" lon="11.39444750782563"><ele>328.0</ele><time>2026-05-02T13:19:24Z</time></trkpt><trkpt lat="43.59795372843638" lon="11.394225787161536"><ele>328.0</ele><time>2026-05-02T13:19:25Z</time></trkpt><trkpt lat="43.597912725063644" lon="11.3940099724052"><ele>328.0</ele><time>2026-05-02T13:19:26Z</time></trkpt><trkpt lat="43.59784081585645" lon="11.393806775247556"><ele>328.0</ele><time>2026-05-02T13:19:27Z</time></trkpt><trkpt lat="43.597722514274295" lon="11.393633271525411"><ele>329.3333333333333</ele><time>2026-05-02T13:19:28Z</time></trkpt><trkpt lat="43.59754995958396" lon="11.393497993263779"><ele>330.6666666666667</ele><time>2026-05-02T13:19:29Z</time></trkpt><trkpt lat="43.59733524941358" lon="11.393377866253227"><ele>332.0</ele><time>2026-05-02T13:19:30Z</time></trkpt><trkpt lat="43.59716144299522" lon="11.393245106409427"><ele>332.0</ele><time>2026-05-02T13:19:31Z</time></trkpt><trkpt lat="43.59703009695378" lon="11.393044943065155"><ele>332.0</ele><time>2026-05-02T13:19:32Z</time></trkpt><trkpt lat="43.59691505841782" lon="11.392786669223794"><ele>332.0</ele><time>2026-05-02T13:19:33Z</time></trkpt><trkpt lat="43.59680360152794" lon="11.392505030149552"><ele>332.5</ele><time>2026-05-02T13:19:34Z</time></trkpt><trkpt lat="43.59669235965341" lon="11.392220771319153"><ele>333.0</ele><time>2026-05-02T13:19:35Z</time></trkpt><trkpt lat="43.59658598898195" lon="11.39194870254289"><ele>336.3333333333333</ele><time>2026-05-02T13:19:36Z</time></trkpt><trkpt lat="43.596480299605226" lon="11.391676956760566"><ele>339.66666666666663</ele><time>2026-05-02T13:19:37Z</time></trkpt><trkpt lat="43.59638394350842" lon="11.391429208305576"><ele>343.0</ele><time>2026-05-02T13:19:38Z</time></trkpt><trkpt lat="43.59629090050104" lon="11.391188230517898"><ele>341.66666666666663</ele><time>2026-05-02T13:19:39Z</time></trkpt><trkpt lat="43.59621307246767" lon="11.390951701151684"><ele>340.3333333333333</ele><time>2026-05-02T13:19:40Z</time></trkpt><trkpt lat="43.59614488664122" lon="11.390715193686757"><ele>339.0</ele><time>2026-05-02T13:19:41Z</time></trkpt><trkpt lat="43.59607800818912" lon="11.390484770692986"><ele>339.0</ele><time>2026-05-02T13:19:42Z</time></trkpt><trkpt lat="43.59601442685319" lon="11.390266037137039"><ele>339.0</ele><time>2026-05-02T13:19:43Z</time></trkpt><trkpt lat="43.59593498340085" lon="11.390053497565226"><ele>339.0</ele><time>2026-05-02T13:19:44Z</time></trkpt><trkpt lat="43.59587344544577" lon="11.38984601717377"><ele>339.5</ele><time>2026-05-02T13:19:45Z</time></trkpt><trkpt lat="43.59581307314211" lon="11.38964590642413"><ele>340.0</ele><time>2026-05-02T13:19:46Z</time></trkpt><trkpt lat="43.59577204477597" lon="11.389447868791486"><ele>340.5</ele><time>2026-05-02T13:19:47Z</time></trkpt><trkpt lat="43.59572478895581" lon="11.389273854434107"><ele>341.0</ele><time>2026-05-02T13:19:48Z</time></trkpt><trkpt lat="43.595670998006284" lon="11.389121554129238"><ele>341.0</ele><time>2026-05-02T13:19:49Z</time></trkpt><trkpt lat="43.59564911669916" lon="11.388975902704733"><ele>341.0</ele><time>2026-05-02T13:19:50Z</time></trkpt><trkpt lat="43.595626279929924" lon="11.388842716154933"><ele>341.0</ele><time>2026-05-02T13:19:51Z</time></trkpt><trkpt lat="43.59560954516207" lon="11.388728280722134"><ele>341.0</ele><time>2026-05-02T13:19:52Z</time></trkpt><trkpt lat="43.59559463766416" lon="11.388630283322255"><ele>341.0</ele><time>2026-05-02T13:19:53Z</time></trkpt><trkpt lat="43.595584800448414" lon="11.388494265359297"><ele>340.75</ele><time>2026-05-02T13:19:55Z</time></trkpt><trkpt lat="43.59543820856727" lon="11.388535713579806"><ele>340.5</ele><time>2026-05-02T13:19:58Z</time></trkpt><trkpt lat="43.59529430454774" lon="11.388574317361"><ele>340.25</ele><time>2026-05-02T13:20:00Z</time></trkpt><trkpt lat="43.59520501160694" lon="11.388574283841384"><ele>340.0</ele><time>2026-05-02T13:20:01Z</time></trkpt><trkpt lat="43.59510491247087" lon="11.38856630887404"><ele>338.75</ele><time>2026-05-02T13:20:02Z</time></trkpt><trkpt lat="43.59500617207453" lon="11.388514268012345"><ele>337.5</ele><time>2026-05-02T13:20:03Z</time></trkpt><trkpt lat="43.59490263102977" lon="11.388441072210892"><ele>336.25</ele><time>2026-05-02T13:20:04Z</time></trkpt><trkpt lat="43.59480879629263" lon="11.38834903956553"><ele>335.0</ele><time>2026-05-02T13:20:05Z</time></trkpt><trkpt lat="43.59470080827338" lon="11.38823760843656"><ele>335.0</ele><time>2026-05-02T13:20:06Z</time></trkpt><trkpt lat="43.594587634145434" lon="11.38811606820774"><ele>335.0</ele><time>2026-05-02T13:20:07Z</time></trkpt><trkpt lat="43.59447532155877" lon="11.38798821134833"><ele>335.0</ele><time>2026-05-02T13:20:08Z</time></trkpt><trkpt lat="43.59438413849492" lon="11.38784939742986"><ele>335.0</ele><time>2026-05-02T13:20:09Z</time></trkpt><trkpt lat="43.59431819117941" lon="11.387697704904076"><ele>338.0</ele><time>2026-05-02T13:20:10Z</time></trkpt><trkpt lat="43.594304616483036" lon="11.387520726638906"><ele>341.0</ele><time>2026-05-02T13:20:11Z</time></trkpt><trkpt lat="43.59430421444641" lon="11.387316341422817"><ele>344.0</ele><time>2026-05-02T13:20:12Z</time></trkpt><trkpt lat="43.59430031356779" lon="11.387105737835435"><ele>347.0</ele><time>2026-05-02T13:20:13Z</time></trkpt><trkpt lat="43.594277894071006" lon="11.386923489120944"><ele>347.0</ele><time>2026-05-02T13:20:14Z</time></trkpt><trkpt lat="43.59423648427966" lon="11.38676033721909"><ele>347.0</ele><time>2026-05-02T13:20:15Z</time></trkpt><trkpt lat="43.59415191012351" lon="11.386623392431005"><ele>347.0</ele><time>2026-05-02T13:20:16Z</time></trkpt><trkpt lat="43.59402696053066" lon="11.386541240968684"><ele>347.0</ele><time>2026-05-02T13:20:17Z</time></trkpt><trkpt lat="43.59386872159063" lon="11.386510086180662"><ele>347.0</ele><time>2026-05-02T13:20:18Z</time></trkpt><trkpt lat="43.59369150890723" lon="11.386531919734635"><ele>347.0</ele><time>2026-05-02T13:20:19Z</time></trkpt><trkpt lat="43.59349067788839" lon="11.386582027456944"><ele>347.0</ele><time>2026-05-02T13:20:20Z</time></trkpt><trkpt lat="43.593255360482836" lon="11.386615829519169"><ele>349.6666666666667</ele><time>2026-05-02T13:20:21Z</time></trkpt><trkpt lat="43.59305775719586" lon="11.386630890988249"><ele>352.3333333333333</ele><time>2026-05-02T13:20:22Z</time></trkpt><trkpt lat="43.592899310730786" lon="11.386649296345436"><ele>355.0</ele><time>2026-05-02T13:20:23Z</time></trkpt><trkpt lat="43.59277406914525" lon="11.386671453351822"><ele>356.8</ele><time>2026-05-02T13:20:24Z</time></trkpt><trkpt lat="43.592672493072605" lon="11.386712903679978"><ele>358.6</ele><time>2026-05-02T13:20:25Z</time></trkpt><trkpt lat="43.592589988930484" lon="11.38676817666439"><ele>360.4</ele><time>2026-05-02T13:20:26Z</time></trkpt><trkpt lat="43.59251263720108" lon="11.386833108932523"><ele>362.2</ele><time>2026-05-02T13:20:27Z</time></trkpt><trkpt lat="43.59244475579015" lon="11.386911177303483"><ele>364.0</ele><time>2026-05-02T13:20:28Z</time></trkpt><trkpt lat="43.59240159616174" lon="11.387016744959535"><ele>364.0</ele><time>2026-05-02T13:20:29Z</time></trkpt><trkpt lat="43.592392865235404" lon="11.387156963231114"><ele>364.0</ele><time>2026-05-02T13:20:30Z</time></trkpt><trkpt lat="43.592414348559046" lon="11.38734308397922"><ele>364.0</ele><time>2026-05-02T13:20:31Z</time></trkpt><trkpt lat="43.592440576228384" lon="11.387563956126787"><ele>364.0</ele><time>2026-05-02T13:20:32Z</time></trkpt><trkpt lat="43.592452061725325" lon="11.387789347106587"><ele>366.0</ele><time>2026-05-02T13:20:33Z</time></trkpt><trkpt lat="43.59245094664557" lon="11.388022020872711"><ele>368.0</ele><time>2026-05-02T13:20:34Z</time></trkpt><trkpt lat="43.59242837044849" lon="11.388277920582501"><ele>370.0</ele><time>2026-05-02T13:20:35Z</time></trkpt><trkpt lat="43.59241064703475" lon="11.38852464126121"><ele>370.0</ele><time>2026-05-02T13:20:36Z</time></trkpt><trkpt lat="43.59240146820791" lon="11.388749335550836"><ele>370.0</ele><time>2026-05-02T13:20:37Z</time></trkpt><trkpt lat="43.592386779611275" lon="11.388946307667556"><ele>370.0</ele><time>2026-05-02T13:20:38Z</time></trkpt><trkpt lat="43.59237518349598" lon="11.389137925526402"><ele>370.0</ele><time>2026-05-02T13:20:39Z</time></trkpt><trkpt lat="43.5923627984813" lon="11.389299013432922"><ele>371.16666666666663</ele><time>2026-05-02T13:20:40Z</time></trkpt><trkpt lat="43.59235153824708" lon="11.389430719974785"><ele>372.3333333333333</ele><time>2026-05-02T13:20:41Z</time></trkpt><trkpt lat="43.59230969625858" lon="11.389538197576508"><ele>373.5</ele><time>2026-05-02T13:20:42Z</time></trkpt><trkpt lat="43.59224851939941" lon="11.38963017137713"><ele>374.6666666666667</ele><time>2026-05-02T13:20:43Z</time></trkpt><trkpt lat="43.59216748924985" lon="11.389655072743993"><ele>375.83333333333337</ele><time>2026-05-02T13:20:44Z</time></trkpt><trkpt lat="43.59209695330062" lon="11.38958891145856"><ele>377.0</ele><time>2026-05-02T13:20:45Z</time></trkpt><trkpt lat="43.59202883514198" lon="11.38948878577035"><ele>377.0</ele><time>2026-05-02T13:20:46Z</time></trkpt><trkpt lat="43.59203400577719" lon="11.389345616036582"><ele>377.0</ele><time>2026-05-02T13:20:47Z</time></trkpt><trkpt lat="43.59202872927608" lon="11.389173261082213"><ele>377.0</ele><time>2026-05-02T13:20:48Z</time></trkpt><trkpt lat="43.59200081886686" lon="11.388998953819417"><ele>377.0</ele><time>2026-05-02T13:20:49Z</time></trkpt><trkpt lat="43.5919645746608" lon="11.388842047319171"><ele>378.75</ele><time>2026-05-02T13:20:50Z</time></trkpt><trkpt lat="43.59187105085432" lon="11.388729188976942"><ele>380.5</ele><time>2026-05-02T13:20:51Z</time></trkpt><trkpt lat="43.59174077541072" lon="11.388663995568788"><ele>382.25</ele><time>2026-05-02T13:20:52Z</time></trkpt><trkpt lat="43.591597248520266" lon="11.388674967165437"><ele>384.0</ele><time>2026-05-02T13:20:53Z</time></trkpt><trkpt lat="43.59143634308805" lon="11.388715230324207"><ele>384.0</ele><time>2026-05-02T13:20:54Z</time></trkpt><trkpt lat="43.59127815943219" lon="11.388748298031281"><ele>384.0</ele><time>2026-05-02T13:20:55Z</time></trkpt><trkpt lat="43.591113889724234" lon="11.388771282757192"><ele>384.0</ele><time>2026-05-02T13:20:56Z</time></trkpt><trkpt lat="43.59095506386405" lon="11.388786888668301"><ele>389.33333333333337</ele><time>2026-05-02T13:20:57Z</time></trkpt><trkpt lat="43.590802459609954" lon="11.388796081436588"><ele>394.6666666666667</ele><time>2026-05-02T13:20:58Z</time></trkpt><trkpt lat="43.59064562469147" lon="11.388803953163297"><ele>400.0</ele><time>2026-05-02T13:20:59Z</time></trkpt><trkpt lat="43.59049110827627" lon="11.388817896217049"><ele>406.6666666666667</ele><time>2026-05-02T13:21:00Z</time></trkpt><trkpt lat="43.590336698278755" lon="11.38885938455015"><ele>413.33333333333337</ele><time>2026-05-02T13:21:01Z</time></trkpt><trkpt lat="43.59017807048245" lon="11.38893137154272"><ele>420.0</ele><time>2026-05-02T13:21:02Z</time></trkpt><trkpt lat="43.59001646285121" lon="11.389027489580291"><ele>420.0</ele><time>2026-05-02T13:21:03Z</time></trkpt><trkpt lat="43.589853655182566" lon="11.38907280963162"><ele>420.0</ele><time>2026-05-02T13:21:04Z</time></trkpt><trkpt lat="43.58967496010608" lon="11.389086994195585"><ele>420.0</ele><time>2026-05-02T13:21:05Z</time></trkpt><trkpt lat="43.58949173007861" lon="11.38909173203606"><ele>423.66666666666663</ele><time>2026-05-02T13:21:06Z</time></trkpt><trkpt lat="43.589326812885574" lon="11.38907433925255"><ele>427.3333333333333</ele><time>2026-05-02T13:21:07Z</time></trkpt><trkpt lat="43.58917967239536" lon="11.389022904860301"><ele>431.0</ele><time>2026-05-02T13:21:08Z</time></trkpt><trkpt lat="43.58903313083734" lon="11.388929793267804"><ele>429.66666666666663</ele><time>2026-05-02T13:21:09Z</time></trkpt><trkpt lat="43.58887313278254" lon="11.388813504173497"><ele>428.33333333333337</ele><time>2026-05-02T13:21:10Z</time></trkpt><trkpt lat="43.588718666819766" lon="11.388702343037338"><ele>427.0</ele><time>2026-05-02T13:21:11Z</time></trkpt><trkpt lat="43.58856533790919" lon="11.388594136953053"><ele>427.0</ele><time>2026-05-02T13:21:12Z</time></trkpt><trkpt lat="43.5884121725482" lon="11.388495198058258"><ele>427.0</ele><time>2026-05-02T13:21:13Z</time></trkpt><trkpt lat="43.58825079236314" lon="11.38842476009985"><ele>427.0</ele><time>2026-05-02T13:21:14Z</time></trkpt><trkpt lat="43.58808948218132" lon="11.388351014988725"><ele>427.0</ele><time>2026-05-02T13:21:15Z</time></trkpt><trkpt lat="43.58792441625629" lon="11.388293724135123"><ele>427.0</ele><time>2026-05-02T13:21:16Z</time></trkpt><trkpt lat="43.58775834345919" lon="11.38824461103848"><ele>427.0</ele><time>2026-05-02T13:21:17Z</time></trkpt><trkpt lat="43.587591706532635" lon="11.388205408249489"><ele>430.0</ele><time>2026-05-02T13:21:18Z</time></trkpt><trkpt lat="43.58742634868207" lon="11.388173568005291"><ele>433.0</ele><time>2026-05-02T13:21:19Z</time></trkpt><trkpt lat="43.58725735830414" lon="11.388140308616057"><ele>436.0</ele><time>2026-05-02T13:21:20Z</time></trkpt><trkpt lat="43.58708674821094" lon="11.388106540460734"><ele>435.0</ele><time>2026-05-02T13:21:21Z</time></trkpt><trkpt lat="43.586915685734155" lon="11.388064975538875"><ele>434.0</ele><time>2026-05-02T13:21:22Z</time></trkpt><trkpt lat="43.58674245566859" lon="11.388024658525907"><ele>433.0</ele><time>2026-05-02T13:21:23Z</time></trkpt><trkpt lat="43.58656971002559" lon="11.387987515529051"><ele>433.0</ele><time>2026-05-02T13:21:24Z</time></trkpt><trkpt lat="43.586394419316946" lon="11.387949926984783"><ele>433.0</ele><time>2026-05-02T13:21:25Z</time></trkpt><trkpt lat="43.58621675244793" lon="11.387926881465159"><ele>433.0</ele><time>2026-05-02T13:21:26Z</time></trkpt><trkpt lat="43.58603243211277" lon="11.387943459950923"><ele>438.0</ele><time>2026-05-02T13:21:27Z</time></trkpt><trkpt lat="43.58584669902663" lon="11.388023387870163"><ele>443.0</ele><time>2026-05-02T13:21:28Z</time></trkpt><trkpt lat="43.58567129549834" lon="11.38816228970981"><ele>448.0</ele><time>2026-05-02T13:21:29Z</time></trkpt><trkpt lat="43.585507492486286" lon="11.388356372059759"><ele>448.0</ele><time>2026-05-02T13:21:30Z</time></trkpt><trkpt lat="43.58536004803529" lon="11.38855991568476"><ele>448.0</ele><time>2026-05-02T13:21:31Z</time></trkpt><trkpt lat="43.585216622785524" lon="11.388747375026247"><ele>448.0</ele><time>2026-05-02T13:21:32Z</time></trkpt><trkpt lat="43.585074778503085" lon="11.388916724392724"><ele>448.6666666666667</ele><time>2026-05-02T13:21:33Z</time></trkpt><trkpt lat="43.58494316856273" lon="11.389069785547242"><ele>449.33333333333337</ele><time>2026-05-02T13:21:34Z</time></trkpt><trkpt lat="43.58482211707936" lon="11.389206453437435"><ele>450.0</ele><time>2026-05-02T13:21:35Z</time></trkpt><trkpt lat="43.58471188711044" lon="11.389330941705573"><ele>450.0</ele><time>2026-05-02T13:21:36Z</time></trkpt><trkpt lat="43.58458692834333" lon="11.389365247050977"><ele>450.0</ele><time>2026-05-02T13:21:37Z</time></trkpt><trkpt lat="43.584459929232125" lon="11.389412231237033"><ele>450.0</ele><time>2026-05-02T13:21:38Z</time></trkpt><trkpt lat="43.58432693628728" lon="11.389397319431911"><ele>450.0</ele><time>2026-05-02T13:21:39Z</time></trkpt><trkpt lat="43.58417730282987" lon="11.389381977160017"><ele>450.5</ele><time>2026-05-02T13:21:40Z</time></trkpt><trkpt lat="43.584036376861846" lon="11.38934235987327"><ele>451.0</ele><time>2026-05-02T13:21:41Z</time></trkpt><trkpt lat="43.583889932642066" lon="11.389294080768545"><ele>451.5</ele><time>2026-05-02T13:21:42Z</time></trkpt><trkpt lat="43.583748743804335" lon="11.389241291452672"><ele>452.0</ele><time>2026-05-02T13:21:43Z</time></trkpt><trkpt lat="43.583607412973905" lon="11.389182596647977"><ele>452.0</ele><time>2026-05-02T13:21:44Z</time></trkpt><trkpt lat="43.58347232252626" lon="11.389122737448767"><ele>452.0</ele><time>2026-05-02T13:21:45Z</time></trkpt><trkpt lat="43.58334101361267" lon="11.389050239501914"><ele>452.0</ele><time>2026-05-02T13:21:46Z</time></trkpt><trkpt lat="43.58321166958745" lon="11.388971378457823"><ele>452.0</ele><time>2026-05-02T13:21:47Z</time></trkpt><trkpt lat="43.583086874944286" lon="11.388881449058164"><ele>451.5</ele><time>2026-05-02T13:21:48Z</time></trkpt><trkpt lat="43.582962821346065" lon="11.388791033836783"><ele>451.0</ele><time>2026-05-02T13:21:49Z</time></trkpt><trkpt lat="43.58283991817845" lon="11.388699540486872"><ele>450.5</ele><time>2026-05-02T13:21:50Z</time></trkpt><trkpt lat="43.582719483654046" lon="11.38860916552014"><ele>450.0</ele><time>2026-05-02T13:21:51Z</time></trkpt><trkpt lat="43.582589675450286" lon="11.388535133568633"><ele>452.5</ele><time>2026-05-02T13:21:52Z</time></trkpt><trkpt lat="43.582464172929825" lon="11.388441392020681"><ele>455.0</ele><time>2026-05-02T13:21:53Z</time></trkpt><trkpt lat="43.58233607561419" lon="11.388346304664882"><ele>457.5</ele><time>2026-05-02T13:21:54Z</time></trkpt><trkpt lat="43.582209784090416" lon="11.388248077544365"><ele>460.0</ele><time>2026-05-02T13:21:55Z</time></trkpt><trkpt lat="43.58208365042062" lon="11.388150193164073"><ele>461.5</ele><time>2026-05-02T13:21:56Z</time></trkpt><trkpt lat="43.58195853333433" lon="11.388057199226246"><ele>463.0</ele><time>2026-05-02T13:21:57Z</time></trkpt><trkpt lat="43.581838838229594" lon="11.387967909304708"><ele>464.5</ele><time>2026-05-02T13:21:58Z</time></trkpt><trkpt lat="43.58172414489327" lon="11.387880622026508"><ele>466.0</ele><time>2026-05-02T13:21:59Z</time></trkpt><trkpt lat="43.58161408778437" lon="11.38779946340859"><ele>467.8</ele><time>2026-05-02T13:22:00Z</time></trkpt><trkpt lat="43.581522889791934" lon="11.38773539166584"><ele>469.6</ele><time>2026-05-02T13:22:01Z</time></trkpt><trkpt lat="43.58143205690153" lon="11.387685149042383"><ele>471.4</ele><time>2026-05-02T13:22:02Z</time></trkpt><trkpt lat="43.581327916569784" lon="11.387649106382112"><ele>473.2</ele><time>2026-05-02T13:22:03Z</time></trkpt><trkpt lat="43.58120161554687" lon="11.387632114173764"><ele>475.0</ele><time>2026-05-02T13:22:04Z</time></trkpt><trkpt lat="43.581059173204785" lon="11.387620807995457"><ele>477.6666666666667</ele><time>2026-05-02T13:22:05Z</time></trkpt><trkpt lat="43.58090516269293" lon="11.387630577611452"><ele>480.33333333333337</ele><time>2026-05-02T13:22:06Z</time></trkpt><trkpt lat="43.58074258506296" lon="11.387634257125834"><ele>483.0</ele><time>2026-05-02T13:22:07Z</time></trkpt><trkpt lat="43.58057721657916" lon="11.38764919105951"><ele>483.0</ele><time>2026-05-02T13:22:08Z</time></trkpt><trkpt lat="43.58040728055581" lon="11.387666991905041"><ele>483.0</ele><time>2026-05-02T13:22:09Z</time></trkpt><trkpt lat="43.58022987111547" lon="11.387689406892829"><ele>483.0</ele><time>2026-05-02T13:22:10Z</time></trkpt><trkpt lat="43.58004914847015" lon="11.387724417577637"><ele>483.75</ele><time>2026-05-02T13:22:11Z</time></trkpt><trkpt lat="43.57989067439054" lon="11.387764211471707"><ele>484.5</ele><time>2026-05-02T13:22:12Z</time></trkpt><trkpt lat="43.57975274680796" lon="11.387804612098801"><ele>485.25</ele><time>2026-05-02T13:22:13Z</time></trkpt><trkpt lat="43.57965322636933" lon="11.387837542076527"><ele>486.0</ele><time>2026-05-02T13:22:14Z</time></trkpt><trkpt lat="43.5795783543912" lon="11.387859517775523"><ele>486.0</ele><time>2026-05-02T13:22:15Z</time></trkpt><trkpt lat="43.57957460113781" lon="11.387772444276518"><ele>486.0</ele><time>2026-05-02T13:23:19Z</time></trkpt><trkpt lat="43.57963233597401" lon="11.387664588558463"><ele>486.0</ele><time>2026-05-02T13:23:22Z</time></trkpt><trkpt lat="43.57970672501145" lon="11.387604675210664"><ele>486.0</ele><time>2026-05-02T13:23:24Z</time></trkpt><trkpt lat="43.579793653096985" lon="11.38753273527815"><ele>486.0</ele><time>2026-05-02T13:23:26Z</time></trkpt><trkpt lat="43.579868289615774" lon="11.38743970014601"><ele>486.0</ele><time>2026-05-02T13:23:28Z</time></trkpt><trkpt lat="43.579855329533444" lon="11.387331882616166"><ele>486.0</ele><time>2026-05-02T13:23:30Z</time></trkpt><trkpt lat="43.57975424570429" lon="11.38729647938858"><ele>486.0</ele><time>2026-05-02T13:23:32Z</time></trkpt><trkpt lat="43.57966933678828" lon="11.387416281972817"><ele>486.0</ele><time>2026-05-02T13:23:34Z</time></trkpt><trkpt lat="43.57961693844986" lon="11.38749665615767"><ele>486.0</ele><time>2026-05-02T13:23:35Z</time></trkpt><trkpt lat="43.5795314460407" lon="11.38753474921145"><ele>486.0</ele><time>2026-05-02T13:23:36Z</time></trkpt><trkpt lat="43.57945034673337" lon="11.38756209385906"><ele>486.8</ele><time>2026-05-02T13:23:37Z</time></trkpt><trkpt lat="43.57938590839538" lon="11.387597309813664"><ele>487.6</ele><time>2026-05-02T13:23:38Z</time></trkpt><trkpt lat="43.57929206393301" lon="11.387629497405635"><ele>488.4</ele><time>2026-05-02T13:23:40Z</time></trkpt><trkpt lat="43.579221084030145" lon="11.387593240356004"><ele>489.2</ele><time>2026-05-02T13:23:42Z</time></trkpt><trkpt lat="43.579209035447775" lon="11.38748504006175"><ele>490.0</ele><time>2026-05-02T13:23:44Z</time></trkpt><trkpt lat="43.57930568984896" lon="11.38730097472111"><ele>490.0</ele><time>2026-05-02T13:23:46Z</time></trkpt><trkpt lat="43.57932077903557" lon="11.387188146332628"><ele>490.0</ele><time>2026-05-02T13:23:47Z</time></trkpt><trkpt lat="43.57933411014658" lon="11.387057241697038"><ele>490.0</ele><time>2026-05-02T13:23:48Z</time></trkpt><trkpt lat="43.57937366438537" lon="11.386901759240232"><ele>490.0</ele><time>2026-05-02T13:23:49Z</time></trkpt><trkpt lat="43.57940030188205" lon="11.38677183087573"><ele>490.0</ele><time>2026-05-02T13:23:50Z</time></trkpt><trkpt lat="43.57941068452581" lon="11.38666962270353"><ele>492.1666666666667</ele><time>2026-05-02T13:23:51Z</time></trkpt><trkpt lat="43.579405399410014" lon="11.386581359890517"><ele>494.33333333333337</ele><time>2026-05-02T13:23:52Z</time></trkpt><trkpt lat="43.57943518172224" lon="11.386445678515694"><ele>496.5</ele><time>2026-05-02T13:23:54Z</time></trkpt><trkpt lat="43.57945246511534" lon="11.386316725920727"><ele>498.66666666666663</ele><time>2026-05-02T13:23:56Z</time></trkpt><trkpt lat="43.579371335057" lon="11.386227651151279"><ele>500.8333333333333</ele><time>2026-05-02T13:23:58Z</time></trkpt><trkpt lat="43.57931712353278" lon="11.38614575184309"><ele>503.0</ele><time>2026-05-02T13:24:00Z</time></trkpt><trkpt lat="43.579316213154975" lon="11.386032425231608"><ele>505.2</ele><time>2026-05-02T13:24:02Z</time></trkpt><trkpt lat="43.57930456480295" lon="11.385862971253614"><ele>507.4</ele><time>2026-05-02T13:24:04Z</time></trkpt><trkpt lat="43.579299856013876" lon="11.385774278283815"><ele>509.59999999999997</ele><time>2026-05-02T13:24:05Z</time></trkpt><trkpt lat="43.5792914706167" lon="11.385615117993366"><ele>511.79999999999995</ele><time>2026-05-02T13:24:07Z</time></trkpt><trkpt lat="43.57928631831286" lon="11.385468838908837"><ele>514.0</ele><time>2026-05-02T13:24:09Z</time></trkpt><trkpt lat="43.57928975766371" lon="11.385374857779544"><ele>516.5</ele><time>2026-05-02T13:24:11Z</time></trkpt><trkpt lat="43.579323190452655" lon="11.385300127362528"><ele>519.0</ele><time>2026-05-02T13:24:15Z</time></trkpt><trkpt lat="43.57939894012039" lon="11.385245056413245"><ele>521.5</ele><time>2026-05-02T13:24:17Z</time></trkpt><trkpt lat="43.579524793652496" lon="11.385251704174634"><ele>524.0</ele><time>2026-05-02T13:24:19Z</time></trkpt><trkpt lat="43.579591426255355" lon="11.385224784889326"><ele>526.5</ele><time>2026-05-02T13:24:20Z</time></trkpt><trkpt lat="43.57966243086105" lon="11.385192965568905"><ele>529.0</ele><time>2026-05-02T13:24:21Z</time></trkpt><trkpt lat="43.57972886314165" lon="11.385148413134996"><ele>529.0</ele><time>2026-05-02T13:24:22Z</time></trkpt><trkpt lat="43.579795038109246" lon="11.385101537987042"><ele>529.0</ele><time>2026-05-02T13:24:23Z</time></trkpt><trkpt lat="43.57985592778172" lon="11.385050817605192"><ele>529.0</ele><time>2026-05-02T13:24:24Z</time></trkpt><trkpt lat="43.57992163317931" lon="11.385002596530375"><ele>529.0</ele><time>2026-05-02T13:24:25Z</time></trkpt><trkpt lat="43.57997706528167" lon="11.384954587235448"><ele>529.0</ele><time>2026-05-02T13:24:26Z</time></trkpt><trkpt lat="43.58006114429877" lon="11.38482224808872"><ele>529.0</ele><time>2026-05-02T13:24:28Z</time></trkpt><trkpt lat="43.58009369430367" lon="11.384741626153183"><ele>528.0</ele><time>2026-05-02T13:24:29Z</time></trkpt><trkpt lat="43.58012748607185" lon="11.384657315788319"><ele>527.0</ele><time>2026-05-02T13:24:30Z</time></trkpt><trkpt lat="43.58016238381779" lon="11.384581424048008"><ele>526.0</ele><time>2026-05-02T13:24:31Z</time></trkpt><trkpt lat="43.58020821379055" lon="11.384516459492774"><ele>525.0</ele><time>2026-05-02T13:24:32Z</time></trkpt><trkpt lat="43.58026042930079" lon="11.384449331786422"><ele>524.0</ele><time>2026-05-02T13:24:33Z</time></trkpt><trkpt lat="43.58031263894774" lon="11.384400450274317"><ele>523.0</ele><time>2026-05-02T13:24:34Z</time></trkpt><trkpt lat="43.58037726040263" lon="11.384294890483952"><ele>522.0</ele><time>2026-05-02T13:24:36Z</time></trkpt><trkpt lat="43.58035366414401" lon="11.384181688616598"><ele>526.1666666666666</ele><time>2026-05-02T13:24:38Z</time></trkpt><trkpt lat="43.58030820969449" lon="11.384100491879957"><ele>530.3333333333334</ele><time>2026-05-02T13:24:40Z</time></trkpt><trkpt lat="43.580234414869466" lon="11.384109421000687"><ele>534.5</ele><time>2026-05-02T13:25:19Z</time></trkpt><trkpt lat="43.58029775469581" lon="11.384179921225284"><ele>538.6666666666667</ele><time>2026-05-02T13:25:56Z</time></trkpt><trkpt lat="43.58034277471755" lon="11.38424934913234"><ele>542.8333333333334</ele><time>2026-05-02T13:25:58Z</time></trkpt><trkpt lat="43.58034024521187" lon="11.384350046776115"><ele>547.0</ele><time>2026-05-02T13:26:00Z</time></trkpt><trkpt lat="43.58027339131776" lon="11.384437748591893"><ele>547.0</ele><time>2026-05-02T13:26:02Z</time></trkpt><trkpt lat="43.58020106150457" lon="11.384501631069478"><ele>547.0</ele><time>2026-05-02T13:26:04Z</time></trkpt><trkpt lat="43.58014289728548" lon="11.384582012100415"><ele>547.0</ele><time>2026-05-02T13:26:06Z</time></trkpt><trkpt lat="43.58009829895172" lon="11.384675011516002"><ele>547.0</ele><time>2026-05-02T13:26:08.001Z</time></trkpt><trkpt lat="43.58005917406362" lon="11.384758644667272"><ele>547.0</ele><time>2026-05-02T13:26:10.001Z</time></trkpt><trkpt lat="43.58001815834354" lon="11.384843579537025"><ele>547.0</ele><time>2026-05-02T13:26:12Z</time></trkpt><trkpt lat="43.57997034686594" lon="11.384920257806414"><ele>543.4</ele><time>2026-05-02T13:26:14Z</time></trkpt><trkpt lat="43.57990749095703" lon="11.384994494246936"><ele>539.8000000000001</ele><time>2026-05-02T13:26:16Z</time></trkpt><trkpt lat="43.579820862549724" lon="11.385063127447198"><ele>536.2</ele><time>2026-05-02T13:26:18Z</time></trkpt><trkpt lat="43.57973440096225" lon="11.38511970760008"><ele>532.6</ele><time>2026-05-02T13:26:20Z</time></trkpt><trkpt lat="43.57965713492428" lon="11.38516938859534"><ele>529.0</ele><time>2026-05-02T13:26:22Z</time></trkpt><trkpt lat="43.579551045380995" lon="11.385227606875429"><ele>529.8</ele><time>2026-05-02T13:26:24Z</time></trkpt><trkpt lat="43.57944249006534" lon="11.385207182469223"><ele>530.5999999999999</ele><time>2026-05-02T13:26:26Z</time></trkpt><trkpt lat="43.579336580422634" lon="11.385242229599372"><ele>531.4</ele><time>2026-05-02T13:26:28Z</time></trkpt><trkpt lat="43.57926462264572" lon="11.385302162010877"><ele>532.1999999999999</ele><time>2026-05-02T13:26:30Z</time></trkpt><trkpt lat="43.57923797637516" lon="11.385403802903392"><ele>533.0</ele><time>2026-05-02T13:26:32Z</time></trkpt><trkpt lat="43.579258816811986" lon="11.3855274669914"><ele>529.1999999999999</ele><time>2026-05-02T13:26:34Z</time></trkpt><trkpt lat="43.57927198578482" lon="11.385667403557036"><ele>525.4</ele><time>2026-05-02T13:26:36Z</time></trkpt><trkpt lat="43.5792689843745" lon="11.385821676903477"><ele>521.5999999999999</ele><time>2026-05-02T13:26:38Z</time></trkpt><trkpt lat="43.57927689329657" lon="11.385966417658768"><ele>517.8</ele><time>2026-05-02T13:26:40Z</time></trkpt><trkpt lat="43.579299665411334" lon="11.386124651351544"><ele>514.0</ele><time>2026-05-02T13:26:42Z</time></trkpt><trkpt lat="43.57933701162314" lon="11.386260816254179"><ele>514.0</ele><time>2026-05-02T13:26:44Z</time></trkpt><trkpt lat="43.57941115390071" lon="11.386332470210762"><ele>514.0</ele><time>2026-05-02T13:26:46Z</time></trkpt><trkpt lat="43.57943692044461" lon="11.386462458266532"><ele>514.0</ele><time>2026-05-02T13:26:48Z</time></trkpt><trkpt lat="43.579399723059126" lon="11.386578965880261"><ele>514.0</ele><time>2026-05-02T13:26:50Z</time></trkpt><trkpt lat="43.579385070196544" lon="11.3866783502727"><ele>514.0</ele><time>2026-05-02T13:26:52Z</time></trkpt><trkpt lat="43.57937754547511" lon="11.386771563552493"><ele>514.0</ele><time>2026-05-02T13:26:54Z</time></trkpt><trkpt lat="43.579355623588384" lon="11.386867245891212"><ele>512.1666666666667</ele><time>2026-05-02T13:26:56Z</time></trkpt><trkpt lat="43.57932690798975" lon="11.386976813129884"><ele>510.33333333333337</ele><time>2026-05-02T13:26:58Z</time></trkpt><trkpt lat="43.57930314693664" lon="11.387090331427613"><ele>508.5</ele><time>2026-05-02T13:27:00Z</time></trkpt><trkpt lat="43.57928323858808" lon="11.387229889925024"><ele>506.66666666666663</ele><time>2026-05-02T13:27:02Z</time></trkpt><trkpt lat="43.579266390952675" lon="11.387348934859789"><ele>504.8333333333333</ele><time>2026-05-02T13:27:04Z</time></trkpt><trkpt lat="43.57923682229975" lon="11.387445070640997"><ele>503.0</ele><time>2026-05-02T13:27:06Z</time></trkpt><trkpt lat="43.579205421161156" lon="11.387536985182598"><ele>500.8333333333333</ele><time>2026-05-02T13:27:08Z</time></trkpt><trkpt lat="43.579253420210215" lon="11.387647975386656"><ele>498.66666666666663</ele><time>2026-05-02T13:27:11Z</time></trkpt><trkpt lat="43.579326981810844" lon="11.387676540509343"><ele>496.5</ele><time>2026-05-02T13:27:13Z</time></trkpt><trkpt lat="43.57940718976369" lon="11.387644118792348"><ele>494.33333333333337</ele><time>2026-05-02T13:27:15Z</time></trkpt><trkpt lat="43.579487521549915" lon="11.387596658987613"><ele>492.1666666666667</ele><time>2026-05-02T13:27:17Z</time></trkpt><trkpt lat="43.57957233180426" lon="11.387551157283553"><ele>490.0</ele><time>2026-05-02T13:27:19Z</time></trkpt><trkpt lat="43.579661189766924" lon="11.387473847435357"><ele>489.33333333333337</ele><time>2026-05-02T13:27:21Z</time></trkpt><trkpt lat="43.57973716003581" lon="11.38737184693555"><ele>488.6666666666667</ele><time>2026-05-02T13:27:23Z</time></trkpt><trkpt lat="43.57978719972685" lon="11.38731461476603"><ele>488.0</ele><time>2026-05-02T13:27:25Z</time></trkpt><trkpt lat="43.579848858166045" lon="11.387364710820984"><ele>487.33333333333337</ele><time>2026-05-02T13:27:27Z</time></trkpt><trkpt lat="43.579828978384015" lon="11.38747309547319"><ele>486.6666666666667</ele><time>2026-05-02T13:27:29Z</time></trkpt><trkpt lat="43.579770194067905" lon="11.387538749025763"><ele>486.0</ele><time>2026-05-02T13:27:32Z</time></trkpt><trkpt lat="43.57969250622223" lon="11.387570847106973"><ele>486.0</ele><time>2026-05-02T13:27:35Z</time></trkpt><trkpt lat="43.57962837871485" lon="11.387628065566691"><ele>486.0</ele><time>2026-05-02T13:27:37Z</time></trkpt><trkpt lat="43.579574267442474" lon="11.387692047215568"><ele>486.0</ele><time>2026-05-02T13:27:39Z</time></trkpt><trkpt lat="43.57955998644619" lon="11.387819470532774"><ele>486.0</ele><time>2026-05-02T13:27:41Z</time></trkpt><trkpt lat="43.57945092837457" lon="11.387888489971226"><ele>486.0</ele><time>2026-05-02T13:27:45Z</time></trkpt><trkpt lat="43.579387997601025" lon="11.387907714937715"><ele>486.0</ele><time>2026-05-02T13:27:46Z</time></trkpt><trkpt lat="43.579306923797205" lon="11.387906008634221"><ele>486.8</ele><time>2026-05-02T13:27:47Z</time></trkpt><trkpt lat="43.57921797310855" lon="11.387891381291551"><ele>487.6</ele><time>2026-05-02T13:27:48Z</time></trkpt><trkpt lat="43.57911972674041" lon="11.387848902876103"><ele>488.4</ele><time>2026-05-02T13:27:49Z</time></trkpt><trkpt lat="43.57901793826409" lon="11.387778274729664"><ele>489.2</ele><time>2026-05-02T13:27:50Z</time></trkpt><trkpt lat="43.57892615502892" lon="11.387696372937464"><ele>490.0</ele><time>2026-05-02T13:27:51Z</time></trkpt><trkpt lat="43.57882962776106" lon="11.387608537345558"><ele>490.0</ele><time>2026-05-02T13:27:52Z</time></trkpt><trkpt lat="43.57873117879508" lon="11.387513527368142"><ele>490.0</ele><time>2026-05-02T13:27:53Z</time></trkpt><trkpt lat="43.57862625365659" lon="11.387409124357315"><ele>490.0</ele><time>2026-05-02T13:27:54Z</time></trkpt><trkpt lat="43.578511743520366" lon="11.387299291554731"><ele>490.0</ele><time>2026-05-02T13:27:55Z</time></trkpt><trkpt lat="43.57838557565284" lon="11.387192519201424"><ele>492.0</ele><time>2026-05-02T13:27:56Z</time></trkpt><trkpt lat="43.57825282910796" lon="11.387068873262738"><ele>494.0</ele><time>2026-05-02T13:27:57Z</time></trkpt><trkpt lat="43.57810785451051" lon="11.386927550165739"><ele>496.0</ele><time>2026-05-02T13:27:58Z</time></trkpt><trkpt lat="43.57795622486302" lon="11.386786332882167"><ele>495.33333333333337</ele><time>2026-05-02T13:27:59Z</time></trkpt><trkpt lat="43.57780469477752" lon="11.386643262493884"><ele>494.66666666666663</ele><time>2026-05-02T13:28:00Z</time></trkpt><trkpt lat="43.577654953142925" lon="11.386507466085957"><ele>494.0</ele><time>2026-05-02T13:28:01Z</time></trkpt><trkpt lat="43.57752063540376" lon="11.386392415374035"><ele>498.25</ele><time>2026-05-02T13:28:02Z</time></trkpt><trkpt lat="43.57740159096792" lon="11.38629617050887"><ele>502.5</ele><time>2026-05-02T13:28:03Z</time></trkpt><trkpt lat="43.57727764741465" lon="11.386227133773499"><ele>506.75</ele><time>2026-05-02T13:28:04Z</time></trkpt><trkpt lat="43.577147038391274" lon="11.386165027628158"><ele>511.0</ele><time>2026-05-02T13:28:05Z</time></trkpt><trkpt lat="43.5769945054522" lon="11.386132628387035"><ele>513.0</ele><time>2026-05-02T13:28:06Z</time></trkpt><trkpt lat="43.57682091165266" lon="11.38612699043232"><ele>515.0</ele><time>2026-05-02T13:28:07Z</time></trkpt><trkpt lat="43.576620738261965" lon="11.386157640159272"><ele>517.0</ele><time>2026-05-02T13:28:08Z</time></trkpt><trkpt lat="43.57640980736155" lon="11.38621240493845"><ele>517.0</ele><time>2026-05-02T13:28:09Z</time></trkpt><trkpt lat="43.576238025638794" lon="11.386268182052275"><ele>517.0</ele><time>2026-05-02T13:28:10Z</time></trkpt><trkpt lat="43.576088484547654" lon="11.386311286123979"><ele>517.0</ele><time>2026-05-02T13:28:11Z</time></trkpt><trkpt lat="43.57595986362933" lon="11.386345470982913"><ele>515.8000000000001</ele><time>2026-05-02T13:28:12Z</time></trkpt><trkpt lat="43.57584380335276" lon="11.38637922564138"><ele>514.6</ele><time>2026-05-02T13:28:13Z</time></trkpt><trkpt lat="43.575736317903925" lon="11.38640935550546"><ele>513.4000000000001</ele><time>2026-05-02T13:28:14Z</time></trkpt><trkpt lat="43.575635963424915" lon="11.386410278380897"><ele>512.2</ele><time>2026-05-02T13:28:15Z</time></trkpt><trkpt lat="43.57554812062891" lon="11.386430035772566"><ele>511.0</ele><time>2026-05-02T13:28:16Z</time></trkpt><trkpt lat="43.5754685044073" lon="11.386447923028696"><ele>511.0</ele><time>2026-05-02T13:28:17Z</time></trkpt><trkpt lat="43.575388115477196" lon="11.386465983912919"><ele>511.0</ele><time>2026-05-02T13:28:18Z</time></trkpt><trkpt lat="43.5752975194677" lon="11.38648633802447"><ele>511.0</ele><time>2026-05-02T13:28:19Z</time></trkpt><trkpt lat="43.57520714319675" lon="11.386506642768198"><ele>511.0</ele><time>2026-05-02T13:28:20Z</time></trkpt><trkpt lat="43.5751122638364" lon="11.386527959214655"><ele>511.0</ele><time>2026-05-02T13:28:21Z</time></trkpt><trkpt lat="43.575001777507666" lon="11.386552782042742"><ele>513.75</ele><time>2026-05-02T13:28:22Z</time></trkpt><trkpt lat="43.5748674301131" lon="11.386583648957638"><ele>516.5</ele><time>2026-05-02T13:28:23Z</time></trkpt><trkpt lat="43.57471197797638" lon="11.386619618121747"><ele>519.25</ele><time>2026-05-02T13:28:24Z</time></trkpt><trkpt lat="43.57456531719854" lon="11.386672456964588"><ele>522.0</ele><time>2026-05-02T13:28:25Z</time></trkpt><trkpt lat="43.574429199955574" lon="11.386728392787578"><ele>523.75</ele><time>2026-05-02T13:28:26Z</time></trkpt><trkpt lat="43.574308336663634" lon="11.386811741065499"><ele>525.5</ele><time>2026-05-02T13:28:27Z</time></trkpt><trkpt lat="43.574210962336714" lon="11.386922715993435"><ele>527.25</ele><time>2026-05-02T13:28:28Z</time></trkpt><trkpt lat="43.57413691682879" lon="11.387058264628891"><ele>529.0</ele><time>2026-05-02T13:28:29Z</time></trkpt><trkpt lat="43.574077646973365" lon="11.387219594113738"><ele>529.0</ele><time>2026-05-02T13:28:30Z</time></trkpt><trkpt lat="43.57403084354246" lon="11.3873987522663"><ele>529.0</ele><time>2026-05-02T13:28:31Z</time></trkpt><trkpt lat="43.574013365879885" lon="11.387598849717394"><ele>529.0</ele><time>2026-05-02T13:28:32Z</time></trkpt><trkpt lat="43.57404946624697" lon="11.387816211195357"><ele>529.0</ele><time>2026-05-02T13:28:33Z</time></trkpt><trkpt lat="43.574120577138146" lon="11.388034602376965"><ele>528.3333333333334</ele><time>2026-05-02T13:28:34Z</time></trkpt><trkpt lat="43.574212823872294" lon="11.388296472137078"><ele>527.6666666666666</ele><time>2026-05-02T13:28:35Z</time></trkpt><trkpt lat="43.57429430305975" lon="11.388542994195046"><ele>527.0</ele><time>2026-05-02T13:28:36Z</time></trkpt><trkpt lat="43.574359346705066" lon="11.388753549353584"><ele>526.5</ele><time>2026-05-02T13:28:37Z</time></trkpt><trkpt lat="43.57440348300035" lon="11.38891818791683"><ele>526.0</ele><time>2026-05-02T13:28:38Z</time></trkpt><trkpt lat="43.574420262051625" lon="11.389066168504128"><ele>525.5</ele><time>2026-05-02T13:28:39Z</time></trkpt><trkpt lat="43.57437455367473" lon="11.38920451026643"><ele>525.0</ele><time>2026-05-02T13:28:40Z</time></trkpt><trkpt lat="43.574300124534" lon="11.389327461742093"><ele>525.0</ele><time>2026-05-02T13:28:41Z</time></trkpt><trkpt lat="43.574203684537665" lon="11.389440639477288"><ele>525.0</ele><time>2026-05-02T13:28:42Z</time></trkpt><trkpt lat="43.5740863573494" lon="11.389498985086815"><ele>525.0</ele><time>2026-05-02T13:28:43Z</time></trkpt><trkpt lat="43.57395564162541" lon="11.389508188139162"><ele>525.0</ele><time>2026-05-02T13:28:44Z</time></trkpt><trkpt lat="43.57379339278781" lon="11.389484449301085"><ele>526.6666666666666</ele><time>2026-05-02T13:28:45Z</time></trkpt><trkpt lat="43.5736052400411" lon="11.389441542447393"><ele>528.3333333333333</ele><time>2026-05-02T13:28:46Z</time></trkpt><trkpt lat="43.573411476330755" lon="11.389372511803609"><ele>530.0</ele><time>2026-05-02T13:28:47Z</time></trkpt><trkpt lat="43.573245653144376" lon="11.389276975326023"><ele>530.0</ele><time>2026-05-02T13:28:48Z</time></trkpt><trkpt lat="43.57310930213648" lon="11.389172399929206"><ele>530.0</ele><time>2026-05-02T13:28:49Z</time></trkpt><trkpt lat="43.573003481724" lon="11.389060251061286"><ele>530.0</ele><time>2026-05-02T13:28:50Z</time></trkpt><trkpt lat="43.57292430638968" lon="11.388941213005467"><ele>530.0</ele><time>2026-05-02T13:28:51Z</time></trkpt><trkpt lat="43.57288641337885" lon="11.388817155085123"><ele>532.0</ele><time>2026-05-02T13:28:52Z</time></trkpt><trkpt lat="43.57287279859936" lon="11.388692314450733"><ele>534.0</ele><time>2026-05-02T13:28:53Z</time></trkpt><trkpt lat="43.57291635599081" lon="11.388557949507021"><ele>536.0</ele><time>2026-05-02T13:28:54Z</time></trkpt><trkpt lat="43.57296993727924" lon="11.388366464329557"><ele>538.0</ele><time>2026-05-02T13:28:55Z</time></trkpt><trkpt lat="43.573029981506735" lon="11.388141135616731"><ele>538.3333333333334</ele><time>2026-05-02T13:28:56Z</time></trkpt><trkpt lat="43.57308850574148" lon="11.387900144015491"><ele>538.6666666666666</ele><time>2026-05-02T13:28:57Z</time></trkpt><trkpt lat="43.57313769124163" lon="11.387710842028595"><ele>539.0</ele><time>2026-05-02T13:28:58Z</time></trkpt><trkpt lat="43.57316464892745" lon="11.387549392292746"><ele>539.0</ele><time>2026-05-02T13:28:59Z</time></trkpt><trkpt lat="43.57315294897123" lon="11.387394167961958"><ele>539.0</ele><time>2026-05-02T13:29:00Z</time></trkpt><trkpt lat="43.573113372021744" lon="11.38722907288844"><ele>539.0</ele><time>2026-05-02T13:29:01Z</time></trkpt><trkpt lat="43.57305672163065" lon="11.387080052713717"><ele>539.0</ele><time>2026-05-02T13:29:02Z</time></trkpt><trkpt lat="43.572982457249665" lon="11.386947119623178"><ele>540.5</ele><time>2026-05-02T13:29:03Z</time></trkpt><trkpt lat="43.57289172276956" lon="11.386858981807487"><ele>542.0</ele><time>2026-05-02T13:29:04Z</time></trkpt><trkpt lat="43.57277385687174" lon="11.386802529406607"><ele>543.5</ele><time>2026-05-02T13:29:05Z</time></trkpt><trkpt lat="43.57263880144434" lon="11.386763518223347"><ele>545.0</ele><time>2026-05-02T13:29:06Z</time></trkpt><trkpt lat="43.57249660515234" lon="11.386726572942315"><ele>547.3333333333333</ele><time>2026-05-02T13:29:07Z</time></trkpt><trkpt lat="43.57235474661774" lon="11.386693826321318"><ele>549.6666666666666</ele><time>2026-05-02T13:29:08Z</time></trkpt><trkpt lat="43.57220544041797" lon="11.38667884052336"><ele>552.0</ele><time>2026-05-02T13:29:09Z</time></trkpt><trkpt lat="43.57205008901319" lon="11.386703768442041"><ele>558.6666666666666</ele><time>2026-05-02T13:29:10Z</time></trkpt><trkpt lat="43.571887628455634" lon="11.3867648689194"><ele>565.3333333333333</ele><time>2026-05-02T13:29:11Z</time></trkpt><trkpt lat="43.57172406146829" lon="11.386860352734645"><ele>572.0</ele><time>2026-05-02T13:29:12Z</time></trkpt><trkpt lat="43.571579632619724" lon="11.386989160800542"><ele>572.0</ele><time>2026-05-02T13:29:13Z</time></trkpt><trkpt lat="43.57146023354894" lon="11.387164984256895"><ele>572.0</ele><time>2026-05-02T13:29:14Z</time></trkpt><trkpt lat="43.571380101389806" lon="11.387333788424694"><ele>572.0</ele><time>2026-05-02T13:29:15Z</time></trkpt><trkpt lat="43.57128845930372" lon="11.387437393731195"><ele>572.0</ele><time>2026-05-02T13:29:16Z</time></trkpt><trkpt lat="43.571171260214626" lon="11.387484591707844"><ele>567.0</ele><time>2026-05-02T13:29:17Z</time></trkpt><trkpt lat="43.57103061968885" lon="11.387467804911243"><ele>562.0</ele><time>2026-05-02T13:29:18Z</time></trkpt><trkpt lat="43.57087847531513" lon="11.387387993326637"><ele>557.0</ele><time>2026-05-02T13:29:19Z</time></trkpt><trkpt lat="43.57073198269108" lon="11.38719330078653"><ele>563.0</ele><time>2026-05-02T13:29:20Z</time></trkpt><trkpt lat="43.57054966463163" lon="11.38703529753002"><ele>569.0</ele><time>2026-05-02T13:29:21Z</time></trkpt><trkpt lat="43.57035455403276" lon="11.386815480716345"><ele>569.0</ele><time>2026-05-02T13:29:22Z</time></trkpt><trkpt lat="43.570176022386484" lon="11.38659630023979"><ele>569.0</ele><time>2026-05-02T13:29:23Z</time></trkpt><trkpt lat="43.5699949745842" lon="11.386431049027454"><ele>575.3333333333333</ele><time>2026-05-02T13:29:24Z</time></trkpt><trkpt lat="43.569835841115896" lon="11.38630267985817"><ele>581.6666666666666</ele><time>2026-05-02T13:29:25Z</time></trkpt><trkpt lat="43.5696944415863" lon="11.386213926806292"><ele>588.0</ele><time>2026-05-02T13:29:26Z</time></trkpt><trkpt lat="43.56960339666301" lon="11.38610193487604"><ele>588.0</ele><time>2026-05-02T13:29:27Z</time></trkpt><trkpt lat="43.569516323546594" lon="11.385961403237806"><ele>588.0</ele><time>2026-05-02T13:29:28Z</time></trkpt><trkpt lat="43.56955243055454" lon="11.38578457039274"><ele>588.0</ele><time>2026-05-02T13:29:30Z</time></trkpt><trkpt lat="43.569622941586125" lon="11.385691894965086"><ele>588.0</ele><time>2026-05-02T13:29:31Z</time></trkpt><trkpt lat="43.569713554684206" lon="11.385623853092985"><ele>588.0</ele><time>2026-05-02T13:29:32Z</time></trkpt><trkpt lat="43.56982482986875" lon="11.385626496152103"><ele>588.0</ele><time>2026-05-02T13:29:33Z</time></trkpt><trkpt lat="43.56992121612871" lon="11.38570908260087"><ele>588.0</ele><time>2026-05-02T13:29:34Z</time></trkpt><trkpt lat="43.57000367057081" lon="11.385849154860953"><ele>588.0</ele><time>2026-05-02T13:29:35Z</time></trkpt><trkpt lat="43.57012579799525" lon="11.385995168449526"><ele>588.0</ele><time>2026-05-02T13:29:36Z</time></trkpt><trkpt lat="43.57024690249497" lon="11.386134964331587"><ele>588.0</ele><time>2026-05-02T13:29:37Z</time></trkpt><trkpt lat="43.57038608449219" lon="11.386248697794182"><ele>588.0</ele><time>2026-05-02T13:29:38Z</time></trkpt><trkpt lat="43.5705205594006" lon="11.386313830156706"><ele>592.0</ele><time>2026-05-02T13:29:39Z</time></trkpt><trkpt lat="43.570692301537576" lon="11.386325343172848"><ele>596.0</ele><time>2026-05-02T13:29:40Z</time></trkpt><trkpt lat="43.57090185180194" lon="11.386312127283212"><ele>600.0</ele><time>2026-05-02T13:29:41Z</time></trkpt><trkpt lat="43.57110112599851" lon="11.386308602144545"><ele>599.0</ele><time>2026-05-02T13:29:42Z</time></trkpt><trkpt lat="43.571259109504815" lon="11.38630660866723"><ele>598.0</ele><time>2026-05-02T13:29:43Z</time></trkpt><trkpt lat="43.57140131978728" lon="11.386271780931613"><ele>597.0</ele><time>2026-05-02T13:29:44Z</time></trkpt><trkpt lat="43.57153716177267" lon="11.386162868605005"><ele>597.0</ele><time>2026-05-02T13:29:45Z</time></trkpt><trkpt lat="43.571668466231735" lon="11.385983696728006"><ele>597.0</ele><time>2026-05-02T13:29:46Z</time></trkpt><trkpt lat="43.571778905039714" lon="11.385761612681373"><ele>597.0</ele><time>2026-05-02T13:29:47Z</time></trkpt><trkpt lat="43.57185453665658" lon="11.385569375101698"><ele>599.75</ele><time>2026-05-02T13:29:48Z</time></trkpt><trkpt lat="43.57189891508467" lon="11.385398059673978"><ele>602.5</ele><time>2026-05-02T13:29:49Z</time></trkpt><trkpt lat="43.571916576619934" lon="11.385225865866415"><ele>605.25</ele><time>2026-05-02T13:29:50Z</time></trkpt><trkpt lat="43.571906940583936" lon="11.385057774096683"><ele>608.0</ele><time>2026-05-02T13:29:51Z</time></trkpt><trkpt lat="43.57185920866422" lon="11.384905834412534"><ele>608.0</ele><time>2026-05-02T13:29:52Z</time></trkpt><trkpt lat="43.571774203350564" lon="11.384773941629312"><ele>608.0</ele><time>2026-05-02T13:29:53Z</time></trkpt><trkpt lat="43.57164972665683" lon="11.384685520899424"><ele>608.0</ele><time>2026-05-02T13:29:54Z</time></trkpt><trkpt lat="43.57148520527041" lon="11.384640091799103"><ele>608.0</ele><time>2026-05-02T13:29:55Z</time></trkpt><trkpt lat="43.57128359088832" lon="11.38459818538996"><ele>611.5</ele><time>2026-05-02T13:29:56Z</time></trkpt><trkpt lat="43.57105860448042" lon="11.384510214725454"><ele>615.0</ele><time>2026-05-02T13:29:57Z</time></trkpt><trkpt lat="43.57085160264849" lon="11.384362111489226"><ele>615.0</ele><time>2026-05-02T13:29:58Z</time></trkpt><trkpt lat="43.57066400213729" lon="11.384168346268423"><ele>615.0</ele><time>2026-05-02T13:29:59Z</time></trkpt><trkpt lat="43.570455629815214" lon="11.383940285448091"><ele>617.0</ele><time>2026-05-02T13:30:00Z</time></trkpt><trkpt lat="43.57028865541046" lon="11.38374043197774"><ele>619.0</ele><time>2026-05-02T13:30:01Z</time></trkpt><trkpt lat="43.57016296299273" lon="11.383538731337609"><ele>621.0</ele><time>2026-05-02T13:30:02Z</time></trkpt><trkpt lat="43.570067279369354" lon="11.383349833693956"><ele>621.0</ele><time>2026-05-02T13:30:03Z</time></trkpt><trkpt lat="43.56997960175352" lon="11.383192507805566"><ele>621.0</ele><time>2026-05-02T13:30:04Z</time></trkpt><trkpt lat="43.569903551708606" lon="11.383106348442825"><ele>621.0</ele><time>2026-05-02T13:30:05Z</time></trkpt><trkpt lat="43.569824134596395" lon="11.383062313793987"><ele>621.0</ele><time>2026-05-02T13:30:06Z</time></trkpt><trkpt lat="43.569725687352786" lon="11.38307144819914"><ele>621.0</ele><time>2026-05-02T13:30:07Z</time></trkpt><trkpt lat="43.56964717695344" lon="11.383097333246331"><ele>621.0</ele><time>2026-05-02T13:30:08Z</time></trkpt><trkpt lat="43.569564864493486" lon="11.383068335416784"><ele>621.0</ele><time>2026-05-02T13:30:09Z</time></trkpt><trkpt lat="43.56948806240922" lon="11.382965420952626"><ele>621.0</ele><time>2026-05-02T13:30:10Z</time></trkpt><trkpt lat="43.56940545242044" lon="11.382868065999716"><ele>621.0</ele><time>2026-05-02T13:30:11Z</time></trkpt><trkpt lat="43.56930337512206" lon="11.38282019386142"><ele>621.0</ele><time>2026-05-02T13:30:12Z</time></trkpt><trkpt lat="43.56919054988939" lon="11.38282945235573"><ele>621.75</ele><time>2026-05-02T13:30:13Z</time></trkpt><trkpt lat="43.56907626033323" lon="11.38286284611288"><ele>622.5</ele><time>2026-05-02T13:30:14Z</time></trkpt><trkpt lat="43.56896073004525" lon="11.382901460894269"><ele>623.25</ele><time>2026-05-02T13:30:15Z</time></trkpt><trkpt lat="43.568835523254926" lon="11.382956456309776"><ele>624.0</ele><time>2026-05-02T13:30:16Z</time></trkpt><trkpt lat="43.56870034823414" lon="11.383014263575706"><ele>630.0</ele><time>2026-05-02T13:30:17Z</time></trkpt><trkpt lat="43.56855307783345" lon="11.383077973119502"><ele>636.0</ele><time>2026-05-02T13:30:18Z</time></trkpt><trkpt lat="43.568400617060625" lon="11.383139847458393"><ele>642.0</ele><time>2026-05-02T13:30:19Z</time></trkpt><trkpt lat="43.56823948476281" lon="11.383210414243743"><ele>642.0</ele><time>2026-05-02T13:30:20Z</time></trkpt><trkpt lat="43.56807000469124" lon="11.383292418850628"><ele>642.0</ele><time>2026-05-02T13:30:21Z</time></trkpt><trkpt lat="43.5678960776304" lon="11.383373724427253"><ele>642.0</ele><time>2026-05-02T13:30:22Z</time></trkpt><trkpt lat="43.56771916672552" lon="11.383451235703888"><ele>646.3333333333334</ele><time>2026-05-02T13:30:23Z</time></trkpt><trkpt lat="43.5675417012851" lon="11.383506789741167"><ele>650.6666666666667</ele><time>2026-05-02T13:30:24Z</time></trkpt><trkpt lat="43.56737855322109" lon="11.383571549001639"><ele>655.0</ele><time>2026-05-02T13:30:25Z</time></trkpt><trkpt lat="43.567208479561884" lon="11.383614464274396"><ele>655.0</ele><time>2026-05-02T13:30:26Z</time></trkpt><trkpt lat="43.567037110759784" lon="11.383638527209555"><ele>655.0</ele><time>2026-05-02T13:30:27Z</time></trkpt><trkpt lat="43.56684331067912" lon="11.38365024763825"><ele>655.0</ele><time>2026-05-02T13:30:28Z</time></trkpt><trkpt lat="43.56664341536939" lon="11.383647348939183"><ele>659.3333333333334</ele><time>2026-05-02T13:30:29Z</time></trkpt><trkpt lat="43.566425097800135" lon="11.383631677304004"><ele>663.6666666666666</ele><time>2026-05-02T13:30:30Z</time></trkpt><trkpt lat="43.566199509666916" lon="11.383620410530447"><ele>668.0</ele><time>2026-05-02T13:30:31Z</time></trkpt><trkpt lat="43.56598217473739" lon="11.383656019966303"><ele>671.6666666666666</ele><time>2026-05-02T13:30:32Z</time></trkpt><trkpt lat="43.56577171005995" lon="11.38369254029336"><ele>675.3333333333334</ele><time>2026-05-02T13:30:33Z</time></trkpt><trkpt lat="43.56557899208198" lon="11.383763250628588"><ele>679.0</ele><time>2026-05-02T13:30:34Z</time></trkpt><trkpt lat="43.56541715256886" lon="11.38383561274268"><ele>678.0</ele><time>2026-05-02T13:30:35Z</time></trkpt><trkpt lat="43.56526320647917" lon="11.38383255019166"><ele>677.0</ele><time>2026-05-02T13:30:36Z</time></trkpt><trkpt lat="43.56510606698991" lon="11.383840403521061"><ele>676.0</ele><time>2026-05-02T13:30:37Z</time></trkpt><trkpt lat="43.564964022024654" lon="11.383880221842643"><ele>676.0</ele><time>2026-05-02T13:30:38Z</time></trkpt><trkpt lat="43.56483835943817" lon="11.383902409089009"><ele>676.0</ele><time>2026-05-02T13:30:39Z</time></trkpt><trkpt lat="43.564735763450216" lon="11.383989512360413"><ele>676.0</ele><time>2026-05-02T13:30:40Z</time></trkpt><trkpt lat="43.56464113925802" lon="11.384131649381377"><ele>676.0</ele><time>2026-05-02T13:30:41Z</time></trkpt><trkpt lat="43.564567111302594" lon="11.384290225851352"><ele>681.75</ele><time>2026-05-02T13:30:42Z</time></trkpt><trkpt lat="43.564494428105235" lon="11.384414245642485"><ele>687.5</ele><time>2026-05-02T13:30:43Z</time></trkpt><trkpt lat="43.56436859599896" lon="11.384438767348794"><ele>693.25</ele><time>2026-05-02T13:30:44Z</time></trkpt><trkpt lat="43.564209023001524" lon="11.38448897672872"><ele>699.0</ele><time>2026-05-02T13:30:45Z</time></trkpt><trkpt lat="43.56401118714919" lon="11.384552795242683"><ele>699.0</ele><time>2026-05-02T13:30:46Z</time></trkpt><trkpt lat="43.56378276534008" lon="11.38465201254251"><ele>699.0</ele><time>2026-05-02T13:30:47Z</time></trkpt><trkpt lat="43.56356099778152" lon="11.384803445195155"><ele>700.3333333333334</ele><time>2026-05-02T13:30:48Z</time></trkpt><trkpt lat="43.56338278598378" lon="11.38492461233108"><ele>701.6666666666667</ele><time>2026-05-02T13:30:49Z</time></trkpt><trkpt lat="43.56322455362314" lon="11.384988627692659"><ele>703.0</ele><time>2026-05-02T13:30:50Z</time></trkpt><trkpt lat="43.56309381728004" lon="11.385050766205524"><ele>703.0</ele><time>2026-05-02T13:30:51Z</time></trkpt><trkpt lat="43.5629941472977" lon="11.385101396062739"><ele>703.0</ele><time>2026-05-02T13:30:52Z</time></trkpt><trkpt lat="43.56292846373745" lon="11.385164116250877"><ele>703.0</ele><time>2026-05-02T13:30:53Z</time></trkpt><trkpt lat="43.562938862022555" lon="11.385050440357547"><ele>703.0</ele><time>2026-05-02T13:30:57Z</time></trkpt><trkpt lat="43.563015141408776" lon="11.38502369296057"><ele>703.0</ele><time>2026-05-02T13:30:58Z</time></trkpt><trkpt lat="43.563128608221064" lon="11.384972338601237"><ele>703.0</ele><time>2026-05-02T13:30:59Z</time></trkpt><trkpt lat="43.56324163321163" lon="11.384899111188842"><ele>703.0</ele><time>2026-05-02T13:31:00Z</time></trkpt><trkpt lat="43.563362299558676" lon="11.384805958677813"><ele>703.0</ele><time>2026-05-02T13:31:01Z</time></trkpt><trkpt lat="43.56348248176876" lon="11.384709917011483"><ele>703.0</ele><time>2026-05-02T13:31:02Z</time></trkpt><trkpt lat="43.563590952784494" lon="11.384603785088935"><ele>702.0</ele><time>2026-05-02T13:31:03Z</time></trkpt><trkpt lat="43.563690489574114" lon="11.384494121736061"><ele>701.0</ele><time>2026-05-02T13:31:04Z</time></trkpt><trkpt lat="43.56378241670598" lon="11.384397276424822"><ele>700.0</ele><time>2026-05-02T13:31:05Z</time></trkpt><trkpt lat="43.563868559473505" lon="11.384295868603411"><ele>699.0</ele><time>2026-05-02T13:31:06Z</time></trkpt><trkpt lat="43.56394235678354" lon="11.38417947162014"><ele>699.0</ele><time>2026-05-02T13:31:07Z</time></trkpt><trkpt lat="43.563998961586634" lon="11.384049864087041"><ele>699.0</ele><time>2026-05-02T13:31:08Z</time></trkpt><trkpt lat="43.564060325960895" lon="11.383921911464007"><ele>699.0</ele><time>2026-05-02T13:31:09Z</time></trkpt><trkpt lat="43.56411410813851" lon="11.383799069411028"><ele>699.0</ele><time>2026-05-02T13:31:10Z</time></trkpt><trkpt lat="43.56416778347149" lon="11.383679600199253"><ele>699.0</ele><time>2026-05-02T13:31:11Z</time></trkpt><trkpt lat="43.56422110520375" lon="11.383553217937951"><ele>701.6</ele><time>2026-05-02T13:31:12Z</time></trkpt><trkpt lat="43.56425710727156" lon="11.383421384639755"><ele>704.2</ele><time>2026-05-02T13:31:13Z</time></trkpt><trkpt lat="43.564272130420356" lon="11.383272810603122"><ele>706.8000000000001</ele><time>2026-05-02T13:31:14Z</time></trkpt><trkpt lat="43.56428408243256" lon="11.38310990826853"><ele>709.4000000000001</ele><time>2026-05-02T13:31:15Z</time></trkpt><trkpt lat="43.56429016646229" lon="11.382957121299583"><ele>712.0</ele><time>2026-05-02T13:31:16Z</time></trkpt><trkpt lat="43.56427103756745" lon="11.382813286021545"><ele>712.8333333333334</ele><time>2026-05-02T13:31:17Z</time></trkpt><trkpt lat="43.564241635592225" lon="11.382700354405893"><ele>713.6666666666667</ele><time>2026-05-02T13:31:18Z</time></trkpt><trkpt lat="43.564236858471055" lon="11.382603087774413"><ele>714.5</ele><time>2026-05-02T13:31:19Z</time></trkpt><trkpt lat="43.56426390148962" lon="11.382524530136262"><ele>715.3333333333334</ele><time>2026-05-02T13:31:20Z</time></trkpt><trkpt lat="43.564323477402" lon="11.382479295563087"><ele>716.1666666666666</ele><time>2026-05-02T13:31:21Z</time></trkpt><trkpt lat="43.564444805486325" lon="11.382531822759551"><ele>717.0</ele><time>2026-05-02T13:31:22Z</time></trkpt><trkpt lat="43.56457237789116" lon="11.382523497384955"><ele>717.0</ele><time>2026-05-02T13:31:23Z</time></trkpt><trkpt lat="43.56469782791216" lon="11.382505937332711"><ele>717.0</ele><time>2026-05-02T13:31:24Z</time></trkpt><trkpt lat="43.56480318232957" lon="11.382514740423867"><ele>717.0</ele><time>2026-05-02T13:31:25Z</time></trkpt><trkpt lat="43.56488894041547" lon="11.3825124260528"><ele>717.0</ele><time>2026-05-02T13:31:26Z</time></trkpt><trkpt lat="43.564970760441824" lon="11.38248463126465"><ele>717.0</ele><time>2026-05-02T13:31:27Z</time></trkpt><trkpt lat="43.56503409079826" lon="11.382383270042988"><ele>717.0</ele><time>2026-05-02T13:31:28Z</time></trkpt><trkpt lat="43.56508959876929" lon="11.382234598660993"><ele>717.0</ele><time>2026-05-02T13:31:29Z</time></trkpt><trkpt lat="43.56514384586598" lon="11.382080410745269"><ele>717.0</ele><time>2026-05-02T13:31:30Z</time></trkpt><trkpt lat="43.5652150573445" lon="11.381951973684103"><ele>717.0</ele><time>2026-05-02T13:31:31Z</time></trkpt><trkpt lat="43.565325950428985" lon="11.381891254527003"><ele>720.3333333333334</ele><time>2026-05-02T13:31:32Z</time></trkpt><trkpt lat="43.56544993775283" lon="11.381790523114063"><ele>723.6666666666667</ele><time>2026-05-02T13:31:33Z</time></trkpt><trkpt lat="43.565599128387014" lon="11.381705234934916"><ele>727.0</ele><time>2026-05-02T13:31:34Z</time></trkpt><trkpt lat="43.565733232746425" lon="11.381616259654942"><ele>727.0</ele><time>2026-05-02T13:31:35Z</time></trkpt><trkpt lat="43.56585541804509" lon="11.381503100428278"><ele>727.0</ele><time>2026-05-02T13:31:36Z</time></trkpt><trkpt lat="43.56596763240052" lon="11.381387907175714"><ele>727.0</ele><time>2026-05-02T13:31:37Z</time></trkpt><trkpt lat="43.566070506962056" lon="11.38128508361603"><ele>727.0</ele><time>2026-05-02T13:31:38Z</time></trkpt><trkpt lat="43.56618672381071" lon="11.381184536412626"><ele>728.75</ele><time>2026-05-02T13:31:39Z</time></trkpt><trkpt lat="43.56630441980216" lon="11.381089717460306"><ele>730.5</ele><time>2026-05-02T13:31:40Z</time></trkpt><trkpt lat="43.5664018205538" lon="11.381009122052234"><ele>732.25</ele><time>2026-05-02T13:31:41Z</time></trkpt><trkpt lat="43.566498207975826" lon="11.381008192028586"><ele>734.0</ele><time>2026-05-02T13:31:42Z</time></trkpt><trkpt lat="43.56660873645055" lon="11.381015585446578"><ele>734.0</ele><time>2026-05-02T13:31:43Z</time></trkpt><trkpt lat="43.566719211904875" lon="11.380989493682462"><ele>734.0</ele><time>2026-05-02T13:31:44Z</time></trkpt><trkpt lat="43.566818491909004" lon="11.380907561870671"><ele>734.0</ele><time>2026-05-02T13:31:45Z</time></trkpt><trkpt lat="43.56693759223024" lon="11.380809600602387"><ele>734.0</ele><time>2026-05-02T13:31:46Z</time></trkpt><trkpt lat="43.56704394791198" lon="11.38070301327515"><ele>731.25</ele><time>2026-05-02T13:31:47Z</time></trkpt><trkpt lat="43.56714455130534" lon="11.38061176647684"><ele>728.5</ele><time>2026-05-02T13:31:48Z</time></trkpt><trkpt lat="43.56724158593495" lon="11.380531280169892"><ele>725.75</ele><time>2026-05-02T13:31:49Z</time></trkpt><trkpt lat="43.5673380154582" lon="11.38044976464516"><ele>723.0</ele><time>2026-05-02T13:31:50Z</time></trkpt><trkpt lat="43.56742505120897" lon="11.380371232883315"><ele>724.4</ele><time>2026-05-02T13:31:51Z</time></trkpt><trkpt lat="43.56750935955311" lon="11.380295661791216"><ele>725.8</ele><time>2026-05-02T13:31:52Z</time></trkpt><trkpt lat="43.56759836820656" lon="11.380227749805346"><ele>727.2</ele><time>2026-05-02T13:31:53Z</time></trkpt><trkpt lat="43.56769751291717" lon="11.38023734420379"><ele>728.6</ele><time>2026-05-02T13:31:54Z</time></trkpt><trkpt lat="43.56780272446521" lon="11.380208734575866"><ele>730.0</ele><time>2026-05-02T13:31:55Z</time></trkpt><trkpt lat="43.56789476170873" lon="11.38020383868046"><ele>730.0</ele><time>2026-05-02T13:31:56Z</time></trkpt><trkpt lat="43.56797978701358" lon="11.380155200562335"><ele>730.0</ele><time>2026-05-02T13:31:57Z</time></trkpt><trkpt lat="43.568054619767274" lon="11.38005486306355"><ele>730.0</ele><time>2026-05-02T13:31:58Z</time></trkpt><trkpt lat="43.56812053668639" lon="11.37990866988859"><ele>730.0</ele><time>2026-05-02T13:31:59Z</time></trkpt><trkpt lat="43.56816304656731" lon="11.379732878152922"><ele>733.8</ele><time>2026-05-02T13:32:00Z</time></trkpt><trkpt lat="43.56818111143755" lon="11.379579829557061"><ele>737.6</ele><time>2026-05-02T13:32:01Z</time></trkpt><trkpt lat="43.5682096851081" lon="11.379447532188761"><ele>741.4000000000001</ele><time>2026-05-02T13:32:02Z</time></trkpt><trkpt lat="43.56828323142763" lon="11.37935084783597"><ele>745.2</ele><time>2026-05-02T13:32:03Z</time></trkpt><trkpt lat="43.568389468633825" lon="11.379280053510804"><ele>749.0</ele><time>2026-05-02T13:32:04Z</time></trkpt><trkpt lat="43.56850580617085" lon="11.37916131284064"><ele>749.0</ele><time>2026-05-02T13:32:05Z</time></trkpt><trkpt lat="43.56863738048221" lon="11.379015386106628"><ele>749.0</ele><time>2026-05-02T13:32:06Z</time></trkpt><trkpt lat="43.568781863075316" lon="11.378842575220345"><ele>749.0</ele><time>2026-05-02T13:32:07Z</time></trkpt><trkpt lat="43.56890358651264" lon="11.378698101243769"><ele>748.8000000000001</ele><time>2026-05-02T13:32:08Z</time></trkpt><trkpt lat="43.56900588036992" lon="11.378577585814305"><ele>748.6</ele><time>2026-05-02T13:32:09Z</time></trkpt><trkpt lat="43.569089899977676" lon="11.378462653269066"><ele>748.4</ele><time>2026-05-02T13:32:10Z</time></trkpt><trkpt lat="43.56915718426952" lon="11.378359382916557"><ele>748.2</ele><time>2026-05-02T13:32:11Z</time></trkpt><trkpt lat="43.56922390861085" lon="11.37827580537239"><ele>748.0</ele><time>2026-05-02T13:32:12Z</time></trkpt><trkpt lat="43.56928949315209" lon="11.378202611232796"><ele>748.0</ele><time>2026-05-02T13:32:13Z</time></trkpt><trkpt lat="43.569341349712765" lon="11.378126339581248"><ele>748.0</ele><time>2026-05-02T13:32:14Z</time></trkpt><trkpt lat="43.56939892553158" lon="11.378082212909385"><ele>748.0</ele><time>2026-05-02T13:32:15Z</time></trkpt><trkpt lat="43.56945835809753" lon="11.377961111746849"><ele>748.0</ele><time>2026-05-02T13:32:17Z</time></trkpt><trkpt lat="43.56941131713227" lon="11.377880244724214"><ele>748.0</ele><time>2026-05-02T13:32:19Z</time></trkpt><trkpt lat="43.56934811844937" lon="11.377862970489085"><ele>748.0</ele><time>2026-05-02T13:32:21Z</time></trkpt><trkpt lat="43.56928972692513" lon="11.377916851234364"><ele>748.0</ele><time>2026-05-02T13:33:17Z</time></trkpt><trkpt lat="43.569205386481094" lon="11.378004587217307"><ele>748.0</ele><time>2026-05-02T13:33:19Z</time></trkpt><trkpt lat="43.56911839529873" lon="11.378107752636566"><ele>748.0</ele><time>2026-05-02T13:33:21Z</time></trkpt><trkpt lat="43.56906293837992" lon="11.378172851663116"><ele>748.0</ele><time>2026-05-02T13:33:22Z</time></trkpt><trkpt lat="43.56900972382264" lon="11.37822992418056"><ele>748.0</ele><time>2026-05-02T13:33:23Z</time></trkpt><trkpt lat="43.56895579185055" lon="11.378275930090258"><ele>748.0</ele><time>2026-05-02T13:33:24Z</time></trkpt><trkpt lat="43.56884636011551" lon="11.378301492511964"><ele>748.0</ele><time>2026-05-02T13:33:26Z</time></trkpt><trkpt lat="43.56875444678701" lon="11.37830270737371"><ele>748.0</ele><time>2026-05-02T13:33:28Z</time></trkpt><trkpt lat="43.56872327745321" lon="11.378225619509104"><ele>748.0</ele><time>2026-05-02T13:33:29Z</time></trkpt><trkpt lat="43.568684009320265" lon="11.378074148510008"><ele>748.0</ele><time>2026-05-02T13:33:31Z</time></trkpt><trkpt lat="43.568656318211715" lon="11.377974078093544"><ele>748.0</ele><time>2026-05-02T13:33:32Z</time></trkpt><trkpt lat="43.56862565514415" lon="11.37786197062354"><ele>748.0</ele><time>2026-05-02T13:33:33Z</time></trkpt><trkpt lat="43.56859127474952" lon="11.377736272052624"><ele>751.0</ele><time>2026-05-02T13:33:34Z</time></trkpt><trkpt lat="43.56854744842304" lon="11.377612749719969"><ele>754.0</ele><time>2026-05-02T13:33:35Z</time></trkpt><trkpt lat="43.56851725303744" lon="11.377485764319895"><ele>757.0</ele><time>2026-05-02T13:33:36Z</time></trkpt><trkpt lat="43.568479861852076" lon="11.377366996488162"><ele>760.0</ele><time>2026-05-02T13:33:37Z</time></trkpt><trkpt lat="43.568443978692784" lon="11.37725948138078"><ele>763.0</ele><time>2026-05-02T13:33:38Z</time></trkpt><trkpt lat="43.56840765538356" lon="11.377157379250558"><ele>763.0</ele><time>2026-05-02T13:33:39Z</time></trkpt><trkpt lat="43.568362100083235" lon="11.377081040577018"><ele>763.0</ele><time>2026-05-02T13:33:40Z</time></trkpt><trkpt lat="43.56825062814056" lon="11.37702538115535"><ele>763.0</ele><time>2026-05-02T13:33:42Z</time></trkpt><trkpt lat="43.56818628763035" lon="11.377045987989902"><ele>763.0</ele><time>2026-05-02T13:33:43Z</time></trkpt><trkpt lat="43.56813079457657" lon="11.377099759505867"><ele>763.0</ele><time>2026-05-02T13:33:44Z</time></trkpt><trkpt lat="43.568093533550865" lon="11.377173575970742"><ele>763.0</ele><time>2026-05-02T13:33:45Z</time></trkpt><trkpt lat="43.568075061052355" lon="11.377265838474152"><ele>763.4</ele><time>2026-05-02T13:33:46Z</time></trkpt><trkpt lat="43.56807652594255" lon="11.377383059643254"><ele>763.8</ele><time>2026-05-02T13:33:47Z</time></trkpt><trkpt lat="43.56808088150106" lon="11.37750760499849"><ele>764.2</ele><time>2026-05-02T13:33:48Z</time></trkpt><trkpt lat="43.568075248316624" lon="11.377627437540324"><ele>764.6</ele><time>2026-05-02T13:33:49Z</time></trkpt><trkpt lat="43.56804009559246" lon="11.377746378412395"><ele>765.0</ele><time>2026-05-02T13:33:50Z</time></trkpt><trkpt lat="43.56795692612439" lon="11.377815713548094"><ele>765.0</ele><time>2026-05-02T13:33:51Z</time></trkpt><trkpt lat="43.56788306095804" lon="11.377895085936403"><ele>765.0</ele><time>2026-05-02T13:33:52Z</time></trkpt><trkpt lat="43.567807424269304" lon="11.377981326358693"><ele>765.0</ele><time>2026-05-02T13:33:53Z</time></trkpt><trkpt lat="43.567726876807306" lon="11.378063973396625"><ele>765.0</ele><time>2026-05-02T13:33:54Z</time></trkpt><trkpt lat="43.56764085579821" lon="11.378122192450041"><ele>765.0</ele><time>2026-05-02T13:33:55Z</time></trkpt><trkpt lat="43.56756303931107" lon="11.378156629389446"><ele>767.2</ele><time>2026-05-02T13:33:56Z</time></trkpt><trkpt lat="43.567474730222294" lon="11.378172033668637"><ele>769.4</ele><time>2026-05-02T13:33:57Z</time></trkpt><trkpt lat="43.56738051793245" lon="11.378157305163894"><ele>771.5999999999999</ele><time>2026-05-02T13:33:58Z</time></trkpt><trkpt lat="43.56728314594534" lon="11.37813468852927"><ele>773.8</ele><time>2026-05-02T13:33:59Z</time></trkpt><trkpt lat="43.567187304460205" lon="11.378110786628538"><ele>776.0</ele><time>2026-05-02T13:34:00Z</time></trkpt><trkpt lat="43.56708363379352" lon="11.378084501607683"><ele>777.4</ele><time>2026-05-02T13:34:01Z</time></trkpt><trkpt lat="43.566976634055706" lon="11.378055070173591"><ele>778.8</ele><time>2026-05-02T13:34:02Z</time></trkpt><trkpt lat="43.566871437600845" lon="11.378024087627303"><ele>780.1999999999999</ele><time>2026-05-02T13:34:03Z</time></trkpt><trkpt lat="43.5667634927826" lon="11.377996374503216"><ele>781.5999999999999</ele><time>2026-05-02T13:34:04Z</time></trkpt><trkpt lat="43.56665531191747" lon="11.37798275556356"><ele>783.0</ele><time>2026-05-02T13:34:05Z</time></trkpt><trkpt lat="43.56655583198243" lon="11.377940168304907"><ele>783.0</ele><time>2026-05-02T13:34:06Z</time></trkpt><trkpt lat="43.56645431795091" lon="11.377898066656826"><ele>783.0</ele><time>2026-05-02T13:34:07Z</time></trkpt><trkpt lat="43.56635911039276" lon="11.3778438159013"><ele>783.0</ele><time>2026-05-02T13:34:08Z</time></trkpt><trkpt lat="43.56627719959913" lon="11.377794963773665"><ele>783.0</ele><time>2026-05-02T13:34:09Z</time></trkpt><trkpt lat="43.56620291775473" lon="11.377722948349302"><ele>783.0</ele><time>2026-05-02T13:34:10Z</time></trkpt><trkpt lat="43.56612728189644" lon="11.377674694530983"><ele>784.8333333333334</ele><time>2026-05-02T13:34:11Z</time></trkpt><trkpt lat="43.56604426367563" lon="11.377635885935753"><ele>786.6666666666667</ele><time>2026-05-02T13:34:12Z</time></trkpt><trkpt lat="43.56595642402291" lon="11.377611306683967"><ele>788.5</ele><time>2026-05-02T13:34:13Z</time></trkpt><trkpt lat="43.5658694266771" lon="11.377606236176177"><ele>790.3333333333334</ele><time>2026-05-02T13:34:14Z</time></trkpt><trkpt lat="43.56578754664831" lon="11.377639449675398"><ele>792.1666666666667</ele><time>2026-05-02T13:34:15Z</time></trkpt><trkpt lat="43.56570409975656" lon="11.377679586332185"><ele>794.0</ele><time>2026-05-02T13:34:16Z</time></trkpt><trkpt lat="43.565625405510794" lon="11.377745161082796"><ele>794.0</ele><time>2026-05-02T13:34:17Z</time></trkpt><trkpt lat="43.56554802179926" lon="11.377821810814297"><ele>794.0</ele><time>2026-05-02T13:34:18Z</time></trkpt><trkpt lat="43.56546749391076" lon="11.377912069949133"><ele>794.0</ele><time>2026-05-02T13:34:19Z</time></trkpt><trkpt lat="43.565380193649574" lon="11.378033736416077"><ele>794.0</ele><time>2026-05-02T13:34:20Z</time></trkpt><trkpt lat="43.565294172492024" lon="11.378137569883217"><ele>794.0</ele><time>2026-05-02T13:34:21Z</time></trkpt><trkpt lat="43.565222557930724" lon="11.378241529442564"><ele>796.6</ele><time>2026-05-02T13:34:22Z</time></trkpt><trkpt lat="43.565142716954156" lon="11.378321680294443"><ele>799.2</ele><time>2026-05-02T13:34:23Z</time></trkpt><trkpt lat="43.56507009037452" lon="11.378397316384927"><ele>801.8000000000001</ele><time>2026-05-02T13:34:24Z</time></trkpt><trkpt lat="43.564996605168844" lon="11.378460711575164"><ele>804.4000000000001</ele><time>2026-05-02T13:34:25Z</time></trkpt><trkpt lat="43.56491681318628" lon="11.378516893042038"><ele>807.0</ele><time>2026-05-02T13:34:26Z</time></trkpt><trkpt lat="43.564832228552824" lon="11.3785685812331"><ele>807.0</ele><time>2026-05-02T13:34:27Z</time></trkpt><trkpt lat="43.56474819490632" lon="11.378612324209808"><ele>807.0</ele><time>2026-05-02T13:34:28Z</time></trkpt><trkpt lat="43.56465972318328" lon="11.378649535447831"><ele>807.0</ele><time>2026-05-02T13:34:29Z</time></trkpt><trkpt lat="43.56456242110514" lon="11.378700343347676"><ele>807.0</ele><time>2026-05-02T13:34:30Z</time></trkpt><trkpt lat="43.56446339405584" lon="11.378730540245192"><ele>807.0</ele><time>2026-05-02T13:34:31.001Z</time></trkpt><trkpt lat="43.564368199490616" lon="11.378732799113823"><ele>810.0</ele><time>2026-05-02T13:34:32.001Z</time></trkpt><trkpt lat="43.564279044467675" lon="11.378753333159308"><ele>813.0</ele><time>2026-05-02T13:34:33.001Z</time></trkpt><trkpt lat="43.56419475017221" lon="11.378771967470692"><ele>816.0</ele><time>2026-05-02T13:34:34.001Z</time></trkpt><trkpt lat="43.56411304542009" lon="11.378784890465088"><ele>819.0</ele><time>2026-05-02T13:34:35.001Z</time></trkpt><trkpt lat="43.5640410612689" lon="11.37878710279804"><ele>822.0</ele><time>2026-05-02T13:34:36.001Z</time></trkpt><trkpt lat="43.563921879927875" lon="11.378740120545439"><ele>822.0</ele><time>2026-05-02T13:34:38.001Z</time></trkpt><trkpt lat="43.56386303618023" lon="11.37869251503523"><ele>822.0</ele><time>2026-05-02T13:34:39.001Z</time></trkpt><trkpt lat="43.56382956685305" lon="11.37852620502484"><ele>822.0</ele><time>2026-05-02T13:34:41Z</time></trkpt><trkpt lat="43.56386310375639" lon="11.378355359460606"><ele>822.0</ele><time>2026-05-02T13:34:43Z</time></trkpt><trkpt lat="43.56390564604859" lon="11.378257541091585"><ele>822.0</ele><time>2026-05-02T13:34:44Z</time></trkpt><trkpt lat="43.563948359736486" lon="11.378150176687521"><ele>822.0</ele><time>2026-05-02T13:34:45Z</time></trkpt><trkpt lat="43.56395341269681" lon="11.378053869687948"><ele>822.0</ele><time>2026-05-02T13:34:46Z</time></trkpt><trkpt lat="43.563910494579986" lon="11.377889656575677"><ele>822.0</ele><time>2026-05-02T13:34:48Z</time></trkpt><trkpt lat="43.56385161935325" lon="11.377820376970762"><ele>822.0</ele><time>2026-05-02T13:34:49Z</time></trkpt><trkpt lat="43.56377195585545" lon="11.37778247224713"><ele>822.0</ele><time>2026-05-02T13:34:50Z</time></trkpt><trkpt lat="43.563682467722465" lon="11.377743430444518"><ele>823.4000000000001</ele><time>2026-05-02T13:34:51Z</time></trkpt><trkpt lat="43.56357733778491" lon="11.37778479672722"><ele>824.8000000000001</ele><time>2026-05-02T13:34:52Z</time></trkpt><trkpt lat="43.56347291394801" lon="11.37779356351926"><ele>826.2</ele><time>2026-05-02T13:34:53Z</time></trkpt><trkpt lat="43.563371515497316" lon="11.377831762125657"><ele>827.6</ele><time>2026-05-02T13:34:54Z</time></trkpt><trkpt lat="43.56327184356727" lon="11.377877775113069"><ele>829.0</ele><time>2026-05-02T13:34:55Z</time></trkpt><trkpt lat="43.563176129493115" lon="11.37792705871715"><ele>829.0</ele><time>2026-05-02T13:34:56Z</time></trkpt><trkpt lat="43.56308239341448" lon="11.377975323745957"><ele>829.0</ele><time>2026-05-02T13:34:57Z</time></trkpt><trkpt lat="43.56298818351337" lon="11.378025993950803"><ele>829.0</ele><time>2026-05-02T13:34:58Z</time></trkpt><trkpt lat="43.56290285783446" lon="11.378096597553913"><ele>829.0</ele><time>2026-05-02T13:34:59Z</time></trkpt><trkpt lat="43.56281267913998" lon="11.378136588952529"><ele>829.0</ele><time>2026-05-02T13:35:00Z</time></trkpt><trkpt lat="43.56271788921582" lon="11.378183653772604"><ele>831.8000000000001</ele><time>2026-05-02T13:35:01Z</time></trkpt><trkpt lat="43.56261527061057" lon="11.378206725883347"><ele>834.6</ele><time>2026-05-02T13:35:02Z</time></trkpt><trkpt lat="43.56252937095815" lon="11.378291307338737"><ele>837.4</ele><time>2026-05-02T13:35:03Z</time></trkpt><trkpt lat="43.56244639784646" lon="11.378350522275737"><ele>840.2</ele><time>2026-05-02T13:35:04Z</time></trkpt><trkpt lat="43.5623780150706" lon="11.378412972633559"><ele>843.0</ele><time>2026-05-02T13:35:05Z</time></trkpt><trkpt lat="43.5623330797989" lon="11.378484407806486"><ele>843.0</ele><time>2026-05-02T13:35:06Z</time></trkpt><trkpt lat="43.5622787369614" lon="11.378553589895517"><ele>843.0</ele><time>2026-05-02T13:35:07Z</time></trkpt><trkpt lat="43.56222643906383" lon="11.378643425162155"><ele>843.0</ele><time>2026-05-02T13:35:08Z</time></trkpt><trkpt lat="43.56217576604661" lon="11.378739493359872"><ele>843.0</ele><time>2026-05-02T13:35:09Z</time></trkpt><trkpt lat="43.56212574459327" lon="11.378849054395149"><ele>843.0</ele><time>2026-05-02T13:35:10Z</time></trkpt><trkpt lat="43.56207988903385" lon="11.378972177346188"><ele>843.0</ele><time>2026-05-02T13:35:11Z</time></trkpt><trkpt lat="43.56203727812163" lon="11.379106046278578"><ele>848.75</ele><time>2026-05-02T13:35:12Z</time></trkpt><trkpt lat="43.561978121440276" lon="11.379236236997725"><ele>854.5</ele><time>2026-05-02T13:35:13Z</time></trkpt><trkpt lat="43.56189651810223" lon="11.379344798580304"><ele>860.25</ele><time>2026-05-02T13:35:14Z</time></trkpt><trkpt lat="43.56181898119867" lon="11.379465774369814"><ele>866.0</ele><time>2026-05-02T13:35:15Z</time></trkpt><trkpt lat="43.56174084829716" lon="11.379582730065117"><ele>863.4</ele><time>2026-05-02T13:35:16Z</time></trkpt><trkpt lat="43.5616646191339" lon="11.379698360305843"><ele>860.8</ele><time>2026-05-02T13:35:17Z</time></trkpt><trkpt lat="43.56160124348398" lon="11.379805537545451"><ele>858.1999999999999</ele><time>2026-05-02T13:35:18Z</time></trkpt><trkpt lat="43.56154968512939" lon="11.37990318920904"><ele>855.5999999999999</ele><time>2026-05-02T13:35:19Z</time></trkpt><trkpt lat="43.561503149585036" lon="11.379992911657144"><ele>853.0</ele><time>2026-05-02T13:35:20Z</time></trkpt><trkpt lat="43.56145041669952" lon="11.380075437637366"><ele>852.9999999999999</ele><time>2026-05-02T13:35:21Z</time></trkpt><trkpt lat="43.56138952598004" lon="11.380158008671527"><ele>853.0</ele><time>2026-05-02T13:35:22Z</time></trkpt><trkpt lat="43.56133353789999" lon="11.380216762152322"><ele>853.0</ele><time>2026-05-02T13:35:23Z</time></trkpt><trkpt lat="43.56127220991885" lon="11.380274166905172"><ele>853.0</ele><time>2026-05-02T13:35:24Z</time></trkpt><trkpt lat="43.56120215769802" lon="11.380322929336538"><ele>852.9999999999999</ele><time>2026-05-02T13:35:25Z</time></trkpt><trkpt lat="43.561134693518056" lon="11.380366252008233"><ele>853.0</ele><time>2026-05-02T13:35:26Z</time></trkpt><trkpt lat="43.56105856185863" lon="11.380409617043936"><ele>851.8333333333333</ele><time>2026-05-02T13:35:27Z</time></trkpt><trkpt lat="43.56097499671511" lon="11.380458403654956"><ele>850.6666666666666</ele><time>2026-05-02T13:35:28Z</time></trkpt><trkpt lat="43.5608900339163" lon="11.380492552724771"><ele>849.5</ele><time>2026-05-02T13:35:29Z</time></trkpt><trkpt lat="43.5608183653302" lon="11.380518697059523"><ele>848.3333333333333</ele><time>2026-05-02T13:35:30Z</time></trkpt><trkpt lat="43.56075469940914" lon="11.380551514355094"><ele>847.1666666666666</ele><time>2026-05-02T13:35:31Z</time></trkpt><trkpt lat="43.560680431668445" lon="11.38057163986766"><ele>846.0</ele><time>2026-05-02T13:35:32Z</time></trkpt><trkpt lat="43.56061238653142" lon="11.380599842153837"><ele>846.0</ele><time>2026-05-02T13:35:33Z</time></trkpt><trkpt lat="43.56054788095778" lon="11.380616648619913"><ele>846.0</ele><time>2026-05-02T13:35:34Z</time></trkpt><trkpt lat="43.56048169994434" lon="11.380633210170643"><ele>846.0</ele><time>2026-05-02T13:35:35Z</time></trkpt><trkpt lat="43.560416086764704" lon="11.380666163099193"><ele>846.0</ele><time>2026-05-02T13:35:36Z</time></trkpt><trkpt lat="43.56034682731324" lon="11.38069479123046"><ele>846.0</ele><time>2026-05-02T13:35:37Z</time></trkpt><trkpt lat="43.56029452668626" lon="11.38080157156897"><ele>846.0</ele><time>2026-05-02T13:35:38Z</time></trkpt><trkpt lat="43.56023063174343" lon="11.380909988827042"><ele>846.25</ele><time>2026-05-02T13:35:39Z</time></trkpt><trkpt lat="43.56015606498476" lon="11.381035348821404"><ele>846.5</ele><time>2026-05-02T13:35:40Z</time></trkpt><trkpt lat="43.56008717408451" lon="11.381169232913466"><ele>846.75</ele><time>2026-05-02T13:35:41Z</time></trkpt><trkpt lat="43.56001604677924" lon="11.381301688614181"><ele>847.0</ele><time>2026-05-02T13:35:42Z</time></trkpt><trkpt lat="43.559925852333116" lon="11.38142309935842"><ele>845.0</ele><time>2026-05-02T13:35:43Z</time></trkpt><trkpt lat="43.559840941697765" lon="11.38156564899655"><ele>843.0</ele><time>2026-05-02T13:35:44Z</time></trkpt><trkpt lat="43.55975751422144" lon="11.381709351066151"><ele>841.0</ele><time>2026-05-02T13:35:45Z</time></trkpt><trkpt lat="43.55967830713815" lon="11.38185022165923"><ele>839.0</ele><time>2026-05-02T13:35:46Z</time></trkpt><trkpt lat="43.55960752935846" lon="11.381995117603893"><ele>839.2</ele><time>2026-05-02T13:35:47Z</time></trkpt><trkpt lat="43.5595262511427" lon="11.382117690493153"><ele>839.4000000000001</ele><time>2026-05-02T13:35:48Z</time></trkpt><trkpt lat="43.55944967141144" lon="11.382236008752463"><ele>839.6</ele><time>2026-05-02T13:35:49Z</time></trkpt><trkpt lat="43.55937465771644" lon="11.38235248958385"><ele>839.8</ele><time>2026-05-02T13:35:50Z</time></trkpt><trkpt lat="43.55930606417935" lon="11.382454447339494"><ele>840.0</ele><time>2026-05-02T13:35:51Z</time></trkpt><trkpt lat="43.55924273766104" lon="11.38254495462655"><ele>840.8</ele><time>2026-05-02T13:35:52Z</time></trkpt><trkpt lat="43.55917026029711" lon="11.382623830875332"><ele>841.6</ele><time>2026-05-02T13:35:53Z</time></trkpt><trkpt lat="43.559092600686725" lon="11.382697163074962"><ele>842.4000000000001</ele><time>2026-05-02T13:35:54Z</time></trkpt><trkpt lat="43.5590089371436" lon="11.382754973381651"><ele>843.2</ele><time>2026-05-02T13:35:55Z</time></trkpt><trkpt lat="43.558915425207246" lon="11.382791693623187"><ele>844.0</ele><time>2026-05-02T13:35:56Z</time></trkpt><trkpt lat="43.55881631343457" lon="11.382798137176769"><ele>844.0</ele><time>2026-05-02T13:35:57Z</time></trkpt><trkpt lat="43.55871289421333" lon="11.382825028528158"><ele>844.0</ele><time>2026-05-02T13:35:58Z</time></trkpt><trkpt lat="43.5586265038277" lon="11.382871397411167"><ele>844.0</ele><time>2026-05-02T13:35:59Z</time></trkpt><trkpt lat="43.55854266695975" lon="11.382901973771524"><ele>844.0</ele><time>2026-05-02T13:36:00Z</time></trkpt><trkpt lat="43.5584635366658" lon="11.382952884505347"><ele>844.0</ele><time>2026-05-02T13:36:01Z</time></trkpt><trkpt lat="43.55838637129845" lon="11.383017332344487"><ele>846.4000000000001</ele><time>2026-05-02T13:36:02Z</time></trkpt><trkpt lat="43.558317389918" lon="11.383090549352005"><ele>848.8</ele><time>2026-05-02T13:36:03Z</time></trkpt><trkpt lat="43.55824181380949" lon="11.383191094304472"><ele>851.1999999999999</ele><time>2026-05-02T13:36:04Z</time></trkpt><trkpt lat="43.55815929009171" lon="11.383287591234401"><ele>853.5999999999999</ele><time>2026-05-02T13:36:05Z</time></trkpt><trkpt lat="43.55805253377757" lon="11.383341483026793"><ele>856.0</ele><time>2026-05-02T13:36:06Z</time></trkpt><trkpt lat="43.55795644088315" lon="11.383412150865801"><ele>855.5</ele><time>2026-05-02T13:36:07Z</time></trkpt><trkpt lat="43.55783555729933" lon="11.38347214803349"><ele>855.0</ele><time>2026-05-02T13:36:08Z</time></trkpt><trkpt lat="43.55771825888921" lon="11.38354450712748"><ele>854.5</ele><time>2026-05-02T13:36:09Z</time></trkpt><trkpt lat="43.557620322680414" lon="11.383601002363806"><ele>854.0</ele><time>2026-05-02T13:36:10Z</time></trkpt><trkpt lat="43.5575201174369" lon="11.383658134354443"><ele>854.0000000000001</ele><time>2026-05-02T13:36:11Z</time></trkpt><trkpt lat="43.557433614679276" lon="11.383698377437462"><ele>854.0</ele><time>2026-05-02T13:36:12Z</time></trkpt><trkpt lat="43.55736004684367" lon="11.383718258850841"><ele>854.0</ele><time>2026-05-02T13:36:13Z</time></trkpt><trkpt lat="43.55728706768491" lon="11.383733318498486"><ele>854.0</ele><time>2026-05-02T13:36:14Z</time></trkpt><trkpt lat="43.55721290919532" lon="11.383737445207212"><ele>854.0000000000001</ele><time>2026-05-02T13:36:15Z</time></trkpt><trkpt lat="43.557141533924046" lon="11.383727495878661"><ele>854.0</ele><time>2026-05-02T13:36:16Z</time></trkpt><trkpt lat="43.5570511638559" lon="11.383702341174464"><ele>854.0</ele><time>2026-05-02T13:36:17Z</time></trkpt><trkpt lat="43.55696925270885" lon="11.383678639174288"><ele>854.0000000000001</ele><time>2026-05-02T13:36:18Z</time></trkpt><trkpt lat="43.55690135940071" lon="11.38363670816589"><ele>854.0000000000001</ele><time>2026-05-02T13:36:19Z</time></trkpt><trkpt lat="43.55681012150245" lon="11.383635844318276"><ele>854.0</ele><time>2026-05-02T13:36:20Z</time></trkpt><trkpt lat="43.556713017179845" lon="11.383628863112273"><ele>854.0</ele><time>2026-05-02T13:36:21Z</time></trkpt><trkpt lat="43.55661041277555" lon="11.383674758560618"><ele>854.0</ele><time>2026-05-02T13:36:22Z</time></trkpt><trkpt lat="43.5565071869568" lon="11.383728485808437"><ele>854.0000000000001</ele><time>2026-05-02T13:36:23Z</time></trkpt><trkpt lat="43.55640685203077" lon="11.383781004910224"><ele>854.0000000000001</ele><time>2026-05-02T13:36:24Z</time></trkpt><trkpt lat="43.55632690234735" lon="11.383823627556266"><ele>854.0</ele><time>2026-05-02T13:36:25Z</time></trkpt><trkpt lat="43.556252619316965" lon="11.383883822906132"><ele>854.0</ele><time>2026-05-02T13:36:26Z</time></trkpt><trkpt lat="43.556162879149575" lon="11.383920988528926"><ele>855.3333333333334</ele><time>2026-05-02T13:36:27Z</time></trkpt><trkpt lat="43.556079173594384" lon="11.38396019875553"><ele>856.6666666666667</ele><time>2026-05-02T13:36:28Z</time></trkpt><trkpt lat="43.55599816260053" lon="11.384012216971179"><ele>858.0</ele><time>2026-05-02T13:36:29Z</time></trkpt><trkpt lat="43.55592553938901" lon="11.384072865007624"><ele>859.3333333333333</ele><time>2026-05-02T13:36:30Z</time></trkpt><trkpt lat="43.555849805375004" lon="11.384146830112883"><ele>860.6666666666666</ele><time>2026-05-02T13:36:31Z</time></trkpt><trkpt lat="43.55578731905853" lon="11.384217080099802"><ele>862.0</ele><time>2026-05-02T13:36:32Z</time></trkpt><trkpt lat="43.55572146646967" lon="11.384289946939418"><ele>861.9999999999999</ele><time>2026-05-02T13:36:33Z</time></trkpt><trkpt lat="43.55565681104885" lon="11.38436508046967"><ele>862.0</ele><time>2026-05-02T13:36:34Z</time></trkpt><trkpt lat="43.55558218485002" lon="11.384379863711393"><ele>862.0</ele><time>2026-05-02T13:36:35Z</time></trkpt><trkpt lat="43.55550508726063" lon="11.384388890443557"><ele>862.0</ele><time>2026-05-02T13:36:36Z</time></trkpt><trkpt lat="43.55543210762398" lon="11.384391224036206"><ele>861.9999999999999</ele><time>2026-05-02T13:36:37.001Z</time></trkpt><trkpt lat="43.55536198939907" lon="11.384374711630244"><ele>862.0</ele><time>2026-05-02T13:36:38.001Z</time></trkpt><trkpt lat="43.555287766198425" lon="11.384366109304283"><ele>859.8</ele><time>2026-05-02T13:36:39.001Z</time></trkpt><trkpt lat="43.555222997426775" lon="11.38436680654622"><ele>857.6</ele><time>2026-05-02T13:36:40.001Z</time></trkpt><trkpt lat="43.555123211385094" lon="11.384426013374677"><ele>855.4</ele><time>2026-05-02T13:36:42.001Z</time></trkpt><trkpt lat="43.555031007371106" lon="11.384459838410173"><ele>853.1999999999999</ele><time>2026-05-02T13:36:44.001Z</time></trkpt><trkpt lat="43.55496770403104" lon="11.384554327848948"><ele>851.0</ele><time>2026-05-02T13:37:00Z</time></trkpt><trkpt lat="43.55490813777471" lon="11.384670591146879"><ele>853.8333333333334</ele><time>2026-05-02T13:37:02Z</time></trkpt><trkpt lat="43.554861086128035" lon="11.384800806055395"><ele>856.6666666666667</ele><time>2026-05-02T13:37:04Z</time></trkpt><trkpt lat="43.55481705961667" lon="11.38492892229628"><ele>859.5</ele><time>2026-05-02T13:37:06Z</time></trkpt><trkpt lat="43.55478736372847" lon="11.38501022004721"><ele>862.3333333333333</ele><time>2026-05-02T13:37:07Z</time></trkpt><trkpt lat="43.55475856499525" lon="11.385091953185977"><ele>865.1666666666666</ele><time>2026-05-02T13:37:08Z</time></trkpt><trkpt lat="43.55473089975372" lon="11.38517464650711"><ele>868.0</ele><time>2026-05-02T13:37:09Z</time></trkpt><trkpt lat="43.55469224772932" lon="11.385276744484418"><ele>867.9999999999999</ele><time>2026-05-02T13:37:10Z</time></trkpt><trkpt lat="43.55465164877512" lon="11.385377525187705"><ele>868.0</ele><time>2026-05-02T13:37:11Z</time></trkpt><trkpt lat="43.554611338565174" lon="11.385480155622275"><ele>868.0</ele><time>2026-05-02T13:37:12Z</time></trkpt><trkpt lat="43.55457326226426" lon="11.385575189922246"><ele>868.0</ele><time>2026-05-02T13:37:13Z</time></trkpt><trkpt lat="43.554529368024106" lon="11.385664664663711"><ele>867.9999999999999</ele><time>2026-05-02T13:37:14Z</time></trkpt><trkpt lat="43.55449153152881" lon="11.385757249597976"><ele>868.0</ele><time>2026-05-02T13:37:15Z</time></trkpt><trkpt lat="43.55445607890133" lon="11.385863308717271"><ele>867.9999999999999</ele><time>2026-05-02T13:37:16Z</time></trkpt><trkpt lat="43.55441517738992" lon="11.38595202133302"><ele>868.0</ele><time>2026-05-02T13:37:17Z</time></trkpt><trkpt lat="43.554366270463056" lon="11.38603167654876"><ele>868.0</ele><time>2026-05-02T13:37:18Z</time></trkpt><trkpt lat="43.55429906355512" lon="11.386184543887596"><ele>868.0</ele><time>2026-05-02T13:37:20Z</time></trkpt><trkpt lat="43.554273182114926" lon="11.386270593316794"><ele>867.9999999999999</ele><time>2026-05-02T13:37:21Z</time></trkpt><trkpt lat="43.55425143711158" lon="11.386405551808318"><ele>868.0</ele><time>2026-05-02T13:37:23Z</time></trkpt><trkpt lat="43.5542448984159" lon="11.386532286082563"><ele>872.3333333333333</ele><time>2026-05-02T13:37:25Z</time></trkpt><trkpt lat="43.55422777307256" lon="11.38693961593266"><ele>876.6666666666667</ele><time>2026-05-02T13:37:27Z</time></trkpt><trkpt lat="43.55411076131914" lon="11.387062935764245"><ele>881.0</ele><time>2026-05-02T13:37:28Z</time></trkpt><trkpt lat="43.554018378461755" lon="11.38712270529383"><ele>882.0</ele><time>2026-05-02T13:37:30Z</time></trkpt><trkpt lat="43.55394035427507" lon="11.387177434639133"><ele>882.9999999999999</ele><time>2026-05-02T13:37:32Z</time></trkpt><trkpt lat="43.5538469951975" lon="11.387257208094239"><ele>883.9999999999999</ele><time>2026-05-02T13:37:35Z</time></trkpt><trkpt lat="43.55377477884712" lon="11.387330793967566"><ele>885.0</ele><time>2026-05-02T13:37:37Z</time></trkpt><trkpt lat="43.55369414657177" lon="11.387413281319727"><ele>886.0</ele><time>2026-05-02T13:37:39Z</time></trkpt><trkpt lat="43.5536048273182" lon="11.387482749162885"><ele>888.0</ele><time>2026-05-02T13:37:41Z</time></trkpt><trkpt lat="43.55353507788753" lon="11.387500467878722"><ele>890.0</ele><time>2026-05-02T13:37:43Z</time></trkpt><trkpt lat="43.55346264991209" lon="11.387518422155162"><ele>892.0</ele><time>2026-05-02T13:37:45Z</time></trkpt><trkpt lat="43.553028078799315" lon="11.38689808549175"><ele>889.8333333333333</ele><time>2026-05-02T13:37:46Z</time></trkpt><trkpt lat="43.552964362655196" lon="11.386915000273675"><ele>887.6666666666666</ele><time>2026-05-02T13:37:47Z</time></trkpt><trkpt lat="43.55286367332565" lon="11.386962253790552"><ele>885.5</ele><time>2026-05-02T13:37:49Z</time></trkpt><trkpt lat="43.55275202749069" lon="11.386995419630763"><ele>883.3333333333333</ele><time>2026-05-02T13:37:51Z</time></trkpt><trkpt lat="43.55267963786913" lon="11.387041735461581"><ele>881.1666666666666</ele><time>2026-05-02T13:37:52Z</time></trkpt><trkpt lat="43.55260955671329" lon="11.387094542046231"><ele>879.0</ele><time>2026-05-02T13:37:53Z</time></trkpt><trkpt lat="43.552503791688196" lon="11.387143774560379"><ele>878.2</ele><time>2026-05-02T13:37:55Z</time></trkpt><trkpt lat="43.55240605170414" lon="11.387136499134265"><ele>877.4000000000001</ele><time>2026-05-02T13:37:57Z</time></trkpt><trkpt lat="43.55232508778279" lon="11.387076743511463"><ele>876.6</ele><time>2026-05-02T13:37:59Z</time></trkpt><trkpt lat="43.55222715138156" lon="11.38706239433485"><ele>875.8</ele><time>2026-05-02T13:38:01Z</time></trkpt><trkpt lat="43.55211578881832" lon="11.387091825478592"><ele>875.0</ele><time>2026-05-02T13:38:03Z</time></trkpt><trkpt lat="43.55200786779423" lon="11.387116037237647"><ele>874.0</ele><time>2026-05-02T13:38:05Z</time></trkpt><trkpt lat="43.551914523031705" lon="11.38706924083841"><ele>873.0</ele><time>2026-05-02T13:38:07Z</time></trkpt><trkpt lat="43.55183914932152" lon="11.386974429833014"><ele>872.0</ele><time>2026-05-02T13:38:09Z</time></trkpt><trkpt lat="43.55177035092413" lon="11.386854572101374"><ele>871.0</ele><time>2026-05-02T13:38:11Z</time></trkpt><trkpt lat="43.55170363887197" lon="11.386761673239649"><ele>870.0</ele><time>2026-05-02T13:38:13Z</time></trkpt><trkpt lat="43.55162710735891" lon="11.386677594303935"><ele>870.0</ele><time>2026-05-02T13:38:15Z</time></trkpt><trkpt lat="43.55151381010514" lon="11.38664763802524"><ele>870.0</ele><time>2026-05-02T13:38:17Z</time></trkpt><trkpt lat="43.5514020126501" lon="11.38660874794154"><ele>870.0</ele><time>2026-05-02T13:38:19Z</time></trkpt><trkpt lat="43.551271903045425" lon="11.38663591304021"><ele>870.0</ele><time>2026-05-02T13:38:21Z</time></trkpt><trkpt lat="43.551160793031734" lon="11.386684733956537"><ele>870.4</ele><time>2026-05-02T13:38:23Z</time></trkpt><trkpt lat="43.55103631751656" lon="11.386711558816385"><ele>870.8</ele><time>2026-05-02T13:38:25Z</time></trkpt><trkpt lat="43.550927614490384" lon="11.386736544120009"><ele>871.2</ele><time>2026-05-02T13:38:27Z</time></trkpt><trkpt lat="43.55083978996393" lon="11.386774748150057"><ele>871.6</ele><time>2026-05-02T13:38:29Z</time></trkpt><trkpt lat="43.55074406035709" lon="11.386856263802885"><ele>872.0</ele><time>2026-05-02T13:38:31Z</time></trkpt><trkpt lat="43.55065498687262" lon="11.386921666626723"><ele>872.0</ele><time>2026-05-02T13:38:33Z</time></trkpt><trkpt lat="43.55056075023867" lon="11.386896059845148"><ele>872.0</ele><time>2026-05-02T13:38:35Z</time></trkpt><trkpt lat="43.55049132623734" lon="11.386791462685379"><ele>872.0</ele><time>2026-05-02T13:38:37Z</time></trkpt><trkpt lat="43.55047846417388" lon="11.386625177779667"><ele>872.0</ele><time>2026-05-02T13:38:39Z</time></trkpt><trkpt lat="43.55046739376443" lon="11.386534582081369"><ele>872.0</ele><time>2026-05-02T13:38:40Z</time></trkpt><trkpt lat="43.550423698805716" lon="11.386391401988794"><ele>870.3333333333334</ele><time>2026-05-02T13:38:42Z</time></trkpt><trkpt lat="43.55035752759091" lon="11.386263963619244"><ele>868.6666666666667</ele><time>2026-05-02T13:38:44.001Z</time></trkpt><trkpt lat="43.55029275658382" lon="11.386161781012653"><ele>867.0</ele><time>2026-05-02T13:38:46.001Z</time></trkpt><trkpt lat="43.550264701691354" lon="11.386077516455144"><ele>865.3333333333333</ele><time>2026-05-02T13:38:48.001Z</time></trkpt><trkpt lat="43.55021848369321" lon="11.385994344918249"><ele>863.6666666666666</ele><time>2026-05-02T13:47:59Z</time></trkpt><trkpt lat="43.550164172700974" lon="11.385924385925376"><ele>862.0</ele><time>2026-05-02T13:48:01Z</time></trkpt><trkpt lat="43.550096122350034" lon="11.385817874480209"><ele>861.9999999999999</ele><time>2026-05-02T13:48:04Z</time></trkpt><trkpt lat="43.55004089297882" lon="11.385733576483767"><ele>862.0</ele><time>2026-05-02T13:48:06Z</time></trkpt><trkpt lat="43.54997846863751" lon="11.3856511354055"><ele>862.0</ele><time>2026-05-02T13:48:08Z</time></trkpt><trkpt lat="43.549920799906246" lon="11.385582907160666"><ele>862.0</ele><time>2026-05-02T13:48:10Z</time></trkpt><trkpt lat="43.54986195683704" lon="11.385543474650751"><ele>861.9999999999999</ele><time>2026-05-02T13:48:11.999Z</time></trkpt><trkpt lat="43.54979167898279" lon="11.385510628742663"><ele>862.0</ele><time>2026-05-02T13:48:13.999Z</time></trkpt><trkpt lat="43.5497123294488" lon="11.385492871244736"><ele>860.4999999999999</ele><time>2026-05-02T13:48:15.999Z</time></trkpt><trkpt lat="43.54964796566779" lon="11.385491388949438"><ele>859.0</ele><time>2026-05-02T13:48:17.999Z</time></trkpt><trkpt lat="43.54958513924596" lon="11.38548554842428"><ele>857.5</ele><time>2026-05-02T13:48:19.999Z</time></trkpt><trkpt lat="43.54952327223611" lon="11.38541629836021"><ele>856.0</ele><time>2026-05-02T13:48:22.999Z</time></trkpt><trkpt lat="43.54947687171039" lon="11.385322545575015"><ele>854.4999999999999</ele><time>2026-05-02T13:48:24.999Z</time></trkpt><trkpt lat="43.549418692182634" lon="11.385206233877863"><ele>853.0</ele><time>2026-05-02T13:48:26.999Z</time></trkpt><trkpt lat="43.54935665076477" lon="11.385084962897924"><ele>850.25</ele><time>2026-05-02T13:48:28.999Z</time></trkpt><trkpt lat="43.54928576090968" lon="11.384965580472478"><ele>847.5</ele><time>2026-05-02T13:48:30.999Z</time></trkpt><trkpt lat="43.54921656558267" lon="11.384823697131827"><ele>844.75</ele><time>2026-05-02T13:48:32.999Z</time></trkpt><trkpt lat="43.54912991072728" lon="11.384684529299246"><ele>842.0</ele><time>2026-05-02T13:48:34.999Z</time></trkpt><trkpt lat="43.549058306868524" lon="11.384557506512655"><ele>841.8</ele><time>2026-05-02T13:48:36.999Z</time></trkpt><trkpt lat="43.548973056858465" lon="11.384454227582832"><ele>841.6</ele><time>2026-05-02T13:48:38.999Z</time></trkpt><trkpt lat="43.54889380319227" lon="11.384365251670811"><ele>841.4</ele><time>2026-05-02T13:48:40.999Z</time></trkpt><trkpt lat="43.548839833550474" lon="11.384261471268015"><ele>841.1999999999999</ele><time>2026-05-02T13:48:42.999Z</time></trkpt><trkpt lat="43.54875955682252" lon="11.384293968860062"><ele>841.0</ele><time>2026-05-02T13:49:04.999Z</time></trkpt><trkpt lat="43.548684148013876" lon="11.384256447208823"><ele>841.5999999999999</ele><time>2026-05-02T13:49:06.999Z</time></trkpt><trkpt lat="43.548583243764355" lon="11.384213221295791"><ele>842.2</ele><time>2026-05-02T13:49:08.999Z</time></trkpt><trkpt lat="43.54846772189954" lon="11.384197296399202"><ele>842.8</ele><time>2026-05-02T13:49:10.999Z</time></trkpt><trkpt lat="43.548402043485545" lon="11.384194090767519"><ele>843.4000000000001</ele><time>2026-05-02T13:49:11.999Z</time></trkpt><trkpt lat="43.54833563530785" lon="11.384191095572337"><ele>844.0</ele><time>2026-05-02T13:49:13Z</time></trkpt><trkpt lat="43.54823247339408" lon="11.384193349691223"><ele>844.0</ele><time>2026-05-02T13:49:15Z</time></trkpt><trkpt lat="43.54812080786497" lon="11.384184140824031"><ele>844.0</ele><time>2026-05-02T13:49:17Z</time></trkpt><trkpt lat="43.548017161892005" lon="11.384154821692247"><ele>844.0</ele><time>2026-05-02T13:49:19Z</time></trkpt><trkpt lat="43.547940554737984" lon="11.384154189969777"><ele>844.0</ele><time>2026-05-02T13:49:21Z</time></trkpt><trkpt lat="43.54786852518374" lon="11.384135417215186"><ele>844.0</ele><time>2026-05-02T13:49:24Z</time></trkpt><trkpt lat="43.547768652687296" lon="11.384070920211903"><ele>845.0</ele><time>2026-05-02T13:49:27Z</time></trkpt><trkpt lat="43.54770404442272" lon="11.384073318432382"><ele>846.0</ele><time>2026-05-02T13:49:28Z</time></trkpt><trkpt lat="43.54761766545119" lon="11.38406524632521"><ele>847.0</ele><time>2026-05-02T13:49:30Z</time></trkpt><trkpt lat="43.5475316848287" lon="11.384064164884226"><ele>848.0</ele><time>2026-05-02T13:49:32Z</time></trkpt><trkpt lat="43.54742917387468" lon="11.384064609628636"><ele>849.0</ele><time>2026-05-02T13:49:34Z</time></trkpt><trkpt lat="43.547315878106815" lon="11.384056149452132"><ele>849.0</ele><time>2026-05-02T13:49:36Z</time></trkpt><trkpt lat="43.547211427135686" lon="11.384056279869043"><ele>849.0</ele><time>2026-05-02T13:49:38Z</time></trkpt><trkpt lat="43.54712033304461" lon="11.384031635371576"><ele>849.0</ele><time>2026-05-02T13:49:40Z</time></trkpt><trkpt lat="43.54704670226402" lon="11.383998586734966"><ele>849.0</ele><time>2026-05-02T13:49:42Z</time></trkpt><trkpt lat="43.54694816300671" lon="11.383964897570507"><ele>849.0</ele><time>2026-05-02T13:49:44Z</time></trkpt><trkpt lat="43.54687233231857" lon="11.383932058727263"><ele>850.2</ele><time>2026-05-02T13:49:46Z</time></trkpt><trkpt lat="43.54677482865862" lon="11.383873046739383"><ele>851.4000000000001</ele><time>2026-05-02T13:49:48Z</time></trkpt><trkpt lat="43.546669764056944" lon="11.383783442525418"><ele>852.6</ele><time>2026-05-02T13:49:50Z</time></trkpt><trkpt lat="43.54660503204045" lon="11.383728830884044"><ele>853.8</ele><time>2026-05-02T13:49:51Z</time></trkpt><trkpt lat="43.546539846771445" lon="11.383677025436524"><ele>855.0</ele><time>2026-05-02T13:49:52Z</time></trkpt><trkpt lat="43.54647722590821" lon="11.383621880867716"><ele>855.0</ele><time>2026-05-02T13:49:53Z</time></trkpt><trkpt lat="43.54642622451467" lon="11.383565629983648"><ele>855.0</ele><time>2026-05-02T13:49:54Z</time></trkpt><trkpt lat="43.54632902930678" lon="11.383450551115585"><ele>855.0</ele><time>2026-05-02T13:49:56Z</time></trkpt><trkpt lat="43.54627202478736" lon="11.383382818997749"><ele>855.0</ele><time>2026-05-02T13:49:57Z</time></trkpt><trkpt lat="43.546220858212344" lon="11.383317863413485"><ele>855.0</ele><time>2026-05-02T13:49:58Z</time></trkpt><trkpt lat="43.54617252858411" lon="11.38324334344668"><ele>855.0</ele><time>2026-05-02T13:49:59Z</time></trkpt><trkpt lat="43.54612921055391" lon="11.383175632142422"><ele>853.4</ele><time>2026-05-02T13:50:00Z</time></trkpt><trkpt lat="43.54605679276832" lon="11.383064568649827"><ele>851.8</ele><time>2026-05-02T13:50:02Z</time></trkpt><trkpt lat="43.54599905486506" lon="11.38295811594811"><ele>850.2</ele><time>2026-05-02T13:50:04Z</time></trkpt><trkpt lat="43.54594120477319" lon="11.382853951606052"><ele>848.6</ele><time>2026-05-02T13:50:06Z</time></trkpt><trkpt lat="43.545891242344524" lon="11.382746171234723"><ele>847.0</ele><time>2026-05-02T13:50:08Z</time></trkpt><trkpt lat="43.545822778050436" lon="11.38265057472514"><ele>847.0</ele><time>2026-05-02T13:50:10Z</time></trkpt><trkpt lat="43.545742098494806" lon="11.382598093135048"><ele>847.0</ele><time>2026-05-02T13:50:11.999Z</time></trkpt><trkpt lat="43.545636392819816" lon="11.382537180670543"><ele>847.0</ele><time>2026-05-02T13:50:13.999Z</time></trkpt><trkpt lat="43.545543915484565" lon="11.38247298771696"><ele>847.0</ele><time>2026-05-02T13:50:15.999Z</time></trkpt><trkpt lat="43.54548385768692" lon="11.382421653782185"><ele>847.0</ele><time>2026-05-02T13:50:17.999Z</time></trkpt><trkpt lat="43.545404099912524" lon="11.382442429248952"><ele>844.1666666666666</ele><time>2026-05-02T13:50:22.999Z</time></trkpt><trkpt lat="43.54532356576383" lon="11.38244030899077"><ele>841.3333333333333</ele><time>2026-05-02T13:50:24.999Z</time></trkpt><trkpt lat="43.545260137639424" lon="11.38242604752825"><ele>838.5</ele><time>2026-05-02T13:50:32.999Z</time></trkpt><trkpt lat="43.545201508479806" lon="11.382375322269914"><ele>835.6666666666667</ele><time>2026-05-02T13:50:34.999Z</time></trkpt><trkpt lat="43.545182344625694" lon="11.382276728484513"><ele>832.8333333333334</ele><time>2026-05-02T13:50:46.999Z</time></trkpt><trkpt lat="43.545114372025395" lon="11.382135805781173"><ele>830.0</ele><time>2026-05-02T13:50:48.999Z</time></trkpt><trkpt lat="43.54508614473045" lon="11.38204834583358"><ele>830.0000000000001</ele><time>2026-05-02T13:50:49.999Z</time></trkpt><trkpt lat="43.545059362416275" lon="11.381954214804368"><ele>830.0</ele><time>2026-05-02T13:50:50.999Z</time></trkpt><trkpt lat="43.54502812187037" lon="11.38185817837456"><ele>830.0</ele><time>2026-05-02T13:50:51.999Z</time></trkpt><trkpt lat="43.54500061467619" lon="11.381773287284245"><ele>830.0</ele><time>2026-05-02T13:50:52.999Z</time></trkpt><trkpt lat="43.544984042633025" lon="11.381688944275181"><ele>830.0000000000001</ele><time>2026-05-02T13:50:53.999Z</time></trkpt><trkpt lat="43.54492508256123" lon="11.381551674432727"><ele>830.0</ele><time>2026-05-02T13:50:55.999Z</time></trkpt><trkpt lat="43.54486448815531" lon="11.38139659436252"><ele>831.6</ele><time>2026-05-02T13:50:57.999Z</time></trkpt><trkpt lat="43.544820100704165" lon="11.381254730519244"><ele>833.2</ele><time>2026-05-02T13:50:59.999Z</time></trkpt><trkpt lat="43.54480256209979" lon="11.381170057251252"><ele>834.8</ele><time>2026-05-02T13:51:00.999Z</time></trkpt><trkpt lat="43.54476434443726" lon="11.381007475948403"><ele>836.4</ele><time>2026-05-02T13:51:02.999Z</time></trkpt><trkpt lat="43.544734834913946" lon="11.380928056062212"><ele>838.0</ele><time>2026-05-02T13:51:03.999Z</time></trkpt><trkpt lat="43.54469516938451" lon="11.380783370211585"><ele>837.9999999999999</ele><time>2026-05-02T13:51:05.999Z</time></trkpt><trkpt lat="43.54467957948311" lon="11.380658100586674"><ele>838.0</ele><time>2026-05-02T13:51:07.999Z</time></trkpt><trkpt lat="43.544661333313215" lon="11.380569841168901"><ele>838.0</ele><time>2026-05-02T13:51:08.999Z</time></trkpt><trkpt lat="43.54465276328398" lon="11.38040485596845"><ele>838.0</ele><time>2026-05-02T13:51:10.999Z</time></trkpt><trkpt lat="43.54465608586244" lon="11.380316772077368"><ele>837.9999999999999</ele><time>2026-05-02T13:51:11.999Z</time></trkpt><trkpt lat="43.54466301657509" lon="11.380229393560855"><ele>838.0</ele><time>2026-05-02T13:51:12.999Z</time></trkpt><trkpt lat="43.54466763988161" lon="11.380134061072257"><ele>837.9999999999999</ele><time>2026-05-02T13:51:13.999Z</time></trkpt><trkpt lat="43.5446760535231" lon="11.380041845706968"><ele>838.0</ele><time>2026-05-02T13:51:14.999Z</time></trkpt><trkpt lat="43.544682437437324" lon="11.379953713872432"><ele>838.0</ele><time>2026-05-02T13:51:15.999Z</time></trkpt><trkpt lat="43.5447023093224" lon="11.379780726103547"><ele>838.0</ele><time>2026-05-02T13:51:17.999Z</time></trkpt><trkpt lat="43.54471570622606" lon="11.379688115722544"><ele>837.9999999999999</ele><time>2026-05-02T13:51:19Z</time></trkpt><trkpt lat="43.544723410961815" lon="11.379590827574857"><ele>838.0</ele><time>2026-05-02T13:51:20Z</time></trkpt><trkpt lat="43.54472665430389" lon="11.37948721557706"><ele>837.3333333333333</ele><time>2026-05-02T13:51:21Z</time></trkpt><trkpt lat="43.54473007439931" lon="11.379386399310988"><ele>836.6666666666666</ele><time>2026-05-02T13:51:22Z</time></trkpt><trkpt lat="43.544724992468325" lon="11.379288207155923"><ele>836.0</ele><time>2026-05-02T13:51:23Z</time></trkpt><trkpt lat="43.544711201253" lon="11.37919981250931"><ele>835.3333333333333</ele><time>2026-05-02T13:51:24Z</time></trkpt><trkpt lat="43.544695680102535" lon="11.379066792390109"><ele>834.6666666666666</ele><time>2026-05-02T13:51:26Z</time></trkpt><trkpt lat="43.544666520492974" lon="11.378944825689322"><ele>834.0</ele><time>2026-05-02T13:51:28Z</time></trkpt><trkpt lat="43.544606937230775" lon="11.378883869986007"><ele>833.0</ele><time>2026-05-02T13:51:30Z</time></trkpt><trkpt lat="43.54456327961972" lon="11.378778691544063"><ele>832.0</ele><time>2026-05-02T13:52:12Z</time></trkpt><trkpt lat="43.54452866664538" lon="11.378655864638729"><ele>831.0</ele><time>2026-05-02T13:52:15.999Z</time></trkpt><trkpt lat="43.54449779613045" lon="11.37854306038519"><ele>830.0</ele><time>2026-05-02T13:52:17.999Z</time></trkpt><trkpt lat="43.544462340176906" lon="11.378428645084925"><ele>829.0</ele><time>2026-05-02T13:52:19.999Z</time></trkpt><trkpt lat="43.54445432043407" lon="11.378293046332718"><ele>832.75</ele><time>2026-05-02T13:52:21.999Z</time></trkpt><trkpt lat="43.54443457328785" lon="11.378146665883923"><ele>836.5</ele><time>2026-05-02T13:52:23.999Z</time></trkpt><trkpt lat="43.54440920981602" lon="11.378011243209304"><ele>840.25</ele><time>2026-05-02T13:52:25.999Z</time></trkpt><trkpt lat="43.54439222235013" lon="11.377918683500047"><ele>844.0</ele><time>2026-05-02T13:52:27.999Z</time></trkpt><trkpt lat="43.54446097406405" lon="11.37760397409584"><ele>843.9999999999999</ele><time>2026-05-02T13:52:39.999Z</time></trkpt><trkpt lat="43.54448974274615" lon="11.377479099418176"><ele>844.0</ele><time>2026-05-02T13:52:41.999Z</time></trkpt><trkpt lat="43.54450012797803" lon="11.377387531268782"><ele>844.0</ele><time>2026-05-02T13:52:43.999Z</time></trkpt><trkpt lat="43.544519616491655" lon="11.377283722976541"><ele>844.0</ele><time>2026-05-02T13:52:45.999Z</time></trkpt><trkpt lat="43.54453072672481" lon="11.377176609762047"><ele>843.9999999999999</ele><time>2026-05-02T13:52:47.999Z</time></trkpt><trkpt lat="43.54455197002699" lon="11.377060869996066"><ele>844.0</ele><time>2026-05-02T13:52:49.999Z</time></trkpt><trkpt lat="43.54456922685518" lon="11.376954280504759"><ele>841.8333333333333</ele><time>2026-05-02T13:52:51.999Z</time></trkpt><trkpt lat="43.54458817961323" lon="11.376849629828461"><ele>839.6666666666666</ele><time>2026-05-02T13:52:53.999Z</time></trkpt><trkpt lat="43.544624179782936" lon="11.376767109009638"><ele>837.5</ele><time>2026-05-02T13:53:02.999Z</time></trkpt><trkpt lat="43.54466495280329" lon="11.37667183043785"><ele>835.3333333333333</ele><time>2026-05-02T13:53:05.999Z</time></trkpt><trkpt lat="43.54472888478416" lon="11.37657604091164"><ele>833.1666666666666</ele><time>2026-05-02T13:53:08.999Z</time></trkpt><trkpt lat="43.54480327728779" lon="11.376492915084144"><ele>831.0</ele><time>2026-05-02T13:53:11.999Z</time></trkpt><trkpt lat="43.54484716627095" lon="11.376419354573265"><ele>829.1666666666666</ele><time>2026-05-02T13:53:13.999Z</time></trkpt><trkpt lat="43.54490961888472" lon="11.376328533733204"><ele>827.3333333333333</ele><time>2026-05-02T13:53:15.999Z</time></trkpt><trkpt lat="43.544966199464845" lon="11.376245011703205"><ele>825.5</ele><time>2026-05-02T13:53:17.999Z</time></trkpt><trkpt lat="43.545028320646324" lon="11.376171507366063"><ele>823.6666666666666</ele><time>2026-05-02T13:53:19.999Z</time></trkpt><trkpt lat="43.54506550089212" lon="11.376080701927577"><ele>821.8333333333333</ele><time>2026-05-02T13:53:21.999Z</time></trkpt><trkpt lat="43.5451065423107" lon="11.375983544644926"><ele>820.0</ele><time>2026-05-02T13:53:23.999Z</time></trkpt><trkpt lat="43.54513903652595" lon="11.37588684644497"><ele>819.9999999999999</ele><time>2026-05-02T13:53:26Z</time></trkpt><trkpt lat="43.54516627134059" lon="11.375786563019997"><ele>820.0</ele><time>2026-05-02T13:53:28Z</time></trkpt><trkpt lat="43.54519632550014" lon="11.37569047547132"><ele>820.0</ele><time>2026-05-02T13:53:30Z</time></trkpt><trkpt lat="43.54523432971385" lon="11.375587133460295"><ele>820.0</ele><time>2026-05-02T13:53:33Z</time></trkpt><trkpt lat="43.545279347043596" lon="11.375519332626308"><ele>819.9999999999999</ele><time>2026-05-02T13:53:36Z</time></trkpt><trkpt lat="43.54534788166957" lon="11.37544833169473"><ele>820.0</ele><time>2026-05-02T13:53:39Z</time></trkpt><trkpt lat="43.54538822421289" lon="11.375375535797547"><ele>816.8333333333333</ele><time>2026-05-02T13:53:41Z</time></trkpt><trkpt lat="43.54544042117769" lon="11.375265719625615"><ele>813.6666666666666</ele><time>2026-05-02T13:53:48Z</time></trkpt><trkpt lat="43.5455018385151" lon="11.37520204881411"><ele>810.5</ele><time>2026-05-02T13:53:50Z</time></trkpt><trkpt lat="43.54557046444719" lon="11.375144356361837"><ele>807.3333333333333</ele><time>2026-05-02T13:53:52Z</time></trkpt><trkpt lat="43.54563781568841" lon="11.375101894202043"><ele>804.1666666666666</ele><time>2026-05-02T13:53:54Z</time></trkpt><trkpt lat="43.54571384643375" lon="11.375043675143417"><ele>801.0</ele><time>2026-05-02T13:53:57Z</time></trkpt><trkpt lat="43.54577187799412" lon="11.375007517092486"><ele>801.0</ele><time>2026-05-02T13:54:00Z</time></trkpt><trkpt lat="43.54581623005534" lon="11.374926662468233"><ele>801.0</ele><time>2026-05-02T13:54:04Z</time></trkpt><trkpt lat="43.5458498238585" lon="11.37482456377514"><ele>801.0</ele><time>2026-05-02T13:54:07Z</time></trkpt><trkpt lat="43.545875114240324" lon="11.374710996539262"><ele>801.0</ele><time>2026-05-02T13:54:10Z</time></trkpt><trkpt lat="43.54590772897531" lon="11.374604749859836"><ele>801.0</ele><time>2026-05-02T13:54:13Z</time></trkpt><trkpt lat="43.545933236042735" lon="11.374502225463786"><ele>801.0</ele><time>2026-05-02T13:54:16Z</time></trkpt><trkpt lat="43.54595727509174" lon="11.374417525774145"><ele>799.1666666666666</ele><time>2026-05-02T13:54:19Z</time></trkpt><trkpt lat="43.545987271945144" lon="11.374313020954878"><ele>797.3333333333333</ele><time>2026-05-02T13:54:22Z</time></trkpt><trkpt lat="43.54599634667872" lon="11.374201103030066"><ele>795.5</ele><time>2026-05-02T13:54:25Z</time></trkpt><trkpt lat="43.54597575012343" lon="11.374114856893785"><ele>793.6666666666666</ele><time>2026-05-02T13:54:27.999Z</time></trkpt><trkpt lat="43.5459532845879" lon="11.374026820462474"><ele>791.8333333333333</ele><time>2026-05-02T13:54:31.999Z</time></trkpt><trkpt lat="43.54597019167235" lon="11.37416360730246"><ele>790.0</ele><time>2026-05-02T13:56:49.999Z</time></trkpt><trkpt lat="43.54599000075122" lon="11.374276644292708"><ele>790.0</ele><time>2026-05-02T13:56:51.999Z</time></trkpt><trkpt lat="43.545966970591955" lon="11.374411454258242"><ele>790.0</ele><time>2026-05-02T13:56:53.999Z</time></trkpt><trkpt lat="43.545917228235005" lon="11.374549836427455"><ele>790.0</ele><time>2026-05-02T13:56:55.999Z</time></trkpt><trkpt lat="43.54587782621051" lon="11.374686878459345"><ele>790.0</ele><time>2026-05-02T13:56:57.999Z</time></trkpt><trkpt lat="43.54584211910267" lon="11.374811383563644"><ele>790.0</ele><time>2026-05-02T13:56:59.999Z</time></trkpt><trkpt lat="43.54580696569061" lon="11.374931713408149"><ele>792.2</ele><time>2026-05-02T13:57:01.999Z</time></trkpt><trkpt lat="43.545743972903544" lon="11.375027766212314"><ele>794.4</ele><time>2026-05-02T13:57:03.999Z</time></trkpt><trkpt lat="43.54565784391226" lon="11.375105864741576"><ele>796.5999999999999</ele><time>2026-05-02T13:57:05.999Z</time></trkpt><trkpt lat="43.54556721121433" lon="11.375160642666206"><ele>798.8</ele><time>2026-05-02T13:57:07.999Z</time></trkpt><trkpt lat="43.54545686244181" lon="11.375250507084052"><ele>801.0</ele><time>2026-05-02T13:57:09.999Z</time></trkpt><trkpt lat="43.54540381124192" lon="11.375310425694906"><ele>801.8333333333334</ele><time>2026-05-02T13:57:10.999Z</time></trkpt><trkpt lat="43.54535866340884" lon="11.375398359867816"><ele>802.6666666666667</ele><time>2026-05-02T13:57:11.999Z</time></trkpt><trkpt lat="43.545303397413036" lon="11.375484803140338"><ele>803.5</ele><time>2026-05-02T13:57:12.999Z</time></trkpt><trkpt lat="43.5452405054862" lon="11.37557446624102"><ele>804.3333333333334</ele><time>2026-05-02T13:57:13.999Z</time></trkpt><trkpt lat="43.545186175422224" lon="11.375655716300148"><ele>805.1666666666667</ele><time>2026-05-02T13:57:15.999Z</time></trkpt><trkpt lat="43.545176979385694" lon="11.375754347372773"><ele>806.0</ele><time>2026-05-02T13:57:17.999Z</time></trkpt><trkpt lat="43.54513442936837" lon="11.375887247085544"><ele>808.3333333333334</ele><time>2026-05-02T13:57:31.999Z</time></trkpt><trkpt lat="43.545103292165166" lon="11.375968346887506"><ele>810.6666666666667</ele><time>2026-05-02T13:57:32.999Z</time></trkpt><trkpt lat="43.545071829664664" lon="11.37606325759177"><ele>813.0</ele><time>2026-05-02T13:57:33.999Z</time></trkpt><trkpt lat="43.54503128110422" lon="11.376150219697369"><ele>815.3333333333333</ele><time>2026-05-02T13:57:34.999Z</time></trkpt><trkpt lat="43.54498937740114" lon="11.376227860416561"><ele>817.6666666666666</ele><time>2026-05-02T13:57:35.999Z</time></trkpt><trkpt lat="43.54494364243682" lon="11.376289242947461"><ele>820.0</ele><time>2026-05-02T13:57:37Z</time></trkpt><trkpt lat="43.54485733353397" lon="11.376410774257229"><ele>821.8333333333333</ele><time>2026-05-02T13:57:39Z</time></trkpt><trkpt lat="43.54481114804157" lon="11.376483124877847"><ele>823.6666666666666</ele><time>2026-05-02T13:57:40Z</time></trkpt><trkpt lat="43.5447491108646" lon="11.376570438749702"><ele>825.5</ele><time>2026-05-02T13:57:41Z</time></trkpt><trkpt lat="43.54469655018168" lon="11.376631662464082"><ele>827.3333333333333</ele><time>2026-05-02T13:57:42Z</time></trkpt><trkpt lat="43.54464145291599" lon="11.376705043263247"><ele>829.1666666666666</ele><time>2026-05-02T13:57:43Z</time></trkpt><trkpt lat="43.54460684683419" lon="11.37677924009017"><ele>831.0</ele><time>2026-05-02T13:57:44Z</time></trkpt><trkpt lat="43.54456658969561" lon="11.376911887918487"><ele>831.0</ele><time>2026-05-02T13:57:46Z</time></trkpt><trkpt lat="43.544552184145516" lon="11.377022000640046"><ele>831.0</ele><time>2026-05-02T13:57:47Z</time></trkpt><trkpt lat="43.54454419263198" lon="11.377143453787568"><ele>831.0</ele><time>2026-05-02T13:57:48Z</time></trkpt><trkpt lat="43.54452642953212" lon="11.377262655908215"><ele>831.0</ele><time>2026-05-02T13:57:49Z</time></trkpt><trkpt lat="43.54449654004501" lon="11.377401371557502"><ele>831.0</ele><time>2026-05-02T13:57:50Z</time></trkpt><trkpt lat="43.544474971372175" lon="11.377493105216946"><ele>831.0</ele><time>2026-05-02T13:57:51Z</time></trkpt><trkpt lat="43.544441398731195" lon="11.377584839163953"><ele>833.1666666666666</ele><time>2026-05-02T13:57:58Z</time></trkpt><trkpt lat="43.5444049907288" lon="11.37770159478616"><ele>835.3333333333333</ele><time>2026-05-02T13:58:00Z</time></trkpt><trkpt lat="43.544386492395304" lon="11.377807089559992"><ele>837.5</ele><time>2026-05-02T13:58:02Z</time></trkpt><trkpt lat="43.54438718974118" lon="11.377911959147841"><ele>839.6666666666666</ele><time>2026-05-02T13:58:04Z</time></trkpt><trkpt lat="43.544389759287704" lon="11.378024149786468"><ele>841.8333333333333</ele><time>2026-05-02T13:58:06Z</time></trkpt><trkpt lat="43.54442117270494" lon="11.378124300056044"><ele>844.0</ele><time>2026-05-02T13:58:08Z</time></trkpt><trkpt lat="43.544452265952394" lon="11.378280838953167"><ele>844.6666666666666</ele><time>2026-05-02T13:58:10Z</time></trkpt><trkpt lat="43.544462178552564" lon="11.378371016421132"><ele>845.3333333333333</ele><time>2026-05-02T13:58:11Z</time></trkpt><trkpt lat="43.54448091489117" lon="11.378525193026961"><ele>846.0</ele><time>2026-05-02T13:58:13Z</time></trkpt><trkpt lat="43.54450396277097" lon="11.378606823974632"><ele>846.6666666666667</ele><time>2026-05-02T13:58:14Z</time></trkpt><trkpt lat="43.544543406527374" lon="11.37873968939887"><ele>847.3333333333334</ele><time>2026-05-02T13:58:16Z</time></trkpt><trkpt lat="43.544584729994945" lon="11.378858652112196"><ele>848.0</ele><time>2026-05-02T13:58:18Z</time></trkpt><trkpt lat="43.544637766361085" lon="11.378954018274817"><ele>845.2</ele><time>2026-05-02T13:58:20Z</time></trkpt><trkpt lat="43.54467753723484" lon="11.379026234705046"><ele>842.4</ele><time>2026-05-02T13:58:22Z</time></trkpt><trkpt lat="43.544715319891495" lon="11.379128848219247"><ele>839.6</ele><time>2026-05-02T13:58:25Z</time></trkpt><trkpt lat="43.544726242063604" lon="11.379269042500676"><ele>836.8000000000001</ele><time>2026-05-02T13:58:27Z</time></trkpt><trkpt lat="43.5447305905804" lon="11.379388550826828"><ele>834.0</ele><time>2026-05-02T13:58:28Z</time></trkpt><trkpt lat="43.544739158410245" lon="11.379574320108041"><ele>835.0</ele><time>2026-05-02T13:58:29Z</time></trkpt><trkpt lat="43.544722791566585" lon="11.37979916534467"><ele>836.0</ele><time>2026-05-02T13:58:30Z</time></trkpt><trkpt lat="43.54470594842125" lon="11.379951084107494"><ele>837.0</ele><time>2026-05-02T13:58:31Z</time></trkpt><trkpt lat="43.54468512678105" lon="11.38008078692274"><ele>838.0</ele><time>2026-05-02T13:58:32Z</time></trkpt><trkpt lat="43.544672108635616" lon="11.380190269407715"><ele>838.0</ele><time>2026-05-02T13:58:33Z</time></trkpt><trkpt lat="43.544670277201945" lon="11.380354422328137"><ele>838.0</ele><time>2026-05-02T13:58:35Z</time></trkpt><trkpt lat="43.54465389454117" lon="11.380500015017802"><ele>838.0</ele><time>2026-05-02T13:58:37Z</time></trkpt><trkpt lat="43.54466278558348" lon="11.380586684777683"><ele>838.0</ele><time>2026-05-02T13:58:38Z</time></trkpt><trkpt lat="43.54469253617443" lon="11.380748694484412"><ele>838.0</ele><time>2026-05-02T13:58:40Z</time></trkpt><trkpt lat="43.544721174268496" lon="11.380857165377716"><ele>837.9999999999999</ele><time>2026-05-02T13:58:41Z</time></trkpt><trkpt lat="43.5447454505716" lon="11.380955638482186"><ele>838.0</ele><time>2026-05-02T13:58:42Z</time></trkpt><trkpt lat="43.54476748345756" lon="11.381048432308033"><ele>838.0</ele><time>2026-05-02T13:58:43Z</time></trkpt><trkpt lat="43.54479610116559" lon="11.381143232646714"><ele>838.0</ele><time>2026-05-02T13:58:44Z</time></trkpt><trkpt lat="43.54482466441913" lon="11.381261184166378"><ele>837.9999999999999</ele><time>2026-05-02T13:58:44.999Z</time></trkpt><trkpt lat="43.544847458715196" lon="11.381356429948655"><ele>838.0</ele><time>2026-05-02T13:58:45.999Z</time></trkpt><trkpt lat="43.54487140310532" lon="11.381474098545068"><ele>836.4</ele><time>2026-05-02T13:58:46.999Z</time></trkpt><trkpt lat="43.544912551961055" lon="11.381585732339259"><ele>834.8</ele><time>2026-05-02T13:58:47.999Z</time></trkpt><trkpt lat="43.54494953839192" lon="11.381667837613202"><ele>833.2</ele><time>2026-05-02T13:58:48.999Z</time></trkpt><trkpt lat="43.5449920825942" lon="11.381756448331503"><ele>831.6</ele><time>2026-05-02T13:58:49.999Z</time></trkpt><trkpt lat="43.54504228852384" lon="11.381876824697642"><ele>830.0</ele><time>2026-05-02T13:58:50.999Z</time></trkpt><trkpt lat="43.54509552851133" lon="11.38201618484748"><ele>830.0</ele><time>2026-05-02T13:58:51.999Z</time></trkpt><trkpt lat="43.5451416016286" lon="11.38216959095157"><ele>830.0</ele><time>2026-05-02T13:58:52.999Z</time></trkpt><trkpt lat="43.545171968032456" lon="11.38228015658606"><ele>830.0</ele><time>2026-05-02T13:58:53.999Z</time></trkpt><trkpt lat="43.54521071287913" lon="11.382352707711124"><ele>830.0</ele><time>2026-05-02T13:58:54.999Z</time></trkpt><trkpt lat="43.54528564367593" lon="11.382463633165981"><ele>830.0</ele><time>2026-05-02T13:58:56.999Z</time></trkpt><trkpt lat="43.545367360984834" lon="11.382458116449547"><ele>833.4</ele><time>2026-05-02T13:58:59.999Z</time></trkpt><trkpt lat="43.54546360154868" lon="11.382448411364553"><ele>836.8</ele><time>2026-05-02T14:00:37Z</time></trkpt><trkpt lat="43.545558323090845" lon="11.382499210012808"><ele>840.2</ele><time>2026-05-02T14:00:39Z</time></trkpt><trkpt lat="43.54567007927104" lon="11.38254818878991"><ele>843.6</ele><time>2026-05-02T14:00:41Z</time></trkpt><trkpt lat="43.545735214037634" lon="11.38259621621056"><ele>847.0</ele><time>2026-05-02T14:00:42Z</time></trkpt><trkpt lat="43.545802296313035" lon="11.382638130233026"><ele>847.0</ele><time>2026-05-02T14:00:43Z</time></trkpt><trkpt lat="43.54590269675662" lon="11.382724795642337"><ele>847.0</ele><time>2026-05-02T14:00:45Z</time></trkpt><trkpt lat="43.54597842796444" lon="11.382879428528817"><ele>847.0</ele><time>2026-05-02T14:00:47Z</time></trkpt><trkpt lat="43.546026001576" lon="11.382975144059495"><ele>847.0</ele><time>2026-05-02T14:00:47.999Z</time></trkpt><trkpt lat="43.54606797184598" lon="11.383060588121623"><ele>847.0</ele><time>2026-05-02T14:00:48.999Z</time></trkpt><trkpt lat="43.546105736095996" lon="11.383137407962865"><ele>848.3333333333333</ele><time>2026-05-02T14:00:49.999Z</time></trkpt><trkpt lat="43.546146107587525" lon="11.383207737588696"><ele>849.6666666666666</ele><time>2026-05-02T14:00:50.999Z</time></trkpt><trkpt lat="43.54619365619559" lon="11.383278598494245"><ele>851.0</ele><time>2026-05-02T14:00:51.999Z</time></trkpt><trkpt lat="43.546294277121426" lon="11.383402069779413"><ele>852.3333333333333</ele><time>2026-05-02T14:00:53.999Z</time></trkpt><trkpt lat="43.546348597932706" lon="11.383479090020854"><ele>853.6666666666666</ele><time>2026-05-02T14:00:54.999Z</time></trkpt><trkpt lat="43.54640133562872" lon="11.383548179129823"><ele>855.0</ele><time>2026-05-02T14:00:55.999Z</time></trkpt><trkpt lat="43.54646517149148" lon="11.383613716623115"><ele>855.0</ele><time>2026-05-02T14:00:56.999Z</time></trkpt><trkpt lat="43.54652467628989" lon="11.383686030953386"><ele>855.0</ele><time>2026-05-02T14:00:57.999Z</time></trkpt><trkpt lat="43.54661125712944" lon="11.383758893598694"><ele>855.0</ele><time>2026-05-02T14:00:58.999Z</time></trkpt><trkpt lat="43.54671316271" lon="11.383835961637995"><ele>855.0</ele><time>2026-05-02T14:00:59.999Z</time></trkpt><trkpt lat="43.54679329364567" lon="11.383896254418259"><ele>855.0</ele><time>2026-05-02T14:01:00.999Z</time></trkpt><trkpt lat="43.54685517954524" lon="11.383937646492706"><ele>854.0</ele><time>2026-05-02T14:01:01.999Z</time></trkpt><trkpt lat="43.546919119540966" lon="11.383967201013034"><ele>853.0</ele><time>2026-05-02T14:01:02.999Z</time></trkpt><trkpt lat="43.54698061119175" lon="11.383989744626192"><ele>852.0</ele><time>2026-05-02T14:01:03.999Z</time></trkpt><trkpt lat="43.54704735099212" lon="11.38401897612111"><ele>851.0</ele><time>2026-05-02T14:01:04.999Z</time></trkpt><trkpt lat="43.54713978179938" lon="11.384054447782104"><ele>850.0</ele><time>2026-05-02T14:01:06.999Z</time></trkpt><trkpt lat="43.54725627962912" lon="11.38406651363452"><ele>849.0</ele><time>2026-05-02T14:01:08.999Z</time></trkpt><trkpt lat="43.54735035411458" lon="11.384065193424128"><ele>849.0</ele><time>2026-05-02T14:01:10.999Z</time></trkpt><trkpt lat="43.54746657658746" lon="11.384058601609922"><ele>849.0</ele><time>2026-05-02T14:01:12.999Z</time></trkpt><trkpt lat="43.547572130750346" lon="11.384068779861035"><ele>849.0</ele><time>2026-05-02T14:01:14.999Z</time></trkpt><trkpt lat="43.54764048079474" lon="11.38407059214207"><ele>849.0</ele><time>2026-05-02T14:01:15.999Z</time></trkpt><trkpt lat="43.54770487446742" lon="11.384068880316809"><ele>849.0</ele><time>2026-05-02T14:01:16.999Z</time></trkpt><trkpt lat="43.54779989074491" lon="11.384099922756004"><ele>848.1666666666666</ele><time>2026-05-02T14:01:18.999Z</time></trkpt><trkpt lat="43.54787855027822" lon="11.384109104826079"><ele>847.3333333333333</ele><time>2026-05-02T14:01:23.999Z</time></trkpt><trkpt lat="43.54796530117058" lon="11.384121904312119"><ele>846.5</ele><time>2026-05-02T14:01:26.999Z</time></trkpt><trkpt lat="43.548050609326474" lon="11.384142270349532"><ele>845.6666666666666</ele><time>2026-05-02T14:01:29.999Z</time></trkpt><trkpt lat="43.548113634858176" lon="11.384153033788072"><ele>844.8333333333333</ele><time>2026-05-02T14:01:31.999Z</time></trkpt><trkpt lat="43.548189761213976" lon="11.384165870388175"><ele>844.0</ele><time>2026-05-02T14:01:33.999Z</time></trkpt><trkpt lat="43.54825323832367" lon="11.38417570899636"><ele>843.9999999999999</ele><time>2026-05-02T14:01:34.999Z</time></trkpt><trkpt lat="43.548327660783116" lon="11.384181013813812"><ele>844.0</ele><time>2026-05-02T14:01:35.999Z</time></trkpt><trkpt lat="43.54839990581095" lon="11.384180556294625"><ele>844.0</ele><time>2026-05-02T14:01:36.999Z</time></trkpt><trkpt lat="43.548466736446585" lon="11.384181925599584"><ele>844.0</ele><time>2026-05-02T14:01:37.999Z</time></trkpt><trkpt lat="43.54857374940076" lon="11.38419666474275"><ele>843.9999999999999</ele><time>2026-05-02T14:01:39.999Z</time></trkpt><trkpt lat="43.54867140570367" lon="11.384233136451252"><ele>844.0</ele><time>2026-05-02T14:01:41.999Z</time></trkpt><trkpt lat="43.54874870205052" lon="11.38427797564727"><ele>843.6666666666666</ele><time>2026-05-02T14:01:43.999Z</time></trkpt><trkpt lat="43.54884487493173" lon="11.384304126377145"><ele>843.3333333333333</ele><time>2026-05-02T14:01:45.999Z</time></trkpt><trkpt lat="43.54891193121704" lon="11.384359798677163"><ele>843.0</ele><time>2026-05-02T14:01:47.999Z</time></trkpt><trkpt lat="43.548976175289404" lon="11.38447030226135"><ele>842.6666666666667</ele><time>2026-05-02T14:01:50Z</time></trkpt><trkpt lat="43.549029847376225" lon="11.384531619779851"><ele>842.3333333333334</ele><time>2026-05-02T14:01:51Z</time></trkpt><trkpt lat="43.549091131668675" lon="11.384600532037478"><ele>842.0</ele><time>2026-05-02T14:01:52Z</time></trkpt><trkpt lat="43.54914930570481" lon="11.384687378009504"><ele>842.0</ele><time>2026-05-02T14:01:53Z</time></trkpt><trkpt lat="43.54921760130796" lon="11.384806571761645"><ele>842.0</ele><time>2026-05-02T14:01:54Z</time></trkpt><trkpt lat="43.54927449993046" lon="11.384924298616806"><ele>842.0</ele><time>2026-05-02T14:01:55Z</time></trkpt><trkpt lat="43.54932910550097" lon="11.385041145259542"><ele>842.0</ele><time>2026-05-02T14:01:56Z</time></trkpt><trkpt lat="43.54938046492632" lon="11.385129092935045"><ele>842.0</ele><time>2026-05-02T14:01:57Z</time></trkpt><trkpt lat="43.54944113278768" lon="11.385227701483087"><ele>842.0000000000001</ele><time>2026-05-02T14:01:58Z</time></trkpt><trkpt lat="43.54950119103316" lon="11.385331280595333"><ele>842.0</ele><time>2026-05-02T14:01:59Z</time></trkpt><trkpt lat="43.54954902788254" lon="11.385418540933571"><ele>842.0</ele><time>2026-05-02T14:02:00Z</time></trkpt><trkpt lat="43.54959822323189" lon="11.38548437627664"><ele>842.0</ele><time>2026-05-02T14:02:01Z</time></trkpt><trkpt lat="43.549692162451706" lon="11.385558660926486"><ele>842.0000000000001</ele><time>2026-05-02T14:02:03Z</time></trkpt><trkpt lat="43.54975782770131" lon="11.385557871328368"><ele>842.0</ele><time>2026-05-02T14:02:04Z</time></trkpt><trkpt lat="43.54982665705284" lon="11.385561745671552"><ele>846.0</ele><time>2026-05-02T14:02:05Z</time></trkpt><trkpt lat="43.549891171274844" lon="11.385574885700219"><ele>850.0</ele><time>2026-05-02T14:02:06Z</time></trkpt><trkpt lat="43.55000842962939" lon="11.385682575626278"><ele>854.0</ele><time>2026-05-02T14:02:08Z</time></trkpt><trkpt lat="43.55006679954312" lon="11.385760086216779"><ele>858.0</ele><time>2026-05-02T14:02:09Z</time></trkpt><trkpt lat="43.55013269193067" lon="11.38585161069102"><ele>862.0</ele><time>2026-05-02T14:02:10Z</time></trkpt><trkpt lat="43.55018335167557" lon="11.385921027256275"><ele>861.9999999999999</ele><time>2026-05-02T14:02:11Z</time></trkpt><trkpt lat="43.55024213803503" lon="11.386019805962231"><ele>862.0</ele><time>2026-05-02T14:02:13Z</time></trkpt><trkpt lat="43.550287967935645" lon="11.386131258634341"><ele>862.0</ele><time>2026-05-02T14:04:18Z</time></trkpt><trkpt lat="43.550331420154514" lon="11.386210811670335"><ele>862.0</ele><time>2026-05-02T14:04:20Z</time></trkpt><trkpt lat="43.550385436019646" lon="11.386317348409046"><ele>861.9999999999999</ele><time>2026-05-02T14:04:22Z</time></trkpt><trkpt lat="43.55043475968908" lon="11.386425262864478"><ele>862.0</ele><time>2026-05-02T14:04:24Z</time></trkpt><trkpt lat="43.55047882759764" lon="11.386569138887987"><ele>863.6666666666666</ele><time>2026-05-02T14:04:26Z</time></trkpt><trkpt lat="43.5504971686115" lon="11.386721289603617"><ele>865.3333333333333</ele><time>2026-05-02T14:04:28Z</time></trkpt><trkpt lat="43.55052943112623" lon="11.386832760573068"><ele>867.0</ele><time>2026-05-02T14:04:30Z</time></trkpt><trkpt lat="43.55058426865844" lon="11.386906646747631"><ele>868.6666666666667</ele><time>2026-05-02T14:04:32Z</time></trkpt><trkpt lat="43.55068751683669" lon="11.386913369030745"><ele>870.3333333333334</ele><time>2026-05-02T14:04:34Z</time></trkpt><trkpt lat="43.5507441257871" lon="11.386873694989577"><ele>872.0</ele><time>2026-05-02T14:04:35Z</time></trkpt><trkpt lat="43.55079063349966" lon="11.386814677614504"><ele>872.0</ele><time>2026-05-02T14:04:36Z</time></trkpt><trkpt lat="43.550882547990874" lon="11.386725717504769"><ele>872.0</ele><time>2026-05-02T14:04:38Z</time></trkpt><trkpt lat="43.55098842714373" lon="11.386678555998813"><ele>872.0</ele><time>2026-05-02T14:04:40Z</time></trkpt><trkpt lat="43.551116074204316" lon="11.38666156344431"><ele>872.0</ele><time>2026-05-02T14:04:42Z</time></trkpt><trkpt lat="43.551225887465975" lon="11.38662387518667"><ele>871.6</ele><time>2026-05-02T14:04:44Z</time></trkpt><trkpt lat="43.551330756801505" lon="11.386606366416434"><ele>871.2</ele><time>2026-05-02T14:04:46Z</time></trkpt><trkpt lat="43.551427440903915" lon="11.386586788423953"><ele>870.8</ele><time>2026-05-02T14:04:48Z</time></trkpt><trkpt lat="43.551546477767324" lon="11.386621806768288"><ele>870.4</ele><time>2026-05-02T14:04:50Z</time></trkpt><trkpt lat="43.55160648226993" lon="11.386659153683993"><ele>870.0</ele><time>2026-05-02T14:04:51Z</time></trkpt><trkpt lat="43.55166936712329" lon="11.386702606612973"><ele>870.0</ele><time>2026-05-02T14:04:52Z</time></trkpt><trkpt lat="43.55176400108896" lon="11.38680723686361"><ele>870.0</ele><time>2026-05-02T14:04:54Z</time></trkpt><trkpt lat="43.55182358960653" lon="11.386876240665487"><ele>870.0</ele><time>2026-05-02T14:04:55Z</time></trkpt><trkpt lat="43.55186826491078" lon="11.386948833944547"><ele>870.0</ele><time>2026-05-02T14:04:56Z</time></trkpt><trkpt lat="43.55195197427808" lon="11.387074038918549"><ele>870.0</ele><time>2026-05-02T14:04:58Z</time></trkpt><trkpt lat="43.55205575479109" lon="11.387125439738968"><ele>870.8333333333334</ele><time>2026-05-02T14:05:00Z</time></trkpt><trkpt lat="43.55214989985816" lon="11.387100333766092"><ele>871.6666666666667</ele><time>2026-05-02T14:05:01Z</time></trkpt><trkpt lat="43.55222216547948" lon="11.3870762815074"><ele>872.5</ele><time>2026-05-02T14:05:02Z</time></trkpt><trkpt lat="43.55229002625343" lon="11.387083110185722"><ele>873.3333333333334</ele><time>2026-05-02T14:05:03Z</time></trkpt><trkpt lat="43.552392382764154" lon="11.387105078200209"><ele>874.1666666666667</ele><time>2026-05-02T14:05:05Z</time></trkpt><trkpt lat="43.5524633018271" lon="11.38714808340857"><ele>875.0</ele><time>2026-05-02T14:05:06Z</time></trkpt><trkpt lat="43.552577084488796" lon="11.387168487914543"><ele>875.0000000000001</ele><time>2026-05-02T14:05:08Z</time></trkpt><trkpt lat="43.552644219930144" lon="11.387137685092947"><ele>875.0</ele><time>2026-05-02T14:05:09Z</time></trkpt><trkpt lat="43.5526934612875" lon="11.38708229428001"><ele>875.0</ele><time>2026-05-02T14:05:10Z</time></trkpt><trkpt lat="43.55274636051517" lon="11.38702302078515"><ele>875.0</ele><time>2026-05-02T14:05:11Z</time></trkpt><trkpt lat="43.55286052823898" lon="11.386971210259839"><ele>875.0000000000001</ele><time>2026-05-02T14:05:13Z</time></trkpt><trkpt lat="43.55291994518692" lon="11.386938062832613"><ele>875.0</ele><time>2026-05-02T14:05:14Z</time></trkpt><trkpt lat="43.55303174733139" lon="11.386888293411765"><ele>875.5714285714286</ele><time>2026-05-02T14:05:16Z</time></trkpt><trkpt lat="43.55310052789914" lon="11.386879855692056"><ele>876.1428571428571</ele><time>2026-05-02T14:05:17Z</time></trkpt><trkpt lat="43.55316912650825" lon="11.386880697445843"><ele>876.7142857142858</ele><time>2026-05-02T14:05:18Z</time></trkpt><trkpt lat="43.55324892528822" lon="11.386877673977356"><ele>877.2857142857142</ele><time>2026-05-02T14:05:19Z</time></trkpt><trkpt lat="43.553322886730264" lon="11.386897076281498"><ele>877.8571428571429</ele><time>2026-05-02T14:05:20Z</time></trkpt><trkpt lat="43.55339494619621" lon="11.386891889103557"><ele>878.4285714285714</ele><time>2026-05-02T14:05:21Z</time></trkpt><trkpt lat="43.55346786717398" lon="11.38688014375742"><ele>879.0</ele><time>2026-05-02T14:05:22Z</time></trkpt><trkpt lat="43.553581316948126" lon="11.386794632964895"><ele>879.0</ele><time>2026-05-02T14:05:24Z</time></trkpt><trkpt lat="43.55363426356007" lon="11.386747599161879"><ele>879.0</ele><time>2026-05-02T14:05:25Z</time></trkpt><trkpt lat="43.553749606391534" lon="11.386671034917784"><ele>879.0</ele><time>2026-05-02T14:05:27Z</time></trkpt><trkpt lat="43.55381507551179" lon="11.38664443961993"><ele>879.0</ele><time>2026-05-02T14:05:28Z</time></trkpt><trkpt lat="43.553885696806475" lon="11.386628314251496"><ele>879.0</ele><time>2026-05-02T14:05:29Z</time></trkpt><trkpt lat="43.55394781538586" lon="11.38661181705711"><ele>879.0</ele><time>2026-05-02T14:05:30Z</time></trkpt><trkpt lat="43.55401539669138" lon="11.38660030174468"><ele>879.4000000000001</ele><time>2026-05-02T14:05:30.999Z</time></trkpt><trkpt lat="43.55407774958763" lon="11.386583944665343"><ele>879.8000000000001</ele><time>2026-05-02T14:05:31.999Z</time></trkpt><trkpt lat="43.554172511837734" lon="11.386517301664488"><ele>880.1999999999999</ele><time>2026-05-02T14:05:33.999Z</time></trkpt><trkpt lat="43.5542499062354" lon="11.386438072845745"><ele>880.5999999999999</ele><time>2026-05-02T14:05:35.999Z</time></trkpt><trkpt lat="43.55429661097175" lon="11.386342191739907"><ele>881.0</ele><time>2026-05-02T14:05:37.999Z</time></trkpt><trkpt lat="43.55433453319279" lon="11.386200253646818"><ele>881.4285714285714</ele><time>2026-05-02T14:05:39.999Z</time></trkpt><trkpt lat="43.55435757405859" lon="11.386111355820576"><ele>881.8571428571429</ele><time>2026-05-02T14:05:40.999Z</time></trkpt><trkpt lat="43.55438091813717" lon="11.386025821779949"><ele>882.2857142857143</ele><time>2026-05-02T14:05:41.999Z</time></trkpt><trkpt lat="43.55444429726923" lon="11.38596462169156"><ele>882.7142857142858</ele><time>2026-05-02T14:05:42.999Z</time></trkpt><trkpt lat="43.554488303095305" lon="11.38586276882763"><ele>883.1428571428571</ele><time>2026-05-02T14:05:43.999Z</time></trkpt><trkpt lat="43.5545227008423" lon="11.385777123234622"><ele>883.5714285714287</ele><time>2026-05-02T14:05:44.999Z</time></trkpt><trkpt lat="43.554545395607484" lon="11.385670972076717"><ele>884.0</ele><time>2026-05-02T14:05:45.999Z</time></trkpt><trkpt lat="43.554589210724934" lon="11.385569694992626"><ele>881.3333333333334</ele><time>2026-05-02T14:05:46.999Z</time></trkpt><trkpt lat="43.55462724182419" lon="11.385482040611127"><ele>878.6666666666667</ele><time>2026-05-02T14:05:47.999Z</time></trkpt><trkpt lat="43.55466569569354" lon="11.385386395869578"><ele>876.0</ele><time>2026-05-02T14:05:48.999Z</time></trkpt><trkpt lat="43.55470775871495" lon="11.385276234436237"><ele>873.3333333333333</ele><time>2026-05-02T14:05:49.999Z</time></trkpt><trkpt lat="43.55475034642005" lon="11.385170122265519"><ele>870.6666666666666</ele><time>2026-05-02T14:05:50.999Z</time></trkpt><trkpt lat="43.55478257811002" lon="11.38507479978281"><ele>868.0</ele><time>2026-05-02T14:05:51.999Z</time></trkpt><trkpt lat="43.55481315055074" lon="11.384991921487781"><ele>867.9999999999999</ele><time>2026-05-02T14:05:52.999Z</time></trkpt><trkpt lat="43.55484672760513" lon="11.384902846484218"><ele>868.0</ele><time>2026-05-02T14:05:53.999Z</time></trkpt><trkpt lat="43.554883075819525" lon="11.38481325203646"><ele>868.0</ele><time>2026-05-02T14:05:54.999Z</time></trkpt><trkpt lat="43.55491563943693" lon="11.384725453083972"><ele>868.0</ele><time>2026-05-02T14:05:55.999Z</time></trkpt><trkpt lat="43.55497032382224" lon="11.384591628116524"><ele>867.9999999999999</ele><time>2026-05-02T14:05:57.999Z</time></trkpt><trkpt lat="43.55505290600527" lon="11.384484795302678"><ele>868.0</ele><time>2026-05-02T14:05:59.999Z</time></trkpt><trkpt lat="43.55511845387324" lon="11.384458301549168"><ele>866.9999999999999</ele><time>2026-05-02T14:06:01Z</time></trkpt><trkpt lat="43.55518628657308" lon="11.384415356125354"><ele>866.0</ele><time>2026-05-02T14:06:02Z</time></trkpt><trkpt lat="43.55526951894394" lon="11.384422949079513"><ele>865.0</ele><time>2026-05-02T14:06:03Z</time></trkpt><trkpt lat="43.55533886990531" lon="11.384425646885262"><ele>864.0</ele><time>2026-05-02T14:06:04Z</time></trkpt><trkpt lat="43.55540526275241" lon="11.384422343850025"><ele>862.9999999999999</ele><time>2026-05-02T14:06:05Z</time></trkpt><trkpt lat="43.555468305912484" lon="11.384428383585941"><ele>862.0</ele><time>2026-05-02T14:06:06Z</time></trkpt><trkpt lat="43.555579915990705" lon="11.384423997789963"><ele>861.9999999999999</ele><time>2026-05-02T14:06:08Z</time></trkpt><trkpt lat="43.5556921737578" lon="11.384372530001693"><ele>862.0</ele><time>2026-05-02T14:06:10Z</time></trkpt><trkpt lat="43.55574699677122" lon="11.384326144425476"><ele>862.0</ele><time>2026-05-02T14:06:11Z</time></trkpt><trkpt lat="43.55580090932538" lon="11.384272116256493"><ele>862.0</ele><time>2026-05-02T14:06:12Z</time></trkpt><trkpt lat="43.555893844115985" lon="11.384156991400971"><ele>861.9999999999999</ele><time>2026-05-02T14:06:14Z</time></trkpt><trkpt lat="43.555945690320684" lon="11.384100989966203"><ele>862.0</ele><time>2026-05-02T14:06:15Z</time></trkpt><trkpt lat="43.55600129500649" lon="11.384043453091968"><ele>862.0</ele><time>2026-05-02T14:06:16Z</time></trkpt><trkpt lat="43.55606865736744" lon="11.38402330226109"><ele>862.0</ele><time>2026-05-02T14:06:17Z</time></trkpt><trkpt lat="43.5561292752848" lon="11.383961425090213"><ele>862.0</ele><time>2026-05-02T14:06:18Z</time></trkpt><trkpt lat="43.5562017991103" lon="11.383938595377012"><ele>862.0</ele><time>2026-05-02T14:06:19Z</time></trkpt><trkpt lat="43.55627060590591" lon="11.38390212838346"><ele>862.0</ele><time>2026-05-02T14:06:20Z</time></trkpt><trkpt lat="43.556337305136594" lon="11.38386407624053"><ele>862.0</ele><time>2026-05-02T14:06:21Z</time></trkpt><trkpt lat="43.55640233698367" lon="11.383827763724444"><ele>862.0</ele><time>2026-05-02T14:06:22Z</time></trkpt><trkpt lat="43.556473958556666" lon="11.383796630776226"><ele>860.8571428571429</ele><time>2026-05-02T14:06:23Z</time></trkpt><trkpt lat="43.55654930909403" lon="11.383755612475403"><ele>859.7142857142857</ele><time>2026-05-02T14:06:24Z</time></trkpt><trkpt lat="43.55661903248605" lon="11.383724626012942"><ele>858.5714285714286</ele><time>2026-05-02T14:06:25Z</time></trkpt><trkpt lat="43.55668065474732" lon="11.383699163954429"><ele>857.4285714285714</ele><time>2026-05-02T14:06:26Z</time></trkpt><trkpt lat="43.556748181852726" lon="11.383663996392816"><ele>856.2857142857142</ele><time>2026-05-02T14:06:27Z</time></trkpt><trkpt lat="43.55681472728586" lon="11.383645467883472"><ele>855.1428571428571</ele><time>2026-05-02T14:06:28Z</time></trkpt><trkpt lat="43.55687697690825" lon="11.383665491608964"><ele>854.0</ele><time>2026-05-02T14:06:29Z</time></trkpt><trkpt lat="43.55694606633956" lon="11.383714488624674"><ele>854.0000000000001</ele><time>2026-05-02T14:06:30Z</time></trkpt><trkpt lat="43.55703236725586" lon="11.383743058809838"><ele>854.0</ele><time>2026-05-02T14:06:31Z</time></trkpt><trkpt lat="43.557109387076686" lon="11.38376964321441"><ele>854.0</ele><time>2026-05-02T14:06:32Z</time></trkpt><trkpt lat="43.55719022972772" lon="11.383769191266847"><ele>854.0</ele><time>2026-05-02T14:06:33Z</time></trkpt><trkpt lat="43.5572717696965" lon="11.383796767387398"><ele>854.0000000000001</ele><time>2026-05-02T14:06:34Z</time></trkpt><trkpt lat="43.557351416292605" lon="11.383797064458756"><ele>854.0</ele><time>2026-05-02T14:06:35Z</time></trkpt><trkpt lat="43.55742713908243" lon="11.383759199705116"><ele>854.0000000000001</ele><time>2026-05-02T14:06:36Z</time></trkpt><trkpt lat="43.55749289715017" lon="11.38372820850098"><ele>854.0</ele><time>2026-05-02T14:06:37Z</time></trkpt><trkpt lat="43.55756143540444" lon="11.383694376701234"><ele>854.0</ele><time>2026-05-02T14:06:38Z</time></trkpt><trkpt lat="43.55763142777099" lon="11.383645695212703"><ele>854.0</ele><time>2026-05-02T14:06:39Z</time></trkpt><trkpt lat="43.55770893189777" lon="11.383601609163664"><ele>854.0000000000001</ele><time>2026-05-02T14:06:40Z</time></trkpt><trkpt lat="43.55777340074049" lon="11.383565422654142"><ele>854.0</ele><time>2026-05-02T14:06:41Z</time></trkpt><trkpt lat="43.557843537535256" lon="11.383523144691466"><ele>854.3333333333334</ele><time>2026-05-02T14:06:42Z</time></trkpt><trkpt lat="43.557911368458875" lon="11.383490480342946"><ele>854.6666666666667</ele><time>2026-05-02T14:06:43Z</time></trkpt><trkpt lat="43.55797819284913" lon="11.383450930522597"><ele>855.0</ele><time>2026-05-02T14:06:44Z</time></trkpt><trkpt lat="43.55805449611226" lon="11.38341338000327"><ele>855.3333333333333</ele><time>2026-05-02T14:06:45Z</time></trkpt><trkpt lat="43.55811911370998" lon="11.383365537648531"><ele>855.6666666666666</ele><time>2026-05-02T14:06:46Z</time></trkpt><trkpt lat="43.558185798016076" lon="11.38330710361388"><ele>856.0</ele><time>2026-05-02T14:06:47Z</time></trkpt><trkpt lat="43.558256285274965" lon="11.383245439614209"><ele>855.9999999999999</ele><time>2026-05-02T14:06:48Z</time></trkpt><trkpt lat="43.558314329880545" lon="11.383180528096988"><ele>856.0</ele><time>2026-05-02T14:06:49Z</time></trkpt><trkpt lat="43.55836987944532" lon="11.38311245780707"><ele>856.0</ele><time>2026-05-02T14:06:50Z</time></trkpt><trkpt lat="43.558434478577176" lon="11.383065856820137"><ele>856.0</ele><time>2026-05-02T14:06:51Z</time></trkpt><trkpt lat="43.55848412134221" lon="11.383009401220503"><ele>855.9999999999999</ele><time>2026-05-02T14:06:52Z</time></trkpt><trkpt lat="43.5585776427854" lon="11.382902795520918"><ele>856.0</ele><time>2026-05-02T14:06:54Z</time></trkpt><trkpt lat="43.55864972504303" lon="11.382889895810147"><ele>853.9999999999999</ele><time>2026-05-02T14:06:55Z</time></trkpt><trkpt lat="43.55872390211206" lon="11.382846609916523"><ele>852.0</ele><time>2026-05-02T14:06:56Z</time></trkpt><trkpt lat="43.55881508265663" lon="11.382844987607278"><ele>850.0</ele><time>2026-05-02T14:06:57Z</time></trkpt><trkpt lat="43.558905721986896" lon="11.382822161233449"><ele>848.0</ele><time>2026-05-02T14:06:58Z</time></trkpt><trkpt lat="43.558996967935705" lon="11.382790989784375"><ele>845.9999999999999</ele><time>2026-05-02T14:06:59Z</time></trkpt><trkpt lat="43.55907564138671" lon="11.382727394266775"><ele>844.0</ele><time>2026-05-02T14:07:00Z</time></trkpt><trkpt lat="43.55916314847181" lon="11.382676090981889"><ele>844.0</ele><time>2026-05-02T14:07:01Z</time></trkpt><trkpt lat="43.55924284547217" lon="11.382604800170618"><ele>844.0</ele><time>2026-05-02T14:07:02Z</time></trkpt><trkpt lat="43.55932418005411" lon="11.382501768714887"><ele>844.0</ele><time>2026-05-02T14:07:03Z</time></trkpt><trkpt lat="43.55940951846336" lon="11.382384778366964"><ele>844.0</ele><time>2026-05-02T14:07:04Z</time></trkpt><trkpt lat="43.55949278279921" lon="11.38224627544496"><ele>842.75</ele><time>2026-05-02T14:07:05Z</time></trkpt><trkpt lat="43.55958548529192" lon="11.382096789513957"><ele>841.5</ele><time>2026-05-02T14:07:06Z</time></trkpt><trkpt lat="43.559663716424105" lon="11.381953865511216"><ele>840.25</ele><time>2026-05-02T14:07:07Z</time></trkpt><trkpt lat="43.55973728594058" lon="11.381823060723656"><ele>839.0</ele><time>2026-05-02T14:07:08Z</time></trkpt><trkpt lat="43.55981165452931" lon="11.381696745828725"><ele>839.0</ele><time>2026-05-02T14:07:09Z</time></trkpt><trkpt lat="43.55988654630088" lon="11.381570854321744"><ele>839.0</ele><time>2026-05-02T14:07:10Z</time></trkpt><trkpt lat="43.55995771983184" lon="11.381449607457785"><ele>839.0</ele><time>2026-05-02T14:07:11Z</time></trkpt><trkpt lat="43.56002864569514" lon="11.38132819376397"><ele>839.0</ele><time>2026-05-02T14:07:12Z</time></trkpt><trkpt lat="43.560093759645916" lon="11.381211686889623"><ele>840.1666666666667</ele><time>2026-05-02T14:07:13Z</time></trkpt><trkpt lat="43.56015694934379" lon="11.381103451970844"><ele>841.3333333333334</ele><time>2026-05-02T14:07:14Z</time></trkpt><trkpt lat="43.5602135811356" lon="11.38100610293234"><ele>842.5</ele><time>2026-05-02T14:07:15Z</time></trkpt><trkpt lat="43.56026589981732" lon="11.380903973280912"><ele>843.6666666666667</ele><time>2026-05-02T14:07:16Z</time></trkpt><trkpt lat="43.560315461157124" lon="11.380805658749846"><ele>844.8333333333334</ele><time>2026-05-02T14:07:17Z</time></trkpt><trkpt lat="43.56036312134829" lon="11.380730236981792"><ele>846.0</ele><time>2026-05-02T14:07:18Z</time></trkpt><trkpt lat="43.560410555810954" lon="11.380672942220343"><ele>846.0</ele><time>2026-05-02T14:07:19Z</time></trkpt><trkpt lat="43.560507729584785" lon="11.38062735896671"><ele>846.0</ele><time>2026-05-02T14:07:21Z</time></trkpt><trkpt lat="43.560640887224416" lon="11.38061505096018"><ele>846.0</ele><time>2026-05-02T14:07:23Z</time></trkpt><trkpt lat="43.56071740959873" lon="11.380600123563694"><ele>846.0</ele><time>2026-05-02T14:07:24Z</time></trkpt><trkpt lat="43.560797905380085" lon="11.380573641409793"><ele>846.0</ele><time>2026-05-02T14:07:25Z</time></trkpt><trkpt lat="43.56087773760138" lon="11.380541620333513"><ele>847.1666666666666</ele><time>2026-05-02T14:07:26Z</time></trkpt><trkpt lat="43.56095149545116" lon="11.380504550263124"><ele>848.3333333333333</ele><time>2026-05-02T14:07:27Z</time></trkpt><trkpt lat="43.56102921670668" lon="11.380461497865591"><ele>849.5</ele><time>2026-05-02T14:07:28Z</time></trkpt><trkpt lat="43.5611145951436" lon="11.380417798918357"><ele>850.6666666666666</ele><time>2026-05-02T14:07:29Z</time></trkpt><trkpt lat="43.56119618267175" lon="11.380372138452733"><ele>851.8333333333333</ele><time>2026-05-02T14:07:30Z</time></trkpt><trkpt lat="43.561270839742924" lon="11.380349632931999"><ele>853.0</ele><time>2026-05-02T14:07:31Z</time></trkpt><trkpt lat="43.5613690219615" lon="11.380273727180246"><ele>852.9999999999999</ele><time>2026-05-02T14:07:33Z</time></trkpt><trkpt lat="43.56144372279166" lon="11.380172165858808"><ele>853.0</ele><time>2026-05-02T14:07:35Z</time></trkpt><trkpt lat="43.561498028882816" lon="11.380079233804011"><ele>853.0</ele><time>2026-05-02T14:07:36.999Z</time></trkpt><trkpt lat="43.56153838621811" lon="11.379998008896138"><ele>853.0</ele><time>2026-05-02T14:08:10Z</time></trkpt><trkpt lat="43.56159713822711" lon="11.379877834250763"><ele>852.9999999999999</ele><time>2026-05-02T14:08:12Z</time></trkpt><trkpt lat="43.56164403203199" lon="11.379808116477225"><ele>853.0</ele><time>2026-05-02T14:08:13Z</time></trkpt><trkpt lat="43.561692229310125" lon="11.379737042996132"><ele>855.1666666666666</ele><time>2026-05-02T14:08:14Z</time></trkpt><trkpt lat="43.56173889094661" lon="11.37965539969027"><ele>857.3333333333333</ele><time>2026-05-02T14:08:15Z</time></trkpt><trkpt lat="43.56179506252819" lon="11.37957019137002"><ele>859.5</ele><time>2026-05-02T14:08:16Z</time></trkpt><trkpt lat="43.56185799134613" lon="11.379478937054541"><ele>861.6666666666667</ele><time>2026-05-02T14:08:17Z</time></trkpt><trkpt lat="43.56192281844017" lon="11.379376408226436"><ele>863.8333333333334</ele><time>2026-05-02T14:08:18Z</time></trkpt><trkpt lat="43.56198252908007" lon="11.37927403584033"><ele>866.0</ele><time>2026-05-02T14:08:19Z</time></trkpt><trkpt lat="43.562037276767626" lon="11.379159476349272"><ele>861.4</ele><time>2026-05-02T14:08:20Z</time></trkpt><trkpt lat="43.562093753815056" lon="11.37903157047021"><ele>856.8</ele><time>2026-05-02T14:08:21Z</time></trkpt><trkpt lat="43.56214585899653" lon="11.378896536633189"><ele>852.1999999999999</ele><time>2026-05-02T14:08:22Z</time></trkpt><trkpt lat="43.562202554802646" lon="11.378774526855441"><ele>847.5999999999999</ele><time>2026-05-02T14:08:23Z</time></trkpt><trkpt lat="43.56226507388773" lon="11.378664246894663"><ele>843.0</ele><time>2026-05-02T14:08:24Z</time></trkpt><trkpt lat="43.56232970758017" lon="11.378560835053092"><ele>843.0</ele><time>2026-05-02T14:08:25Z</time></trkpt><trkpt lat="43.56239251135628" lon="11.378472001999466"><ele>843.0</ele><time>2026-05-02T14:08:26Z</time></trkpt><trkpt lat="43.56246212672516" lon="11.378389029612133"><ele>843.0</ele><time>2026-05-02T14:08:27Z</time></trkpt><trkpt lat="43.56253565517807" lon="11.37831678103438"><ele>843.0</ele><time>2026-05-02T14:08:28Z</time></trkpt><trkpt lat="43.562617852935404" lon="11.378252616946867"><ele>843.0</ele><time>2026-05-02T14:08:29Z</time></trkpt><trkpt lat="43.56270103407652" lon="11.378195257456802"><ele>843.0</ele><time>2026-05-02T14:08:30Z</time></trkpt><trkpt lat="43.562790003777074" lon="11.378160807785726"><ele>843.0</ele><time>2026-05-02T14:08:31Z</time></trkpt><trkpt lat="43.56287716442652" lon="11.37812394129146"><ele>843.0</ele><time>2026-05-02T14:08:32Z</time></trkpt><trkpt lat="43.56296433530821" lon="11.378088359042575"><ele>843.0</ele><time>2026-05-02T14:08:33Z</time></trkpt><trkpt lat="43.563059902746446" lon="11.37805023024832"><ele>843.0</ele><time>2026-05-02T14:08:34Z</time></trkpt><trkpt lat="43.56315539558887" lon="11.378006013605141"><ele>840.2</ele><time>2026-05-02T14:08:35Z</time></trkpt><trkpt lat="43.56325318737287" lon="11.377963837921287"><ele>837.4</ele><time>2026-05-02T14:08:36Z</time></trkpt><trkpt lat="43.56334724017838" lon="11.377919400095259"><ele>834.6</ele><time>2026-05-02T14:08:37Z</time></trkpt><trkpt lat="43.56343325179817" lon="11.377880361212197"><ele>831.8000000000001</ele><time>2026-05-02T14:08:38Z</time></trkpt><trkpt lat="43.56351535719784" lon="11.377845685451776"><ele>829.0</ele><time>2026-05-02T14:08:39Z</time></trkpt><trkpt lat="43.563593773043195" lon="11.377817733366905"><ele>829.0</ele><time>2026-05-02T14:08:40Z</time></trkpt><trkpt lat="43.56366463069481" lon="11.377798485525977"><ele>829.0</ele><time>2026-05-02T14:08:41Z</time></trkpt><trkpt lat="43.56372735947359" lon="11.377790806517973"><ele>829.0</ele><time>2026-05-02T14:08:42Z</time></trkpt><trkpt lat="43.56384003959551" lon="11.37785132893324"><ele>829.0</ele><time>2026-05-02T14:08:44Z</time></trkpt><trkpt lat="43.56391004587632" lon="11.377968659412431"><ele>829.0</ele><time>2026-05-02T14:08:46Z</time></trkpt><trkpt lat="43.563931339374086" lon="11.378123685836787"><ele>827.8333333333333</ele><time>2026-05-02T14:08:48Z</time></trkpt><trkpt lat="43.56385858379313" lon="11.378277485574374"><ele>826.6666666666666</ele><time>2026-05-02T14:08:50Z</time></trkpt><trkpt lat="43.563825520539716" lon="11.378365854192884"><ele>825.5</ele><time>2026-05-02T14:08:51Z</time></trkpt><trkpt lat="43.56380597971854" lon="11.37845509268254"><ele>824.3333333333333</ele><time>2026-05-02T14:08:52Z</time></trkpt><trkpt lat="43.56381693706506" lon="11.378550015539743"><ele>823.1666666666666</ele><time>2026-05-02T14:08:53Z</time></trkpt><trkpt lat="43.56382239690069" lon="11.378641385231635"><ele>822.0</ele><time>2026-05-02T14:08:54Z</time></trkpt><trkpt lat="43.563849547457" lon="11.37872430416266"><ele>822.0</ele><time>2026-05-02T14:08:55Z</time></trkpt><trkpt lat="43.5638989884572" lon="11.37879161959955"><ele>822.0</ele><time>2026-05-02T14:08:56Z</time></trkpt><trkpt lat="43.56396685783738" lon="11.37883829447902"><ele>822.0</ele><time>2026-05-02T14:08:57Z</time></trkpt><trkpt lat="43.56404690971102" lon="11.378862197047084"><ele>822.0</ele><time>2026-05-02T14:08:58Z</time></trkpt><trkpt lat="43.564130081825965" lon="11.378861433332643"><ele>822.0</ele><time>2026-05-02T14:08:59Z</time></trkpt><trkpt lat="43.56422056933801" lon="11.378841371039396"><ele>822.0</ele><time>2026-05-02T14:09:00Z</time></trkpt><trkpt lat="43.56431437221642" lon="11.378811051434473"><ele>822.0</ele><time>2026-05-02T14:09:01Z</time></trkpt><trkpt lat="43.56440541477271" lon="11.378788732003573"><ele>822.0</ele><time>2026-05-02T14:09:02Z</time></trkpt><trkpt lat="43.5645002621262" lon="11.378761740187308"><ele>822.0</ele><time>2026-05-02T14:09:03Z</time></trkpt><trkpt lat="43.564597200922435" lon="11.378729129419124"><ele>822.0</ele><time>2026-05-02T14:09:04Z</time></trkpt><trkpt lat="43.564693653156084" lon="11.378692101107605"><ele>822.0</ele><time>2026-05-02T14:09:05Z</time></trkpt><trkpt lat="43.56478724149749" lon="11.378649442387006"><ele>819.0</ele><time>2026-05-02T14:09:06Z</time></trkpt><trkpt lat="43.56487916781259" lon="11.37860696992273"><ele>816.0</ele><time>2026-05-02T14:09:07Z</time></trkpt><trkpt lat="43.56496641605331" lon="11.378552409981518"><ele>813.0</ele><time>2026-05-02T14:09:08Z</time></trkpt><trkpt lat="43.56504067510349" lon="11.378491741614821"><ele>810.0</ele><time>2026-05-02T14:09:09Z</time></trkpt><trkpt lat="43.56511031780614" lon="11.378429114498914"><ele>807.0</ele><time>2026-05-02T14:09:10Z</time></trkpt><trkpt lat="43.56517816855296" lon="11.378341144890955"><ele>807.0</ele><time>2026-05-02T14:09:11Z</time></trkpt><trkpt lat="43.56525221852045" lon="11.378246471264777"><ele>807.0</ele><time>2026-05-02T14:09:12Z</time></trkpt><trkpt lat="43.56532702773618" lon="11.37814607759266"><ele>807.0</ele><time>2026-05-02T14:09:13Z</time></trkpt><trkpt lat="43.56539557696948" lon="11.378053248453995"><ele>807.0</ele><time>2026-05-02T14:09:14Z</time></trkpt><trkpt lat="43.56546596978056" lon="11.377966995955777"><ele>807.0</ele><time>2026-05-02T14:09:15Z</time></trkpt><trkpt lat="43.56553170488875" lon="11.377886966781597"><ele>804.8333333333334</ele><time>2026-05-02T14:09:16Z</time></trkpt><trkpt lat="43.56559663626879" lon="11.377810029231979"><ele>802.6666666666667</ele><time>2026-05-02T14:09:17Z</time></trkpt><trkpt lat="43.565659003583946" lon="11.37774021010517"><ele>800.5</ele><time>2026-05-02T14:09:18Z</time></trkpt><trkpt lat="43.56572845434486" lon="11.37768061327341"><ele>798.3333333333334</ele><time>2026-05-02T14:09:19Z</time></trkpt><trkpt lat="43.565805921283705" lon="11.377645338767572"><ele>796.1666666666667</ele><time>2026-05-02T14:09:20Z</time></trkpt><trkpt lat="43.565888539660165" lon="11.377629199870684"><ele>794.0</ele><time>2026-05-02T14:09:21Z</time></trkpt><trkpt lat="43.56597143305414" lon="11.377657636557284"><ele>794.0000000000001</ele><time>2026-05-02T14:09:22Z</time></trkpt><trkpt lat="43.56605127903683" lon="11.37768153782523"><ele>794.0</ele><time>2026-05-02T14:09:23Z</time></trkpt><trkpt lat="43.56613291427032" lon="11.377725166501056"><ele>794.0</ele><time>2026-05-02T14:09:24Z</time></trkpt><trkpt lat="43.56621177085972" lon="11.377779850421053"><ele>794.0</ele><time>2026-05-02T14:09:25Z</time></trkpt><trkpt lat="43.56629345631354" lon="11.377834297079865"><ele>794.0000000000001</ele><time>2026-05-02T14:09:26Z</time></trkpt><trkpt lat="43.56638144657517" lon="11.377863718577938"><ele>794.0</ele><time>2026-05-02T14:09:27Z</time></trkpt><trkpt lat="43.5664588534789" lon="11.377910714074932"><ele>792.6666666666667</ele><time>2026-05-02T14:09:28Z</time></trkpt><trkpt lat="43.566534948838054" lon="11.377954473732942"><ele>791.3333333333334</ele><time>2026-05-02T14:09:29Z</time></trkpt><trkpt lat="43.56661544005819" lon="11.377990084027141"><ele>790.0</ele><time>2026-05-02T14:09:30Z</time></trkpt><trkpt lat="43.56669731044417" lon="11.378013594076942"><ele>788.6666666666667</ele><time>2026-05-02T14:09:31Z</time></trkpt><trkpt lat="43.56678008735795" lon="11.378040258753396"><ele>787.3333333333334</ele><time>2026-05-02T14:09:32Z</time></trkpt><trkpt lat="43.566866832141336" lon="11.378063022018768"><ele>786.0</ele><time>2026-05-02T14:09:33Z</time></trkpt><trkpt lat="43.566959016579034" lon="11.378089946313217"><ele>784.0</ele><time>2026-05-02T14:09:34Z</time></trkpt><trkpt lat="43.567051282003185" lon="11.378113869372614"><ele>782.0</ele><time>2026-05-02T14:09:35Z</time></trkpt><trkpt lat="43.56714220571637" lon="11.378136786339853"><ele>780.0</ele><time>2026-05-02T14:09:36Z</time></trkpt><trkpt lat="43.567230879459025" lon="11.37816198927118"><ele>778.0</ele><time>2026-05-02T14:09:37Z</time></trkpt><trkpt lat="43.56732069422404" lon="11.378186477389034"><ele>776.0</ele><time>2026-05-02T14:09:38Z</time></trkpt><trkpt lat="43.56740546908666" lon="11.37820589912213"><ele>776.0000000000001</ele><time>2026-05-02T14:09:39Z</time></trkpt><trkpt lat="43.56748878840388" lon="11.378212729620843"><ele>776.0</ele><time>2026-05-02T14:09:40Z</time></trkpt><trkpt lat="43.56756648293447" lon="11.3782075093119"><ele>776.0</ele><time>2026-05-02T14:09:41Z</time></trkpt><trkpt lat="43.567641679336354" lon="11.378183622600554"><ele>776.0</ele><time>2026-05-02T14:09:42Z</time></trkpt><trkpt lat="43.567715545287946" lon="11.378141935075533"><ele>776.0000000000001</ele><time>2026-05-02T14:09:43Z</time></trkpt><trkpt lat="43.567786932808716" lon="11.378083632692757"><ele>776.0</ele><time>2026-05-02T14:09:44Z</time></trkpt><trkpt lat="43.567857484481024" lon="11.378012343475003"><ele>774.1666666666667</ele><time>2026-05-02T14:09:45Z</time></trkpt><trkpt lat="43.56792478569206" lon="11.37793194764407"><ele>772.3333333333334</ele><time>2026-05-02T14:09:46Z</time></trkpt><trkpt lat="43.567986373334605" lon="11.377856568996775"><ele>770.5</ele><time>2026-05-02T14:09:47Z</time></trkpt><trkpt lat="43.56804740976515" lon="11.377778431380658"><ele>768.6666666666667</ele><time>2026-05-02T14:09:48Z</time></trkpt><trkpt lat="43.568096799084856" lon="11.377692937235647"><ele>766.8333333333334</ele><time>2026-05-02T14:09:49Z</time></trkpt><trkpt lat="43.56813075703036" lon="11.377602049867717"><ele>765.0</ele><time>2026-05-02T14:09:50Z</time></trkpt><trkpt lat="43.568143541255814" lon="11.377506252945738"><ele>765.0</ele><time>2026-05-02T14:09:51Z</time></trkpt><trkpt lat="43.56813996673984" lon="11.377411197862726"><ele>765.0</ele><time>2026-05-02T14:09:51.999Z</time></trkpt><trkpt lat="43.56813626837665" lon="11.377317666912617"><ele>765.0</ele><time>2026-05-02T14:09:52.999Z</time></trkpt><trkpt lat="43.56816190651481" lon="11.377161602776058"><ele>765.0</ele><time>2026-05-02T14:09:54.999Z</time></trkpt><trkpt lat="43.56824640319185" lon="11.37706109582037"><ele>765.0</ele><time>2026-05-02T14:09:56.999Z</time></trkpt><trkpt lat="43.56830795274095" lon="11.377086218470247"><ele>765.0</ele><time>2026-05-02T14:09:57.999Z</time></trkpt><trkpt lat="43.56839096463344" lon="11.37720259877146"><ele>765.0</ele><time>2026-05-02T14:09:59.999Z</time></trkpt><trkpt lat="43.568439012643026" lon="11.377348953092929"><ele>765.0</ele><time>2026-05-02T14:10:01.999Z</time></trkpt><trkpt lat="43.56846396930049" lon="11.377429695045077"><ele>765.0</ele><time>2026-05-02T14:10:02.999Z</time></trkpt><trkpt lat="43.568489984584374" lon="11.377514262516142"><ele>765.0</ele><time>2026-05-02T14:10:03.999Z</time></trkpt><trkpt lat="43.568517790009786" lon="11.377607087278934"><ele>765.0</ele><time>2026-05-02T14:10:04.999Z</time></trkpt><trkpt lat="43.56854555874534" lon="11.377700621200828"><ele>765.0</ele><time>2026-05-02T14:10:05.999Z</time></trkpt><trkpt lat="43.56857029221018" lon="11.377789627671454"><ele>765.0</ele><time>2026-05-02T14:10:06.999Z</time></trkpt><trkpt lat="43.568595205889885" lon="11.377880714843867"><ele>765.0</ele><time>2026-05-02T14:10:07.999Z</time></trkpt><trkpt lat="43.56863510299222" lon="11.377965203321773"><ele>765.0</ele><time>2026-05-02T14:10:08.999Z</time></trkpt><trkpt lat="43.568654049347295" lon="11.37804880731569"><ele>765.0</ele><time>2026-05-02T14:10:09.999Z</time></trkpt><trkpt lat="43.568673862398946" lon="11.378133187611734"><ele>765.0</ele><time>2026-05-02T14:10:10.999Z</time></trkpt><trkpt lat="43.56872419971225" lon="11.378279827193026"><ele>765.0</ele><time>2026-05-02T14:10:13Z</time></trkpt><trkpt lat="43.568808176087906" lon="11.378365860083603"><ele>761.6</ele><time>2026-05-02T14:10:15Z</time></trkpt><trkpt lat="43.56893111774086" lon="11.37834272431642"><ele>758.2</ele><time>2026-05-02T14:10:17Z</time></trkpt><trkpt lat="43.568990921173175" lon="11.378298479469764"><ele>754.8</ele><time>2026-05-02T14:10:18Z</time></trkpt><trkpt lat="43.569041632416315" lon="11.378244384260539"><ele>751.4</ele><time>2026-05-02T14:10:19Z</time></trkpt><trkpt lat="43.56913403182155" lon="11.378130746260977"><ele>748.0</ele><time>2026-05-02T14:10:21Z</time></trkpt><trkpt lat="43.56922271453423" lon="11.378020780583688"><ele>748.2</ele><time>2026-05-02T14:10:23Z</time></trkpt><trkpt lat="43.56931099222831" lon="11.377939122378441"><ele>748.4</ele><time>2026-05-02T14:10:25Z</time></trkpt><trkpt lat="43.56941066772279" lon="11.377900635913976"><ele>748.6</ele><time>2026-05-02T14:10:27Z</time></trkpt><trkpt lat="43.569499781666565" lon="11.377886568062191"><ele>748.8000000000001</ele><time>2026-05-02T14:10:29Z</time></trkpt><trkpt lat="43.569600015310975" lon="11.377798603130739"><ele>749.0</ele><time>2026-05-02T14:10:31Z</time></trkpt><trkpt lat="43.569656542922935" lon="11.377749736813838"><ele>748.3333333333333</ele><time>2026-05-02T14:10:32Z</time></trkpt><trkpt lat="43.569717061474954" lon="11.377704794962478"><ele>747.6666666666666</ele><time>2026-05-02T14:10:33Z</time></trkpt><trkpt lat="43.569767478633985" lon="11.377650427190876"><ele>747.0</ele><time>2026-05-02T14:10:34Z</time></trkpt><trkpt lat="43.56987813201268" lon="11.377576217664078"><ele>746.3333333333334</ele><time>2026-05-02T14:10:36Z</time></trkpt><trkpt lat="43.56993897495731" lon="11.37754035784392"><ele>745.6666666666667</ele><time>2026-05-02T14:10:37Z</time></trkpt><trkpt lat="43.570005752831875" lon="11.377522198531567"><ele>745.0</ele><time>2026-05-02T14:10:38Z</time></trkpt><trkpt lat="43.57007418878877" lon="11.377479194712178"><ele>745.0</ele><time>2026-05-02T14:10:39Z</time></trkpt><trkpt lat="43.57013795241184" lon="11.37741553922277"><ele>745.0</ele><time>2026-05-02T14:10:40Z</time></trkpt><trkpt lat="43.57020973603511" lon="11.377371385654417"><ele>745.0</ele><time>2026-05-02T14:10:41Z</time></trkpt><trkpt lat="43.57028581531884" lon="11.377327867676463"><ele>745.0</ele><time>2026-05-02T14:10:42Z</time></trkpt><trkpt lat="43.57036380770437" lon="11.377281464175486"><ele>745.0</ele><time>2026-05-02T14:10:43Z</time></trkpt><trkpt lat="43.57044071676258" lon="11.37722802637834"><ele>745.0</ele><time>2026-05-02T14:10:44Z</time></trkpt><trkpt lat="43.570518481647134" lon="11.377173354194667"><ele>745.6666666666667</ele><time>2026-05-02T14:10:45Z</time></trkpt><trkpt lat="43.570598193773165" lon="11.377119649351808"><ele>746.3333333333334</ele><time>2026-05-02T14:10:46Z</time></trkpt><trkpt lat="43.570675959490245" lon="11.377074956142907"><ele>747.0</ele><time>2026-05-02T14:10:47Z</time></trkpt><trkpt lat="43.57075150865507" lon="11.377033596578698"><ele>747.6666666666666</ele><time>2026-05-02T14:10:48Z</time></trkpt><trkpt lat="43.570828837771" lon="11.376994835758424"><ele>748.3333333333333</ele><time>2026-05-02T14:10:49Z</time></trkpt><trkpt lat="43.57091057196118" lon="11.376962531265143"><ele>749.0</ele><time>2026-05-02T14:10:50Z</time></trkpt><trkpt lat="43.57100064927582" lon="11.376949652014531"><ele>749.0</ele><time>2026-05-02T14:10:51Z</time></trkpt><trkpt lat="43.571101204981176" lon="11.376938296042058"><ele>749.0</ele><time>2026-05-02T14:10:52Z</time></trkpt><trkpt lat="43.57120976787248" lon="11.376926467700683"><ele>749.0</ele><time>2026-05-02T14:10:53Z</time></trkpt><trkpt lat="43.571322360722974" lon="11.376909254219573"><ele>749.0</ele><time>2026-05-02T14:10:54Z</time></trkpt><trkpt lat="43.5714321322389" lon="11.376879859862962"><ele>749.0</ele><time>2026-05-02T14:10:55Z</time></trkpt><trkpt lat="43.571545411329105" lon="11.37683820118804"><ele>748.8000000000001</ele><time>2026-05-02T14:10:56Z</time></trkpt><trkpt lat="43.57166604999432" lon="11.376783554897715"><ele>748.6</ele><time>2026-05-02T14:10:57Z</time></trkpt><trkpt lat="43.571767959167126" lon="11.376720351481705"><ele>748.4</ele><time>2026-05-02T14:10:58Z</time></trkpt><trkpt lat="43.571856238481935" lon="11.376665701908546"><ele>748.2</ele><time>2026-05-02T14:10:59Z</time></trkpt><trkpt lat="43.571957400030314" lon="11.376608268929242"><ele>748.0</ele><time>2026-05-02T14:11:00Z</time></trkpt><trkpt lat="43.57206578106374" lon="11.376561857657217"><ele>748.0</ele><time>2026-05-02T14:11:01Z</time></trkpt><trkpt lat="43.57218218086614" lon="11.376525387712743"><ele>748.0</ele><time>2026-05-02T14:11:02Z</time></trkpt><trkpt lat="43.57230936857299" lon="11.376477272067058"><ele>748.0</ele><time>2026-05-02T14:11:03Z</time></trkpt><trkpt lat="43.57243539573663" lon="11.376418433489345"><ele>748.0</ele><time>2026-05-02T14:11:04Z</time></trkpt><trkpt lat="43.57253432573771" lon="11.376368496673834"><ele>746.75</ele><time>2026-05-02T14:11:05Z</time></trkpt><trkpt lat="43.57263249325677" lon="11.376324334580557"><ele>745.5</ele><time>2026-05-02T14:11:06Z</time></trkpt><trkpt lat="43.57273659370393" lon="11.376278370571544"><ele>744.25</ele><time>2026-05-02T14:11:07Z</time></trkpt><trkpt lat="43.57285398181077" lon="11.376252544417722"><ele>743.0</ele><time>2026-05-02T14:11:08Z</time></trkpt><trkpt lat="43.57297608039328" lon="11.376229221506808"><ele>742.5</ele><time>2026-05-02T14:11:09Z</time></trkpt><trkpt lat="43.57310023053398" lon="11.376203765363352"><ele>742.0</ele><time>2026-05-02T14:11:10Z</time></trkpt><trkpt lat="43.5732222083551" lon="11.376157541734406"><ele>741.5</ele><time>2026-05-02T14:11:11Z</time></trkpt><trkpt lat="43.573344063409046" lon="11.376086445282068"><ele>741.0</ele><time>2026-05-02T14:11:12Z</time></trkpt><trkpt lat="43.57345799002429" lon="11.37599740003973"><ele>741.0</ele><time>2026-05-02T14:11:13Z</time></trkpt><trkpt lat="43.57356474879639" lon="11.375925340395078"><ele>741.0</ele><time>2026-05-02T14:11:14Z</time></trkpt><trkpt lat="43.573683807762876" lon="11.375861314708729"><ele>741.0</ele><time>2026-05-02T14:11:15Z</time></trkpt><trkpt lat="43.573799517607895" lon="11.375787326827854"><ele>741.0</ele><time>2026-05-02T14:11:16Z</time></trkpt><trkpt lat="43.57390651861585" lon="11.375726884938594"><ele>742.0</ele><time>2026-05-02T14:11:17Z</time></trkpt><trkpt lat="43.574010409828325" lon="11.375667748807073"><ele>743.0</ele><time>2026-05-02T14:11:18Z</time></trkpt><trkpt lat="43.574112112216746" lon="11.37560593040282"><ele>744.0</ele><time>2026-05-02T14:11:19Z</time></trkpt><trkpt lat="43.57420679604458" lon="11.375552478673061"><ele>745.0</ele><time>2026-05-02T14:11:20Z</time></trkpt><trkpt lat="43.57429759361738" lon="11.375502883456894"><ele>746.0</ele><time>2026-05-02T14:11:21Z</time></trkpt><trkpt lat="43.57437313673428" lon="11.375452831566973"><ele>743.5999999999999</ele><time>2026-05-02T14:11:22Z</time></trkpt><trkpt lat="43.57444477381672" lon="11.375402618886142"><ele>741.2</ele><time>2026-05-02T14:11:23Z</time></trkpt><trkpt lat="43.57451068517936" lon="11.375331838069611"><ele>738.8</ele><time>2026-05-02T14:11:24Z</time></trkpt><trkpt lat="43.5745802367649" lon="11.37523822490298"><ele>736.4000000000001</ele><time>2026-05-02T14:11:25Z</time></trkpt><trkpt lat="43.57465578799635" lon="11.375131475068354"><ele>734.0</ele><time>2026-05-02T14:11:26Z</time></trkpt><trkpt lat="43.57473010191238" lon="11.375010473173468"><ele>734.0</ele><time>2026-05-02T14:11:27Z</time></trkpt><trkpt lat="43.57481125473335" lon="11.374894978618169"><ele>734.0</ele><time>2026-05-02T14:11:28Z</time></trkpt><trkpt lat="43.574889297025486" lon="11.374779617322947"><ele>734.0</ele><time>2026-05-02T14:11:29Z</time></trkpt><trkpt lat="43.57496298525571" lon="11.37466734664182"><ele>734.0</ele><time>2026-05-02T14:11:30Z</time></trkpt><trkpt lat="43.57504240712074" lon="11.374558184801726"><ele>732.2</ele><time>2026-05-02T14:11:31Z</time></trkpt><trkpt lat="43.575122032835296" lon="11.374443355016322"><ele>730.4000000000001</ele><time>2026-05-02T14:11:32Z</time></trkpt><trkpt lat="43.57519595831235" lon="11.374343137548557"><ele>728.6</ele><time>2026-05-02T14:11:33Z</time></trkpt><trkpt lat="43.57527032766912" lon="11.37423748132813"><ele>726.8</ele><time>2026-05-02T14:11:34Z</time></trkpt><trkpt lat="43.57534278697752" lon="11.374134085081998"><ele>725.0</ele><time>2026-05-02T14:11:35Z</time></trkpt><trkpt lat="43.57541091606406" lon="11.374039625921025"><ele>724.8333333333333</ele><time>2026-05-02T14:11:36Z</time></trkpt><trkpt lat="43.57547939243333" lon="11.37395262007151"><ele>724.6666666666666</ele><time>2026-05-02T14:11:37Z</time></trkpt><trkpt lat="43.575543939509586" lon="11.373867627139154"><ele>724.5</ele><time>2026-05-02T14:11:38Z</time></trkpt><trkpt lat="43.575608550603526" lon="11.373790847737757"><ele>724.3333333333334</ele><time>2026-05-02T14:11:39Z</time></trkpt><trkpt lat="43.575673596629564" lon="11.373724679258713"><ele>724.1666666666667</ele><time>2026-05-02T14:11:40Z</time></trkpt><trkpt lat="43.57574342761269" lon="11.3736633911577"><ele>724.0</ele><time>2026-05-02T14:11:41Z</time></trkpt><trkpt lat="43.575829335212084" lon="11.373600795668173"><ele>723.8000000000001</ele><time>2026-05-02T14:11:42Z</time></trkpt><trkpt lat="43.57592524384482" lon="11.373555981542092"><ele>723.6</ele><time>2026-05-02T14:11:42.999Z</time></trkpt><trkpt lat="43.57603092426696" lon="11.37352493560553"><ele>723.4</ele><time>2026-05-02T14:11:43.999Z</time></trkpt><trkpt lat="43.576144005051304" lon="11.373527624351977"><ele>723.2</ele><time>2026-05-02T14:11:44.999Z</time></trkpt><trkpt lat="43.57625347894798" lon="11.373533852055894"><ele>723.0</ele><time>2026-05-02T14:11:45.999Z</time></trkpt><trkpt lat="43.576369180266866" lon="11.373535662890419"><ele>724.0</ele><time>2026-05-02T14:11:46.999Z</time></trkpt><trkpt lat="43.57648971205991" lon="11.373584611689369"><ele>725.0</ele><time>2026-05-02T14:11:47.999Z</time></trkpt><trkpt lat="43.57660248315993" lon="11.373619368625628"><ele>726.0</ele><time>2026-05-02T14:11:48.999Z</time></trkpt><trkpt lat="43.57670091644368" lon="11.373643829937615"><ele>727.0</ele><time>2026-05-02T14:11:49.999Z</time></trkpt><trkpt lat="43.57679043926585" lon="11.373652085282249"><ele>728.0</ele><time>2026-05-02T14:11:50.999Z</time></trkpt><trkpt lat="43.576869995260445" lon="11.373655224351966"><ele>728.0</ele><time>2026-05-02T14:11:51.999Z</time></trkpt><trkpt lat="43.576939253139706" lon="11.373652963646757"><ele>728.0</ele><time>2026-05-02T14:11:52.999Z</time></trkpt><trkpt lat="43.57705226521933" lon="11.373597775456577"><ele>728.0</ele><time>2026-05-02T14:11:54.999Z</time></trkpt><trkpt lat="43.57716063351453" lon="11.37351969000061"><ele>728.0</ele><time>2026-05-02T14:11:56.999Z</time></trkpt><trkpt lat="43.57723461465589" lon="11.37348474474024"><ele>728.0</ele><time>2026-05-02T14:11:57.999Z</time></trkpt><trkpt lat="43.577324735909514" lon="11.373466732275368"><ele>727.5</ele><time>2026-05-02T14:11:58.999Z</time></trkpt><trkpt lat="43.57741982992032" lon="11.373468635692607"><ele>727.0</ele><time>2026-05-02T14:11:59.999Z</time></trkpt><trkpt lat="43.577508866077444" lon="11.373478460131821"><ele>726.5</ele><time>2026-05-02T14:12:00.999Z</time></trkpt><trkpt lat="43.577595528478554" lon="11.373482513675135"><ele>726.0</ele><time>2026-05-02T14:12:01.999Z</time></trkpt><trkpt lat="43.57767662188789" lon="11.3734806828442"><ele>725.5</ele><time>2026-05-02T14:12:02.999Z</time></trkpt><trkpt lat="43.57775673653621" lon="11.373462652929"><ele>725.0</ele><time>2026-05-02T14:12:03.999Z</time></trkpt><trkpt lat="43.57783036856023" lon="11.373428214564642"><ele>724.6</ele><time>2026-05-02T14:12:04.999Z</time></trkpt><trkpt lat="43.57788628720165" lon="11.373373394246446"><ele>724.2</ele><time>2026-05-02T14:12:05.999Z</time></trkpt><trkpt lat="43.577965315565095" lon="11.373229636696186"><ele>723.8</ele><time>2026-05-02T14:12:07.999Z</time></trkpt><trkpt lat="43.577999988197675" lon="11.373149605816177"><ele>723.4</ele><time>2026-05-02T14:12:08.999Z</time></trkpt><trkpt lat="43.57805768908095" lon="11.373018259497485"><ele>723.0</ele><time>2026-05-02T14:12:10.999Z</time></trkpt><trkpt lat="43.578113623030696" lon="11.372896973636683"><ele>722.8333333333334</ele><time>2026-05-02T14:12:12.999Z</time></trkpt><trkpt lat="43.57818044692901" lon="11.37276388432726"><ele>722.6666666666666</ele><time>2026-05-02T14:12:14.999Z</time></trkpt><trkpt lat="43.57822406709286" lon="11.372699746085926"><ele>722.5</ele><time>2026-05-02T14:12:15.999Z</time></trkpt><trkpt lat="43.57828109347935" lon="11.372630035210937"><ele>722.3333333333333</ele><time>2026-05-02T14:12:16.999Z</time></trkpt><trkpt lat="43.57834632469335" lon="11.372565552659621"><ele>722.1666666666666</ele><time>2026-05-02T14:12:17.999Z</time></trkpt><trkpt lat="43.57840985542578" lon="11.372502066108998"><ele>722.0</ele><time>2026-05-02T14:12:19Z</time></trkpt><trkpt lat="43.578478865402516" lon="11.372448209795316"><ele>722.0</ele><time>2026-05-02T14:12:20Z</time></trkpt><trkpt lat="43.578545456842924" lon="11.372390888343668"><ele>722.0</ele><time>2026-05-02T14:12:21Z</time></trkpt><trkpt lat="43.57860902429165" lon="11.372337125768741"><ele>722.0</ele><time>2026-05-02T14:12:22Z</time></trkpt><trkpt lat="43.57867576189377" lon="11.372277574330239"><ele>722.0</ele><time>2026-05-02T14:12:23Z</time></trkpt><trkpt lat="43.578742618688274" lon="11.372220637494216"><ele>722.0</ele><time>2026-05-02T14:12:24Z</time></trkpt><trkpt lat="43.57881693521872" lon="11.372179967251792"><ele>722.0</ele><time>2026-05-02T14:12:25Z</time></trkpt><trkpt lat="43.57889395799556" lon="11.372138734245672"><ele>720.1428571428572</ele><time>2026-05-02T14:12:26Z</time></trkpt><trkpt lat="43.578957368241134" lon="11.37210408006012"><ele>718.2857142857142</ele><time>2026-05-02T14:12:27Z</time></trkpt><trkpt lat="43.579019472917295" lon="11.3720639641779"><ele>716.4285714285714</ele><time>2026-05-02T14:12:28Z</time></trkpt><trkpt lat="43.57907701887152" lon="11.372009700004247"><ele>714.5714285714287</ele><time>2026-05-02T14:12:29Z</time></trkpt><trkpt lat="43.57913317611016" lon="11.371944963342166"><ele>712.7142857142858</ele><time>2026-05-02T14:12:30Z</time></trkpt><trkpt lat="43.57917346806442" lon="11.371873127556587"><ele>710.8571428571429</ele><time>2026-05-02T14:12:31Z</time></trkpt><trkpt lat="43.57921383368302" lon="11.37179408631215"><ele>709.0</ele><time>2026-05-02T14:12:32Z</time></trkpt><trkpt lat="43.57925825977283" lon="11.371719202529624"><ele>709.0</ele><time>2026-05-02T14:12:33Z</time></trkpt><trkpt lat="43.57930539049633" lon="11.371653052550714"><ele>709.0</ele><time>2026-05-02T14:12:34Z</time></trkpt><trkpt lat="43.579358586842645" lon="11.37159665254619"><ele>709.0</ele><time>2026-05-02T14:12:35Z</time></trkpt><trkpt lat="43.5794239611358" lon="11.371543288943426"><ele>709.0</ele><time>2026-05-02T14:12:36Z</time></trkpt><trkpt lat="43.579493327790665" lon="11.371501111328396"><ele>709.0</ele><time>2026-05-02T14:12:37Z</time></trkpt><trkpt lat="43.5795716087045" lon="11.371472754292487"><ele>709.0</ele><time>2026-05-02T14:12:38Z</time></trkpt><trkpt lat="43.57966036953614" lon="11.371462347544933"><ele>709.5</ele><time>2026-05-02T14:12:39Z</time></trkpt><trkpt lat="43.579748826656875" lon="11.371469257552793"><ele>710.0</ele><time>2026-05-02T14:12:40Z</time></trkpt><trkpt lat="43.579831911114844" lon="11.371469147756736"><ele>710.5</ele><time>2026-05-02T14:12:41Z</time></trkpt><trkpt lat="43.57991171368848" lon="11.371445642051397"><ele>711.0</ele><time>2026-05-02T14:12:42Z</time></trkpt><trkpt lat="43.579982750222804" lon="11.37140016541202"><ele>711.5</ele><time>2026-05-02T14:12:43Z</time></trkpt><trkpt lat="43.58004687300476" lon="11.37133741023492"><ele>712.0</ele><time>2026-05-02T14:12:44Z</time></trkpt><trkpt lat="43.58010321003311" lon="11.371263982869458"><ele>709.4285714285713</ele><time>2026-05-02T14:12:45Z</time></trkpt><trkpt lat="43.580153157996165" lon="11.371180774145868"><ele>706.8571428571429</ele><time>2026-05-02T14:12:46Z</time></trkpt><trkpt lat="43.580200017122245" lon="11.37109593000874"><ele>704.2857142857142</ele><time>2026-05-02T14:12:47Z</time></trkpt><trkpt lat="43.58024734683806" lon="11.371014868777646"><ele>701.7142857142857</ele><time>2026-05-02T14:12:48Z</time></trkpt><trkpt lat="43.58029945837712" lon="11.370954070775525"><ele>699.1428571428571</ele><time>2026-05-02T14:12:49Z</time></trkpt><trkpt lat="43.58035937147689" lon="11.370925079707785"><ele>696.5714285714286</ele><time>2026-05-02T14:12:50Z</time></trkpt><trkpt lat="43.58042548055908" lon="11.370922242059713"><ele>694.0</ele><time>2026-05-02T14:12:51Z</time></trkpt><trkpt lat="43.580496942092914" lon="11.370963824843038"><ele>693.0</ele><time>2026-05-02T14:12:52Z</time></trkpt><trkpt lat="43.58056417478959" lon="11.371054425753934"><ele>692.0</ele><time>2026-05-02T14:12:53Z</time></trkpt><trkpt lat="43.58065257034098" lon="11.371102228745041"><ele>691.0</ele><time>2026-05-02T14:12:54Z</time></trkpt><trkpt lat="43.58073421816617" lon="11.371161838663697"><ele>690.0</ele><time>2026-05-02T14:12:55Z</time></trkpt><trkpt lat="43.580812234111065" lon="11.371213575667062"><ele>689.0</ele><time>2026-05-02T14:12:56Z</time></trkpt><trkpt lat="43.58089571874303" lon="11.37125359936127"><ele>689.0</ele><time>2026-05-02T14:12:57Z</time></trkpt><trkpt lat="43.58098122985698" lon="11.371275580738754"><ele>689.0</ele><time>2026-05-02T14:12:58Z</time></trkpt><trkpt lat="43.581074956334454" lon="11.371285239663237"><ele>689.0</ele><time>2026-05-02T14:12:59Z</time></trkpt><trkpt lat="43.58116732266095" lon="11.371273399170983"><ele>689.0</ele><time>2026-05-02T14:13:00Z</time></trkpt><trkpt lat="43.58125348107768" lon="11.371266017004634"><ele>689.0</ele><time>2026-05-02T14:13:01Z</time></trkpt><trkpt lat="43.58135380501048" lon="11.371247996387586"><ele>687.0</ele><time>2026-05-02T14:13:02Z</time></trkpt><trkpt lat="43.58145871291417" lon="11.371232995843561"><ele>685.0</ele><time>2026-05-02T14:13:03Z</time></trkpt><trkpt lat="43.581560004476906" lon="11.371216233272872"><ele>683.0</ele><time>2026-05-02T14:13:04Z</time></trkpt><trkpt lat="43.5816582555084" lon="11.371200337972951"><ele>681.0</ele><time>2026-05-02T14:13:05Z</time></trkpt><trkpt lat="43.58175397679393" lon="11.371180459014763"><ele>679.0</ele><time>2026-05-02T14:13:06Z</time></trkpt><trkpt lat="43.581844098508746" lon="11.371156501789827"><ele>679.0</ele><time>2026-05-02T14:13:07Z</time></trkpt><trkpt lat="43.58193469564351" lon="11.37113307040261"><ele>679.0</ele><time>2026-05-02T14:13:08Z</time></trkpt><trkpt lat="43.58204053905751" lon="11.37109900009298"><ele>679.0</ele><time>2026-05-02T14:13:09Z</time></trkpt><trkpt lat="43.58214815026062" lon="11.37106067750312"><ele>679.0</ele><time>2026-05-02T14:13:10Z</time></trkpt><trkpt lat="43.582250019267164" lon="11.371020686004758"><ele>679.0</ele><time>2026-05-02T14:13:11Z</time></trkpt><trkpt lat="43.58235862447795" lon="11.370980062374464"><ele>676.75</ele><time>2026-05-02T14:13:12Z</time></trkpt><trkpt lat="43.582474085313336" lon="11.370934699132137"><ele>674.5</ele><time>2026-05-02T14:13:13Z</time></trkpt><trkpt lat="43.58258290281492" lon="11.370884152973371"><ele>672.25</ele><time>2026-05-02T14:13:14Z</time></trkpt><trkpt lat="43.58268971798514" lon="11.37083202244848"><ele>670.0</ele><time>2026-05-02T14:13:15Z</time></trkpt><trkpt lat="43.582791303865996" lon="11.370773070837256"><ele>668.25</ele><time>2026-05-02T14:13:16Z</time></trkpt><trkpt lat="43.582889869647" lon="11.370702635144028"><ele>666.5</ele><time>2026-05-02T14:13:17Z</time></trkpt><trkpt lat="43.58299064961576" lon="11.37061179473979"><ele>664.75</ele><time>2026-05-02T14:13:18Z</time></trkpt><trkpt lat="43.58308760287731" lon="11.370496768753942"><ele>663.0</ele><time>2026-05-02T14:13:19Z</time></trkpt><trkpt lat="43.58320277866404" lon="11.370368828508479"><ele>663.0</ele><time>2026-05-02T14:13:20Z</time></trkpt><trkpt lat="43.58331050242253" lon="11.370242819182893"><ele>663.0</ele><time>2026-05-02T14:13:21Z</time></trkpt><trkpt lat="43.58340455199953" lon="11.37013144277269"><ele>663.0</ele><time>2026-05-02T14:13:22Z</time></trkpt><trkpt lat="43.58349281705925" lon="11.370026121271517"><ele>663.0</ele><time>2026-05-02T14:13:23Z</time></trkpt><trkpt lat="43.583584299646425" lon="11.369919941660722"><ele>663.0</ele><time>2026-05-02T14:13:24Z</time></trkpt><trkpt lat="43.58367601175834" lon="11.369813598364951"><ele>663.0</ele><time>2026-05-02T14:13:25Z</time></trkpt><trkpt lat="43.58376218628995" lon="11.369711933983204"><ele>663.0</ele><time>2026-05-02T14:13:26Z</time></trkpt><trkpt lat="43.58384103429387" lon="11.36962455728337"><ele>663.0</ele><time>2026-05-02T14:13:27Z</time></trkpt><trkpt lat="43.58392184799616" lon="11.369534737690579"><ele>663.0</ele><time>2026-05-02T14:13:28Z</time></trkpt><trkpt lat="43.58400809615127" lon="11.369438456124609"><ele>662.2</ele><time>2026-05-02T14:13:29Z</time></trkpt><trkpt lat="43.58409465582877" lon="11.369334976252267"><ele>661.4</ele><time>2026-05-02T14:13:30Z</time></trkpt><trkpt lat="43.58417141915577" lon="11.369241759071592"><ele>660.6</ele><time>2026-05-02T14:13:31Z</time></trkpt><trkpt lat="43.58424560010825" lon="11.369158320928744"><ele>659.8000000000001</ele><time>2026-05-02T14:13:32Z</time></trkpt><trkpt lat="43.58431751092206" lon="11.369086743025752"><ele>659.0</ele><time>2026-05-02T14:13:33Z</time></trkpt><trkpt lat="43.58438739267377" lon="11.36901647877732"><ele>659.0</ele><time>2026-05-02T14:13:34Z</time></trkpt><trkpt lat="43.584453748327" lon="11.36895461911168"><ele>659.0</ele><time>2026-05-02T14:13:35Z</time></trkpt><trkpt lat="43.58452026958256" lon="11.368891213394726"><ele>659.0</ele><time>2026-05-02T14:13:36Z</time></trkpt><trkpt lat="43.584596314161736" lon="11.36882199085871"><ele>659.0</ele><time>2026-05-02T14:13:37Z</time></trkpt><trkpt lat="43.58466940552664" lon="11.368756203693302"><ele>659.0</ele><time>2026-05-02T14:13:38Z</time></trkpt><trkpt lat="43.58473749745787" lon="11.368693763064817"><ele>659.0</ele><time>2026-05-02T14:13:39Z</time></trkpt><trkpt lat="43.584804879442146" lon="11.368625641083772"><ele>657.0</ele><time>2026-05-02T14:13:40Z</time></trkpt><trkpt lat="43.58487410750877" lon="11.368563496641823"><ele>655.0</ele><time>2026-05-02T14:13:41Z</time></trkpt><trkpt lat="43.58494181708589" lon="11.368502616263173"><ele>653.0</ele><time>2026-05-02T14:13:42Z</time></trkpt><trkpt lat="43.585011618739884" lon="11.368437492254992"><ele>651.0</ele><time>2026-05-02T14:13:43Z</time></trkpt><trkpt lat="43.585081763723416" lon="11.368371185859035"><ele>649.0</ele><time>2026-05-02T14:13:44Z</time></trkpt><trkpt lat="43.58515181906064" lon="11.368309101945908"><ele>647.0</ele><time>2026-05-02T14:13:45Z</time></trkpt><trkpt lat="43.585222413204164" lon="11.368248667553084"><ele>647.0</ele><time>2026-05-02T14:13:46Z</time></trkpt><trkpt lat="43.58529048438166" lon="11.368183465999993"><ele>647.0</ele><time>2026-05-02T14:13:46.999Z</time></trkpt><trkpt lat="43.585351096907495" lon="11.368119038428626"><ele>647.0</ele><time>2026-05-02T14:13:47.999Z</time></trkpt><trkpt lat="43.585395842916924" lon="11.368050924560121"><ele>647.0</ele><time>2026-05-02T14:13:48.999Z</time></trkpt><trkpt lat="43.58542558746369" lon="11.367964439813642"><ele>647.0</ele><time>2026-05-02T14:13:49.999Z</time></trkpt><trkpt lat="43.58543286607539" lon="11.367870860303812"><ele>647.0</ele><time>2026-05-02T14:13:50.999Z</time></trkpt><trkpt lat="43.58542180072508" lon="11.367774048980987"><ele>647.0</ele><time>2026-05-02T14:13:51.999Z</time></trkpt><trkpt lat="43.5853986890462" lon="11.367671518656593"><ele>646.3333333333333</ele><time>2026-05-02T14:13:52.999Z</time></trkpt><trkpt lat="43.58537832908591" lon="11.367564713653673"><ele>645.6666666666666</ele><time>2026-05-02T14:13:53.999Z</time></trkpt><trkpt lat="43.585354434799314" lon="11.367454371388598"><ele>645.0</ele><time>2026-05-02T14:13:54.999Z</time></trkpt><trkpt lat="43.58533778989642" lon="11.36733594813846"><ele>644.3333333333334</ele><time>2026-05-02T14:13:55.999Z</time></trkpt><trkpt lat="43.58533229542542" lon="11.367206177959675"><ele>643.6666666666667</ele><time>2026-05-02T14:13:56.999Z</time></trkpt><trkpt lat="43.58534599518637" lon="11.367075110034031"><ele>643.0</ele><time>2026-05-02T14:13:57.999Z</time></trkpt><trkpt lat="43.58536062919899" lon="11.366939175954675"><ele>640.3333333333334</ele><time>2026-05-02T14:13:58.999Z</time></trkpt><trkpt lat="43.58537141325424" lon="11.366800748636516"><ele>637.6666666666667</ele><time>2026-05-02T14:13:59.999Z</time></trkpt><trkpt lat="43.58538725954549" lon="11.366679237870578"><ele>635.0</ele><time>2026-05-02T14:14:00.999Z</time></trkpt><trkpt lat="43.585399775703806" lon="11.366569121062462"><ele>632.3333333333334</ele><time>2026-05-02T14:14:01.999Z</time></trkpt><trkpt lat="43.585404372627444" lon="11.366461786108262"><ele>629.6666666666666</ele><time>2026-05-02T14:14:02.999Z</time></trkpt><trkpt lat="43.585405965409244" lon="11.366374005897834"><ele>627.0</ele><time>2026-05-02T14:14:03.999Z</time></trkpt><trkpt lat="43.585421986107455" lon="11.366223661114974"><ele>627.0</ele><time>2026-05-02T14:14:05.999Z</time></trkpt><trkpt lat="43.58544059051374" lon="11.36607179232319"><ele>627.0</ele><time>2026-05-02T14:14:07.999Z</time></trkpt><trkpt lat="43.58544829567562" lon="11.365909565918146"><ele>627.0</ele><time>2026-05-02T14:14:09.999Z</time></trkpt><trkpt lat="43.58545019282572" lon="11.36574250832723"><ele>627.0</ele><time>2026-05-02T14:14:11.999Z</time></trkpt><trkpt lat="43.58545105886304" lon="11.365636192205738"><ele>627.0</ele><time>2026-05-02T14:14:12.999Z</time></trkpt><trkpt lat="43.58545301137694" lon="11.365526406314917"><ele>627.1666666666666</ele><time>2026-05-02T14:14:13.999Z</time></trkpt><trkpt lat="43.58545611896977" lon="11.365410674919895"><ele>627.3333333333334</ele><time>2026-05-02T14:14:14.999Z</time></trkpt><trkpt lat="43.58545455202424" lon="11.3652828729622"><ele>627.5</ele><time>2026-05-02T14:14:15.999Z</time></trkpt><trkpt lat="43.58545117165005" lon="11.365158976342737"><ele>627.6666666666667</ele><time>2026-05-02T14:14:16.999Z</time></trkpt><trkpt lat="43.58543921902051" lon="11.365032886463096"><ele>627.8333333333334</ele><time>2026-05-02T14:14:17.999Z</time></trkpt><trkpt lat="43.585424926557614" lon="11.364923894991817"><ele>628.0</ele><time>2026-05-02T14:14:18.999Z</time></trkpt><trkpt lat="43.585400213362" lon="11.364815964918433"><ele>627.9999999999999</ele><time>2026-05-02T14:14:19.999Z</time></trkpt><trkpt lat="43.585363582471054" lon="11.364713655193775"><ele>628.0</ele><time>2026-05-02T14:14:20.999Z</time></trkpt><trkpt lat="43.585323456093015" lon="11.36462707974363"><ele>628.0</ele><time>2026-05-02T14:14:21.999Z</time></trkpt><trkpt lat="43.58528669112384" lon="11.36454444168156"><ele>628.0</ele><time>2026-05-02T14:14:22.999Z</time></trkpt><trkpt lat="43.585256638955876" lon="11.364465611228093"><ele>628.0</ele><time>2026-05-02T14:14:23.999Z</time></trkpt><trkpt lat="43.58523820210687" lon="11.364378189645528"><ele>627.9999999999999</ele><time>2026-05-02T14:14:25Z</time></trkpt><trkpt lat="43.585227168535134" lon="11.364287182969932"><ele>628.0</ele><time>2026-05-02T14:14:26Z</time></trkpt><trkpt lat="43.585230222445325" lon="11.364187621579047"><ele>627.1666666666667</ele><time>2026-05-02T14:14:27Z</time></trkpt><trkpt lat="43.585253486621056" lon="11.364085071309482"><ele>626.3333333333334</ele><time>2026-05-02T14:14:28Z</time></trkpt><trkpt lat="43.585303956921265" lon="11.36399844237742"><ele>625.5</ele><time>2026-05-02T14:14:29Z</time></trkpt><trkpt lat="43.58535941964282" lon="11.363921888121988"><ele>624.6666666666666</ele><time>2026-05-02T14:14:30Z</time></trkpt><trkpt lat="43.585412844665655" lon="11.363834777871427"><ele>623.8333333333333</ele><time>2026-05-02T14:14:31Z</time></trkpt><trkpt lat="43.58547883171439" lon="11.36375722549822"><ele>623.0</ele><time>2026-05-02T14:14:32Z</time></trkpt><trkpt lat="43.58554357841518" lon="11.363666063020881"><ele>620.8333333333333</ele><time>2026-05-02T14:14:33Z</time></trkpt><trkpt lat="43.58559878102388" lon="11.363570805097018"><ele>618.6666666666666</ele><time>2026-05-02T14:14:34Z</time></trkpt><trkpt lat="43.58565581569262" lon="11.363491422050844"><ele>616.5</ele><time>2026-05-02T14:14:35Z</time></trkpt><trkpt lat="43.585715671616406" lon="11.363410863311218"><ele>614.3333333333334</ele><time>2026-05-02T14:14:36Z</time></trkpt><trkpt lat="43.58573600973481" lon="11.363296774561052"><ele>612.1666666666667</ele><time>2026-05-02T14:14:37Z</time></trkpt><trkpt lat="43.58575781331585" lon="11.363176555611725"><ele>610.0</ele><time>2026-05-02T14:14:38Z</time></trkpt><trkpt lat="43.585776441597815" lon="11.363045046278682"><ele>607.2</ele><time>2026-05-02T14:14:39Z</time></trkpt><trkpt lat="43.58579436130271" lon="11.3629105881918"><ele>604.4</ele><time>2026-05-02T14:14:40Z</time></trkpt><trkpt lat="43.58581682613047" lon="11.362777045408428"><ele>601.6</ele><time>2026-05-02T14:14:41Z</time></trkpt><trkpt lat="43.58583581958581" lon="11.362647516038301"><ele>598.8</ele><time>2026-05-02T14:14:42Z</time></trkpt><trkpt lat="43.58585607455438" lon="11.362518906909784"><ele>596.0</ele><time>2026-05-02T14:14:43Z</time></trkpt><trkpt lat="43.585879206312796" lon="11.362394713770458"><ele>596.0</ele><time>2026-05-02T14:14:44Z</time></trkpt><trkpt lat="43.58590204814934" lon="11.362272783764048"><ele>596.0</ele><time>2026-05-02T14:14:45Z</time></trkpt><trkpt lat="43.58592725862679" lon="11.362150745222266"><ele>596.0</ele><time>2026-05-02T14:14:46Z</time></trkpt><trkpt lat="43.585951111901615" lon="11.362026207572137"><ele>596.0</ele><time>2026-05-02T14:14:47Z</time></trkpt><trkpt lat="43.58597491366732" lon="11.361903589830856"><ele>596.0</ele><time>2026-05-02T14:14:48Z</time></trkpt><trkpt lat="43.58599827269307" lon="11.361775965436054"><ele>594.0</ele><time>2026-05-02T14:14:49Z</time></trkpt><trkpt lat="43.58601959041044" lon="11.361639399350066"><ele>592.0</ele><time>2026-05-02T14:14:50Z</time></trkpt><trkpt lat="43.586036218289514" lon="11.361485761092608"><ele>590.0</ele><time>2026-05-02T14:14:51Z</time></trkpt><trkpt lat="43.58604422877432" lon="11.361322753320573"><ele>588.0</ele><time>2026-05-02T14:14:52Z</time></trkpt><trkpt lat="43.5860526582774" lon="11.361159667040798"><ele>586.25</ele><time>2026-05-02T14:14:53Z</time></trkpt><trkpt lat="43.58606619411333" lon="11.360989599256074"><ele>584.5</ele><time>2026-05-02T14:14:54Z</time></trkpt><trkpt lat="43.58608556448716" lon="11.36081042425575"><ele>582.75</ele><time>2026-05-02T14:14:55Z</time></trkpt><trkpt lat="43.58611429357984" lon="11.360627204405736"><ele>581.0</ele><time>2026-05-02T14:14:56Z</time></trkpt><trkpt lat="43.586155568840724" lon="11.360447216695556"><ele>580.4</ele><time>2026-05-02T14:14:57Z</time></trkpt><trkpt lat="43.586186382811874" lon="11.360272843625753"><ele>579.8</ele><time>2026-05-02T14:14:58Z</time></trkpt><trkpt lat="43.58621858236245" lon="11.360122822067478"><ele>579.1999999999999</ele><time>2026-05-02T14:14:59Z</time></trkpt><trkpt lat="43.58624439171529" lon="11.359980056057886"><ele>578.6</ele><time>2026-05-02T14:15:00Z</time></trkpt><trkpt lat="43.58625863508336" lon="11.359854173519164"><ele>578.0</ele><time>2026-05-02T14:15:01Z</time></trkpt><trkpt lat="43.586264651503235" lon="11.359744228163816"><ele>578.0</ele><time>2026-05-02T14:15:02Z</time></trkpt><trkpt lat="43.58624270004461" lon="11.359647370123186"><ele>578.0</ele><time>2026-05-02T14:15:03Z</time></trkpt><trkpt lat="43.58619237902598" lon="11.359548339847134"><ele>578.0</ele><time>2026-05-02T14:15:04Z</time></trkpt><trkpt lat="43.586127356676215" lon="11.359452129403808"><ele>578.0</ele><time>2026-05-02T14:15:05Z</time></trkpt><trkpt lat="43.58606974070919" lon="11.35935165122291"><ele>578.0</ele><time>2026-05-02T14:15:06Z</time></trkpt><trkpt lat="43.58602407837474" lon="11.359246061929005"><ele>578.0</ele><time>2026-05-02T14:15:07Z</time></trkpt><trkpt lat="43.58597688789655" lon="11.359138955379311"><ele>578.0</ele><time>2026-05-02T14:15:08Z</time></trkpt><trkpt lat="43.58593310733326" lon="11.359033370872165"><ele>578.0</ele><time>2026-05-02T14:15:09Z</time></trkpt><trkpt lat="43.5858808435108" lon="11.358926796074751"><ele>578.0</ele><time>2026-05-02T14:15:10Z</time></trkpt><trkpt lat="43.585833669416175" lon="11.358815598417447"><ele>578.0</ele><time>2026-05-02T14:15:11Z</time></trkpt><trkpt lat="43.58579269715448" lon="11.358698587918004"><ele>578.0</ele><time>2026-05-02T14:15:12Z</time></trkpt><trkpt lat="43.58576260440846" lon="11.358583034935325"><ele>578.0</ele><time>2026-05-02T14:15:13Z</time></trkpt><trkpt lat="43.58575295031094" lon="11.35847075693393"><ele>578.0</ele><time>2026-05-02T14:15:14Z</time></trkpt><trkpt lat="43.5857850474368" lon="11.358356064673528"><ele>578.0</ele><time>2026-05-02T14:15:15Z</time></trkpt><trkpt lat="43.58581712964958" lon="11.358238403438515"><ele>578.0</ele><time>2026-05-02T14:15:16Z</time></trkpt><trkpt lat="43.58585695408685" lon="11.358082379944161"><ele>578.0</ele><time>2026-05-02T14:15:17Z</time></trkpt><trkpt lat="43.585891025898306" lon="11.357926558249721"><ele>577.5</ele><time>2026-05-02T14:15:18Z</time></trkpt><trkpt lat="43.585920779227955" lon="11.357763889996965"><ele>577.0</ele><time>2026-05-02T14:15:19Z</time></trkpt><trkpt lat="43.58595673083608" lon="11.357603242390262"><ele>576.5</ele><time>2026-05-02T14:15:20Z</time></trkpt><trkpt lat="43.585991230915155" lon="11.357445130512065"><ele>576.0</ele><time>2026-05-02T14:15:21Z</time></trkpt><trkpt lat="43.58602508338551" lon="11.357297275990662"><ele>575.0</ele><time>2026-05-02T14:15:22Z</time></trkpt><trkpt lat="43.586058949574415" lon="11.357157763491012"><ele>574.0</ele><time>2026-05-02T14:15:23Z</time></trkpt><trkpt lat="43.586089078818766" lon="11.357024253564672"><ele>573.0</ele><time>2026-05-02T14:15:24Z</time></trkpt><trkpt lat="43.586122234252656" lon="11.356895148233358"><ele>572.0</ele><time>2026-05-02T14:15:25Z</time></trkpt><trkpt lat="43.58616891931405" lon="11.356778968556869"><ele>571.0</ele><time>2026-05-02T14:15:26Z</time></trkpt><trkpt lat="43.586255014360454" lon="11.35669501526658"><ele>570.4</ele><time>2026-05-02T14:15:27Z</time></trkpt><trkpt lat="43.58633495087533" lon="11.356595387416439"><ele>569.8</ele><time>2026-05-02T14:15:28Z</time></trkpt><trkpt lat="43.586406909318946" lon="11.356483133450991"><ele>569.1999999999999</ele><time>2026-05-02T14:15:29Z</time></trkpt><trkpt lat="43.58648717724558" lon="11.356386364279338"><ele>568.6</ele><time>2026-05-02T14:15:30Z</time></trkpt><trkpt lat="43.58656464569452" lon="11.356286331925075"><ele>568.0</ele><time>2026-05-02T14:15:31Z</time></trkpt><trkpt lat="43.58664188551512" lon="11.356183938483614"><ele>568.0</ele><time>2026-05-02T14:15:32Z</time></trkpt><trkpt lat="43.5867044947256" lon="11.356075130275306"><ele>568.0</ele><time>2026-05-02T14:15:33Z</time></trkpt><trkpt lat="43.586751672052074" lon="11.355966616165777"><ele>568.0</ele><time>2026-05-02T14:15:34Z</time></trkpt><trkpt lat="43.586809205616" lon="11.355830224744347"><ele>568.0</ele><time>2026-05-02T14:15:35Z</time></trkpt><trkpt lat="43.58687095185831" lon="11.355714487244658"><ele>568.0</ele><time>2026-05-02T14:15:36Z</time></trkpt><trkpt lat="43.586934266357446" lon="11.355626495904046"><ele>568.0</ele><time>2026-05-02T14:15:37Z</time></trkpt><trkpt lat="43.586998293234515" lon="11.355562422562485"><ele>568.0</ele><time>2026-05-02T14:15:38Z</time></trkpt><trkpt lat="43.587057754598824" lon="11.355498250813271"><ele>568.0</ele><time>2026-05-02T14:15:39Z</time></trkpt><trkpt lat="43.587106952273736" lon="11.355431804028138"><ele>568.0</ele><time>2026-05-02T14:15:40Z</time></trkpt><trkpt lat="43.58718556350719" lon="11.355344952613986"><ele>568.0</ele><time>2026-05-02T14:15:42Z</time></trkpt><trkpt lat="43.58725364656255" lon="11.35528999920187"><ele>568.0</ele><time>2026-05-02T14:15:43.999Z</time></trkpt><trkpt lat="43.58718235401209" lon="11.355338424948402"><ele>567.0</ele><time>2026-05-02T14:15:46.999Z</time></trkpt><trkpt lat="43.58704239993687" lon="11.355229131616055"><ele>566.0</ele><time>2026-05-02T14:15:47.999Z</time></trkpt><trkpt lat="43.58704564055374" lon="11.355320957046253"><ele>565.0</ele><time>2026-05-02T14:15:49.999Z</time></trkpt><trkpt lat="43.58708802636475" lon="11.355404659323643"><ele>564.0</ele><time>2026-05-02T14:15:51.999Z</time></trkpt><trkpt lat="43.587161860232456" lon="11.35540677903357"><ele>563.0</ele><time>2026-05-02T14:15:54.999Z</time></trkpt><trkpt lat="43.587204440736514" lon="11.355339981959807"><ele>562.0</ele><time>2026-05-02T14:15:56.999Z</time></trkpt><trkpt lat="43.58727440450041" lon="11.355228914472"><ele>562.0</ele><time>2026-05-02T14:15:58.999Z</time></trkpt><trkpt lat="43.58733046099301" lon="11.355109770968026"><ele>562.0</ele><time>2026-05-02T14:16:00.999Z</time></trkpt><trkpt lat="43.5873910881617" lon="11.354948273988391"><ele>562.0</ele><time>2026-05-02T14:16:02.999Z</time></trkpt><trkpt lat="43.58740440399392" lon="11.354846921434142"><ele>562.0</ele><time>2026-05-02T14:16:03.999Z</time></trkpt><trkpt lat="43.58741267883445" lon="11.354738736863425"><ele>562.0</ele><time>2026-05-02T14:16:04.999Z</time></trkpt><trkpt lat="43.58741431083978" lon="11.354625926664747"><ele>562.1428571428572</ele><time>2026-05-02T14:16:05.999Z</time></trkpt><trkpt lat="43.587418850222704" lon="11.35452251723125"><ele>562.2857142857143</ele><time>2026-05-02T14:16:06.999Z</time></trkpt><trkpt lat="43.58742292604608" lon="11.3544251793651"><ele>562.4285714285714</ele><time>2026-05-02T14:16:07.999Z</time></trkpt><trkpt lat="43.58742753520337" lon="11.35433321619024"><ele>562.5714285714287</ele><time>2026-05-02T14:16:08.999Z</time></trkpt><trkpt lat="43.58742954875102" lon="11.354240599528058"><ele>562.7142857142858</ele><time>2026-05-02T14:16:09.999Z</time></trkpt><trkpt lat="43.58743417541071" lon="11.354147444827998"><ele>562.8571428571429</ele><time>2026-05-02T14:16:10.999Z</time></trkpt><trkpt lat="43.5874343562313" lon="11.35405246658797"><ele>563.0</ele><time>2026-05-02T14:16:11.999Z</time></trkpt><trkpt lat="43.58743607335226" lon="11.353961651643"><ele>563.3333333333333</ele><time>2026-05-02T14:16:12.999Z</time></trkpt><trkpt lat="43.58740553970595" lon="11.353801102616295"><ele>563.6666666666666</ele><time>2026-05-02T14:16:14.999Z</time></trkpt><trkpt lat="43.58738984075098" lon="11.353710710719055"><ele>564.0</ele><time>2026-05-02T14:16:15.999Z</time></trkpt><trkpt lat="43.58731382200787" lon="11.353638515956298"><ele>564.3333333333334</ele><time>2026-05-02T14:16:16.999Z</time></trkpt><trkpt lat="43.58725423292176" lon="11.353560652350975"><ele>564.6666666666667</ele><time>2026-05-02T14:16:17.999Z</time></trkpt><trkpt lat="43.58719141396545" lon="11.353489659330725"><ele>565.0</ele><time>2026-05-02T14:16:18.999Z</time></trkpt><trkpt lat="43.58712560853879" lon="11.353420027109001"><ele>565.0</ele><time>2026-05-02T14:16:19.999Z</time></trkpt><trkpt lat="43.587063672190546" lon="11.35335019669304"><ele>565.0</ele><time>2026-05-02T14:16:20.999Z</time></trkpt><trkpt lat="43.58700655557604" lon="11.35328416780486"><ele>565.0</ele><time>2026-05-02T14:16:21.999Z</time></trkpt><trkpt lat="43.586952436541004" lon="11.353217925016851"><ele>565.0</ele><time>2026-05-02T14:16:22.999Z</time></trkpt><trkpt lat="43.58688753129148" lon="11.353148045778386"><ele>565.0</ele><time>2026-05-02T14:16:23.999Z</time></trkpt><trkpt lat="43.586823681667674" lon="11.353075180351262"><ele>565.0</ele><time>2026-05-02T14:16:24.999Z</time></trkpt><trkpt lat="43.5867571820865" lon="11.35299543871553"><ele>563.8333333333334</ele><time>2026-05-02T14:16:25.999Z</time></trkpt><trkpt lat="43.58669270527368" lon="11.352916950820898"><ele>562.6666666666667</ele><time>2026-05-02T14:16:26.999Z</time></trkpt><trkpt lat="43.586636695762344" lon="11.352847494943035"><ele>561.5</ele><time>2026-05-02T14:16:27.999Z</time></trkpt><trkpt lat="43.58658508649462" lon="11.352782665273693"><ele>560.3333333333334</ele><time>2026-05-02T14:16:28.999Z</time></trkpt><trkpt lat="43.586533872256645" lon="11.35272032246366"><ele>559.1666666666666</ele><time>2026-05-02T14:16:29.999Z</time></trkpt><trkpt lat="43.586444228098195" lon="11.35260584698527"><ele>558.0</ele><time>2026-05-02T14:16:32Z</time></trkpt><trkpt lat="43.586353775346964" lon="11.352495248544853"><ele>557.9999999999999</ele><time>2026-05-02T14:16:34Z</time></trkpt><trkpt lat="43.58630930219027" lon="11.352432682480483"><ele>558.0</ele><time>2026-05-02T14:16:35Z</time></trkpt><trkpt lat="43.58627124419877" lon="11.352360171410554"><ele>558.0</ele><time>2026-05-02T14:16:36Z</time></trkpt><trkpt lat="43.58624191289915" lon="11.352282625012963"><ele>558.0</ele><time>2026-05-02T14:16:37Z</time></trkpt><trkpt lat="43.586216323741176" lon="11.352195924076527"><ele>558.0</ele><time>2026-05-02T14:16:38Z</time></trkpt><trkpt lat="43.58619409769857" lon="11.352108146456551"><ele>557.9999999999999</ele><time>2026-05-02T14:16:39Z</time></trkpt><trkpt lat="43.58618206312162" lon="11.352015066610756"><ele>558.0</ele><time>2026-05-02T14:16:40Z</time></trkpt><trkpt lat="43.586180808902114" lon="11.351919135453631"><ele>557.9999999999999</ele><time>2026-05-02T14:16:41Z</time></trkpt><trkpt lat="43.58618988203324" lon="11.351825183739713"><ele>558.0</ele><time>2026-05-02T14:16:42Z</time></trkpt><trkpt lat="43.586203826293854" lon="11.35172844659912"><ele>558.0</ele><time>2026-05-02T14:16:43Z</time></trkpt><trkpt lat="43.586224743656146" lon="11.351635621131058"><ele>558.0</ele><time>2026-05-02T14:16:44Z</time></trkpt><trkpt lat="43.58624815452391" lon="11.351545875648606"><ele>558.0</ele><time>2026-05-02T14:16:45Z</time></trkpt><trkpt lat="43.586270791741086" lon="11.351453957097627"><ele>557.9999999999999</ele><time>2026-05-02T14:16:46Z</time></trkpt><trkpt lat="43.58629509947648" lon="11.351361418677454"><ele>558.0</ele><time>2026-05-02T14:16:47Z</time></trkpt><trkpt lat="43.586325304394094" lon="11.351272658182662"><ele>556.3333333333334</ele><time>2026-05-02T14:16:48Z</time></trkpt><trkpt lat="43.58637449914898" lon="11.351191834638337"><ele>554.6666666666666</ele><time>2026-05-02T14:16:49Z</time></trkpt><trkpt lat="43.58643202148953" lon="11.351111899997822"><ele>553.0</ele><time>2026-05-02T14:16:50Z</time></trkpt><trkpt lat="43.58649054524876" lon="11.351038155867062"><ele>551.3333333333333</ele><time>2026-05-02T14:16:51Z</time></trkpt><trkpt lat="43.58655478460691" lon="11.350977397799134"><ele>549.6666666666666</ele><time>2026-05-02T14:16:52Z</time></trkpt><trkpt lat="43.58661823068556" lon="11.350937778387344"><ele>548.0</ele><time>2026-05-02T14:16:53Z</time></trkpt><trkpt lat="43.58668856179055" lon="11.350902625497543"><ele>548.0</ele><time>2026-05-02T14:16:54Z</time></trkpt><trkpt lat="43.58675481722667" lon="11.350846462107864"><ele>548.0</ele><time>2026-05-02T14:16:55Z</time></trkpt><trkpt lat="43.586799878293064" lon="11.350767492837218"><ele>548.0</ele><time>2026-05-02T14:16:56Z</time></trkpt><trkpt lat="43.58682312068081" lon="11.350670179832006"><ele>548.0</ele><time>2026-05-02T14:16:57Z</time></trkpt><trkpt lat="43.586822345714474" lon="11.350557541390872"><ele>548.0</ele><time>2026-05-02T14:16:58Z</time></trkpt><trkpt lat="43.58680431773615" lon="11.350450479114343"><ele>548.0</ele><time>2026-05-02T14:16:59Z</time></trkpt><trkpt lat="43.58677291983116" lon="11.350341014493353"><ele>547.0</ele><time>2026-05-02T14:17:00Z</time></trkpt><trkpt lat="43.586733844869705" lon="11.350237113310552"><ele>546.0</ele><time>2026-05-02T14:17:01Z</time></trkpt><trkpt lat="43.5866909407589" lon="11.350132663451298"><ele>545.0</ele><time>2026-05-02T14:17:02Z</time></trkpt><trkpt lat="43.58664876025706" lon="11.350036004669636"><ele>544.0</ele><time>2026-05-02T14:17:03Z</time></trkpt><trkpt lat="43.58660447378165" lon="11.349941857584913"><ele>543.0</ele><time>2026-05-02T14:17:04Z</time></trkpt><trkpt lat="43.586563405542975" lon="11.349849094891828"><ele>542.0</ele><time>2026-05-02T14:17:05Z</time></trkpt><trkpt lat="43.586521846335415" lon="11.349757093685437"><ele>541.0</ele><time>2026-05-02T14:17:06Z</time></trkpt><trkpt lat="43.58648445725532" lon="11.349662288262703"><ele>540.0</ele><time>2026-05-02T14:17:07Z</time></trkpt><trkpt lat="43.58645605839674" lon="11.349562176626016"><ele>539.0</ele><time>2026-05-02T14:17:08Z</time></trkpt><trkpt lat="43.586439601053755" lon="11.3494510530973"><ele>538.0</ele><time>2026-05-02T14:17:09Z</time></trkpt><trkpt lat="43.58643194640026" lon="11.34932836976571"><ele>537.0</ele><time>2026-05-02T14:17:10Z</time></trkpt><trkpt lat="43.58643142647275" lon="11.349198672753769"><ele>536.0</ele><time>2026-05-02T14:17:11Z</time></trkpt><trkpt lat="43.58643351089014" lon="11.349057062630626"><ele>536.0</ele><time>2026-05-02T14:17:12Z</time></trkpt><trkpt lat="43.58643237454555" lon="11.348923208568849"><ele>536.0</ele><time>2026-05-02T14:17:13Z</time></trkpt><trkpt lat="43.58642882116867" lon="11.34879553339388"><ele>536.0</ele><time>2026-05-02T14:17:14Z</time></trkpt><trkpt lat="43.58642548468573" lon="11.3486599152933"><ele>536.0</ele><time>2026-05-02T14:17:15Z</time></trkpt><trkpt lat="43.58641983818452" lon="11.348524342588805"><ele>536.0</ele><time>2026-05-02T14:17:16Z</time></trkpt><trkpt lat="43.58641479775728" lon="11.348398627861556"><ele>535.1666666666666</ele><time>2026-05-02T14:17:17Z</time></trkpt><trkpt lat="43.58641273852564" lon="11.348269829608212"><ele>534.3333333333333</ele><time>2026-05-02T14:17:18Z</time></trkpt><trkpt lat="43.58640999213006" lon="11.348157618235826"><ele>533.5</ele><time>2026-05-02T14:17:19Z</time></trkpt><trkpt lat="43.58640225675277" lon="11.348045093315976"><ele>532.6666666666666</ele><time>2026-05-02T14:17:20Z</time></trkpt><trkpt lat="43.58639258756394" lon="11.347937587571822"><ele>531.8333333333334</ele><time>2026-05-02T14:17:21Z</time></trkpt><trkpt lat="43.586379792274045" lon="11.347830287634807"><ele>531.0</ele><time>2026-05-02T14:17:22Z</time></trkpt><trkpt lat="43.58636256985817" lon="11.347724499721398"><ele>529.6666666666666</ele><time>2026-05-02T14:17:23Z</time></trkpt><trkpt lat="43.586333500043686" lon="11.347627266728702"><ele>528.3333333333334</ele><time>2026-05-02T14:17:24Z</time></trkpt><trkpt lat="43.586290702327084" lon="11.347538145149834"><ele>527.0</ele><time>2026-05-02T14:17:25Z</time></trkpt><trkpt lat="43.58623907459035" lon="11.347459388953563"><ele>525.6666666666667</ele><time>2026-05-02T14:17:26Z</time></trkpt><trkpt lat="43.586176023871054" lon="11.347388861096658"><ele>524.3333333333334</ele><time>2026-05-02T14:17:27Z</time></trkpt><trkpt lat="43.58612940009856" lon="11.347321874326438"><ele>523.0</ele><time>2026-05-02T14:17:28Z</time></trkpt><trkpt lat="43.586086620576324" lon="11.347179969601743"><ele>520.1428571428571</ele><time>2026-05-02T14:17:30Z</time></trkpt><trkpt lat="43.58609398898231" lon="11.347090296386115"><ele>517.2857142857142</ele><time>2026-05-02T14:17:31Z</time></trkpt><trkpt lat="43.586116284524095" lon="11.346995105561433"><ele>514.4285714285714</ele><time>2026-05-02T14:17:32Z</time></trkpt><trkpt lat="43.58612655606138" lon="11.346895305959448"><ele>511.57142857142856</ele><time>2026-05-02T14:17:33Z</time></trkpt><trkpt lat="43.58612943068023" lon="11.346791989595607"><ele>508.7142857142858</ele><time>2026-05-02T14:17:34Z</time></trkpt><trkpt lat="43.586123234671405" lon="11.346685597733012"><ele>505.8571428571429</ele><time>2026-05-02T14:17:35Z</time></trkpt><trkpt lat="43.586107610834915" lon="11.346584688453706"><ele>503.0</ele><time>2026-05-02T14:17:36Z</time></trkpt><trkpt lat="43.58609158248894" lon="11.346485489535063"><ele>502.99999999999994</ele><time>2026-05-02T14:17:37Z</time></trkpt><trkpt lat="43.586062275560835" lon="11.346392397635489"><ele>503.0</ele><time>2026-05-02T14:17:38Z</time></trkpt><trkpt lat="43.5859647812655" lon="11.346269588169218"><ele>503.0</ele><time>2026-05-02T14:17:40Z</time></trkpt><trkpt lat="43.585903576027825" lon="11.34623741283092"><ele>503.0</ele><time>2026-05-02T14:17:41Z</time></trkpt><trkpt lat="43.585837694807985" lon="11.346230652157665"><ele>502.99999999999994</ele><time>2026-05-02T14:17:42Z</time></trkpt><trkpt lat="43.58577140315133" lon="11.346239978759586"><ele>503.0</ele><time>2026-05-02T14:17:43Z</time></trkpt><trkpt lat="43.585708153997544" lon="11.346254907448735"><ele>504.0</ele><time>2026-05-02T14:17:44Z</time></trkpt><trkpt lat="43.58563978849895" lon="11.346276006905503"><ele>504.99999999999994</ele><time>2026-05-02T14:17:45Z</time></trkpt><trkpt lat="43.58556594216743" lon="11.346288306696085"><ele>505.99999999999994</ele><time>2026-05-02T14:17:46Z</time></trkpt><trkpt lat="43.58544884573265" lon="11.346319171554793"><ele>507.0</ele><time>2026-05-02T14:17:48Z</time></trkpt><trkpt lat="43.585347353337845" lon="11.346344945146756"><ele>508.0</ele><time>2026-05-02T14:17:50Z</time></trkpt><trkpt lat="43.58524863277938" lon="11.346368477618007"><ele>506.0</ele><time>2026-05-02T14:17:52Z</time></trkpt><trkpt lat="43.585153503333345" lon="11.346381132910428"><ele>503.99999999999994</ele><time>2026-05-02T14:17:54Z</time></trkpt><trkpt lat="43.58505957125763" lon="11.346409984175825"><ele>501.99999999999994</ele><time>2026-05-02T14:17:55.999Z</time></trkpt><trkpt lat="43.58495883355755" lon="11.346401317330054"><ele>500.0</ele><time>2026-05-02T14:17:57.999Z</time></trkpt><trkpt lat="43.584829894733225" lon="11.346391801067416"><ele>498.0</ele><time>2026-05-02T14:17:59.999Z</time></trkpt><trkpt lat="43.584707828068495" lon="11.34634185766275"><ele>498.0</ele><time>2026-05-02T14:18:01.999Z</time></trkpt><trkpt lat="43.58464971794455" lon="11.346294686735458"><ele>498.0</ele><time>2026-05-02T14:18:02.999Z</time></trkpt><trkpt lat="43.5845899980222" lon="11.346237709880855"><ele>498.0</ele><time>2026-05-02T14:18:03.999Z</time></trkpt><trkpt lat="43.58452139362342" lon="11.346187010633539"><ele>498.0</ele><time>2026-05-02T14:18:04.999Z</time></trkpt><trkpt lat="43.584464369953835" lon="11.34610943354682"><ele>498.0</ele><time>2026-05-02T14:18:05.999Z</time></trkpt><trkpt lat="43.584403207953216" lon="11.346032258699006"><ele>498.0</ele><time>2026-05-02T14:18:06.999Z</time></trkpt><trkpt lat="43.58433965166727" lon="11.345956837910837"><ele>496.0</ele><time>2026-05-02T14:18:07.999Z</time></trkpt><trkpt lat="43.58427924584042" lon="11.345877047628848"><ele>494.0</ele><time>2026-05-02T14:18:08.999Z</time></trkpt><trkpt lat="43.584222425898666" lon="11.345796394956793"><ele>492.0</ele><time>2026-05-02T14:18:09.999Z</time></trkpt><trkpt lat="43.584161968342215" lon="11.34570665319079"><ele>490.0</ele><time>2026-05-02T14:18:10.999Z</time></trkpt><trkpt lat="43.58410727195805" lon="11.34560391363281"><ele>488.0</ele><time>2026-05-02T14:18:11.999Z</time></trkpt><trkpt lat="43.5840670763431" lon="11.34548432694363"><ele>486.0</ele><time>2026-05-02T14:18:12.999Z</time></trkpt><trkpt lat="43.58403949151714" lon="11.345352841557085"><ele>485.8333333333333</ele><time>2026-05-02T14:18:13.999Z</time></trkpt><trkpt lat="43.584016178516364" lon="11.345224433365779"><ele>485.66666666666663</ele><time>2026-05-02T14:18:14.999Z</time></trkpt><trkpt lat="43.583996313656634" lon="11.34509890978732"><ele>485.5</ele><time>2026-05-02T14:18:15.999Z</time></trkpt><trkpt lat="43.58398921840787" lon="11.344987361920273"><ele>485.3333333333333</ele><time>2026-05-02T14:18:16.999Z</time></trkpt><trkpt lat="43.58399390231997" lon="11.344887641834681"><ele>485.16666666666663</ele><time>2026-05-02T14:18:17.999Z</time></trkpt><trkpt lat="43.58401778144623" lon="11.344791255248388"><ele>485.0</ele><time>2026-05-02T14:18:18.999Z</time></trkpt><trkpt lat="43.584062137393694" lon="11.34470621577545"><ele>485.8</ele><time>2026-05-02T14:18:19.999Z</time></trkpt><trkpt lat="43.584131346553896" lon="11.344641789198366"><ele>486.6</ele><time>2026-05-02T14:18:20.999Z</time></trkpt><trkpt lat="43.58421673856386" lon="11.344605911844173"><ele>487.4</ele><time>2026-05-02T14:18:21.999Z</time></trkpt><trkpt lat="43.58431656775158" lon="11.344587390490576"><ele>488.2</ele><time>2026-05-02T14:18:22.999Z</time></trkpt><trkpt lat="43.584420845048776" lon="11.344587832015597"><ele>489.0</ele><time>2026-05-02T14:18:23.999Z</time></trkpt><trkpt lat="43.584521352825675" lon="11.344589376545677"><ele>489.0</ele><time>2026-05-02T14:18:24.999Z</time></trkpt><trkpt lat="43.584614336850194" lon="11.344584524902187"><ele>489.0</ele><time>2026-05-02T14:18:25.999Z</time></trkpt><trkpt lat="43.584696143944306" lon="11.344581732694433"><ele>489.0</ele><time>2026-05-02T14:18:26.999Z</time></trkpt><trkpt lat="43.58477153397716" lon="11.344567455652028"><ele>489.0</ele><time>2026-05-02T14:18:27.999Z</time></trkpt><trkpt lat="43.58484254334406" lon="11.344540910512281"><ele>489.0</ele><time>2026-05-02T14:18:28.999Z</time></trkpt><trkpt lat="43.584903780328816" lon="11.34449010540589"><ele>489.0</ele><time>2026-05-02T14:18:29.999Z</time></trkpt><trkpt lat="43.58494717432222" lon="11.344404124609"><ele>489.0</ele><time>2026-05-02T14:18:30.999Z</time></trkpt><trkpt lat="43.584967818349405" lon="11.344296353844321"><ele>489.0</ele><time>2026-05-02T14:18:31.999Z</time></trkpt><trkpt lat="43.58495924437747" lon="11.344175887692696"><ele>489.0</ele><time>2026-05-02T14:18:32.999Z</time></trkpt><trkpt lat="43.584914495304815" lon="11.344045946852654"><ele>489.0</ele><time>2026-05-02T14:18:33.999Z</time></trkpt><trkpt lat="43.58486525481199" lon="11.34391429323587"><ele>489.0</ele><time>2026-05-02T14:18:34.999Z</time></trkpt><trkpt lat="43.58482677879373" lon="11.34380326056983"><ele>488.1666666666667</ele><time>2026-05-02T14:18:35.999Z</time></trkpt><trkpt lat="43.58478801884069" lon="11.34370412694025"><ele>487.33333333333337</ele><time>2026-05-02T14:18:37Z</time></trkpt><trkpt lat="43.58475271358025" lon="11.343604822283801"><ele>486.5</ele><time>2026-05-02T14:18:38Z</time></trkpt><trkpt lat="43.58472423317854" lon="11.343508712006457"><ele>485.6666666666667</ele><time>2026-05-02T14:18:39Z</time></trkpt><trkpt lat="43.58470490862417" lon="11.343412492993952"><ele>484.83333333333337</ele><time>2026-05-02T14:18:40Z</time></trkpt><trkpt lat="43.584692594660225" lon="11.343315956685965"><ele>484.0</ele><time>2026-05-02T14:18:41Z</time></trkpt><trkpt lat="43.58469752047127" lon="11.343206747631882"><ele>484.0</ele><time>2026-05-02T14:18:42Z</time></trkpt><trkpt lat="43.58472275399768" lon="11.34308574036343"><ele>484.0</ele><time>2026-05-02T14:18:43Z</time></trkpt><trkpt lat="43.584755987527664" lon="11.342946248998482"><ele>484.0</ele><time>2026-05-02T14:18:44Z</time></trkpt><trkpt lat="43.584789648970926" lon="11.342815326510237"><ele>484.0</ele><time>2026-05-02T14:18:45Z</time></trkpt><trkpt lat="43.584823381317975" lon="11.342696029231785"><ele>484.0</ele><time>2026-05-02T14:18:46Z</time></trkpt><trkpt lat="43.5848507238409" lon="11.342581659761011"><ele>482.83333333333337</ele><time>2026-05-02T14:18:47Z</time></trkpt><trkpt lat="43.584876767821434" lon="11.342473313307591"><ele>481.6666666666667</ele><time>2026-05-02T14:18:48Z</time></trkpt><trkpt lat="43.58490305589959" lon="11.342372483495428"><ele>480.5</ele><time>2026-05-02T14:18:49Z</time></trkpt><trkpt lat="43.58492895804415" lon="11.342270553096235"><ele>479.33333333333337</ele><time>2026-05-02T14:18:50Z</time></trkpt><trkpt lat="43.58495078984591" lon="11.342171121977511"><ele>478.1666666666667</ele><time>2026-05-02T14:18:51Z</time></trkpt><trkpt lat="43.58497328512229" lon="11.342078330475482"><ele>477.0</ele><time>2026-05-02T14:18:52Z</time></trkpt><trkpt lat="43.58498894721123" lon="11.341983402004518"><ele>475.1666666666667</ele><time>2026-05-02T14:18:53Z</time></trkpt><trkpt lat="43.5850038710509" lon="11.341889928552146"><ele>473.33333333333337</ele><time>2026-05-02T14:18:54Z</time></trkpt><trkpt lat="43.585006365399174" lon="11.341794553419946"><ele>471.5</ele><time>2026-05-02T14:18:55Z</time></trkpt><trkpt lat="43.58498716526098" lon="11.341701581478091"><ele>469.6666666666667</ele><time>2026-05-02T14:18:56Z</time></trkpt><trkpt lat="43.58494373111908" lon="11.341607738881288"><ele>467.83333333333337</ele><time>2026-05-02T14:18:57Z</time></trkpt><trkpt lat="43.58488435391472" lon="11.341519842888616"><ele>466.0</ele><time>2026-05-02T14:18:58Z</time></trkpt><trkpt lat="43.58481557668011" lon="11.341428050304689"><ele>463.6</ele><time>2026-05-02T14:18:59Z</time></trkpt><trkpt lat="43.584739646152535" lon="11.341332891027193"><ele>461.20000000000005</ele><time>2026-05-02T14:19:00Z</time></trkpt><trkpt lat="43.584669795417476" lon="11.341235216466126"><ele>458.79999999999995</ele><time>2026-05-02T14:19:01Z</time></trkpt><trkpt lat="43.58460317140635" lon="11.34112974294606"><ele>456.4</ele><time>2026-05-02T14:19:02Z</time></trkpt><trkpt lat="43.58452824138016" lon="11.341021332911877"><ele>454.0</ele><time>2026-05-02T14:19:03Z</time></trkpt><trkpt lat="43.584464774733966" lon="11.340923985635625"><ele>454.00000000000006</ele><time>2026-05-02T14:19:04Z</time></trkpt><trkpt lat="43.58440054288226" lon="11.340826790377934"><ele>454.0</ele><time>2026-05-02T14:19:05Z</time></trkpt><trkpt lat="43.58433913709722" lon="11.340729791602717"><ele>454.0</ele><time>2026-05-02T14:19:06Z</time></trkpt><trkpt lat="43.58427921515346" lon="11.340638848477397"><ele>454.0</ele><time>2026-05-02T14:19:07Z</time></trkpt><trkpt lat="43.58421865709029" lon="11.340555435988124"><ele>454.00000000000006</ele><time>2026-05-02T14:19:08Z</time></trkpt><trkpt lat="43.5841666727117" lon="11.340476025440612"><ele>454.0</ele><time>2026-05-02T14:19:09Z</time></trkpt><trkpt lat="43.584129964385774" lon="11.340386210545851"><ele>453.7142857142857</ele><time>2026-05-02T14:19:10Z</time></trkpt><trkpt lat="43.58410626761788" lon="11.340292502789744"><ele>453.42857142857144</ele><time>2026-05-02T14:19:11Z</time></trkpt><trkpt lat="43.58409722238955" lon="11.340187137683907"><ele>453.14285714285717</ele><time>2026-05-02T14:19:12Z</time></trkpt><trkpt lat="43.58408850340632" lon="11.340090811973916"><ele>452.8571428571429</ele><time>2026-05-02T14:19:13Z</time></trkpt><trkpt lat="43.5840753326156" lon="11.339999088287959"><ele>452.57142857142856</ele><time>2026-05-02T14:19:14Z</time></trkpt><trkpt lat="43.58406126709728" lon="11.339909993046419"><ele>452.28571428571433</ele><time>2026-05-02T14:19:15Z</time></trkpt><trkpt lat="43.584041983040436" lon="11.339805586560523"><ele>452.0</ele><time>2026-05-02T14:19:16Z</time></trkpt><trkpt lat="43.58400895519371" lon="11.339712413128712"><ele>449.66666666666663</ele><time>2026-05-02T14:19:17Z</time></trkpt><trkpt lat="43.58396129265802" lon="11.33960455702415"><ele>447.3333333333333</ele><time>2026-05-02T14:19:18Z</time></trkpt><trkpt lat="43.58390956353871" lon="11.339503682857854"><ele>445.0</ele><time>2026-05-02T14:19:19Z</time></trkpt><trkpt lat="43.583859784163174" lon="11.339402461060429"><ele>442.66666666666663</ele><time>2026-05-02T14:19:20Z</time></trkpt><trkpt lat="43.58380950471611" lon="11.339305367663467"><ele>440.3333333333333</ele><time>2026-05-02T14:19:21Z</time></trkpt><trkpt lat="43.5837595908475" lon="11.339205392808433"><ele>438.0</ele><time>2026-05-02T14:19:22Z</time></trkpt><trkpt lat="43.58371591585747" lon="11.339107455037293"><ele>437.3333333333333</ele><time>2026-05-02T14:19:23Z</time></trkpt><trkpt lat="43.58366641332165" lon="11.339021026506504"><ele>436.66666666666663</ele><time>2026-05-02T14:19:24Z</time></trkpt><trkpt lat="43.58361350747415" lon="11.338933912119353"><ele>436.0</ele><time>2026-05-02T14:19:25Z</time></trkpt><trkpt lat="43.58356337597104" lon="11.338840400139448"><ele>435.3333333333333</ele><time>2026-05-02T14:19:26Z</time></trkpt><trkpt lat="43.58350577998713" lon="11.338754058606733"><ele>434.66666666666663</ele><time>2026-05-02T14:19:27Z</time></trkpt><trkpt lat="43.58346773832937" lon="11.338649482808206"><ele>434.0</ele><time>2026-05-02T14:19:28Z</time></trkpt><trkpt lat="43.583433780913786" lon="11.338551109575295"><ele>433.99999999999994</ele><time>2026-05-02T14:19:29Z</time></trkpt><trkpt lat="43.58340863550407" lon="11.338446795711842"><ele>434.0</ele><time>2026-05-02T14:19:30Z</time></trkpt><trkpt lat="43.58338203412842" lon="11.33833696659848"><ele>434.0</ele><time>2026-05-02T14:19:31Z</time></trkpt><trkpt lat="43.583354787889434" lon="11.338229025154053"><ele>434.0</ele><time>2026-05-02T14:19:32Z</time></trkpt><trkpt lat="43.583325413231016" lon="11.338133185073664"><ele>433.99999999999994</ele><time>2026-05-02T14:19:33Z</time></trkpt><trkpt lat="43.583288524924576" lon="11.338037888799144"><ele>434.0</ele><time>2026-05-02T14:19:34Z</time></trkpt><trkpt lat="43.5832486680388" lon="11.33794393351847"><ele>430.99999999999994</ele><time>2026-05-02T14:19:35Z</time></trkpt><trkpt lat="43.58320961566243" lon="11.337847615034262"><ele>428.0</ele><time>2026-05-02T14:19:36Z</time></trkpt><trkpt lat="43.58317590663047" lon="11.337748486079072"><ele>425.0</ele><time>2026-05-02T14:19:37Z</time></trkpt><trkpt lat="43.583146422588115" lon="11.337646318486971"><ele>422.0</ele><time>2026-05-02T14:19:38Z</time></trkpt><trkpt lat="43.58311996886759" lon="11.337543967567797"><ele>418.99999999999994</ele><time>2026-05-02T14:19:39Z</time></trkpt><trkpt lat="43.58309677172367" lon="11.33745564187665"><ele>416.0</ele><time>2026-05-02T14:19:40Z</time></trkpt><trkpt lat="43.583059088098885" lon="11.33738289122801"><ele>415.99999999999994</ele><time>2026-05-02T14:19:41Z</time></trkpt><trkpt lat="43.583034139622285" lon="11.337237593574715"><ele>416.0</ele><time>2026-05-02T14:19:43Z</time></trkpt><trkpt lat="43.583004278323074" lon="11.337123474811088"><ele>416.0</ele><time>2026-05-02T14:19:45Z</time></trkpt><trkpt lat="43.5829572985589" lon="11.337043130087864"><ele>416.0</ele><time>2026-05-02T14:19:47Z</time></trkpt><trkpt lat="43.582881722319144" lon="11.336958778466089"><ele>415.99999999999994</ele><time>2026-05-02T14:19:49Z</time></trkpt><trkpt lat="43.582812658610884" lon="11.33694671514553"><ele>416.0</ele><time>2026-05-02T14:19:50Z</time></trkpt><trkpt lat="43.582744809306284" lon="11.336940495311612"><ele>414.66666666666663</ele><time>2026-05-02T14:19:51Z</time></trkpt><trkpt lat="43.582673652589484" lon="11.336921774418839"><ele>413.3333333333333</ele><time>2026-05-02T14:19:52Z</time></trkpt><trkpt lat="43.582594566468536" lon="11.336898337550934"><ele>412.0</ele><time>2026-05-02T14:19:53Z</time></trkpt><trkpt lat="43.582522100879764" lon="11.336851958473904"><ele>410.66666666666663</ele><time>2026-05-02T14:19:54Z</time></trkpt><trkpt lat="43.58244611829319" lon="11.336803903736525"><ele>409.3333333333333</ele><time>2026-05-02T14:19:55Z</time></trkpt><trkpt lat="43.582375783544045" lon="11.336757206947594"><ele>408.0</ele><time>2026-05-02T14:19:56Z</time></trkpt><trkpt lat="43.5823047811972" lon="11.336705059604702"><ele>408.0</ele><time>2026-05-02T14:19:57Z</time></trkpt><trkpt lat="43.58223547374129" lon="11.336659235115617"><ele>408.0</ele><time>2026-05-02T14:19:58Z</time></trkpt><trkpt lat="43.58212576667241" lon="11.336584224351022"><ele>408.0</ele><time>2026-05-02T14:20:00Z</time></trkpt><trkpt lat="43.582060790798195" lon="11.336581539685946"><ele>408.0</ele><time>2026-05-02T14:20:01Z</time></trkpt><trkpt lat="43.581994072908095" lon="11.336638574706976"><ele>408.0</ele><time>2026-05-02T14:20:02Z</time></trkpt><trkpt lat="43.58192141695464" lon="11.336669352004375"><ele>408.0</ele><time>2026-05-02T14:20:03Z</time></trkpt><trkpt lat="43.581846880254545" lon="11.336673582015365"><ele>407.8333333333333</ele><time>2026-05-02T14:20:04Z</time></trkpt><trkpt lat="43.58177758472164" lon="11.336665119130556"><ele>407.66666666666663</ele><time>2026-05-02T14:20:05Z</time></trkpt><trkpt lat="43.58171753860854" lon="11.336600995515235"><ele>407.5</ele><time>2026-05-02T14:20:06Z</time></trkpt><trkpt lat="43.58164651546708" lon="11.336567849668263"><ele>407.3333333333333</ele><time>2026-05-02T14:20:07Z</time></trkpt><trkpt lat="43.58158540650152" lon="11.336485864010127"><ele>407.16666666666663</ele><time>2026-05-02T14:20:08Z</time></trkpt><trkpt lat="43.58155004402657" lon="11.336373137241443"><ele>407.0</ele><time>2026-05-02T14:20:09Z</time></trkpt><trkpt lat="43.58149895958755" lon="11.336272669386666"><ele>404.49999999999994</ele><time>2026-05-02T14:20:09.999Z</time></trkpt><trkpt lat="43.58147688513716" lon="11.336170806710138"><ele>402.0</ele><time>2026-05-02T14:20:10.999Z</time></trkpt><trkpt lat="43.58146183642385" lon="11.336056313772483"><ele>399.5</ele><time>2026-05-02T14:20:11.999Z</time></trkpt><trkpt lat="43.581414547301726" lon="11.335974628047364"><ele>397.0</ele><time>2026-05-02T14:20:12.999Z</time></trkpt><trkpt lat="43.58139142512741" lon="11.335868226507396"><ele>394.49999999999994</ele><time>2026-05-02T14:20:13.999Z</time></trkpt><trkpt lat="43.58135239692871" lon="11.33577733253772"><ele>392.0</ele><time>2026-05-02T14:20:14.999Z</time></trkpt><trkpt lat="43.58130588196151" lon="11.33567795268934"><ele>391.99999999999994</ele><time>2026-05-02T14:20:15.999Z</time></trkpt><trkpt lat="43.58125466268029" lon="11.335578235903679"><ele>392.0</ele><time>2026-05-02T14:20:16.999Z</time></trkpt><trkpt lat="43.58120079130772" lon="11.335485338617914"><ele>392.0</ele><time>2026-05-02T14:20:17.999Z</time></trkpt><trkpt lat="43.58114630079281" lon="11.335404151517826"><ele>392.0</ele><time>2026-05-02T14:20:18.999Z</time></trkpt><trkpt lat="43.5810966881891" lon="11.335333397891189"><ele>391.99999999999994</ele><time>2026-05-02T14:20:19.999Z</time></trkpt><trkpt lat="43.58104024097939" lon="11.335275118892078"><ele>392.0</ele><time>2026-05-02T14:20:20.999Z</time></trkpt><trkpt lat="43.58100237433804" lon="11.335202879034169"><ele>391.8333333333333</ele><time>2026-05-02T14:20:21.999Z</time></trkpt><trkpt lat="43.58096856451168" lon="11.335116822264325"><ele>391.66666666666663</ele><time>2026-05-02T14:20:22.999Z</time></trkpt><trkpt lat="43.58093155830565" lon="11.33502518905498"><ele>391.5</ele><time>2026-05-02T14:20:23.999Z</time></trkpt><trkpt lat="43.58089336421825" lon="11.33492595755875"><ele>391.33333333333337</ele><time>2026-05-02T14:20:24.999Z</time></trkpt><trkpt lat="43.58085279553273" lon="11.334828482310858"><ele>391.1666666666667</ele><time>2026-05-02T14:20:25.999Z</time></trkpt><trkpt lat="43.58081038683648" lon="11.334735897314092"><ele>391.0</ele><time>2026-05-02T14:20:26.999Z</time></trkpt><trkpt lat="43.58076546361088" lon="11.334636961180744"><ele>389.6666666666667</ele><time>2026-05-02T14:20:27.999Z</time></trkpt><trkpt lat="43.58072333838184" lon="11.334546871949652"><ele>388.33333333333337</ele><time>2026-05-02T14:20:28.999Z</time></trkpt><trkpt lat="43.580683327060036" lon="11.334464235530904"><ele>387.0</ele><time>2026-05-02T14:20:29.999Z</time></trkpt><trkpt lat="43.580645769801386" lon="11.334387153605107"><ele>385.6666666666667</ele><time>2026-05-02T14:20:30.999Z</time></trkpt><trkpt lat="43.58057629279225" lon="11.33425131535136"><ele>384.33333333333337</ele><time>2026-05-02T14:20:32.999Z</time></trkpt><trkpt lat="43.58053912522739" lon="11.33417797017853"><ele>383.0</ele><time>2026-05-02T14:20:33.999Z</time></trkpt><trkpt lat="43.580499666242325" lon="11.334107498734351"><ele>383.0</ele><time>2026-05-02T14:20:34.999Z</time></trkpt><trkpt lat="43.58045651315657" lon="11.334040000405368"><ele>383.0</ele><time>2026-05-02T14:20:35.999Z</time></trkpt><trkpt lat="43.580413501710595" lon="11.333967755690486"><ele>383.0</ele><time>2026-05-02T14:20:36.999Z</time></trkpt><trkpt lat="43.580369696153745" lon="11.33389435481085"><ele>383.0</ele><time>2026-05-02T14:20:37.999Z</time></trkpt><trkpt lat="43.58032350470709" lon="11.333816305869375"><ele>383.0</ele><time>2026-05-02T14:20:38.999Z</time></trkpt><trkpt lat="43.58028170726038" lon="11.333744139121992"><ele>383.0</ele><time>2026-05-02T14:20:39.999Z</time></trkpt><trkpt lat="43.58023442693993" lon="11.333677049189744"><ele>383.0</ele><time>2026-05-02T14:20:40.999Z</time></trkpt><trkpt lat="43.58017547529878" lon="11.333539604068099"><ele>380.4</ele><time>2026-05-02T14:20:43Z</time></trkpt><trkpt lat="43.58011312667822" lon="11.333419494001195"><ele>377.79999999999995</ele><time>2026-05-02T14:20:45Z</time></trkpt><trkpt lat="43.58011048627635" lon="11.333244376154239"><ele>375.2</ele><time>2026-05-02T14:20:47Z</time></trkpt><trkpt lat="43.580130018510246" lon="11.333116554969902"><ele>372.6</ele><time>2026-05-02T14:20:48Z</time></trkpt><trkpt lat="43.580159697524174" lon="11.332968145920168"><ele>370.0</ele><time>2026-05-02T14:20:49Z</time></trkpt><trkpt lat="43.58018227958334" lon="11.332815096282356"><ele>368.66666666666663</ele><time>2026-05-02T14:20:50Z</time></trkpt><trkpt lat="43.580205772815795" lon="11.33267379213538"><ele>367.3333333333333</ele><time>2026-05-02T14:20:51Z</time></trkpt><trkpt lat="43.580229961094936" lon="11.332547356214066"><ele>366.0</ele><time>2026-05-02T14:20:52Z</time></trkpt><trkpt lat="43.58025171209357" lon="11.332433548445492"><ele>364.6666666666667</ele><time>2026-05-02T14:20:53Z</time></trkpt><trkpt lat="43.580272519438594" lon="11.332330247137108"><ele>363.33333333333337</ele><time>2026-05-02T14:20:54Z</time></trkpt><trkpt lat="43.58028670065291" lon="11.332232697986546"><ele>362.0</ele><time>2026-05-02T14:20:55Z</time></trkpt><trkpt lat="43.58030062249241" lon="11.332127537533276"><ele>361.6</ele><time>2026-05-02T14:20:56Z</time></trkpt><trkpt lat="43.580305600736416" lon="11.332002746376011"><ele>361.20000000000005</ele><time>2026-05-02T14:20:57Z</time></trkpt><trkpt lat="43.580308476380154" lon="11.33187574348788"><ele>360.8</ele><time>2026-05-02T14:20:58Z</time></trkpt><trkpt lat="43.580295381897294" lon="11.33173816597015"><ele>360.4</ele><time>2026-05-02T14:20:59Z</time></trkpt><trkpt lat="43.58026087848793" lon="11.331596954874863"><ele>360.0</ele><time>2026-05-02T14:21:00Z</time></trkpt><trkpt lat="43.580222768372316" lon="11.331454278491295"><ele>359.5</ele><time>2026-05-02T14:21:01Z</time></trkpt><trkpt lat="43.58019260193814" lon="11.331325529436711"><ele>359.0</ele><time>2026-05-02T14:21:02Z</time></trkpt><trkpt lat="43.58016370839614" lon="11.331214932823714"><ele>358.5</ele><time>2026-05-02T14:21:03Z</time></trkpt><trkpt lat="43.58015318731836" lon="11.331114530137326"><ele>358.0</ele><time>2026-05-02T14:21:04Z</time></trkpt><trkpt lat="43.58015221125826" lon="11.331016866836585"><ele>357.5</ele><time>2026-05-02T14:21:05Z</time></trkpt><trkpt lat="43.5801487075682" lon="11.330914496076872"><ele>357.0</ele><time>2026-05-02T14:21:06Z</time></trkpt><trkpt lat="43.580152232228976" lon="11.330798123163122"><ele>357.0</ele><time>2026-05-02T14:21:07Z</time></trkpt><trkpt lat="43.58016293041393" lon="11.330678406765186"><ele>357.0</ele><time>2026-05-02T14:21:08Z</time></trkpt><trkpt lat="43.580184244710196" lon="11.330567211773587"><ele>357.0</ele><time>2026-05-02T14:21:09Z</time></trkpt><trkpt lat="43.58022222346344" lon="11.330458640391463"><ele>357.0</ele><time>2026-05-02T14:21:10Z</time></trkpt><trkpt lat="43.58028025216206" lon="11.330369923233745"><ele>357.0</ele><time>2026-05-02T14:21:11Z</time></trkpt><trkpt lat="43.58035456471218" lon="11.330294032658307"><ele>357.0</ele><time>2026-05-02T14:21:12Z</time></trkpt><trkpt lat="43.58042772758199" lon="11.330218454833643"><ele>355.3333333333333</ele><time>2026-05-02T14:21:13Z</time></trkpt><trkpt lat="43.58049751334655" lon="11.330138104056955"><ele>353.6666666666667</ele><time>2026-05-02T14:21:14Z</time></trkpt><trkpt lat="43.580567419808816" lon="11.3300627268706"><ele>352.0</ele><time>2026-05-02T14:21:15Z</time></trkpt><trkpt lat="43.58063116792367" lon="11.329985927747773"><ele>350.33333333333337</ele><time>2026-05-02T14:21:16Z</time></trkpt><trkpt lat="43.58069958835307" lon="11.329925181266136"><ele>348.6666666666667</ele><time>2026-05-02T14:21:17Z</time></trkpt><trkpt lat="43.58076737788848" lon="11.32986811089026"><ele>347.0</ele><time>2026-05-02T14:21:18Z</time></trkpt><trkpt lat="43.58082667881647" lon="11.329795331851232"><ele>346.14285714285717</ele><time>2026-05-02T14:21:19Z</time></trkpt><trkpt lat="43.58087861629078" lon="11.32971540343613"><ele>345.2857142857143</ele><time>2026-05-02T14:21:20Z</time></trkpt><trkpt lat="43.58092400254552" lon="11.32962882999641"><ele>344.42857142857144</ele><time>2026-05-02T14:21:21Z</time></trkpt><trkpt lat="43.58094125402423" lon="11.329528921468617"><ele>343.57142857142856</ele><time>2026-05-02T14:21:22Z</time></trkpt><trkpt lat="43.58096871781475" lon="11.329440557550257"><ele>342.7142857142857</ele><time>2026-05-02T14:21:23Z</time></trkpt><trkpt lat="43.58100607107896" lon="11.32935978001575"><ele>341.85714285714283</ele><time>2026-05-02T14:21:24Z</time></trkpt><trkpt lat="43.58102191634466" lon="11.329268566120769"><ele>341.0</ele><time>2026-05-02T14:21:25Z</time></trkpt><trkpt lat="43.58102926533059" lon="11.329169089974796"><ele>341.0</ele><time>2026-05-02T14:21:26Z</time></trkpt><trkpt lat="43.581015923366515" lon="11.32906152224752"><ele>341.0</ele><time>2026-05-02T14:21:27Z</time></trkpt><trkpt lat="43.58098023317666" lon="11.328967011243131"><ele>341.0</ele><time>2026-05-02T14:21:28Z</time></trkpt><trkpt lat="43.58091401019649" lon="11.328878127125467"><ele>341.0</ele><time>2026-05-02T14:21:29Z</time></trkpt><trkpt lat="43.580834033535915" lon="11.32878636114132"><ele>341.0</ele><time>2026-05-02T14:21:30Z</time></trkpt><trkpt lat="43.58075183768212" lon="11.328687517897789"><ele>339.8</ele><time>2026-05-02T14:21:31Z</time></trkpt><trkpt lat="43.58068252344239" lon="11.32856849400708"><ele>338.6</ele><time>2026-05-02T14:21:32Z</time></trkpt><trkpt lat="43.58062376260962" lon="11.328438467216591"><ele>337.4</ele><time>2026-05-02T14:21:33Z</time></trkpt><trkpt lat="43.58056898998012" lon="11.328313965164918"><ele>336.2</ele><time>2026-05-02T14:21:34Z</time></trkpt><trkpt lat="43.580500223356836" lon="11.32820089322628"><ele>335.0</ele><time>2026-05-02T14:21:35Z</time></trkpt><trkpt lat="43.580428690839035" lon="11.328099682463828"><ele>333.0</ele><time>2026-05-02T14:21:36Z</time></trkpt><trkpt lat="43.58035712683776" lon="11.327999700966398"><ele>331.0</ele><time>2026-05-02T14:21:37Z</time></trkpt><trkpt lat="43.580283608909895" lon="11.327902664534452"><ele>329.0</ele><time>2026-05-02T14:21:38Z</time></trkpt><trkpt lat="43.58022235638783" lon="11.32779602981536"><ele>327.0</ele><time>2026-05-02T14:21:39Z</time></trkpt><trkpt lat="43.58017229419602" lon="11.327684921028446"><ele>325.0</ele><time>2026-05-02T14:21:40Z</time></trkpt><trkpt lat="43.58013149012595" lon="11.327574478829922"><ele>324.8</ele><time>2026-05-02T14:21:41Z</time></trkpt><trkpt lat="43.58009057500845" lon="11.327462433260225"><ele>324.6</ele><time>2026-05-02T14:21:42Z</time></trkpt><trkpt lat="43.58004952325509" lon="11.327349288824339"><ele>324.4</ele><time>2026-05-02T14:21:43Z</time></trkpt><trkpt lat="43.580018946407286" lon="11.327229662351588"><ele>324.2</ele><time>2026-05-02T14:21:44Z</time></trkpt><trkpt lat="43.58000023227466" lon="11.327085417764275"><ele>324.0</ele><time>2026-05-02T14:21:45Z</time></trkpt><trkpt lat="43.579981132370015" lon="11.326934158539121"><ele>323.79999999999995</ele><time>2026-05-02T14:21:46Z</time></trkpt><trkpt lat="43.57996917401796" lon="11.326779000509921"><ele>323.59999999999997</ele><time>2026-05-02T14:21:47Z</time></trkpt><trkpt lat="43.57995807748439" lon="11.326628504621256"><ele>323.4</ele><time>2026-05-02T14:21:48Z</time></trkpt><trkpt lat="43.57993586081362" lon="11.326488368976236"><ele>323.2</ele><time>2026-05-02T14:21:49Z</time></trkpt><trkpt lat="43.57991768949949" lon="11.326366282761805"><ele>323.0</ele><time>2026-05-02T14:21:50Z</time></trkpt><trkpt lat="43.579902257328015" lon="11.326253697090173"><ele>322.2</ele><time>2026-05-02T14:21:51Z</time></trkpt><trkpt lat="43.57988263148499" lon="11.326140753468582"><ele>321.4</ele><time>2026-05-02T14:21:52Z</time></trkpt><trkpt lat="43.57986472632887" lon="11.326026927492943"><ele>320.59999999999997</ele><time>2026-05-02T14:21:53Z</time></trkpt><trkpt lat="43.579839706459424" lon="11.325904199599933"><ele>319.79999999999995</ele><time>2026-05-02T14:21:54Z</time></trkpt><trkpt lat="43.57981435538382" lon="11.325772724778739"><ele>319.0</ele><time>2026-05-02T14:21:55Z</time></trkpt><trkpt lat="43.57977785594928" lon="11.325638456985953"><ele>316.0</ele><time>2026-05-02T14:21:56Z</time></trkpt><trkpt lat="43.57974271916911" lon="11.325490376398575"><ele>313.0</ele><time>2026-05-02T14:21:57Z</time></trkpt><trkpt lat="43.57970774877293" lon="11.325343188802938"><ele>310.0</ele><time>2026-05-02T14:21:58Z</time></trkpt><trkpt lat="43.579669142846654" lon="11.325186197989414"><ele>307.0</ele><time>2026-05-02T14:21:59Z</time></trkpt><trkpt lat="43.579637241716625" lon="11.325026489188359"><ele>307.0</ele><time>2026-05-02T14:22:00Z</time></trkpt><trkpt lat="43.57959369104327" lon="11.324875135090709"><ele>307.0</ele><time>2026-05-02T14:22:01Z</time></trkpt><trkpt lat="43.57956054979784" lon="11.324725088979692"><ele>307.0</ele><time>2026-05-02T14:22:02Z</time></trkpt><trkpt lat="43.5795291277797" lon="11.324586634865636"><ele>307.0</ele><time>2026-05-02T14:22:03Z</time></trkpt><trkpt lat="43.579511912532084" lon="11.32444542136293"><ele>307.0</ele><time>2026-05-02T14:22:04Z</time></trkpt><trkpt lat="43.57951022062668" lon="11.32431096891869"><ele>305.4</ele><time>2026-05-02T14:22:05Z</time></trkpt><trkpt lat="43.57952996153506" lon="11.32418448892653"><ele>303.79999999999995</ele><time>2026-05-02T14:22:06Z</time></trkpt><trkpt lat="43.57956531160887" lon="11.324064586005493"><ele>302.2</ele><time>2026-05-02T14:22:07Z</time></trkpt><trkpt lat="43.579601509709754" lon="11.323928248823337"><ele>300.59999999999997</ele><time>2026-05-02T14:22:08Z</time></trkpt><trkpt lat="43.57963104946907" lon="11.32379476425716"><ele>299.0</ele><time>2026-05-02T14:22:09Z</time></trkpt><trkpt lat="43.57963927776293" lon="11.323641717465124"><ele>298.2</ele><time>2026-05-02T14:22:10Z</time></trkpt><trkpt lat="43.579626560046464" lon="11.323487045445832"><ele>297.4</ele><time>2026-05-02T14:22:11Z</time></trkpt><trkpt lat="43.579608682037914" lon="11.32334794839094"><ele>296.6</ele><time>2026-05-02T14:22:12Z</time></trkpt><trkpt lat="43.579613856255875" lon="11.323204626968344"><ele>295.8</ele><time>2026-05-02T14:22:13Z</time></trkpt><trkpt lat="43.57965447166284" lon="11.323064544430961"><ele>295.0</ele><time>2026-05-02T14:22:14Z</time></trkpt><trkpt lat="43.57971861977907" lon="11.32292676849361"><ele>294.0</ele><time>2026-05-02T14:22:15Z</time></trkpt><trkpt lat="43.579776891618685" lon="11.322796108177027"><ele>293.0</ele><time>2026-05-02T14:22:16Z</time></trkpt><trkpt lat="43.57983186634237" lon="11.322659758746681"><ele>292.0</ele><time>2026-05-02T14:22:17Z</time></trkpt><trkpt lat="43.57988863481046" lon="11.322518565495306"><ele>291.0</ele><time>2026-05-02T14:22:18Z</time></trkpt><trkpt lat="43.57994206814561" lon="11.322382562473498"><ele>291.0</ele><time>2026-05-02T14:22:19Z</time></trkpt><trkpt lat="43.57998150130904" lon="11.322257172228309"><ele>291.0</ele><time>2026-05-02T14:22:19.999Z</time></trkpt><trkpt lat="43.57999078792613" lon="11.3221519302849"><ele>291.0</ele><time>2026-05-02T14:22:20.999Z</time></trkpt><trkpt lat="43.57996789134418" lon="11.322056363594305"><ele>291.0</ele><time>2026-05-02T14:22:21.999Z</time></trkpt><trkpt lat="43.5799066589984" lon="11.32198056172515"><ele>291.0</ele><time>2026-05-02T14:22:22.999Z</time></trkpt><trkpt lat="43.5798148979196" lon="11.321945703414887"><ele>291.0</ele><time>2026-05-02T14:22:23.999Z</time></trkpt><trkpt lat="43.57971241927097" lon="11.321987222066765"><ele>289.3333333333333</ele><time>2026-05-02T14:22:24.999Z</time></trkpt><trkpt lat="43.579618719828936" lon="11.322085406304275"><ele>287.6666666666667</ele><time>2026-05-02T14:22:25.999Z</time></trkpt><trkpt lat="43.579534838566" lon="11.322148860046374"><ele>286.0</ele><time>2026-05-02T14:22:26.999Z</time></trkpt><trkpt lat="43.57945606794596" lon="11.322151400108176"><ele>284.33333333333337</ele><time>2026-05-02T14:22:27.999Z</time></trkpt><trkpt lat="43.579394842945334" lon="11.322107306768848"><ele>282.6666666666667</ele><time>2026-05-02T14:22:28.999Z</time></trkpt><trkpt lat="43.57935928148248" lon="11.321999781785323"><ele>281.0</ele><time>2026-05-02T14:22:29.999Z</time></trkpt><trkpt lat="43.579373856072614" lon="11.321868757302777"><ele>281.0</ele><time>2026-05-02T14:22:30.999Z</time></trkpt><trkpt lat="43.5794496358062" lon="11.321779667526455"><ele>281.0</ele><time>2026-05-02T14:22:31.999Z</time></trkpt><trkpt lat="43.57956467382782" lon="11.321744346811109"><ele>281.0</ele><time>2026-05-02T14:22:32.999Z</time></trkpt><trkpt lat="43.579686380032555" lon="11.321682568375566"><ele>281.0</ele><time>2026-05-02T14:22:33.999Z</time></trkpt><trkpt lat="43.57980141971703" lon="11.321634146203266"><ele>281.0</ele><time>2026-05-02T14:22:34.999Z</time></trkpt><trkpt lat="43.57989333506559" lon="11.321571549646833"><ele>281.0</ele><time>2026-05-02T14:22:35.999Z</time></trkpt><trkpt lat="43.57997096723863" lon="11.321488451939388"><ele>281.0</ele><time>2026-05-02T14:22:36.999Z</time></trkpt><trkpt lat="43.58004392178481" lon="11.321371259010471"><ele>281.0</ele><time>2026-05-02T14:22:37.999Z</time></trkpt><trkpt lat="43.5800986780003" lon="11.321222114656523"><ele>281.0</ele><time>2026-05-02T14:22:38.999Z</time></trkpt><trkpt lat="43.58013847070846" lon="11.32107804451428"><ele>279.33333333333337</ele><time>2026-05-02T14:22:39.999Z</time></trkpt><trkpt lat="43.580179836059536" lon="11.32095065348812"><ele>277.6666666666667</ele><time>2026-05-02T14:22:40.999Z</time></trkpt><trkpt lat="43.580223670066935" lon="11.320845723879374"><ele>276.0</ele><time>2026-05-02T14:22:41.999Z</time></trkpt><trkpt lat="43.580275446167214" lon="11.32077833540144"><ele>274.3333333333333</ele><time>2026-05-02T14:22:42.999Z</time></trkpt><trkpt lat="43.58033529066118" lon="11.320736457807365"><ele>272.66666666666663</ele><time>2026-05-02T14:22:43.999Z</time></trkpt><trkpt lat="43.58041466649179" lon="11.32075919952367"><ele>271.0</ele><time>2026-05-02T14:22:44.999Z</time></trkpt><trkpt lat="43.58050137433142" lon="11.320760966239167"><ele>271.0</ele><time>2026-05-02T14:22:45.999Z</time></trkpt><trkpt lat="43.58057698295882" lon="11.32080402173881"><ele>271.0</ele><time>2026-05-02T14:22:46.999Z</time></trkpt><trkpt lat="43.58065889672321" lon="11.320805410742972"><ele>271.0</ele><time>2026-05-02T14:22:47.999Z</time></trkpt><trkpt lat="43.58074102805042" lon="11.320815189319102"><ele>271.0</ele><time>2026-05-02T14:22:49Z</time></trkpt><trkpt lat="43.58081149081893" lon="11.320806970217165"><ele>271.0</ele><time>2026-05-02T14:22:50Z</time></trkpt><trkpt lat="43.580861891283" lon="11.320750472584034"><ele>271.0</ele><time>2026-05-02T14:22:51Z</time></trkpt><trkpt lat="43.58089603369463" lon="11.32064363938722"><ele>268.40000000000003</ele><time>2026-05-02T14:22:52Z</time></trkpt><trkpt lat="43.58089184428577" lon="11.320537623101469"><ele>265.8</ele><time>2026-05-02T14:22:53Z</time></trkpt><trkpt lat="43.580845122930974" lon="11.320443124754446"><ele>263.20000000000005</ele><time>2026-05-02T14:22:54Z</time></trkpt><trkpt lat="43.58077295373942" lon="11.320355670798074"><ele>260.6</ele><time>2026-05-02T14:22:55Z</time></trkpt><trkpt lat="43.58064476174016" lon="11.320341905379163"><ele>258.0</ele><time>2026-05-02T14:22:56Z</time></trkpt><trkpt lat="43.58051591348684" lon="11.320342771759718"><ele>258.0</ele><time>2026-05-02T14:22:57Z</time></trkpt><trkpt lat="43.58039308260131" lon="11.32034767246937"><ele>258.0</ele><time>2026-05-02T14:22:58Z</time></trkpt><trkpt lat="43.58029024355125" lon="11.320305872357089"><ele>258.0</ele><time>2026-05-02T14:22:59Z</time></trkpt><trkpt lat="43.58018924303958" lon="11.32028742233237"><ele>258.0</ele><time>2026-05-02T14:23:00Z</time></trkpt><trkpt lat="43.580103234852615" lon="11.320198437725336"><ele>258.0</ele><time>2026-05-02T14:23:01Z</time></trkpt><trkpt lat="43.58001231973183" lon="11.320112623801753"><ele>258.2</ele><time>2026-05-02T14:23:02Z</time></trkpt><trkpt lat="43.57992647637297" lon="11.320026953704033"><ele>258.4</ele><time>2026-05-02T14:23:03Z</time></trkpt><trkpt lat="43.579850891888064" lon="11.319943430056329"><ele>258.59999999999997</ele><time>2026-05-02T14:23:04Z</time></trkpt><trkpt lat="43.579785259979325" lon="11.3198555632624"><ele>258.8</ele><time>2026-05-02T14:23:05Z</time></trkpt><trkpt lat="43.579735313252044" lon="11.319764850192568"><ele>259.0</ele><time>2026-05-02T14:23:06Z</time></trkpt><trkpt lat="43.5797636606635" lon="11.31964179171065"><ele>257.3333333333333</ele><time>2026-05-02T14:23:07Z</time></trkpt><trkpt lat="43.57978520813606" lon="11.319521663614745"><ele>255.66666666666666</ele><time>2026-05-02T14:23:08Z</time></trkpt><trkpt lat="43.57979768638184" lon="11.3193962464808"><ele>254.0</ele><time>2026-05-02T14:23:09Z</time></trkpt><trkpt lat="43.57982450119752" lon="11.319277567877242"><ele>252.33333333333331</ele><time>2026-05-02T14:23:10Z</time></trkpt><trkpt lat="43.57984382729226" lon="11.319159473537498"><ele>250.66666666666666</ele><time>2026-05-02T14:23:11Z</time></trkpt><trkpt lat="43.57987674863753" lon="11.319069175424845"><ele>249.0</ele><time>2026-05-02T14:23:12Z</time></trkpt><trkpt lat="43.57993416760994" lon="11.319007361744081"><ele>249.0</ele><time>2026-05-02T14:23:13Z</time></trkpt><trkpt lat="43.58002341002874" lon="11.319016257938038"><ele>248.99999999999997</ele><time>2026-05-02T14:23:14Z</time></trkpt><trkpt lat="43.58010361153124" lon="11.319035390556865"><ele>248.99999999999997</ele><time>2026-05-02T14:23:15Z</time></trkpt><trkpt lat="43.580200971715165" lon="11.319025142118267"><ele>249.0</ele><time>2026-05-02T14:23:16Z</time></trkpt><trkpt lat="43.580297454772605" lon="11.319014986009678"><ele>249.0</ele><time>2026-05-02T14:23:17Z</time></trkpt><trkpt lat="43.58038892971446" lon="11.319005357070829"><ele>248.0</ele><time>2026-05-02T14:23:18Z</time></trkpt><trkpt lat="43.580474312610974" lon="11.318975817178641"><ele>247.0</ele><time>2026-05-02T14:23:19Z</time></trkpt><trkpt lat="43.58055409958791" lon="11.31897588718907"><ele>246.0</ele><time>2026-05-02T14:23:20Z</time></trkpt><trkpt lat="43.58063846292366" lon="11.318971645957783"><ele>245.0</ele><time>2026-05-02T14:23:21Z</time></trkpt><trkpt lat="43.58072088190226" lon="11.318968200995934"><ele>244.0</ele><time>2026-05-02T14:23:22Z</time></trkpt><trkpt lat="43.58079873935114" lon="11.318960340408355"><ele>243.0</ele><time>2026-05-02T14:23:23Z</time></trkpt><trkpt lat="43.58087191601581" lon="11.318954810862655"><ele>243.0</ele><time>2026-05-02T14:23:24Z</time></trkpt><trkpt lat="43.58094383022905" lon="11.318951833296255"><ele>243.0</ele><time>2026-05-02T14:23:25Z</time></trkpt><trkpt lat="43.581025415568284" lon="11.318945424489305"><ele>243.0</ele><time>2026-05-02T14:23:26Z</time></trkpt><trkpt lat="43.58110927429077" lon="11.318935505106875"><ele>243.0</ele><time>2026-05-02T14:23:27Z</time></trkpt><trkpt lat="43.581181149184424" lon="11.318926671593754"><ele>243.0</ele><time>2026-05-02T14:23:28Z</time></trkpt><trkpt lat="43.5812463228684" lon="11.31892520496592"><ele>243.0</ele><time>2026-05-02T14:23:29Z</time></trkpt><trkpt lat="43.58135749974997" lon="11.318917235167008"><ele>243.0</ele><time>2026-05-02T14:23:31Z</time></trkpt><trkpt lat="43.58143467186486" lon="11.318899635473446"><ele>243.0</ele><time>2026-05-02T14:23:33Z</time></trkpt><trkpt lat="43.58153208214121" lon="11.31894950439871"><ele>243.0</ele><time>2026-05-02T14:24:16Z</time></trkpt><trkpt lat="43.58161661118852" lon="11.3190304327068"><ele>243.0</ele><time>2026-05-02T14:24:17Z</time></trkpt><trkpt lat="43.581713667822434" lon="11.319092092864887"><ele>243.0</ele><time>2026-05-02T14:24:18Z</time></trkpt><trkpt lat="43.58183588841517" lon="11.319171353959396"><ele>243.0</ele><time>2026-05-02T14:24:19Z</time></trkpt><trkpt lat="43.58197819633533" lon="11.319231231892378"><ele>243.0</ele><time>2026-05-02T14:24:20Z</time></trkpt><trkpt lat="43.58212584898384" lon="11.319287203191822"><ele>243.0</ele><time>2026-05-02T14:24:21Z</time></trkpt><trkpt lat="43.58228092657789" lon="11.319324443890622"><ele>241.75</ele><time>2026-05-02T14:24:22Z</time></trkpt><trkpt lat="43.58241664653771" lon="11.31940343656309"><ele>240.5</ele><time>2026-05-02T14:24:23Z</time></trkpt><trkpt lat="43.582544129117785" lon="11.319436905129578"><ele>239.25</ele><time>2026-05-02T14:24:24Z</time></trkpt><trkpt lat="43.58265501141304" lon="11.319468452024319"><ele>238.0</ele><time>2026-05-02T14:24:25Z</time></trkpt><trkpt lat="43.58276298018365" lon="11.319488242488852"><ele>239.2</ele><time>2026-05-02T14:24:26Z</time></trkpt><trkpt lat="43.58287318454906" lon="11.319480636932981"><ele>240.4</ele><time>2026-05-02T14:24:27Z</time></trkpt><trkpt lat="43.582967633240294" lon="11.31945623738739"><ele>241.59999999999997</ele><time>2026-05-02T14:24:28Z</time></trkpt><trkpt lat="43.58303953283347" lon="11.319435124088299"><ele>242.79999999999998</ele><time>2026-05-02T14:24:29Z</time></trkpt><trkpt lat="43.58311730386155" lon="11.31941381138279"><ele>244.0</ele><time>2026-05-02T14:24:31Z</time></trkpt><trkpt lat="43.58312891968186" lon="11.319197652750743"><ele>244.0</ele><time>2026-05-02T14:24:36Z</time></trkpt><trkpt lat="43.58310442952666" lon="11.319060552945869"><ele>244.0</ele><time>2026-05-02T14:24:37Z</time></trkpt><trkpt lat="43.58308719258288" lon="11.31891099983274"><ele>244.0</ele><time>2026-05-02T14:24:38Z</time></trkpt><trkpt lat="43.583075417374715" lon="11.318748460336465"><ele>244.0</ele><time>2026-05-02T14:24:39Z</time></trkpt><trkpt lat="43.58305593783797" lon="11.318569019536756"><ele>241.75</ele><time>2026-05-02T14:24:40Z</time></trkpt><trkpt lat="43.58303947892047" lon="11.318382517186995"><ele>239.5</ele><time>2026-05-02T14:24:41Z</time></trkpt><trkpt lat="43.58302593384412" lon="11.318216958995725"><ele>237.25</ele><time>2026-05-02T14:24:42Z</time></trkpt><trkpt lat="43.58300625332455" lon="11.31807447916944"><ele>235.0</ele><time>2026-05-02T14:24:43Z</time></trkpt><trkpt lat="43.58299065800984" lon="11.31794680494602"><ele>234.85714285714283</ele><time>2026-05-02T14:24:44Z</time></trkpt><trkpt lat="43.582926482225766" lon="11.317937715244815"><ele>234.7142857142857</ele><time>2026-05-02T14:24:55Z</time></trkpt><trkpt lat="43.58290098187825" lon="11.317854040671271"><ele>234.57142857142856</ele><time>2026-05-02T14:25:44Z</time></trkpt><trkpt lat="43.582863238046826" lon="11.317755588496953"><ele>234.42857142857144</ele><time>2026-05-02T14:25:46Z</time></trkpt><trkpt lat="43.58276386058586" lon="11.317764860031927"><ele>234.2857142857143</ele><time>2026-05-02T14:25:48Z</time></trkpt><trkpt lat="43.58270066882425" lon="11.317805722110126"><ele>234.14285714285717</ele><time>2026-05-02T14:25:49Z</time></trkpt><trkpt lat="43.58263515702434" lon="11.317806872262901"><ele>234.0</ele><time>2026-05-02T14:25:50Z</time></trkpt><trkpt lat="43.58254918223884" lon="11.317839808095048"><ele>233.83333333333334</ele><time>2026-05-02T14:25:52Z</time></trkpt><trkpt lat="43.58248489610029" lon="11.317835981509349"><ele>233.66666666666669</ele><time>2026-05-02T14:27:10Z</time></trkpt><trkpt lat="43.582436952618366" lon="11.317894968373167"><ele>233.5</ele><time>2026-05-02T14:27:20Z</time></trkpt><trkpt lat="43.58240401125278" lon="11.3180253558235"><ele>233.33333333333334</ele><time>2026-05-02T14:30:20Z</time></trkpt><trkpt lat="43.582453063338214" lon="11.318129798408942"><ele>233.16666666666669</ele><time>2026-05-02T14:30:25Z</time></trkpt><trkpt lat="43.58238150790427" lon="11.318115725829557"><ele>233.0</ele><time>2026-05-02T14:31:19Z</time></trkpt><trkpt lat="43.58240837658769" lon="11.318036083571918"><ele>233.50000000000003</ele><time>2026-05-02T14:31:20Z</time></trkpt><trkpt lat="43.582412245224766" lon="11.317948154570825"><ele>234.0</ele><time>2026-05-02T14:31:25Z</time></trkpt><trkpt lat="43.582334300949405" lon="11.31788717734658"><ele>234.5</ele><time>2026-05-02T14:50:27Z</time></trkpt><trkpt lat="43.58226639418616" lon="11.317934790049158"><ele>235.0</ele><time>2026-05-02T14:50:28Z</time></trkpt><trkpt lat="43.58219630172257" lon="11.317952781032933"><ele>235.50000000000003</ele><time>2026-05-02T14:50:29Z</time></trkpt><trkpt lat="43.58211409538509" lon="11.31797706506875"><ele>236.0</ele><time>2026-05-02T14:50:30Z</time></trkpt><trkpt lat="43.58203482577909" lon="11.317974978714618"><ele>236.60000000000002</ele><time>2026-05-02T14:50:31Z</time></trkpt><trkpt lat="43.581953917462116" lon="11.317956733969075"><ele>237.20000000000002</ele><time>2026-05-02T14:50:32Z</time></trkpt><trkpt lat="43.581859945072075" lon="11.317931017993258"><ele>237.79999999999998</ele><time>2026-05-02T14:50:33Z</time></trkpt><trkpt lat="43.5817664627977" lon="11.31790695771394"><ele>238.39999999999998</ele><time>2026-05-02T14:50:34Z</time></trkpt><trkpt lat="43.58167806628163" lon="11.317883301919617"><ele>239.0</ele><time>2026-05-02T14:50:35Z</time></trkpt><trkpt lat="43.58158105275384" lon="11.31786768920639"><ele>239.0</ele><time>2026-05-02T14:50:36Z</time></trkpt><trkpt lat="43.581471701098835" lon="11.317864602282462"><ele>238.99999999999997</ele><time>2026-05-02T14:50:37Z</time></trkpt><trkpt lat="43.58136027792312" lon="11.317872835056281"><ele>238.99999999999997</ele><time>2026-05-02T14:50:38Z</time></trkpt><trkpt lat="43.58126016578857" lon="11.317883502250723"><ele>239.0</ele><time>2026-05-02T14:50:39Z</time></trkpt><trkpt lat="43.581161574986126" lon="11.317899472372448"><ele>239.0</ele><time>2026-05-02T14:50:40Z</time></trkpt><trkpt lat="43.58107081571816" lon="11.317907263291122"><ele>238.66666666666669</ele><time>2026-05-02T14:50:41Z</time></trkpt><trkpt lat="43.58099231268227" lon="11.31790824266859"><ele>238.33333333333334</ele><time>2026-05-02T14:50:42Z</time></trkpt><trkpt lat="43.58091996339311" lon="11.317886648757632"><ele>238.0</ele><time>2026-05-02T14:50:43Z</time></trkpt><trkpt lat="43.580857916411084" lon="11.317787496925146"><ele>237.66666666666669</ele><time>2026-05-02T14:50:44Z</time></trkpt><trkpt lat="43.580770143160215" lon="11.317742604161975"><ele>237.33333333333334</ele><time>2026-05-02T14:50:45Z</time></trkpt><trkpt lat="43.580716193608865" lon="11.317674968378586"><ele>237.0</ele><time>2026-05-02T14:50:46Z</time></trkpt><trkpt lat="43.58059167335038" lon="11.31758011686914"><ele>237.0</ele><time>2026-05-02T14:50:48Z</time></trkpt><trkpt lat="43.58050056909817" lon="11.317516562948668"><ele>237.0</ele><time>2026-05-02T14:50:49Z</time></trkpt><trkpt lat="43.58040407572464" lon="11.317433383014516"><ele>237.0</ele><time>2026-05-02T14:50:50Z</time></trkpt><trkpt lat="43.58030467864195" lon="11.317337292456811"><ele>237.0</ele><time>2026-05-02T14:50:51Z</time></trkpt><trkpt lat="43.580222326433926" lon="11.317228944499988"><ele>238.2</ele><time>2026-05-02T14:50:52Z</time></trkpt><trkpt lat="43.58014107633246" lon="11.317122525896629"><ele>239.39999999999998</ele><time>2026-05-02T14:50:53Z</time></trkpt><trkpt lat="43.5800588695907" lon="11.317044335095447"><ele>240.60000000000002</ele><time>2026-05-02T14:50:54Z</time></trkpt><trkpt lat="43.579969277735124" lon="11.316987093532946"><ele>241.8</ele><time>2026-05-02T14:50:55Z</time></trkpt><trkpt lat="43.579871357131445" lon="11.316953975070502"><ele>243.0</ele><time>2026-05-02T14:50:56Z</time></trkpt><trkpt lat="43.57977499477423" lon="11.316929051358168"><ele>243.0</ele><time>2026-05-02T14:50:57Z</time></trkpt><trkpt lat="43.57969583357918" lon="11.316896681420438"><ele>243.0</ele><time>2026-05-02T14:50:58Z</time></trkpt><trkpt lat="43.579609520571964" lon="11.316875609244061"><ele>243.0</ele><time>2026-05-02T14:50:59Z</time></trkpt><trkpt lat="43.57951953485784" lon="11.31684078331816"><ele>243.0</ele><time>2026-05-02T14:51:00Z</time></trkpt><trkpt lat="43.57942421632194" lon="11.316808338332448"><ele>243.0</ele><time>2026-05-02T14:51:01Z</time></trkpt><trkpt lat="43.579312768322254" lon="11.31676965425778"><ele>242.0</ele><time>2026-05-02T14:51:01.999Z</time></trkpt><trkpt lat="43.579197594409216" lon="11.316725158728504"><ele>241.0</ele><time>2026-05-02T14:51:02.999Z</time></trkpt><trkpt lat="43.579085410344746" lon="11.316703454440077"><ele>240.0</ele><time>2026-05-02T14:51:03.999Z</time></trkpt><trkpt lat="43.578979252436184" lon="11.316662826986652"><ele>239.0</ele><time>2026-05-02T14:51:04.999Z</time></trkpt><trkpt lat="43.57887072352917" lon="11.31661717973599"><ele>239.0</ele><time>2026-05-02T14:51:05.999Z</time></trkpt><trkpt lat="43.578750055933135" lon="11.31657479562078"><ele>239.0</ele><time>2026-05-02T14:51:06.999Z</time></trkpt><trkpt lat="43.57861887967671" lon="11.316546277043535"><ele>239.0</ele><time>2026-05-02T14:51:07.999Z</time></trkpt><trkpt lat="43.57848164863376" lon="11.316530339750765"><ele>239.0</ele><time>2026-05-02T14:51:08.999Z</time></trkpt><trkpt lat="43.57833636528363" lon="11.316544010222692"><ele>239.25</ele><time>2026-05-02T14:51:09.999Z</time></trkpt><trkpt lat="43.57818949673329" lon="11.316587059245142"><ele>239.5</ele><time>2026-05-02T14:51:10.999Z</time></trkpt><trkpt lat="43.578041591128816" lon="11.316630124235818"><ele>239.75</ele><time>2026-05-02T14:51:11.999Z</time></trkpt><trkpt lat="43.57789937072517" lon="11.31667660887894"><ele>240.0</ele><time>2026-05-02T14:51:12.999Z</time></trkpt><trkpt lat="43.57777939457207" lon="11.316719790720917"><ele>240.8</ele><time>2026-05-02T14:51:13.999Z</time></trkpt><trkpt lat="43.57767226130307" lon="11.316764079157291"><ele>241.6</ele><time>2026-05-02T14:51:14.999Z</time></trkpt><trkpt lat="43.57757766555293" lon="11.316802120933913"><ele>242.39999999999998</ele><time>2026-05-02T14:51:15.999Z</time></trkpt><trkpt lat="43.57748404374174" lon="11.316833782506544"><ele>243.2</ele><time>2026-05-02T14:51:16.999Z</time></trkpt><trkpt lat="43.577382534053484" lon="11.316872624167935"><ele>244.0</ele><time>2026-05-02T14:51:17.999Z</time></trkpt><trkpt lat="43.577257960290844" lon="11.316922970364136"><ele>244.0</ele><time>2026-05-02T14:51:18.999Z</time></trkpt><trkpt lat="43.57711231426447" lon="11.316975000686956"><ele>244.0</ele><time>2026-05-02T14:51:19.999Z</time></trkpt><trkpt lat="43.57695164732689" lon="11.31704535751191"><ele>244.0</ele><time>2026-05-02T14:51:20.999Z</time></trkpt><trkpt lat="43.57678205475875" lon="11.317136245882411"><ele>242.66666666666666</ele><time>2026-05-02T14:51:21.999Z</time></trkpt><trkpt lat="43.57661169447002" lon="11.317218475922594"><ele>241.33333333333331</ele><time>2026-05-02T14:51:22.999Z</time></trkpt><trkpt lat="43.57643949174142" lon="11.31730512950649"><ele>240.0</ele><time>2026-05-02T14:51:23.999Z</time></trkpt><trkpt lat="43.5762853704766" lon="11.317379360803828"><ele>241.33333333333331</ele><time>2026-05-02T14:51:24.999Z</time></trkpt><trkpt lat="43.57614030195222" lon="11.317461612288373"><ele>242.66666666666666</ele><time>2026-05-02T14:51:25.999Z</time></trkpt><trkpt lat="43.576003514092676" lon="11.31753768195542"><ele>244.0</ele><time>2026-05-02T14:51:26.999Z</time></trkpt><trkpt lat="43.57586837171157" lon="11.317611324520763"><ele>244.0</ele><time>2026-05-02T14:51:27.999Z</time></trkpt><trkpt lat="43.57573328869166" lon="11.31767878282838"><ele>244.0</ele><time>2026-05-02T14:51:28.999Z</time></trkpt><trkpt lat="43.57558347429343" lon="11.31775404260967"><ele>244.0</ele><time>2026-05-02T14:51:29.999Z</time></trkpt><trkpt lat="43.575431903622444" lon="11.317832551249852"><ele>243.66666666666666</ele><time>2026-05-02T14:51:30.999Z</time></trkpt><trkpt lat="43.575273698142084" lon="11.317913834129254"><ele>243.33333333333331</ele><time>2026-05-02T14:51:31.999Z</time></trkpt><trkpt lat="43.57511546286909" lon="11.317995536469578"><ele>243.0</ele><time>2026-05-02T14:51:32.999Z</time></trkpt><trkpt lat="43.574965607429334" lon="11.318070183441039"><ele>243.0</ele><time>2026-05-02T14:51:33.999Z</time></trkpt><trkpt lat="43.57481801543719" lon="11.318145570649087"><ele>243.0</ele><time>2026-05-02T14:51:34.999Z</time></trkpt><trkpt lat="43.5746711412426" lon="11.31821592105205"><ele>243.0</ele><time>2026-05-02T14:51:35.999Z</time></trkpt><trkpt lat="43.57452464862671" lon="11.318286046744314"><ele>248.0</ele><time>2026-05-02T14:51:36.999Z</time></trkpt><trkpt lat="43.57437282920551" lon="11.318347169679388"><ele>253.0</ele><time>2026-05-02T14:51:37.999Z</time></trkpt><trkpt lat="43.574228277344496" lon="11.318419778753102"><ele>258.0</ele><time>2026-05-02T14:51:38.999Z</time></trkpt><trkpt lat="43.57406949592936" lon="11.318499535403397"><ele>258.0</ele><time>2026-05-02T14:51:39.999Z</time></trkpt><trkpt lat="43.573913603282925" lon="11.318577841011907"><ele>258.0</ele><time>2026-05-02T14:51:40.999Z</time></trkpt><trkpt lat="43.57375383732271" lon="11.318658470389442"><ele>258.0</ele><time>2026-05-02T14:51:41.999Z</time></trkpt><trkpt lat="43.57360471301979" lon="11.318734384776874"><ele>255.0</ele><time>2026-05-02T14:51:42.999Z</time></trkpt><trkpt lat="43.57345697516393" lon="11.3188084536229"><ele>252.0</ele><time>2026-05-02T14:51:43.999Z</time></trkpt><trkpt lat="43.57331455245977" lon="11.318877797292574"><ele>249.0</ele><time>2026-05-02T14:51:44.999Z</time></trkpt><trkpt lat="43.57317573041603" lon="11.318980840057854"><ele>249.0</ele><time>2026-05-02T14:51:45.999Z</time></trkpt><trkpt lat="43.573022606972735" lon="11.319060859461223"><ele>249.0</ele><time>2026-05-02T14:51:46.999Z</time></trkpt><trkpt lat="43.5728734572133" lon="11.319137908539481"><ele>249.0</ele><time>2026-05-02T14:51:47.999Z</time></trkpt><trkpt lat="43.572722735036116" lon="11.319213728608677"><ele>252.0</ele><time>2026-05-02T14:51:48.999Z</time></trkpt><trkpt lat="43.57256848919653" lon="11.319287304804728"><ele>255.0</ele><time>2026-05-02T14:51:49.999Z</time></trkpt><trkpt lat="43.57241749561915" lon="11.319363739707413"><ele>258.0</ele><time>2026-05-02T14:51:50.999Z</time></trkpt><trkpt lat="43.57226034057802" lon="11.319406362631836"><ele>258.0</ele><time>2026-05-02T14:51:51.999Z</time></trkpt><trkpt lat="43.57211227443606" lon="11.319481064644856"><ele>258.0</ele><time>2026-05-02T14:51:52.999Z</time></trkpt><trkpt lat="43.57196558800636" lon="11.319556052729675"><ele>258.0</ele><time>2026-05-02T14:51:53.999Z</time></trkpt><trkpt lat="43.57182340857115" lon="11.319628736889463"><ele>256.0</ele><time>2026-05-02T14:51:54.999Z</time></trkpt><trkpt lat="43.571684332275524" lon="11.319696885754515"><ele>254.0</ele><time>2026-05-02T14:51:55.999Z</time></trkpt><trkpt lat="43.5715468863515" lon="11.319764898980305"><ele>252.0</ele><time>2026-05-02T14:51:56.999Z</time></trkpt><trkpt lat="43.57140920518724" lon="11.31983302861654"><ele>250.0</ele><time>2026-05-02T14:51:57.999Z</time></trkpt><trkpt lat="43.571271508300036" lon="11.31990116603029"><ele>252.25</ele><time>2026-05-02T14:51:58.999Z</time></trkpt><trkpt lat="43.571142143313196" lon="11.31998725319754"><ele>254.5</ele><time>2026-05-02T14:51:59.999Z</time></trkpt><trkpt lat="43.571001690844724" lon="11.320055711522949"><ele>256.75</ele><time>2026-05-02T14:52:00.999Z</time></trkpt><trkpt lat="43.5708689310998" lon="11.320116093602323"><ele>259.0</ele><time>2026-05-02T14:52:01.999Z</time></trkpt><trkpt lat="43.5707432882131" lon="11.320174516120632"><ele>259.0</ele><time>2026-05-02T14:52:02.999Z</time></trkpt><trkpt lat="43.57062008455688" lon="11.320234152500534"><ele>259.0</ele><time>2026-05-02T14:52:03.999Z</time></trkpt><trkpt lat="43.57049810180967" lon="11.320280961886015"><ele>259.0</ele><time>2026-05-02T14:52:04.999Z</time></trkpt><trkpt lat="43.57037207954826" lon="11.32032421104716"><ele>259.0</ele><time>2026-05-02T14:52:05.999Z</time></trkpt><trkpt lat="43.57024007801098" lon="11.320361351023228"><ele>259.75</ele><time>2026-05-02T14:52:06.999Z</time></trkpt><trkpt lat="43.57010544849883" lon="11.320394902153144"><ele>260.5</ele><time>2026-05-02T14:52:07.999Z</time></trkpt><trkpt lat="43.56997674715713" lon="11.320430973567724"><ele>261.25</ele><time>2026-05-02T14:52:08.999Z</time></trkpt><trkpt lat="43.56985042064766" lon="11.32046043078819"><ele>262.0</ele><time>2026-05-02T14:52:09.999Z</time></trkpt><trkpt lat="43.56973283323328" lon="11.32048015653549"><ele>262.0</ele><time>2026-05-02T14:52:10.999Z</time></trkpt><trkpt lat="43.5696266386011" lon="11.320509981788014"><ele>262.0</ele><time>2026-05-02T14:52:11.999Z</time></trkpt><trkpt lat="43.569529989794965" lon="11.320533581001811"><ele>262.0</ele><time>2026-05-02T14:52:12.999Z</time></trkpt><trkpt lat="43.56943772736051" lon="11.320570397359077"><ele>262.0</ele><time>2026-05-02T14:52:13.999Z</time></trkpt><trkpt lat="43.56934436748015" lon="11.320627982207789"><ele>262.0</ele><time>2026-05-02T14:52:14.999Z</time></trkpt><trkpt lat="43.56926519683352" lon="11.320705768516543"><ele>262.8333333333333</ele><time>2026-05-02T14:52:15.999Z</time></trkpt><trkpt lat="43.56921484619077" lon="11.320803565410742"><ele>263.66666666666663</ele><time>2026-05-02T14:52:16.999Z</time></trkpt><trkpt lat="43.569205107598755" lon="11.320895724518126"><ele>264.5</ele><time>2026-05-02T14:52:17.999Z</time></trkpt><trkpt lat="43.56920748914735" lon="11.320984947755196"><ele>265.3333333333333</ele><time>2026-05-02T14:52:18.999Z</time></trkpt><trkpt lat="43.56919989061391" lon="11.321104256854921"><ele>266.1666666666667</ele><time>2026-05-02T14:52:20.999Z</time></trkpt><trkpt lat="43.56930279711684" lon="11.32119929249525"><ele>267.0</ele><time>2026-05-02T14:52:21.999Z</time></trkpt><trkpt lat="43.569330025151146" lon="11.321340371092463"><ele>266.3333333333333</ele><time>2026-05-02T14:53:24.999Z</time></trkpt><trkpt lat="43.56932766913044" lon="11.321516204263562"><ele>265.6666666666667</ele><time>2026-05-02T14:53:26.999Z</time></trkpt><trkpt lat="43.569320985145104" lon="11.321607981621094"><ele>265.0</ele><time>2026-05-02T14:53:27.999Z</time></trkpt><trkpt lat="43.56931043251594" lon="11.321710139341814"><ele>264.33333333333337</ele><time>2026-05-02T14:53:28.999Z</time></trkpt><trkpt lat="43.569290190370076" lon="11.321805841276191"><ele>263.6666666666667</ele><time>2026-05-02T14:53:29.999Z</time></trkpt><trkpt lat="43.569279091214895" lon="11.321897488666627"><ele>263.0</ele><time>2026-05-02T14:53:30.999Z</time></trkpt><trkpt lat="43.569244003942316" lon="11.321997264748157"><ele>263.0</ele><time>2026-05-02T14:53:31.999Z</time></trkpt><trkpt lat="43.569196668267445" lon="11.322095172430158"><ele>263.0</ele><time>2026-05-02T14:53:32.999Z</time></trkpt><trkpt lat="43.56913510971395" lon="11.322189988553873"><ele>263.0</ele><time>2026-05-02T14:53:33.999Z</time></trkpt><trkpt lat="43.56906898698677" lon="11.322283088849476"><ele>263.0</ele><time>2026-05-02T14:53:34.999Z</time></trkpt><trkpt lat="43.56899641850063" lon="11.32238446658714"><ele>263.0</ele><time>2026-05-02T14:53:35.999Z</time></trkpt><trkpt lat="43.568926311416504" lon="11.322501623379331"><ele>261.0</ele><time>2026-05-02T14:53:36.999Z</time></trkpt><trkpt lat="43.568846868708775" lon="11.322613151494329"><ele>259.0</ele><time>2026-05-02T14:53:37.999Z</time></trkpt><trkpt lat="43.56876979646783" lon="11.322727768671339"><ele>257.0</ele><time>2026-05-02T14:53:38.999Z</time></trkpt><trkpt lat="43.568684666757385" lon="11.322845424725209"><ele>255.0</ele><time>2026-05-02T14:53:39.999Z</time></trkpt><trkpt lat="43.56857138890272" lon="11.322925101136741"><ele>255.2</ele><time>2026-05-02T14:53:40.999Z</time></trkpt><trkpt lat="43.56849892387912" lon="11.32303960321486"><ele>255.4</ele><time>2026-05-02T14:53:41.999Z</time></trkpt><trkpt lat="43.56843126449028" lon="11.323158835231547"><ele>255.60000000000002</ele><time>2026-05-02T14:53:42.999Z</time></trkpt><trkpt lat="43.56838338295388" lon="11.323281168429553"><ele>255.8</ele><time>2026-05-02T14:53:43.999Z</time></trkpt><trkpt lat="43.56832838208421" lon="11.323379704074364"><ele>256.0</ele><time>2026-05-02T14:53:44.999Z</time></trkpt><trkpt lat="43.56827261654929" lon="11.323482235961961"><ele>255.99999999999997</ele><time>2026-05-02T14:53:45.999Z</time></trkpt><trkpt lat="43.5682366353362" lon="11.323608078414011"><ele>256.0</ele><time>2026-05-02T14:53:46.999Z</time></trkpt><trkpt lat="43.56820166315777" lon="11.323734048254986"><ele>256.0</ele><time>2026-05-02T14:53:47.999Z</time></trkpt><trkpt lat="43.56817324868737" lon="11.323847419494589"><ele>256.0</ele><time>2026-05-02T14:53:48.999Z</time></trkpt><trkpt lat="43.56814836049325" lon="11.323942949435507"><ele>255.99999999999997</ele><time>2026-05-02T14:53:49.999Z</time></trkpt><trkpt lat="43.568131132890215" lon="11.324040446292559"><ele>256.0</ele><time>2026-05-02T14:53:50.999Z</time></trkpt><trkpt lat="43.56811033088187" lon="11.324140445144003"><ele>255.33333333333331</ele><time>2026-05-02T14:53:51.999Z</time></trkpt><trkpt lat="43.5680751833918" lon="11.32423713502628"><ele>254.66666666666666</ele><time>2026-05-02T14:53:52.999Z</time></trkpt><trkpt lat="43.5680733172657" lon="11.32433428933327"><ele>254.0</ele><time>2026-05-02T14:53:53.999Z</time></trkpt><trkpt lat="43.568006644326445" lon="11.32445741188475"><ele>253.33333333333331</ele><time>2026-05-02T14:53:55.999Z</time></trkpt><trkpt lat="43.567916084318355" lon="11.324471844500549"><ele>252.66666666666666</ele><time>2026-05-02T14:54:07.999Z</time></trkpt><trkpt lat="43.5678501613597" lon="11.324496939803392"><ele>252.0</ele><time>2026-05-02T14:54:08.999Z</time></trkpt><trkpt lat="43.56776297314071" lon="11.324526262497338"><ele>252.0</ele><time>2026-05-02T14:54:09.999Z</time></trkpt><trkpt lat="43.5676719393807" lon="11.324576425790042"><ele>252.0</ele><time>2026-05-02T14:54:10.999Z</time></trkpt><trkpt lat="43.56757175565586" lon="11.32461239503257"><ele>252.0</ele><time>2026-05-02T14:54:11.999Z</time></trkpt><trkpt lat="43.567463076346044" lon="11.32465002142177"><ele>252.0</ele><time>2026-05-02T14:54:12.999Z</time></trkpt><trkpt lat="43.56735825166152" lon="11.324690958857504"><ele>252.0</ele><time>2026-05-02T14:54:13.999Z</time></trkpt><trkpt lat="43.56725386533595" lon="11.324755195340884"><ele>252.0</ele><time>2026-05-02T14:54:14.999Z</time></trkpt><trkpt lat="43.567138165111494" lon="11.324813352834843"><ele>252.0</ele><time>2026-05-02T14:54:15.999Z</time></trkpt><trkpt lat="43.56701947575486" lon="11.324916029065395"><ele>252.0</ele><time>2026-05-02T14:54:16.999Z</time></trkpt><trkpt lat="43.566897778139364" lon="11.325026968128272"><ele>252.0</ele><time>2026-05-02T14:54:17.999Z</time></trkpt><trkpt lat="43.56677030093694" lon="11.325140430987004"><ele>252.0</ele><time>2026-05-02T14:54:18.999Z</time></trkpt><trkpt lat="43.566638397537574" lon="11.32525783347239"><ele>252.0</ele><time>2026-05-02T14:54:19.999Z</time></trkpt><trkpt lat="43.56651282127431" lon="11.32540095165751"><ele>252.0</ele><time>2026-05-02T14:54:20.999Z</time></trkpt><trkpt lat="43.566376533523645" lon="11.325518883460733"><ele>252.66666666666669</ele><time>2026-05-02T14:54:21.999Z</time></trkpt><trkpt lat="43.5662480104287" lon="11.325633071592119"><ele>253.33333333333334</ele><time>2026-05-02T14:54:22.999Z</time></trkpt><trkpt lat="43.56612748284174" lon="11.325750747963811"><ele>254.0</ele><time>2026-05-02T14:54:23.999Z</time></trkpt><trkpt lat="43.566007057578695" lon="11.325878437462565"><ele>254.33333333333334</ele><time>2026-05-02T14:54:24.999Z</time></trkpt><trkpt lat="43.56586256136203" lon="11.326003176436657"><ele>254.66666666666669</ele><time>2026-05-02T14:54:25.999Z</time></trkpt><trkpt lat="43.56572835780401" lon="11.326174027081048"><ele>255.0</ele><time>2026-05-02T14:54:26.999Z</time></trkpt><trkpt lat="43.565590908886136" lon="11.326348712054404"><ele>255.33333333333331</ele><time>2026-05-02T14:54:27.999Z</time></trkpt><trkpt lat="43.565454776776946" lon="11.326541172342662"><ele>255.66666666666666</ele><time>2026-05-02T14:54:28.999Z</time></trkpt><trkpt lat="43.565302179080284" lon="11.326719008465112"><ele>256.0</ele><time>2026-05-02T14:54:29.999Z</time></trkpt><trkpt lat="43.56513813407302" lon="11.326885761326343"><ele>256.0</ele><time>2026-05-02T14:54:30.999Z</time></trkpt><trkpt lat="43.56498628226472" lon="11.327066238126836"><ele>256.0</ele><time>2026-05-02T14:54:31.999Z</time></trkpt><trkpt lat="43.564842593554346" lon="11.327237439382968"><ele>256.0</ele><time>2026-05-02T14:54:32.999Z</time></trkpt><trkpt lat="43.564702598242334" lon="11.32740593894765"><ele>257.0</ele><time>2026-05-02T14:54:33.999Z</time></trkpt><trkpt lat="43.56457193561608" lon="11.327563205640347"><ele>258.0</ele><time>2026-05-02T14:54:34.999Z</time></trkpt><trkpt lat="43.564462520666865" lon="11.327716766373962"><ele>259.0</ele><time>2026-05-02T14:54:35.999Z</time></trkpt><trkpt lat="43.56434893415367" lon="11.327846178054841"><ele>259.0</ele><time>2026-05-02T14:54:36.999Z</time></trkpt><trkpt lat="43.56426271949794" lon="11.32797796897889"><ele>259.0</ele><time>2026-05-02T14:54:37.999Z</time></trkpt><trkpt lat="43.56423665976721" lon="11.328143947431615"><ele>259.0</ele><time>2026-05-02T14:54:38.999Z</time></trkpt><trkpt lat="43.564194113882216" lon="11.328342034043649"><ele>259.0</ele><time>2026-05-02T14:54:39.999Z</time></trkpt><trkpt lat="43.56417667866686" lon="11.328580371838825"><ele>260.0</ele><time>2026-05-02T14:54:40.999Z</time></trkpt><trkpt lat="43.56415413011416" lon="11.328786225214467"><ele>261.0</ele><time>2026-05-02T14:54:41.999Z</time></trkpt><trkpt lat="43.56413900126377" lon="11.328970713058032"><ele>262.0</ele><time>2026-05-02T14:54:42.999Z</time></trkpt><trkpt lat="43.56413455692001" lon="11.329159580973103"><ele>263.0</ele><time>2026-05-02T14:54:43.999Z</time></trkpt><trkpt lat="43.56414422858098" lon="11.329322280304272"><ele>264.1666666666667</ele><time>2026-05-02T14:54:44.999Z</time></trkpt><trkpt lat="43.56414700311583" lon="11.329467753202044"><ele>265.33333333333337</ele><time>2026-05-02T14:54:45.999Z</time></trkpt><trkpt lat="43.56414961227677" lon="11.329602817862423"><ele>266.5</ele><time>2026-05-02T14:54:46.999Z</time></trkpt><trkpt lat="43.56415053777254" lon="11.329723301822897"><ele>267.6666666666667</ele><time>2026-05-02T14:54:47.999Z</time></trkpt><trkpt lat="43.56414250105827" lon="11.329832381670672"><ele>268.8333333333333</ele><time>2026-05-02T14:54:48.999Z</time></trkpt><trkpt lat="43.56412073954384" lon="11.32993179121885"><ele>270.0</ele><time>2026-05-02T14:54:49.999Z</time></trkpt><trkpt lat="43.564039353585954" lon="11.329986793819957"><ele>270.75</ele><time>2026-05-02T14:54:50.999Z</time></trkpt><trkpt lat="43.563960345320524" lon="11.330049657966272"><ele>271.5</ele><time>2026-05-02T14:54:51.999Z</time></trkpt><trkpt lat="43.56385951665709" lon="11.330157190079499"><ele>272.25</ele><time>2026-05-02T14:54:52.999Z</time></trkpt><trkpt lat="43.56374029731451" lon="11.330269215839346"><ele>273.0</ele><time>2026-05-02T14:54:53.999Z</time></trkpt><trkpt lat="43.56361841749652" lon="11.33035682364269"><ele>271.6</ele><time>2026-05-02T14:54:54.999Z</time></trkpt><trkpt lat="43.563500146211695" lon="11.330407955232356"><ele>270.20000000000005</ele><time>2026-05-02T14:54:55.999Z</time></trkpt><trkpt lat="43.56339586789253" lon="11.33044839500246"><ele>268.8</ele><time>2026-05-02T14:54:56.999Z</time></trkpt><trkpt lat="43.56330396694029" lon="11.3304537528975"><ele>267.40000000000003</ele><time>2026-05-02T14:54:57.999Z</time></trkpt><trkpt lat="43.5632216179269" lon="11.330430348465566"><ele>266.0</ele><time>2026-05-02T14:54:58.999Z</time></trkpt><trkpt lat="43.56314474484757" lon="11.330358240839145"><ele>266.0</ele><time>2026-05-02T14:54:59.999Z</time></trkpt><trkpt lat="43.56307671234383" lon="11.330224146725522"><ele>266.0</ele><time>2026-05-02T14:55:00.999Z</time></trkpt><trkpt lat="43.5630061468903" lon="11.33003164921511"><ele>266.0</ele><time>2026-05-02T14:55:01.999Z</time></trkpt><trkpt lat="43.56293636173894" lon="11.329789963621133"><ele>266.25</ele><time>2026-05-02T14:55:02.999Z</time></trkpt><trkpt lat="43.56285522555263" lon="11.329587635704316"><ele>266.5</ele><time>2026-05-02T14:55:03.999Z</time></trkpt><trkpt lat="43.56279340929522" lon="11.329420326548908"><ele>266.75</ele><time>2026-05-02T14:55:04.999Z</time></trkpt><trkpt lat="43.5627153309249" lon="11.329285342648419"><ele>267.0</ele><time>2026-05-02T14:55:05.999Z</time></trkpt><trkpt lat="43.56261174305828" lon="11.32919920504387"><ele>267.0</ele><time>2026-05-02T14:55:06.999Z</time></trkpt><trkpt lat="43.562481702631345" lon="11.329151325736303"><ele>267.0</ele><time>2026-05-02T14:55:07.999Z</time></trkpt><trkpt lat="43.562329295290496" lon="11.329135244545073"><ele>267.0</ele><time>2026-05-02T14:55:08.999Z</time></trkpt><trkpt lat="43.56217215994164" lon="11.329153282287056"><ele>267.0</ele><time>2026-05-02T14:55:09.999Z</time></trkpt><trkpt lat="43.56201033966878" lon="11.329211204061071"><ele>269.0</ele><time>2026-05-02T14:55:10.999Z</time></trkpt><trkpt lat="43.56185810168427" lon="11.329269232437666"><ele>271.0</ele><time>2026-05-02T14:55:11.999Z</time></trkpt><trkpt lat="43.56171204197717" lon="11.329316743555662"><ele>273.0</ele><time>2026-05-02T14:55:12.999Z</time></trkpt><trkpt lat="43.561576053924014" lon="11.329350555549274"><ele>275.0</ele><time>2026-05-02T14:55:13.999Z</time></trkpt><trkpt lat="43.56144696313121" lon="11.329361753702994"><ele>275.0</ele><time>2026-05-02T14:55:14.999Z</time></trkpt><trkpt lat="43.561326901980344" lon="11.329326402272947"><ele>275.0</ele><time>2026-05-02T14:55:15.999Z</time></trkpt><trkpt lat="43.56122623014736" lon="11.329275852048163"><ele>275.0</ele><time>2026-05-02T14:55:16.999Z</time></trkpt><trkpt lat="43.56113736241253" lon="11.329265749338896"><ele>275.0</ele><time>2026-05-02T14:55:17.999Z</time></trkpt><trkpt lat="43.561046476133384" lon="11.32931789771058"><ele>275.0</ele><time>2026-05-02T14:55:18.999Z</time></trkpt><trkpt lat="43.56094852295341" lon="11.329441682020079"><ele>275.33333333333337</ele><time>2026-05-02T14:55:19.999Z</time></trkpt><trkpt lat="43.56082540928338" lon="11.329616227678445"><ele>275.6666666666667</ele><time>2026-05-02T14:55:20.999Z</time></trkpt><trkpt lat="43.56069670836353" lon="11.329737399658553"><ele>276.0</ele><time>2026-05-02T14:55:21.999Z</time></trkpt><trkpt lat="43.560617437844925" lon="11.329869600588978"><ele>278.8333333333333</ele><time>2026-05-02T14:55:22.999Z</time></trkpt><trkpt lat="43.560558904342216" lon="11.329960168364709"><ele>281.6666666666667</ele><time>2026-05-02T14:55:23.999Z</time></trkpt><trkpt lat="43.56053636295396" lon="11.330047313441419"><ele>284.5</ele><time>2026-05-02T14:55:24.999Z</time></trkpt><trkpt lat="43.56056020037691" lon="11.330147513858341"><ele>287.33333333333337</ele><time>2026-05-02T14:55:25.999Z</time></trkpt><trkpt lat="43.56063768234826" lon="11.330224389131935"><ele>290.1666666666667</ele><time>2026-05-02T14:55:26.999Z</time></trkpt><trkpt lat="43.56075084571921" lon="11.330250275380891"><ele>293.0</ele><time>2026-05-02T14:55:27.999Z</time></trkpt><trkpt lat="43.56089778190752" lon="11.330222554337075"><ele>293.0</ele><time>2026-05-02T14:55:28.999Z</time></trkpt><trkpt lat="43.56107288411752" lon="11.330187185758135"><ele>293.0</ele><time>2026-05-02T14:55:29.999Z</time></trkpt><trkpt lat="43.56125315530388" lon="11.33015860657029"><ele>293.0</ele><time>2026-05-02T14:55:30.999Z</time></trkpt><trkpt lat="43.56139535181836" lon="11.330143302985617"><ele>292.33333333333337</ele><time>2026-05-02T14:55:31.999Z</time></trkpt><trkpt lat="43.56149588954051" lon="11.33014813588083"><ele>291.6666666666667</ele><time>2026-05-02T14:55:32.999Z</time></trkpt><trkpt lat="43.56155828484383" lon="11.330209785125758"><ele>291.0</ele><time>2026-05-02T14:55:33.999Z</time></trkpt><trkpt lat="43.56160022355266" lon="11.330284420015902"><ele>290.3333333333333</ele><time>2026-05-02T14:55:34.999Z</time></trkpt><trkpt lat="43.561593467587784" lon="11.330396462149965"><ele>289.66666666666663</ele><time>2026-05-02T14:55:35.999Z</time></trkpt><trkpt lat="43.56153298133571" lon="11.33048773019157"><ele>289.0</ele><time>2026-05-02T14:55:36.999Z</time></trkpt><trkpt lat="43.561425496844784" lon="11.330464336716762"><ele>289.0</ele><time>2026-05-02T14:55:37.999Z</time></trkpt><trkpt lat="43.56130575712474" lon="11.33049467783746"><ele>289.0</ele><time>2026-05-02T14:55:38.999Z</time></trkpt><trkpt lat="43.561160924792205" lon="11.330519546869498"><ele>289.0</ele><time>2026-05-02T14:55:39.999Z</time></trkpt><trkpt lat="43.56101106937702" lon="11.330563877777022"><ele>289.0</ele><time>2026-05-02T14:55:40.999Z</time></trkpt><trkpt lat="43.560871524289865" lon="11.33060716692114"><ele>294.5</ele><time>2026-05-02T14:55:41.999Z</time></trkpt><trkpt lat="43.56073926030113" lon="11.330640361300977"><ele>300.0</ele><time>2026-05-02T14:55:42.999Z</time></trkpt><trkpt lat="43.560611052060366" lon="11.330633549813104"><ele>305.5</ele><time>2026-05-02T14:55:43.999Z</time></trkpt><trkpt lat="43.56048023700035" lon="11.330607658660057"><ele>311.0</ele><time>2026-05-02T14:55:44.999Z</time></trkpt><trkpt lat="43.56035101223719" lon="11.33056238415248"><ele>311.25</ele><time>2026-05-02T14:55:45.999Z</time></trkpt><trkpt lat="43.56022948108392" lon="11.33054856279112"><ele>311.5</ele><time>2026-05-02T14:55:46.999Z</time></trkpt><trkpt lat="43.560114079518655" lon="11.330571047569865"><ele>311.75</ele><time>2026-05-02T14:55:47.999Z</time></trkpt><trkpt lat="43.5599944671465" lon="11.33061440507085"><ele>312.0</ele><time>2026-05-02T14:55:48.999Z</time></trkpt><trkpt lat="43.559854463105054" lon="11.330719767190232"><ele>312.0</ele><time>2026-05-02T14:55:49.999Z</time></trkpt><trkpt lat="43.55968382258233" lon="11.330849484938652"><ele>312.0</ele><time>2026-05-02T14:55:50.999Z</time></trkpt><trkpt lat="43.559483120826656" lon="11.330957861961537"><ele>312.0</ele><time>2026-05-02T14:55:51.999Z</time></trkpt><trkpt lat="43.55929814100633" lon="11.331038799721682"><ele>309.6666666666667</ele><time>2026-05-02T14:55:52.999Z</time></trkpt><trkpt lat="43.55912684157592" lon="11.331134713079312"><ele>307.33333333333337</ele><time>2026-05-02T14:55:53.999Z</time></trkpt><trkpt lat="43.55895818690975" lon="11.331241103794468"><ele>305.0</ele><time>2026-05-02T14:55:54.999Z</time></trkpt><trkpt lat="43.5587941684388" lon="11.331401333735366"><ele>309.25</ele><time>2026-05-02T14:55:55.999Z</time></trkpt><trkpt lat="43.558655595276925" lon="11.3315303938365"><ele>313.5</ele><time>2026-05-02T14:55:56.999Z</time></trkpt><trkpt lat="43.5585217547923" lon="11.331565727359905"><ele>317.75</ele><time>2026-05-02T14:55:57.999Z</time></trkpt><trkpt lat="43.558428009920526" lon="11.331523676671186"><ele>322.0</ele><time>2026-05-02T14:55:58.999Z</time></trkpt><trkpt lat="43.55831562653982" lon="11.331490021171037"><ele>322.0</ele><time>2026-05-02T14:55:59.999Z</time></trkpt><trkpt lat="43.55818292440818" lon="11.331455865770385"><ele>322.0</ele><time>2026-05-02T14:56:00.999Z</time></trkpt><trkpt lat="43.55807475402872" lon="11.33145380378882"><ele>322.0</ele><time>2026-05-02T14:56:01.999Z</time></trkpt><trkpt lat="43.557991755789544" lon="11.331479694567204"><ele>322.0</ele><time>2026-05-02T14:56:02.999Z</time></trkpt><trkpt lat="43.557933207194615" lon="11.331565723264047"><ele>322.0</ele><time>2026-05-02T14:56:03.999Z</time></trkpt><trkpt lat="43.55788490008216" lon="11.33166875865278"><ele>323.0</ele><time>2026-05-02T14:56:04.999Z</time></trkpt><trkpt lat="43.55785981787206" lon="11.331798965807302"><ele>324.0</ele><time>2026-05-02T14:56:05.999Z</time></trkpt><trkpt lat="43.55784688771197" lon="11.331930109980274"><ele>325.0</ele><time>2026-05-02T14:56:06.999Z</time></trkpt><trkpt lat="43.55783273968102" lon="11.332058070124473"><ele>326.0</ele><time>2026-05-02T14:56:07.999Z</time></trkpt><trkpt lat="43.55780908385424" lon="11.332187749695507"><ele>327.0</ele><time>2026-05-02T14:56:08.999Z</time></trkpt><trkpt lat="43.5577536812368" lon="11.332301869690445"><ele>327.0</ele><time>2026-05-02T14:56:09.999Z</time></trkpt><trkpt lat="43.55770356817251" lon="11.332413059800611"><ele>327.0</ele><time>2026-05-02T14:56:10.999Z</time></trkpt><trkpt lat="43.55762929072065" lon="11.332500994092339"><ele>327.0</ele><time>2026-05-02T14:56:11.999Z</time></trkpt><trkpt lat="43.55754311700783" lon="11.33258073043078"><ele>327.0</ele><time>2026-05-02T14:56:12.999Z</time></trkpt><trkpt lat="43.55745211678039" lon="11.332659944509013"><ele>327.0</ele><time>2026-05-02T14:56:13.999Z</time></trkpt><trkpt lat="43.55736366052133" lon="11.33272483766326"><ele>327.0</ele><time>2026-05-02T14:56:14.999Z</time></trkpt><trkpt lat="43.55728531878808" lon="11.332794693713597"><ele>327.0</ele><time>2026-05-02T14:56:15.999Z</time></trkpt><trkpt lat="43.55722033471812" lon="11.332868230796045"><ele>327.0</ele><time>2026-05-02T14:56:16.999Z</time></trkpt><trkpt lat="43.557178988352696" lon="11.332965914813572"><ele>327.0</ele><time>2026-05-02T14:56:17.999Z</time></trkpt><trkpt lat="43.55714864525415" lon="11.333063413494768"><ele>327.0</ele><time>2026-05-02T14:56:18.999Z</time></trkpt><trkpt lat="43.557147312373964" lon="11.333181700621257"><ele>327.0</ele><time>2026-05-02T14:56:19.999Z</time></trkpt><trkpt lat="43.55717466420338" lon="11.333312400355144"><ele>329.0</ele><time>2026-05-02T14:56:20.999Z</time></trkpt><trkpt lat="43.55720807071729" lon="11.333439766291121"><ele>331.0</ele><time>2026-05-02T14:56:21.999Z</time></trkpt><trkpt lat="43.55723042863911" lon="11.333534879960151"><ele>333.0</ele><time>2026-05-02T14:56:22.999Z</time></trkpt><trkpt lat="43.557241827000084" lon="11.333626455942392"><ele>335.0</ele><time>2026-05-02T14:56:23.999Z</time></trkpt><trkpt lat="43.55721258059006" lon="11.333724346965525"><ele>337.0</ele><time>2026-05-02T14:56:24.999Z</time></trkpt><trkpt lat="43.55717393859679" lon="11.333818678381077"><ele>339.0</ele><time>2026-05-02T14:56:25.999Z</time></trkpt><trkpt lat="43.557106664288014" lon="11.333893349244061"><ele>338.75</ele><time>2026-05-02T14:56:26.999Z</time></trkpt><trkpt lat="43.55702861077877" lon="11.33399158281842"><ele>338.5</ele><time>2026-05-02T14:56:27.999Z</time></trkpt><trkpt lat="43.55694361058971" lon="11.3340950997698"><ele>338.25</ele><time>2026-05-02T14:56:28.999Z</time></trkpt><trkpt lat="43.55684919165338" lon="11.334203886805684"><ele>338.0</ele><time>2026-05-02T14:56:29.999Z</time></trkpt><trkpt lat="43.556751256936316" lon="11.334321445404838"><ele>338.0</ele><time>2026-05-02T14:56:30.999Z</time></trkpt><trkpt lat="43.5566686077849" lon="11.334449343240374"><ele>338.0</ele><time>2026-05-02T14:56:31.999Z</time></trkpt><trkpt lat="43.556568227407624" lon="11.334537392959147"><ele>338.0</ele><time>2026-05-02T14:56:32.999Z</time></trkpt><trkpt lat="43.556477487224605" lon="11.334632549563592"><ele>338.0</ele><time>2026-05-02T14:56:33.999Z</time></trkpt><trkpt lat="43.556390540869195" lon="11.334712915528453"><ele>338.2</ele><time>2026-05-02T14:56:34.999Z</time></trkpt><trkpt lat="43.556299883394104" lon="11.334773425076879"><ele>338.4</ele><time>2026-05-02T14:56:35.999Z</time></trkpt><trkpt lat="43.556204523594204" lon="11.334798949050139"><ele>338.59999999999997</ele><time>2026-05-02T14:56:36.999Z</time></trkpt><trkpt lat="43.5561041893809" lon="11.334780430246544"><ele>338.79999999999995</ele><time>2026-05-02T14:56:37.999Z</time></trkpt><trkpt lat="43.55600221839492" lon="11.334728802329165"><ele>339.0</ele><time>2026-05-02T14:56:38.999Z</time></trkpt><trkpt lat="43.55588837532974" lon="11.334677150096638"><ele>339.0</ele><time>2026-05-02T14:56:39.999Z</time></trkpt><trkpt lat="43.55577698492584" lon="11.334635470499155"><ele>339.0</ele><time>2026-05-02T14:56:40.999Z</time></trkpt><trkpt lat="43.5556731494907" lon="11.334606766143716"><ele>339.0</ele><time>2026-05-02T14:56:41.999Z</time></trkpt><trkpt lat="43.55556391928686" lon="11.334627227015677"><ele>339.0</ele><time>2026-05-02T14:56:42.999Z</time></trkpt><trkpt lat="43.55545684267422" lon="11.33463051187877"><ele>339.0</ele><time>2026-05-02T14:56:43.999Z</time></trkpt><trkpt lat="43.555348189665445" lon="11.33465637757978"><ele>339.0</ele><time>2026-05-02T14:56:44.999Z</time></trkpt><trkpt lat="43.55525097617227" lon="11.334699058555074"><ele>339.0</ele><time>2026-05-02T14:56:45.999Z</time></trkpt><trkpt lat="43.55516173868258" lon="11.334762466087732"><ele>339.0</ele><time>2026-05-02T14:56:46.999Z</time></trkpt><trkpt lat="43.555079793246875" lon="11.334845159513055"><ele>339.0</ele><time>2026-05-02T14:56:47.999Z</time></trkpt><trkpt lat="43.55501356321871" lon="11.334950003646123"><ele>339.0</ele><time>2026-05-02T14:56:48.999Z</time></trkpt><trkpt lat="43.55496474204984" lon="11.33507753866352"><ele>341.6</ele><time>2026-05-02T14:56:49.999Z</time></trkpt><trkpt lat="43.554938136894854" lon="11.335198782249773"><ele>344.2</ele><time>2026-05-02T14:56:50.999Z</time></trkpt><trkpt lat="43.55493083991462" lon="11.33531565062345"><ele>346.8</ele><time>2026-05-02T14:56:51.999Z</time></trkpt><trkpt lat="43.554946935379924" lon="11.335440648693428"><ele>349.40000000000003</ele><time>2026-05-02T14:56:52.999Z</time></trkpt><trkpt lat="43.554996663616144" lon="11.33555960327328"><ele>352.0</ele><time>2026-05-02T14:56:53.999Z</time></trkpt><trkpt lat="43.55507906529104" lon="11.335654993896506"><ele>352.0</ele><time>2026-05-02T14:56:54.999Z</time></trkpt><trkpt lat="43.555192580557915" lon="11.335691945671975"><ele>352.0</ele><time>2026-05-02T14:56:55.999Z</time></trkpt><trkpt lat="43.55530055499478" lon="11.335746260259521"><ele>352.0</ele><time>2026-05-02T14:56:56.999Z</time></trkpt><trkpt lat="43.555395479539676" lon="11.33578096340616"><ele>352.0</ele><time>2026-05-02T14:56:57.999Z</time></trkpt><trkpt lat="43.555494134064475" lon="11.335820418115944"><ele>352.0</ele><time>2026-05-02T14:56:58.999Z</time></trkpt><trkpt lat="43.555581934202124" lon="11.335851178280192"><ele>354.8</ele><time>2026-05-02T14:56:59.999Z</time></trkpt><trkpt lat="43.5556674351977" lon="11.335887527725895"><ele>357.6</ele><time>2026-05-02T14:57:00.999Z</time></trkpt><trkpt lat="43.555750715180466" lon="11.335924573484228"><ele>360.40000000000003</ele><time>2026-05-02T14:57:01.999Z</time></trkpt><trkpt lat="43.5558520749959" lon="11.335940252326528"><ele>363.20000000000005</ele><time>2026-05-02T14:57:02.999Z</time></trkpt><trkpt lat="43.55597540771802" lon="11.335933167824638"><ele>366.0</ele><time>2026-05-02T14:57:03.999Z</time></trkpt><trkpt lat="43.5561228580101" lon="11.335903416182303"><ele>367.25</ele><time>2026-05-02T14:57:04.999Z</time></trkpt><trkpt lat="43.55626899770802" lon="11.335885782408589"><ele>368.5</ele><time>2026-05-02T14:57:05.999Z</time></trkpt><trkpt lat="43.55640762411445" lon="11.335873446046119"><ele>369.75</ele><time>2026-05-02T14:57:06.999Z</time></trkpt><trkpt lat="43.55652289255655" lon="11.335866037686447"><ele>371.0</ele><time>2026-05-02T14:57:07.999Z</time></trkpt><trkpt lat="43.556631017654375" lon="11.335853424767478"><ele>371.0</ele><time>2026-05-02T14:57:08.999Z</time></trkpt><trkpt lat="43.556737562211815" lon="11.335843539098558"><ele>371.0</ele><time>2026-05-02T14:57:09.999Z</time></trkpt><trkpt lat="43.55684319005713" lon="11.33583470003809"><ele>371.0</ele><time>2026-05-02T14:57:11Z</time></trkpt><trkpt lat="43.55694899630817" lon="11.335834201783786"><ele>371.0</ele><time>2026-05-02T14:57:12Z</time></trkpt><trkpt lat="43.55704435040877" lon="11.335879451145885"><ele>371.0</ele><time>2026-05-02T14:57:13Z</time></trkpt><trkpt lat="43.55712496544746" lon="11.335922392380901"><ele>371.83333333333337</ele><time>2026-05-02T14:57:14Z</time></trkpt><trkpt lat="43.55718476621214" lon="11.335973439811086"><ele>372.6666666666667</ele><time>2026-05-02T14:57:15Z</time></trkpt><trkpt lat="43.55724029881416" lon="11.336045228481364"><ele>373.5</ele><time>2026-05-02T14:57:16Z</time></trkpt><trkpt lat="43.55729621677342" lon="11.33613719409949"><ele>374.3333333333333</ele><time>2026-05-02T14:57:17Z</time></trkpt><trkpt lat="43.557337355310764" lon="11.336252377445563"><ele>375.16666666666663</ele><time>2026-05-02T14:57:18Z</time></trkpt><trkpt lat="43.55736098261868" lon="11.336396821760262"><ele>376.0</ele><time>2026-05-02T14:57:19Z</time></trkpt><trkpt lat="43.55736043067768" lon="11.336555888681435"><ele>376.0</ele><time>2026-05-02T14:57:20Z</time></trkpt><trkpt lat="43.55736008558363" lon="11.336720545919597"><ele>376.0</ele><time>2026-05-02T14:57:21Z</time></trkpt><trkpt lat="43.55736647162363" lon="11.336867037843206"><ele>376.0</ele><time>2026-05-02T14:57:22Z</time></trkpt><trkpt lat="43.55740942093627" lon="11.337010328504995"><ele>376.0</ele><time>2026-05-02T14:57:23Z</time></trkpt><trkpt lat="43.55744615941511" lon="11.33715790041475"><ele>377.20000000000005</ele><time>2026-05-02T14:57:24Z</time></trkpt><trkpt lat="43.55749717799537" lon="11.337291107949218"><ele>378.40000000000003</ele><time>2026-05-02T14:57:25Z</time></trkpt><trkpt lat="43.55755013090359" lon="11.337408823375567"><ele>379.6</ele><time>2026-05-02T14:57:26Z</time></trkpt><trkpt lat="43.557598184317456" lon="11.337517413904948"><ele>380.8</ele><time>2026-05-02T14:57:27Z</time></trkpt><trkpt lat="43.557633009513346" lon="11.337617631636183"><ele>382.0</ele><time>2026-05-02T14:57:28Z</time></trkpt><trkpt lat="43.55765164723518" lon="11.337732939678263"><ele>382.0</ele><time>2026-05-02T14:57:29Z</time></trkpt><trkpt lat="43.557603949061345" lon="11.337833063153337"><ele>382.0</ele><time>2026-05-02T14:57:30Z</time></trkpt><trkpt lat="43.55756515119579" lon="11.337921293076056"><ele>382.0</ele><time>2026-05-02T14:57:31Z</time></trkpt><trkpt lat="43.55748567130197" lon="11.337954115288204"><ele>382.0</ele><time>2026-05-02T14:57:32Z</time></trkpt><trkpt lat="43.557404885407934" lon="11.337997269295455"><ele>382.0</ele><time>2026-05-02T14:57:33Z</time></trkpt><trkpt lat="43.5573072861739" lon="11.33800570987409"><ele>382.0</ele><time>2026-05-02T14:57:34Z</time></trkpt><trkpt lat="43.55718370249658" lon="11.338018338626792"><ele>382.0</ele><time>2026-05-02T14:57:35Z</time></trkpt><trkpt lat="43.5570676239813" lon="11.33802961897259"><ele>382.0</ele><time>2026-05-02T14:57:36Z</time></trkpt><trkpt lat="43.556954536839655" lon="11.338043698405789"><ele>382.0</ele><time>2026-05-02T14:57:37Z</time></trkpt><trkpt lat="43.55685051438107" lon="11.338075290998793"><ele>382.0</ele><time>2026-05-02T14:57:38Z</time></trkpt><trkpt lat="43.556749305632856" lon="11.338100782258707"><ele>382.0</ele><time>2026-05-02T14:57:39Z</time></trkpt><trkpt lat="43.55666280907733" lon="11.33814468844808"><ele>384.20000000000005</ele><time>2026-05-02T14:57:40Z</time></trkpt><trkpt lat="43.556579088743085" lon="11.338221443150609"><ele>386.4</ele><time>2026-05-02T14:57:41Z</time></trkpt><trkpt lat="43.556496721088564" lon="11.338332458022606"><ele>388.6</ele><time>2026-05-02T14:57:42Z</time></trkpt><trkpt lat="43.55641036499256" lon="11.338434194975921"><ele>390.79999999999995</ele><time>2026-05-02T14:57:43Z</time></trkpt><trkpt lat="43.55632366682783" lon="11.338528357775603"><ele>393.0</ele><time>2026-05-02T14:57:44Z</time></trkpt><trkpt lat="43.55623424720081" lon="11.338610708537882"><ele>393.5</ele><time>2026-05-02T14:57:45Z</time></trkpt><trkpt lat="43.55614728001825" lon="11.338691331567752"><ele>394.0</ele><time>2026-05-02T14:57:46Z</time></trkpt><trkpt lat="43.556059471346366" lon="11.338747925199113"><ele>394.5</ele><time>2026-05-02T14:57:47Z</time></trkpt><trkpt lat="43.55600292066166" lon="11.33882918429784"><ele>395.0</ele><time>2026-05-02T14:57:48Z</time></trkpt><trkpt lat="43.555939083687946" lon="11.338889690992216"><ele>395.5</ele><time>2026-05-02T14:57:49Z</time></trkpt><trkpt lat="43.55588762449252" lon="11.338958871325007"><ele>396.0</ele><time>2026-05-02T14:57:50Z</time></trkpt><trkpt lat="43.55589029377315" lon="11.339076780395642"><ele>396.0</ele><time>2026-05-02T14:57:51Z</time></trkpt><trkpt lat="43.555903749917505" lon="11.339186584627159"><ele>396.0</ele><time>2026-05-02T14:57:52Z</time></trkpt><trkpt lat="43.55594880309111" lon="11.3393117633673"><ele>396.0</ele><time>2026-05-02T14:57:53Z</time></trkpt><trkpt lat="43.55594254992094" lon="11.33943095941467"><ele>396.0</ele><time>2026-05-02T14:57:54Z</time></trkpt><trkpt lat="43.55593627752788" lon="11.339540076524809"><ele>396.0</ele><time>2026-05-02T14:57:55Z</time></trkpt><trkpt lat="43.55588226067438" lon="11.339624970527101"><ele>396.0</ele><time>2026-05-02T14:57:56Z</time></trkpt><trkpt lat="43.55584122881925" lon="11.339726394867872"><ele>398.6666666666667</ele><time>2026-05-02T14:57:57Z</time></trkpt><trkpt lat="43.555797456404136" lon="11.339813936908904"><ele>401.33333333333337</ele><time>2026-05-02T14:57:58Z</time></trkpt><trkpt lat="43.555749328518274" lon="11.339871146166612"><ele>404.0</ele><time>2026-05-02T14:57:59Z</time></trkpt><trkpt lat="43.555615913729824" lon="11.339865599818955"><ele>406.6666666666667</ele><time>2026-05-02T14:58:01Z</time></trkpt><trkpt lat="43.55553313453613" lon="11.339845306260468"><ele>409.33333333333337</ele><time>2026-05-02T14:58:02Z</time></trkpt><trkpt lat="43.55545928625617" lon="11.339838005869455"><ele>412.0</ele><time>2026-05-02T14:58:03Z</time></trkpt><trkpt lat="43.55538675068591" lon="11.339850718504056"><ele>410.0</ele><time>2026-05-02T14:58:04Z</time></trkpt><trkpt lat="43.5553072682505" lon="11.339904811547212"><ele>408.0</ele><time>2026-05-02T14:58:05Z</time></trkpt><trkpt lat="43.555253176157535" lon="11.340018422309766"><ele>406.0</ele><time>2026-05-02T14:58:06Z</time></trkpt><trkpt lat="43.555219856131984" lon="11.340139770390783"><ele>404.0</ele><time>2026-05-02T14:58:07Z</time></trkpt><trkpt lat="43.555188214530865" lon="11.340258086156007"><ele>402.0</ele><time>2026-05-02T14:58:08Z</time></trkpt><trkpt lat="43.555160259067804" lon="11.340369057340853"><ele>402.0</ele><time>2026-05-02T14:58:09Z</time></trkpt><trkpt lat="43.5551594819188" lon="11.34048649572698"><ele>402.0</ele><time>2026-05-02T14:58:10Z</time></trkpt><trkpt lat="43.55513230326736" lon="11.340601216642318"><ele>402.0</ele><time>2026-05-02T14:58:11Z</time></trkpt><trkpt lat="43.555160314313824" lon="11.340729901627459"><ele>402.0</ele><time>2026-05-02T14:58:12Z</time></trkpt><trkpt lat="43.55518344439737" lon="11.340856931815548"><ele>402.0</ele><time>2026-05-02T14:58:13Z</time></trkpt><trkpt lat="43.55521619783636" lon="11.340972797430195"><ele>404.8</ele><time>2026-05-02T14:58:14Z</time></trkpt><trkpt lat="43.5552498362733" lon="11.341089499348803"><ele>407.6</ele><time>2026-05-02T14:58:15Z</time></trkpt><trkpt lat="43.555252228465065" lon="11.341213270608277"><ele>410.40000000000003</ele><time>2026-05-02T14:58:16Z</time></trkpt><trkpt lat="43.5552547651621" lon="11.341325742556043"><ele>413.20000000000005</ele><time>2026-05-02T14:58:17Z</time></trkpt><trkpt lat="43.555228316910075" lon="11.341437641615029"><ele>416.0</ele><time>2026-05-02T14:58:18Z</time></trkpt><trkpt lat="43.55519979010861" lon="11.34157897127046"><ele>419.16666666666663</ele><time>2026-05-02T14:58:19Z</time></trkpt><trkpt lat="43.55516403298879" lon="11.341702833155527"><ele>422.3333333333333</ele><time>2026-05-02T14:58:20Z</time></trkpt><trkpt lat="43.55513331027732" lon="11.341812249109864"><ele>425.5</ele><time>2026-05-02T14:58:21Z</time></trkpt><trkpt lat="43.55510779661253" lon="11.341893920031747"><ele>428.66666666666663</ele><time>2026-05-02T14:58:22Z</time></trkpt><trkpt lat="43.55508165161587" lon="11.341980095768262"><ele>431.8333333333333</ele><time>2026-05-02T14:58:23Z</time></trkpt><trkpt lat="43.555018439393166" lon="11.342008471571056"><ele>435.0</ele><time>2026-05-02T14:58:24Z</time></trkpt><trkpt lat="43.55493422688703" lon="11.341978261513752"><ele>435.0</ele><time>2026-05-02T14:58:25Z</time></trkpt><trkpt lat="43.554831329032176" lon="11.34190824634368"><ele>435.0</ele><time>2026-05-02T14:58:26Z</time></trkpt><trkpt lat="43.554723975176145" lon="11.341861125156235"><ele>435.0</ele><time>2026-05-02T14:58:27Z</time></trkpt><trkpt lat="43.55459453444326" lon="11.341883729619934"><ele>435.0</ele><time>2026-05-02T14:58:28Z</time></trkpt><trkpt lat="43.55447383120967" lon="11.341886111946195"><ele>434.6</ele><time>2026-05-02T14:58:29Z</time></trkpt><trkpt lat="43.55437059786217" lon="11.341859249918137"><ele>434.2</ele><time>2026-05-02T14:58:30Z</time></trkpt><trkpt lat="43.55426713709782" lon="11.341832393871414"><ele>433.79999999999995</ele><time>2026-05-02T14:58:30.999Z</time></trkpt><trkpt lat="43.554174700143186" lon="11.341782685202595"><ele>433.4</ele><time>2026-05-02T14:58:31.999Z</time></trkpt><trkpt lat="43.55408016842006" lon="11.341727734998042"><ele>433.0</ele><time>2026-05-02T14:58:32.999Z</time></trkpt><trkpt lat="43.55399495904592" lon="11.341684105891051"><ele>433.00000000000006</ele><time>2026-05-02T14:58:33.999Z</time></trkpt><trkpt lat="43.55391655911328" lon="11.341658327067671"><ele>433.0</ele><time>2026-05-02T14:58:34.999Z</time></trkpt><trkpt lat="43.55384876193655" lon="11.341628221665939"><ele>433.0</ele><time>2026-05-02T14:58:35.999Z</time></trkpt><trkpt lat="43.55377924856427" lon="11.341643048248615"><ele>433.0</ele><time>2026-05-02T14:58:36.999Z</time></trkpt><trkpt lat="43.55374302356788" lon="11.341755793084015"><ele>433.00000000000006</ele><time>2026-05-02T14:58:37.999Z</time></trkpt><trkpt lat="43.553720465540344" lon="11.341841181905385"><ele>433.0</ele><time>2026-05-02T14:58:38.999Z</time></trkpt><trkpt lat="43.553766176005354" lon="11.341981833127416"><ele>433.0</ele><time>2026-05-02T14:58:39.999Z</time></trkpt><trkpt lat="43.55381500655299" lon="11.342110908227536"><ele>432.99999999999994</ele><time>2026-05-02T14:58:40.999Z</time></trkpt><trkpt lat="43.553876783630194" lon="11.34223578983944"><ele>432.99999999999994</ele><time>2026-05-02T14:58:41.999Z</time></trkpt><trkpt lat="43.5539436411711" lon="11.342349121761796"><ele>433.0</ele><time>2026-05-02T14:58:42.999Z</time></trkpt><trkpt lat="43.5540172373618" lon="11.34244991960883"><ele>433.0</ele><time>2026-05-02T14:58:43.999Z</time></trkpt><trkpt lat="43.55408016756557" lon="11.342550546573626"><ele>434.59999999999997</ele><time>2026-05-02T14:58:44.999Z</time></trkpt><trkpt lat="43.554154795372526" lon="11.342624996819552"><ele>436.19999999999993</ele><time>2026-05-02T14:58:45.999Z</time></trkpt><trkpt lat="43.55423790336795" lon="11.342676114572319"><ele>437.8</ele><time>2026-05-02T14:58:46.999Z</time></trkpt><trkpt lat="43.55432945396213" lon="11.342705905525321"><ele>439.4</ele><time>2026-05-02T14:58:47.999Z</time></trkpt><trkpt lat="43.55442798499078" lon="11.342725082979088"><ele>441.0</ele><time>2026-05-02T14:58:48.999Z</time></trkpt><trkpt lat="43.55451727386624" lon="11.342732072212122"><ele>441.4</ele><time>2026-05-02T14:58:49.999Z</time></trkpt><trkpt lat="43.55461109692707" lon="11.342768401190494"><ele>441.8</ele><time>2026-05-02T14:58:50.999Z</time></trkpt><trkpt lat="43.554694748552485" lon="11.342815833757996"><ele>442.19999999999993</ele><time>2026-05-02T14:58:51.999Z</time></trkpt><trkpt lat="43.55476369185971" lon="11.342914057329347"><ele>442.59999999999997</ele><time>2026-05-02T14:58:52.999Z</time></trkpt><trkpt lat="43.55482536231164" lon="11.342998150229713"><ele>443.0</ele><time>2026-05-02T14:58:53.999Z</time></trkpt><trkpt lat="43.55489262506201" lon="11.343097067277785"><ele>443.0</ele><time>2026-05-02T14:58:54.999Z</time></trkpt><trkpt lat="43.55495492954271" lon="11.343181438075835"><ele>442.99999999999994</ele><time>2026-05-02T14:58:55.999Z</time></trkpt><trkpt lat="43.55502626643981" lon="11.343239224844291"><ele>442.99999999999994</ele><time>2026-05-02T14:58:56.999Z</time></trkpt><trkpt lat="43.555133802798935" lon="11.343262982108609"><ele>443.0</ele><time>2026-05-02T14:58:57.999Z</time></trkpt><trkpt lat="43.555237054780626" lon="11.343275852183794"><ele>443.0</ele><time>2026-05-02T14:58:58.999Z</time></trkpt><trkpt lat="43.55533144461259" lon="11.343284905538699"><ele>444.8333333333333</ele><time>2026-05-02T14:59:00Z</time></trkpt><trkpt lat="43.5554163097589" lon="11.343304912197496"><ele>446.66666666666663</ele><time>2026-05-02T14:59:01Z</time></trkpt><trkpt lat="43.55549822647832" lon="11.343326819250246"><ele>448.5</ele><time>2026-05-02T14:59:02Z</time></trkpt><trkpt lat="43.55558231434971" lon="11.343360819965277"><ele>450.33333333333337</ele><time>2026-05-02T14:59:03Z</time></trkpt><trkpt lat="43.55566631900168" lon="11.343371594916281"><ele>452.1666666666667</ele><time>2026-05-02T14:59:04Z</time></trkpt><trkpt lat="43.55575527569053" lon="11.343369483228907"><ele>454.0</ele><time>2026-05-02T14:59:05Z</time></trkpt><trkpt lat="43.55584361014963" lon="11.343344652348772"><ele>454.00000000000006</ele><time>2026-05-02T14:59:06Z</time></trkpt><trkpt lat="43.55593654776083" lon="11.343362149828215"><ele>454.0</ele><time>2026-05-02T14:59:07Z</time></trkpt><trkpt lat="43.55602060590032" lon="11.34341004366679"><ele>454.0</ele><time>2026-05-02T14:59:08Z</time></trkpt><trkpt lat="43.556091195704816" lon="11.3434806843528"><ele>454.0</ele><time>2026-05-02T14:59:09Z</time></trkpt><trkpt lat="43.556166168188035" lon="11.343551198229191"><ele>454.00000000000006</ele><time>2026-05-02T14:59:10Z</time></trkpt><trkpt lat="43.55623742495904" lon="11.343612860728081"><ele>454.0</ele><time>2026-05-02T14:59:11Z</time></trkpt><trkpt lat="43.55630901084014" lon="11.343674389685187"><ele>454.50000000000006</ele><time>2026-05-02T14:59:12Z</time></trkpt><trkpt lat="43.5563837967028" lon="11.343731471222467"><ele>455.0</ele><time>2026-05-02T14:59:13Z</time></trkpt><trkpt lat="43.55645800745091" lon="11.34378191076265"><ele>455.5</ele><time>2026-05-02T14:59:14Z</time></trkpt><trkpt lat="43.55654066836645" lon="11.34382255676251"><ele>456.0</ele><time>2026-05-02T14:59:15Z</time></trkpt><trkpt lat="43.55661477967102" lon="11.343893002715728"><ele>456.50000000000006</ele><time>2026-05-02T14:59:16Z</time></trkpt><trkpt lat="43.55670565919569" lon="11.343915399977194"><ele>457.0</ele><time>2026-05-02T14:59:17Z</time></trkpt><trkpt lat="43.55673814070466" lon="11.344050121407696"><ele>457.8</ele><time>2026-05-02T14:59:18Z</time></trkpt><trkpt lat="43.556766672412586" lon="11.344167168163622"><ele>458.6</ele><time>2026-05-02T14:59:19Z</time></trkpt><trkpt lat="43.55679425850789" lon="11.344293500371789"><ele>459.40000000000003</ele><time>2026-05-02T14:59:20Z</time></trkpt><trkpt lat="43.556810501639745" lon="11.344430608196904"><ele>460.20000000000005</ele><time>2026-05-02T14:59:21Z</time></trkpt><trkpt lat="43.55676920981754" lon="11.344555311022365"><ele>461.0</ele><time>2026-05-02T14:59:22Z</time></trkpt><trkpt lat="43.55676217211289" lon="11.344673305987481"><ele>460.99999999999994</ele><time>2026-05-02T14:59:23Z</time></trkpt><trkpt lat="43.55676671567722" lon="11.344782196495233"><ele>461.0</ele><time>2026-05-02T14:59:24Z</time></trkpt><trkpt lat="43.556781369537234" lon="11.344885458256382"><ele>461.0</ele><time>2026-05-02T14:59:25Z</time></trkpt><trkpt lat="43.55684511394819" lon="11.344968587799883"><ele>461.0</ele><time>2026-05-02T14:59:26Z</time></trkpt><trkpt lat="43.5568972855504" lon="11.345030382597653"><ele>460.99999999999994</ele><time>2026-05-02T14:59:27Z</time></trkpt><trkpt lat="43.55695488650601" lon="11.345077432161334"><ele>461.0</ele><time>2026-05-02T14:59:28Z</time></trkpt><trkpt lat="43.55701158648035" lon="11.345147606224254"><ele>464.8333333333333</ele><time>2026-05-02T14:59:29Z</time></trkpt><trkpt lat="43.557060725523726" lon="11.345230984090884"><ele>468.66666666666663</ele><time>2026-05-02T14:59:30Z</time></trkpt><trkpt lat="43.557074235225514" lon="11.345356664267337"><ele>472.5</ele><time>2026-05-02T14:59:31Z</time></trkpt><trkpt lat="43.55708292302912" lon="11.345480328932588"><ele>476.33333333333337</ele><time>2026-05-02T14:59:32Z</time></trkpt><trkpt lat="43.55708836723603" lon="11.345600552489145"><ele>480.1666666666667</ele><time>2026-05-02T14:59:33Z</time></trkpt><trkpt lat="43.557096346282215" lon="11.34572097584397"><ele>484.0</ele><time>2026-05-02T14:59:34Z</time></trkpt><trkpt lat="43.557111529550085" lon="11.345844387467173"><ele>484.4</ele><time>2026-05-02T14:59:35Z</time></trkpt><trkpt lat="43.557162575872674" lon="11.345947743438746"><ele>484.79999999999995</ele><time>2026-05-02T14:59:36Z</time></trkpt><trkpt lat="43.557216368596734" lon="11.346057414280827"><ele>485.20000000000005</ele><time>2026-05-02T14:59:37Z</time></trkpt><trkpt lat="43.55729236278078" lon="11.346149211634028"><ele>485.6</ele><time>2026-05-02T14:59:38Z</time></trkpt><trkpt lat="43.55735241257087" lon="11.34627192019501"><ele>486.0</ele><time>2026-05-02T14:59:39Z</time></trkpt><trkpt lat="43.55738049526812" lon="11.346395979569923"><ele>485.20000000000005</ele><time>2026-05-02T14:59:40Z</time></trkpt><trkpt lat="43.557384215100484" lon="11.346520448308215"><ele>484.40000000000003</ele><time>2026-05-02T14:59:41Z</time></trkpt><trkpt lat="43.55736365319316" lon="11.346647178312162"><ele>483.6</ele><time>2026-05-02T14:59:42Z</time></trkpt><trkpt lat="43.55736175013587" lon="11.346772060857916"><ele>482.8</ele><time>2026-05-02T14:59:43Z</time></trkpt><trkpt lat="43.557406328144246" lon="11.346887542623312"><ele>482.0</ele><time>2026-05-02T14:59:44Z</time></trkpt><trkpt lat="43.55745474034681" lon="11.346991558544588"><ele>482.0</ele><time>2026-05-02T14:59:45Z</time></trkpt><trkpt lat="43.55753720622025" lon="11.347073341241321"><ele>482.0</ele><time>2026-05-02T14:59:46Z</time></trkpt><trkpt lat="43.557653959507235" lon="11.347134667587108"><ele>482.0</ele><time>2026-05-02T14:59:47Z</time></trkpt><trkpt lat="43.557783248168306" lon="11.347193090993919"><ele>482.0</ele><time>2026-05-02T14:59:48Z</time></trkpt><trkpt lat="43.55791626350423" lon="11.347293131956159"><ele>485.3333333333333</ele><time>2026-05-02T14:59:49Z</time></trkpt><trkpt lat="43.558091906054294" lon="11.347401030078828"><ele>488.66666666666663</ele><time>2026-05-02T14:59:50Z</time></trkpt><trkpt lat="43.558266220394" lon="11.347513960751266"><ele>492.0</ele><time>2026-05-02T14:59:51Z</time></trkpt><trkpt lat="43.55839984786741" lon="11.347613846850113"><ele>492.0</ele><time>2026-05-02T14:59:52Z</time></trkpt><trkpt lat="43.558499184225525" lon="11.347730609290123"><ele>492.00000000000006</ele><time>2026-05-02T14:59:53Z</time></trkpt><trkpt lat="43.558584755066285" lon="11.347821666592935"><ele>492.00000000000006</ele><time>2026-05-02T14:59:54Z</time></trkpt><trkpt lat="43.55865033810103" lon="11.347926829916116"><ele>492.0</ele><time>2026-05-02T14:59:55Z</time></trkpt><trkpt lat="43.55870633512079" lon="11.348048181766105"><ele>492.0</ele><time>2026-05-02T14:59:56Z</time></trkpt><trkpt lat="43.55874832023209" lon="11.348171633764707"><ele>493.40000000000003</ele><time>2026-05-02T14:59:57Z</time></trkpt><trkpt lat="43.55878221846726" lon="11.348310398163532"><ele>494.80000000000007</ele><time>2026-05-02T14:59:58Z</time></trkpt><trkpt lat="43.55881910237133" lon="11.348456543239145"><ele>496.2</ele><time>2026-05-02T14:59:59Z</time></trkpt><trkpt lat="43.55886068437582" lon="11.348602232975544"><ele>497.6</ele><time>2026-05-02T15:00:00Z</time></trkpt><trkpt lat="43.558904468993745" lon="11.348744958552198"><ele>499.0</ele><time>2026-05-02T15:00:01Z</time></trkpt><trkpt lat="43.55895194559697" lon="11.348885059138475"><ele>499.0</ele><time>2026-05-02T15:00:02Z</time></trkpt><trkpt lat="43.559004258171434" lon="11.349012114828135"><ele>499.0</ele><time>2026-05-02T15:00:03Z</time></trkpt><trkpt lat="43.55906882834298" lon="11.34911235986835"><ele>499.0</ele><time>2026-05-02T15:00:04Z</time></trkpt><trkpt lat="43.5591030476681" lon="11.349222932530303"><ele>499.0</ele><time>2026-05-02T15:00:05Z</time></trkpt><trkpt lat="43.55916309287257" lon="11.349332649317414"><ele>499.0</ele><time>2026-05-02T15:00:06Z</time></trkpt><trkpt lat="43.559219578732886" lon="11.349442342384625"><ele>499.0</ele><time>2026-05-02T15:00:07Z</time></trkpt><trkpt lat="43.559272325958105" lon="11.349558562924042"><ele>499.0</ele><time>2026-05-02T15:00:08Z</time></trkpt><trkpt lat="43.55932971761737" lon="11.34968298048837"><ele>499.0</ele><time>2026-05-02T15:00:09Z</time></trkpt><trkpt lat="43.559388863302594" lon="11.34980827591056"><ele>499.0</ele><time>2026-05-02T15:00:10Z</time></trkpt><trkpt lat="43.55944745767064" lon="11.349934812284873"><ele>499.0</ele><time>2026-05-02T15:00:11Z</time></trkpt><trkpt lat="43.5595164900947" lon="11.350050016859374"><ele>498.25</ele><time>2026-05-02T15:00:12Z</time></trkpt><trkpt lat="43.5595712389578" lon="11.350186788018242"><ele>497.5</ele><time>2026-05-02T15:00:13Z</time></trkpt><trkpt lat="43.55962656715867" lon="11.350333693586736"><ele>496.75</ele><time>2026-05-02T15:00:14Z</time></trkpt><trkpt lat="43.55968434064694" lon="11.350480535870032"><ele>496.0</ele><time>2026-05-02T15:00:15Z</time></trkpt><trkpt lat="43.55973623066605" lon="11.350625431863824"><ele>498.6</ele><time>2026-05-02T15:00:16Z</time></trkpt><trkpt lat="43.55979245241142" lon="11.35076801869446"><ele>501.20000000000005</ele><time>2026-05-02T15:00:17Z</time></trkpt><trkpt lat="43.5598461253256" lon="11.35090776466809"><ele>503.79999999999995</ele><time>2026-05-02T15:00:18Z</time></trkpt><trkpt lat="43.55990165777781" lon="11.351036311590136"><ele>506.4</ele><time>2026-05-02T15:00:19Z</time></trkpt><trkpt lat="43.55995275286781" lon="11.351160025076439"><ele>509.0</ele><time>2026-05-02T15:00:20Z</time></trkpt><trkpt lat="43.55995210115181" lon="11.351309966875025"><ele>509.75</ele><time>2026-05-02T15:00:21Z</time></trkpt><trkpt lat="43.55995621809702" lon="11.351460197772594"><ele>510.5</ele><time>2026-05-02T15:00:22Z</time></trkpt><trkpt lat="43.559947476537545" lon="11.35162847712588"><ele>511.25</ele><time>2026-05-02T15:00:23Z</time></trkpt><trkpt lat="43.559934726558794" lon="11.35180817947824"><ele>512.0</ele><time>2026-05-02T15:00:24Z</time></trkpt><trkpt lat="43.55990764743102" lon="11.351982039595773"><ele>512.0</ele><time>2026-05-02T15:00:25Z</time></trkpt><trkpt lat="43.55987497441465" lon="11.352156481817232"><ele>512.0</ele><time>2026-05-02T15:00:26Z</time></trkpt><trkpt lat="43.5598304636984" lon="11.352337510586958"><ele>512.0</ele><time>2026-05-02T15:00:27Z</time></trkpt><trkpt lat="43.55977592876229" lon="11.352526670311207"><ele>512.0</ele><time>2026-05-02T15:00:28Z</time></trkpt><trkpt lat="43.55971618525651" lon="11.352730192328211"><ele>509.66666666666663</ele><time>2026-05-02T15:00:29Z</time></trkpt><trkpt lat="43.559650411774776" lon="11.3529473195996"><ele>507.33333333333337</ele><time>2026-05-02T15:00:30Z</time></trkpt><trkpt lat="43.559589104827594" lon="11.353164176933598"><ele>505.0</ele><time>2026-05-02T15:00:31Z</time></trkpt><trkpt lat="43.5595323884478" lon="11.353362690204166"><ele>504.25</ele><time>2026-05-02T15:00:32Z</time></trkpt><trkpt lat="43.55947956354192" lon="11.353542018146257"><ele>503.5</ele><time>2026-05-02T15:00:33Z</time></trkpt><trkpt lat="43.55945208356696" lon="11.35372372088338"><ele>502.75</ele><time>2026-05-02T15:00:34Z</time></trkpt><trkpt lat="43.559424401414816" lon="11.353906278845699"><ele>502.0</ele><time>2026-05-02T15:00:35Z</time></trkpt><trkpt lat="43.559447672033336" lon="11.354099410477678"><ele>503.5</ele><time>2026-05-02T15:00:36Z</time></trkpt><trkpt lat="43.559491405806796" lon="11.35429631745011"><ele>505.0</ele><time>2026-05-02T15:00:36.999Z</time></trkpt><trkpt lat="43.55948451430584" lon="11.354465968407895"><ele>506.5</ele><time>2026-05-02T15:00:37.999Z</time></trkpt><trkpt lat="43.5594356969125" lon="11.354613485691074"><ele>508.0</ele><time>2026-05-02T15:00:38.999Z</time></trkpt><trkpt lat="43.5593762001908" lon="11.354773888332135"><ele>512.0</ele><time>2026-05-02T15:00:39.999Z</time></trkpt><trkpt lat="43.55930831576144" lon="11.354908956916306"><ele>516.0</ele><time>2026-05-02T15:00:40.999Z</time></trkpt><trkpt lat="43.55922720038536" lon="11.354992323771569"><ele>520.0</ele><time>2026-05-02T15:00:41.999Z</time></trkpt><trkpt lat="43.55912116808428" lon="11.355119369583806"><ele>524.0</ele><time>2026-05-02T15:00:42.999Z</time></trkpt><trkpt lat="43.5590301833179" lon="11.355261286739564"><ele>524.0</ele><time>2026-05-02T15:00:43.999Z</time></trkpt><trkpt lat="43.55896994177828" lon="11.355434997323078"><ele>524.0</ele><time>2026-05-02T15:00:44.999Z</time></trkpt><trkpt lat="43.55890019302755" lon="11.355622112734213"><ele>524.0</ele><time>2026-05-02T15:00:45.999Z</time></trkpt><trkpt lat="43.558818664961784" lon="11.355810890760782"><ele>524.3333333333333</ele><time>2026-05-02T15:00:46.999Z</time></trkpt><trkpt lat="43.558750641234106" lon="11.356012321844906"><ele>524.6666666666666</ele><time>2026-05-02T15:00:47.999Z</time></trkpt><trkpt lat="43.55868315039863" lon="11.356217304869196"><ele>525.0</ele><time>2026-05-02T15:00:48.999Z</time></trkpt><trkpt lat="43.55861320908065" lon="11.35641562224652"><ele>527.5</ele><time>2026-05-02T15:00:49.999Z</time></trkpt><trkpt lat="43.55853944569045" lon="11.356586547946018"><ele>530.0</ele><time>2026-05-02T15:00:50.999Z</time></trkpt><trkpt lat="43.55846945521295" lon="11.356753288998965"><ele>532.5</ele><time>2026-05-02T15:00:51.999Z</time></trkpt><trkpt lat="43.55840766984567" lon="11.356900482959112"><ele>535.0</ele><time>2026-05-02T15:00:52.999Z</time></trkpt><trkpt lat="43.55835758458464" lon="11.357043264321582"><ele>535.0</ele><time>2026-05-02T15:00:54Z</time></trkpt><trkpt lat="43.55833552503275" lon="11.357171847160062"><ele>535.0</ele><time>2026-05-02T15:00:55Z</time></trkpt><trkpt lat="43.55831452151639" lon="11.3572840095571"><ele>535.0</ele><time>2026-05-02T15:00:56Z</time></trkpt><trkpt lat="43.55830269703439" lon="11.357405327756677"><ele>535.0</ele><time>2026-05-02T15:00:57Z</time></trkpt><trkpt lat="43.55831142213289" lon="11.357540668886928"><ele>535.0</ele><time>2026-05-02T15:00:58Z</time></trkpt><trkpt lat="43.55835611487788" lon="11.357696896284656"><ele>536.5</ele><time>2026-05-02T15:00:59Z</time></trkpt><trkpt lat="43.558413039868995" lon="11.357868032402978"><ele>538.0</ele><time>2026-05-02T15:01:00Z</time></trkpt><trkpt lat="43.55843825109241" lon="11.358029913865165"><ele>539.5</ele><time>2026-05-02T15:01:01Z</time></trkpt><trkpt lat="43.55845150496389" lon="11.358188229616985"><ele>541.0</ele><time>2026-05-02T15:01:02Z</time></trkpt><trkpt lat="43.55841275343462" lon="11.358314934027241"><ele>542.2</ele><time>2026-05-02T15:01:03Z</time></trkpt><trkpt lat="43.55838494282915" lon="11.358444252410356"><ele>543.4000000000001</ele><time>2026-05-02T15:01:04Z</time></trkpt><trkpt lat="43.55835970971723" lon="11.358572468239023"><ele>544.6</ele><time>2026-05-02T15:01:05Z</time></trkpt><trkpt lat="43.55833590248844" lon="11.358678082185715"><ele>545.8000000000001</ele><time>2026-05-02T15:01:06Z</time></trkpt><trkpt lat="43.55830032137784" lon="11.35875653935829"><ele>547.0</ele><time>2026-05-02T15:01:07Z</time></trkpt><trkpt lat="43.55819178839467" lon="11.358815488483883"><ele>548.6</ele><time>2026-05-02T15:01:09Z</time></trkpt><trkpt lat="43.55809532936364" lon="11.358872223397537"><ele>550.2</ele><time>2026-05-02T15:01:10Z</time></trkpt><trkpt lat="43.55799703852989" lon="11.358979940176544"><ele>551.8</ele><time>2026-05-02T15:01:11Z</time></trkpt><trkpt lat="43.55793668678602" lon="11.35909698555487"><ele>553.4</ele><time>2026-05-02T15:01:12Z</time></trkpt><trkpt lat="43.557881154068525" lon="11.359171265729834"><ele>555.0</ele><time>2026-05-02T15:01:13Z</time></trkpt><trkpt lat="43.557790473822095" lon="11.359245263731504"><ele>555.4</ele><time>2026-05-02T15:01:15Z</time></trkpt><trkpt lat="43.55773493276891" lon="11.359088659298699"><ele>555.8</ele><time>2026-05-02T15:01:17Z</time></trkpt><trkpt lat="43.55777526592653" lon="11.35896214399853"><ele>556.2</ele><time>2026-05-02T15:01:18Z</time></trkpt><trkpt lat="43.55780826977219" lon="11.358828701131479"><ele>556.6</ele><time>2026-05-02T15:01:19Z</time></trkpt><trkpt lat="43.55782674674519" lon="11.358664472531148"><ele>557.0</ele><time>2026-05-02T15:01:20Z</time></trkpt><trkpt lat="43.557855228683046" lon="11.3585131374437"><ele>555.0</ele><time>2026-05-02T15:01:21Z</time></trkpt><trkpt lat="43.557882375990665" lon="11.358379882615791"><ele>553.0</ele><time>2026-05-02T15:01:22Z</time></trkpt><trkpt lat="43.557906127615965" lon="11.358269146150802"><ele>551.0</ele><time>2026-05-02T15:01:23Z</time></trkpt><trkpt lat="43.557904568525004" lon="11.358155186153772"><ele>549.0</ele><time>2026-05-02T15:01:24Z</time></trkpt><trkpt lat="43.557895774256316" lon="11.358048186589691"><ele>547.0</ele><time>2026-05-02T15:01:25Z</time></trkpt><trkpt lat="43.55780247625426" lon="11.35797451301243"><ele>547.4</ele><time>2026-05-02T15:01:26Z</time></trkpt><trkpt lat="43.55771600851391" lon="11.357953920492003"><ele>547.8000000000001</ele><time>2026-05-02T15:01:27Z</time></trkpt><trkpt lat="43.55761375470806" lon="11.357945131071453"><ele>548.2</ele><time>2026-05-02T15:01:28Z</time></trkpt><trkpt lat="43.55750792289037" lon="11.358011871581882"><ele>548.6</ele><time>2026-05-02T15:01:29Z</time></trkpt><trkpt lat="43.55741951673443" lon="11.35807484891081"><ele>549.0</ele><time>2026-05-02T15:01:30Z</time></trkpt><trkpt lat="43.557341248777846" lon="11.358166667613206"><ele>549.0</ele><time>2026-05-02T15:01:31Z</time></trkpt><trkpt lat="43.55726720398399" lon="11.358276556322897"><ele>549.0</ele><time>2026-05-02T15:01:32Z</time></trkpt><trkpt lat="43.557187468137215" lon="11.358385210719957"><ele>549.0</ele><time>2026-05-02T15:01:33Z</time></trkpt><trkpt lat="43.557109003091156" lon="11.358505584671821"><ele>549.0</ele><time>2026-05-02T15:01:34Z</time></trkpt><trkpt lat="43.557033530359554" lon="11.358614441042697"><ele>549.0</ele><time>2026-05-02T15:01:35Z</time></trkpt><trkpt lat="43.556950185229276" lon="11.358736436679507"><ele>549.4</ele><time>2026-05-02T15:01:36Z</time></trkpt><trkpt lat="43.55686896824966" lon="11.358816007128274"><ele>549.8</ele><time>2026-05-02T15:01:37Z</time></trkpt><trkpt lat="43.55678656216546" lon="11.358896871383559"><ele>550.2</ele><time>2026-05-02T15:01:38Z</time></trkpt><trkpt lat="43.55669486486251" lon="11.35894858288352"><ele>550.6</ele><time>2026-05-02T15:01:39Z</time></trkpt><trkpt lat="43.556597735693664" lon="11.358940406356467"><ele>551.0</ele><time>2026-05-02T15:01:40Z</time></trkpt><trkpt lat="43.55648948413233" lon="11.3589172846699"><ele>548.0</ele><time>2026-05-02T15:01:41Z</time></trkpt><trkpt lat="43.55639280134456" lon="11.358856623822582"><ele>545.0</ele><time>2026-05-02T15:01:42Z</time></trkpt><trkpt lat="43.556309755806794" lon="11.3587757700389"><ele>542.0</ele><time>2026-05-02T15:01:43Z</time></trkpt><trkpt lat="43.5562299239874" lon="11.358701826449385"><ele>539.0</ele><time>2026-05-02T15:01:44Z</time></trkpt><trkpt lat="43.556153592154864" lon="11.358640161929014"><ele>536.0</ele><time>2026-05-02T15:01:45Z</time></trkpt><trkpt lat="43.556077548273834" lon="11.358607687027282"><ele>535.6666666666666</ele><time>2026-05-02T15:01:46Z</time></trkpt><trkpt lat="43.55600866349322" lon="11.358637059584812"><ele>535.3333333333333</ele><time>2026-05-02T15:01:47Z</time></trkpt><trkpt lat="43.55596038445541" lon="11.358694155202748"><ele>535.0</ele><time>2026-05-02T15:01:48Z</time></trkpt><trkpt lat="43.555930481056464" lon="11.358799410953564"><ele>534.6666666666666</ele><time>2026-05-02T15:01:49Z</time></trkpt><trkpt lat="43.55591241095793" lon="11.358945339969388"><ele>534.3333333333334</ele><time>2026-05-02T15:01:50Z</time></trkpt><trkpt lat="43.555904776489946" lon="11.359110102607815"><ele>534.0</ele><time>2026-05-02T15:01:51Z</time></trkpt><trkpt lat="43.555895773757605" lon="11.359262195461005"><ele>534.0</ele><time>2026-05-02T15:01:52Z</time></trkpt><trkpt lat="43.55588074832143" lon="11.359418720686799"><ele>534.0</ele><time>2026-05-02T15:01:53Z</time></trkpt><trkpt lat="43.55584752097721" lon="11.35957299759776"><ele>534.0</ele><time>2026-05-02T15:01:54Z</time></trkpt><trkpt lat="43.55582952047223" lon="11.359733951374949"><ele>534.0</ele><time>2026-05-02T15:01:55Z</time></trkpt><trkpt lat="43.55581234832617" lon="11.359886335617412"><ele>535.8</ele><time>2026-05-02T15:01:56Z</time></trkpt><trkpt lat="43.555795960541744" lon="11.360022203970368"><ele>537.5999999999999</ele><time>2026-05-02T15:01:57Z</time></trkpt><trkpt lat="43.555780990861315" lon="11.360143544358"><ele>539.4</ele><time>2026-05-02T15:01:58Z</time></trkpt><trkpt lat="43.55576541930373" lon="11.36025183012908"><ele>541.1999999999999</ele><time>2026-05-02T15:01:59Z</time></trkpt><trkpt lat="43.555748132876545" lon="11.360349842288787"><ele>543.0</ele><time>2026-05-02T15:02:00Z</time></trkpt><trkpt lat="43.55564901330303" lon="11.360411759755372"><ele>543.0</ele><time>2026-05-02T15:02:02Z</time></trkpt><trkpt lat="43.55555327575143" lon="11.360334613895535"><ele>543.0</ele><time>2026-05-02T15:02:04Z</time></trkpt><trkpt lat="43.55550447971471" lon="11.36024927444308"><ele>543.0</ele><time>2026-05-02T15:02:05Z</time></trkpt><trkpt lat="43.5554116034211" lon="11.360174007026519"><ele>543.0</ele><time>2026-05-02T15:02:06Z</time></trkpt><trkpt lat="43.555327184776566" lon="11.360134398965965"><ele>543.0</ele><time>2026-05-02T15:02:07Z</time></trkpt><trkpt lat="43.55523071339256" lon="11.360137471814106"><ele>540.1999999999999</ele><time>2026-05-02T15:02:08Z</time></trkpt><trkpt lat="43.55513190013454" lon="11.360200288026427"><ele>537.4</ele><time>2026-05-02T15:02:09Z</time></trkpt><trkpt lat="43.55502057722927" lon="11.360245517439836"><ele>534.5999999999999</ele><time>2026-05-02T15:02:10Z</time></trkpt><trkpt lat="43.55491899815783" lon="11.36032517341121"><ele>531.8</ele><time>2026-05-02T15:02:11Z</time></trkpt><trkpt lat="43.55484353029917" lon="11.360376779342312"><ele>529.0</ele><time>2026-05-02T15:02:12Z</time></trkpt><trkpt lat="43.55477924995796" lon="11.360482131295967"><ele>528.5</ele><time>2026-05-02T15:02:13Z</time></trkpt><trkpt lat="43.55474233824744" lon="11.360612516183329"><ele>528.0</ele><time>2026-05-02T15:02:14Z</time></trkpt><trkpt lat="43.55469443132694" lon="11.36070650336785"><ele>527.5</ele><time>2026-05-02T15:02:15Z</time></trkpt><trkpt lat="43.55463462091563" lon="11.36074429528399"><ele>527.0</ele><time>2026-05-02T15:02:16Z</time></trkpt><trkpt lat="43.55457016606804" lon="11.36071501263292"><ele>526.5</ele><time>2026-05-02T15:02:17Z</time></trkpt><trkpt lat="43.55451982478351" lon="11.360622915655863"><ele>526.0</ele><time>2026-05-02T15:02:18Z</time></trkpt><trkpt lat="43.5544527543625" lon="11.360511431031066"><ele>526.0</ele><time>2026-05-02T15:02:19Z</time></trkpt><trkpt lat="43.55435279767784" lon="11.360431497297009"><ele>526.0</ele><time>2026-05-02T15:02:20Z</time></trkpt><trkpt lat="43.554253018088524" lon="11.360358820871495"><ele>526.0</ele><time>2026-05-02T15:02:21Z</time></trkpt><trkpt lat="43.554156557761445" lon="11.360314009419467"><ele>526.0</ele><time>2026-05-02T15:02:22Z</time></trkpt><trkpt lat="43.55407094030704" lon="11.360264673707242"><ele>526.0</ele><time>2026-05-02T15:02:23Z</time></trkpt><trkpt lat="43.55397898250052" lon="11.360230578591793"><ele>526.0</ele><time>2026-05-02T15:02:24Z</time></trkpt><trkpt lat="43.55387168398828" lon="11.360228619032693"><ele>526.0</ele><time>2026-05-02T15:02:25Z</time></trkpt><trkpt lat="43.553735136191484" lon="11.360261561424494"><ele>526.0</ele><time>2026-05-02T15:02:26Z</time></trkpt><trkpt lat="43.553572508027806" lon="11.360290231419054"><ele>526.0</ele><time>2026-05-02T15:02:27Z</time></trkpt><trkpt lat="43.55340336971831" lon="11.360324559218189"><ele>525.5</ele><time>2026-05-02T15:02:28Z</time></trkpt><trkpt lat="43.553252669310005" lon="11.360354832519793"><ele>525.0</ele><time>2026-05-02T15:02:29Z</time></trkpt><trkpt lat="43.553112581715745" lon="11.360386032263602"><ele>524.5</ele><time>2026-05-02T15:02:30Z</time></trkpt><trkpt lat="43.55298246951454" lon="11.360407107515881"><ele>524.0</ele><time>2026-05-02T15:02:31Z</time></trkpt><trkpt lat="43.55286126480348" lon="11.360404475011142"><ele>522.6</ele><time>2026-05-02T15:02:32Z</time></trkpt><trkpt lat="43.55275078663341" lon="11.36042082495869"><ele>521.2</ele><time>2026-05-02T15:02:33Z</time></trkpt><trkpt lat="43.55265015185704" lon="11.360436428868372"><ele>519.8000000000001</ele><time>2026-05-02T15:02:34Z</time></trkpt><trkpt lat="43.552563156056706" lon="11.360506037785962"><ele>518.4</ele><time>2026-05-02T15:02:35Z</time></trkpt><trkpt lat="43.55245187194244" lon="11.360511724426953"><ele>517.0</ele><time>2026-05-02T15:02:36Z</time></trkpt><trkpt lat="43.55233090601028" lon="11.360526658550095"><ele>517.0</ele><time>2026-05-02T15:02:37Z</time></trkpt><trkpt lat="43.55222752108085" lon="11.360539038358583"><ele>517.0</ele><time>2026-05-02T15:02:38Z</time></trkpt><trkpt lat="43.552140942294905" lon="11.360524329690271"><ele>517.0</ele><time>2026-05-02T15:02:39Z</time></trkpt><trkpt lat="43.55206392613482" lon="11.360566220082703"><ele>517.0</ele><time>2026-05-02T15:02:40Z</time></trkpt><trkpt lat="43.55199158422666" lon="11.360658731278043"><ele>517.0</ele><time>2026-05-02T15:02:41Z</time></trkpt><trkpt lat="43.551920938219936" lon="11.360755461661125"><ele>519.3333333333334</ele><time>2026-05-02T15:02:42Z</time></trkpt><trkpt lat="43.5518492432976" lon="11.360821523429417"><ele>521.6666666666667</ele><time>2026-05-02T15:02:43Z</time></trkpt><trkpt lat="43.55178208370781" lon="11.360849506917484"><ele>524.0</ele><time>2026-05-02T15:02:44Z</time></trkpt><trkpt lat="43.55171608205312" lon="11.36083020628368"><ele>526.3333333333334</ele><time>2026-05-02T15:02:45Z</time></trkpt><trkpt lat="43.55163145693505" lon="11.360798557905392"><ele>528.6666666666666</ele><time>2026-05-02T15:02:46Z</time></trkpt><trkpt lat="43.55155203617207" lon="11.360710185610333"><ele>531.0</ele><time>2026-05-02T15:02:47Z</time></trkpt><trkpt lat="43.55144530086108" lon="11.36067486240297"><ele>531.0</ele><time>2026-05-02T15:02:48Z</time></trkpt><trkpt lat="43.55133107945068" lon="11.360650774187425"><ele>531.0</ele><time>2026-05-02T15:02:49Z</time></trkpt><trkpt lat="43.551210136767686" lon="11.360636120792067"><ele>531.0</ele><time>2026-05-02T15:02:50Z</time></trkpt><trkpt lat="43.5510933696492" lon="11.36062200265883"><ele>531.0</ele><time>2026-05-02T15:02:51Z</time></trkpt><trkpt lat="43.550982708333926" lon="11.360607478997766"><ele>531.6</ele><time>2026-05-02T15:02:52Z</time></trkpt><trkpt lat="43.55087908825627" lon="11.36058979510265"><ele>532.2</ele><time>2026-05-02T15:02:53Z</time></trkpt><trkpt lat="43.55078130167478" lon="11.360567297658015"><ele>532.8</ele><time>2026-05-02T15:02:54Z</time></trkpt><trkpt lat="43.55069201276161" lon="11.360529439196473"><ele>533.4</ele><time>2026-05-02T15:02:55Z</time></trkpt><trkpt lat="43.5506130918138" lon="11.360478823213727"><ele>534.0</ele><time>2026-05-02T15:02:56Z</time></trkpt><trkpt lat="43.55054967027126" lon="11.360428266283947"><ele>532.8</ele><time>2026-05-02T15:02:57Z</time></trkpt><trkpt lat="43.55048784802901" lon="11.36029440217393"><ele>531.5999999999999</ele><time>2026-05-02T15:02:59Z</time></trkpt><trkpt lat="43.55051284976238" lon="11.360210009491915"><ele>530.4</ele><time>2026-05-02T15:03:00Z</time></trkpt><trkpt lat="43.550562669753965" lon="11.36013782423594"><ele>529.1999999999999</ele><time>2026-05-02T15:03:01Z</time></trkpt><trkpt lat="43.55061963781491" lon="11.36002206138279"><ele>528.0</ele><time>2026-05-02T15:03:02Z</time></trkpt><trkpt lat="43.55068783864842" lon="11.359866617243393"><ele>528.0</ele><time>2026-05-02T15:03:03Z</time></trkpt><trkpt lat="43.55074517202538" lon="11.359712898528803"><ele>528.0</ele><time>2026-05-02T15:03:04Z</time></trkpt><trkpt lat="43.55079865853892" lon="11.359558503965836"><ele>528.0</ele><time>2026-05-02T15:03:05Z</time></trkpt><trkpt lat="43.55085853241394" lon="11.35941252096298"><ele>528.0</ele><time>2026-05-02T15:03:06Z</time></trkpt><trkpt lat="43.550918607006594" lon="11.359270099499993"><ele>527.1999999999999</ele><time>2026-05-02T15:03:07Z</time></trkpt><trkpt lat="43.550978526713145" lon="11.359129644724115"><ele>526.4</ele><time>2026-05-02T15:03:08Z</time></trkpt><trkpt lat="43.55103836779527" lon="11.359013750845007"><ele>525.5999999999999</ele><time>2026-05-02T15:03:09Z</time></trkpt><trkpt lat="43.551118743479165" lon="11.358913876750627"><ele>524.8</ele><time>2026-05-02T15:03:10Z</time></trkpt><trkpt lat="43.55122178897878" lon="11.358871312435195"><ele>524.0</ele><time>2026-05-02T15:03:11Z</time></trkpt><trkpt lat="43.5512941988771" lon="11.358803925489914"><ele>526.0</ele><time>2026-05-02T15:03:12Z</time></trkpt><trkpt lat="43.551370922042096" lon="11.358758706300762"><ele>528.0</ele><time>2026-05-02T15:03:13Z</time></trkpt><trkpt lat="43.55143096479141" lon="11.358689005008449"><ele>530.0</ele><time>2026-05-02T15:03:14Z</time></trkpt><trkpt lat="43.551465136863676" lon="11.358591406123677"><ele>532.0</ele><time>2026-05-02T15:03:15Z</time></trkpt><trkpt lat="43.55145865587434" lon="11.358474223480755"><ele>534.0</ele><time>2026-05-02T15:03:16Z</time></trkpt><trkpt lat="43.55139628347172" lon="11.358364939738783"><ele>536.0</ele><time>2026-05-02T15:03:17Z</time></trkpt><trkpt lat="43.55133679085507" lon="11.358225944424403"><ele>536.0</ele><time>2026-05-02T15:03:18Z</time></trkpt><trkpt lat="43.55124555119259" lon="11.358081612214026"><ele>536.0</ele><time>2026-05-02T15:03:19Z</time></trkpt><trkpt lat="43.55116774323464" lon="11.357943691170322"><ele>536.0</ele><time>2026-05-02T15:03:20Z</time></trkpt><trkpt lat="43.551090739756866" lon="11.357821826393995"><ele>536.0</ele><time>2026-05-02T15:03:21Z</time></trkpt><trkpt lat="43.55099800499114" lon="11.357719695172811"><ele>537.8</ele><time>2026-05-02T15:03:22Z</time></trkpt><trkpt lat="43.550898272125465" lon="11.357636148763675"><ele>539.6</ele><time>2026-05-02T15:03:23Z</time></trkpt><trkpt lat="43.55080308397637" lon="11.357581133100476"><ele>541.4</ele><time>2026-05-02T15:03:24Z</time></trkpt><trkpt lat="43.55071261079484" lon="11.357564124809786"><ele>543.2</ele><time>2026-05-02T15:03:25Z</time></trkpt><trkpt lat="43.55063349323745" lon="11.357598103039773"><ele>545.0</ele><time>2026-05-02T15:03:26Z</time></trkpt><trkpt lat="43.55056140188718" lon="11.357691626060355"><ele>545.0</ele><time>2026-05-02T15:03:27Z</time></trkpt><trkpt lat="43.55052314485701" lon="11.357832166029283"><ele>545.0</ele><time>2026-05-02T15:03:28Z</time></trkpt><trkpt lat="43.55051535943579" lon="11.35801220826791"><ele>545.0</ele><time>2026-05-02T15:03:29Z</time></trkpt><trkpt lat="43.55053454486443" lon="11.35821138201357"><ele>545.0</ele><time>2026-05-02T15:03:30Z</time></trkpt><trkpt lat="43.55056557808821" lon="11.358418981042172"><ele>544.8</ele><time>2026-05-02T15:03:31Z</time></trkpt><trkpt lat="43.55060189549963" lon="11.35860518355674"><ele>544.6</ele><time>2026-05-02T15:03:32Z</time></trkpt><trkpt lat="43.55063569295474" lon="11.358762925673739"><ele>544.4</ele><time>2026-05-02T15:03:33Z</time></trkpt><trkpt lat="43.55064579132731" lon="11.358902069647856"><ele>544.2</ele><time>2026-05-02T15:03:34Z</time></trkpt><trkpt lat="43.550636425591655" lon="11.359011326255676"><ele>544.0</ele><time>2026-05-02T15:03:35Z</time></trkpt><trkpt lat="43.5505974790227" lon="11.359085761960344"><ele>542.8</ele><time>2026-05-02T15:03:36Z</time></trkpt><trkpt lat="43.550519752182005" lon="11.359108293589685"><ele>541.5999999999999</ele><time>2026-05-02T15:03:37Z</time></trkpt><trkpt lat="43.550443417316195" lon="11.359165247125796"><ele>540.4</ele><time>2026-05-02T15:03:38Z</time></trkpt><trkpt lat="43.55033004563003" lon="11.359181808294139"><ele>539.1999999999999</ele><time>2026-05-02T15:03:40Z</time></trkpt><trkpt lat="43.55022621263086" lon="11.359099389447673"><ele>538.0</ele><time>2026-05-02T15:03:42Z</time></trkpt><trkpt lat="43.55019677181227" lon="11.358993802507792"><ele>547.25</ele><time>2026-05-02T15:03:43Z</time></trkpt><trkpt lat="43.55018618692496" lon="11.358848673607065"><ele>556.5</ele><time>2026-05-02T15:03:44Z</time></trkpt><trkpt lat="43.55018157056952" lon="11.358667730989994"><ele>565.75</ele><time>2026-05-02T15:03:45Z</time></trkpt><trkpt lat="43.550172607318494" lon="11.358490140922521"><ele>575.0</ele><time>2026-05-02T15:03:46Z</time></trkpt><trkpt lat="43.55015359951282" lon="11.358316420357834"><ele>575.0</ele><time>2026-05-02T15:03:47Z</time></trkpt><trkpt lat="43.550157854054675" lon="11.358137520618824"><ele>575.0</ele><time>2026-05-02T15:03:48Z</time></trkpt><trkpt lat="43.550183001558786" lon="11.357951642747208"><ele>575.0</ele><time>2026-05-02T15:03:49Z</time></trkpt><trkpt lat="43.550226307709465" lon="11.35776741459958"><ele>575.0</ele><time>2026-05-02T15:03:50Z</time></trkpt><trkpt lat="43.5502753621453" lon="11.357609286748275"><ele>575.25</ele><time>2026-05-02T15:03:51Z</time></trkpt><trkpt lat="43.55031274114423" lon="11.357474571118669"><ele>575.5</ele><time>2026-05-02T15:03:52Z</time></trkpt><trkpt lat="43.550337860713014" lon="11.357329809805588"><ele>575.75</ele><time>2026-05-02T15:03:53Z</time></trkpt><trkpt lat="43.55031139504972" lon="11.35716665018543"><ele>576.0</ele><time>2026-05-02T15:03:54Z</time></trkpt><trkpt lat="43.550275497168386" lon="11.35699592109049"><ele>576.75</ele><time>2026-05-02T15:03:55Z</time></trkpt><trkpt lat="43.5502470716657" lon="11.356819878034429"><ele>577.5</ele><time>2026-05-02T15:03:56Z</time></trkpt><trkpt lat="43.550236886147616" lon="11.356661666169778"><ele>578.25</ele><time>2026-05-02T15:03:57Z</time></trkpt><trkpt lat="43.55023596315198" lon="11.356520874842861"><ele>579.0</ele><time>2026-05-02T15:03:58Z</time></trkpt><trkpt lat="43.55026076267989" lon="11.356377354513024"><ele>579.5</ele><time>2026-05-02T15:03:59Z</time></trkpt><trkpt lat="43.55032199068141" lon="11.356215172625433"><ele>580.0</ele><time>2026-05-02T15:04:00Z</time></trkpt><trkpt lat="43.550401013230896" lon="11.356049891591386"><ele>580.5</ele><time>2026-05-02T15:04:01Z</time></trkpt><trkpt lat="43.55047425908452" lon="11.355897160657339"><ele>581.0</ele><time>2026-05-02T15:04:02Z</time></trkpt><trkpt lat="43.550531170688686" lon="11.355768068198737"><ele>578.6</ele><time>2026-05-02T15:04:03Z</time></trkpt><trkpt lat="43.55058315446263" lon="11.355644612265055"><ele>576.2</ele><time>2026-05-02T15:04:04Z</time></trkpt><trkpt lat="43.55062163581189" lon="11.355522018937286"><ele>573.8</ele><time>2026-05-02T15:04:05Z</time></trkpt><trkpt lat="43.55065178109198" lon="11.355392930298736"><ele>571.4</ele><time>2026-05-02T15:04:06Z</time></trkpt><trkpt lat="43.55066051243964" lon="11.355260055329218"><ele>569.0</ele><time>2026-05-02T15:04:07Z</time></trkpt><trkpt lat="43.55061389046925" lon="11.35512668513908"><ele>569.0</ele><time>2026-05-02T15:04:08Z</time></trkpt><trkpt lat="43.55055845231685" lon="11.355004130665142"><ele>569.0</ele><time>2026-05-02T15:04:09Z</time></trkpt><trkpt lat="43.55047753510861" lon="11.35489922647715"><ele>569.0</ele><time>2026-05-02T15:04:10Z</time></trkpt><trkpt lat="43.5503815126168" lon="11.354812092732626"><ele>569.0</ele><time>2026-05-02T15:04:11Z</time></trkpt><trkpt lat="43.55026918441895" lon="11.354781217472834"><ele>569.0</ele><time>2026-05-02T15:04:12Z</time></trkpt><trkpt lat="43.55017345196997" lon="11.354784173070442"><ele>570.4</ele><time>2026-05-02T15:04:13Z</time></trkpt><trkpt lat="43.550088277544035" lon="11.354806930816158"><ele>571.8</ele><time>2026-05-02T15:04:14Z</time></trkpt><trkpt lat="43.550007259335096" lon="11.35486619120888"><ele>573.2</ele><time>2026-05-02T15:04:15Z</time></trkpt><trkpt lat="43.54992723335188" lon="11.354950242213993"><ele>574.6</ele><time>2026-05-02T15:04:16Z</time></trkpt><trkpt lat="43.54984547932825" lon="11.355044375974"><ele>576.0</ele><time>2026-05-02T15:04:17Z</time></trkpt><trkpt lat="43.54977492435432" lon="11.355167860153806"><ele>576.0</ele><time>2026-05-02T15:04:18Z</time></trkpt><trkpt lat="43.54969677169015" lon="11.355266576162643"><ele>576.0</ele><time>2026-05-02T15:04:19Z</time></trkpt><trkpt lat="43.54963281692519" lon="11.355365684291037"><ele>576.0</ele><time>2026-05-02T15:04:20Z</time></trkpt><trkpt lat="43.54958404078232" lon="11.355441170448437"><ele>576.0</ele><time>2026-05-02T15:04:21Z</time></trkpt><trkpt lat="43.54952318967865" lon="11.355529809547509"><ele>576.0</ele><time>2026-05-02T15:04:23Z</time></trkpt><trkpt lat="43.54948584090007" lon="11.355626139048722"><ele>576.0</ele><time>2026-05-02T15:07:21Z</time></trkpt><trkpt lat="43.5495072104405" lon="11.3557121802372"><ele>577.6666666666666</ele><time>2026-05-02T15:07:24Z</time></trkpt><trkpt lat="43.54948941527741" lon="11.35583127778823"><ele>579.3333333333334</ele><time>2026-05-02T15:07:26Z</time></trkpt><trkpt lat="43.54950357425474" lon="11.355937060256096"><ele>581.0</ele><time>2026-05-02T15:07:44Z</time></trkpt><trkpt lat="43.549470276321316" lon="11.356052914212919"><ele>582.6666666666667</ele><time>2026-05-02T15:07:46Z</time></trkpt><trkpt lat="43.54944928660743" lon="11.356178861984235"><ele>584.3333333333334</ele><time>2026-05-02T15:07:48Z</time></trkpt><trkpt lat="43.549412113078226" lon="11.35629164111433"><ele>586.0</ele><time>2026-05-02T15:07:50Z</time></trkpt><trkpt lat="43.549331610555356" lon="11.35636102218948"><ele>588.4</ele><time>2026-05-02T15:07:52Z</time></trkpt><trkpt lat="43.54923489248205" lon="11.356399237458247"><ele>590.8</ele><time>2026-05-02T15:07:54Z</time></trkpt><trkpt lat="43.54914789846923" lon="11.356450219476477"><ele>593.1999999999999</ele><time>2026-05-02T15:07:56Z</time></trkpt><trkpt lat="43.549101844642365" lon="11.356555334649592"><ele>595.6</ele><time>2026-05-02T15:07:58Z</time></trkpt><trkpt lat="43.54906161022454" lon="11.356696587592003"><ele>598.0</ele><time>2026-05-02T15:08:00Z</time></trkpt><trkpt lat="43.5490363798737" lon="11.3568162460603"><ele>598.0</ele><time>2026-05-02T15:08:02Z</time></trkpt><trkpt lat="43.54898420933172" lon="11.356936594258737"><ele>598.0</ele><time>2026-05-02T15:08:04Z</time></trkpt><trkpt lat="43.54893180321704" lon="11.35700683942635"><ele>598.0</ele><time>2026-05-02T15:08:06Z</time></trkpt><trkpt lat="43.54886540623702" lon="11.35701368345435"><ele>598.0</ele><time>2026-05-02T15:08:08Z</time></trkpt><trkpt lat="43.548793482596594" lon="11.356963668419226"><ele>598.0</ele><time>2026-05-02T15:08:11Z</time></trkpt><trkpt lat="43.54871460687355" lon="11.356916828635242"><ele>598.0</ele><time>2026-05-02T15:08:18Z</time></trkpt><trkpt lat="43.54864867493849" lon="11.356897944998638"><ele>598.1428571428571</ele><time>2026-05-02T15:08:19Z</time></trkpt><trkpt lat="43.54857759329639" lon="11.3569064109507"><ele>598.2857142857143</ele><time>2026-05-02T15:08:20Z</time></trkpt><trkpt lat="43.54849885690771" lon="11.356906378222963"><ele>598.4285714285714</ele><time>2026-05-02T15:08:21Z</time></trkpt><trkpt lat="43.54841657063428" lon="11.356907499286152"><ele>598.5714285714286</ele><time>2026-05-02T15:08:22Z</time></trkpt><trkpt lat="43.54833550827153" lon="11.35690860367691"><ele>598.7142857142857</ele><time>2026-05-02T15:08:23Z</time></trkpt><trkpt lat="43.54826572832483" lon="11.356909554354731"><ele>598.8571428571429</ele><time>2026-05-02T15:08:24Z</time></trkpt><trkpt lat="43.54820121958205" lon="11.356908932398857"><ele>599.0</ele><time>2026-05-02T15:08:25Z</time></trkpt><trkpt lat="43.548107949905436" lon="11.35690636642621"><ele>599.0</ele><time>2026-05-02T15:08:27Z</time></trkpt><trkpt lat="43.54804557683606" lon="11.35696434672573"><ele>599.0</ele><time>2026-05-02T15:08:35Z</time></trkpt><trkpt lat="43.54813249635726" lon="11.35696540659028"><ele>599.0</ele><time>2026-05-02T15:08:38Z</time></trkpt><trkpt lat="43.548207824676744" lon="11.356959811664423"><ele>599.0</ele><time>2026-05-02T15:08:39Z</time></trkpt><trkpt lat="43.548301238636036" lon="11.356956418159516"><ele>599.0</ele><time>2026-05-02T15:08:40Z</time></trkpt><trkpt lat="43.54840157751857" lon="11.35696110926774"><ele>599.0</ele><time>2026-05-02T15:08:41Z</time></trkpt><trkpt lat="43.54849458386989" lon="11.35696874703647"><ele>599.0</ele><time>2026-05-02T15:08:42Z</time></trkpt><trkpt lat="43.54858511943759" lon="11.356966015299742"><ele>599.0</ele><time>2026-05-02T15:08:43Z</time></trkpt><trkpt lat="43.54866838377624" lon="11.356961153036291"><ele>599.0</ele><time>2026-05-02T15:08:44.001Z</time></trkpt><trkpt lat="43.54874373871169" lon="11.356967146764813"><ele>599.0</ele><time>2026-05-02T15:08:45.001Z</time></trkpt><trkpt lat="43.54880150286093" lon="11.357004338621774"><ele>599.0</ele><time>2026-05-02T15:08:46.001Z</time></trkpt><trkpt lat="43.54883562111267" lon="11.35707758251872"><ele>599.0</ele><time>2026-05-02T15:08:47.001Z</time></trkpt><trkpt lat="43.54888356857042" lon="11.35730962588641"><ele>600.0</ele><time>2026-05-02T15:08:49.001Z</time></trkpt><trkpt lat="43.54891800001549" lon="11.357450757156704"><ele>601.0</ele><time>2026-05-02T15:08:50.001Z</time></trkpt><trkpt lat="43.5489590080539" lon="11.357602641814557"><ele>602.0</ele><time>2026-05-02T15:08:51.001Z</time></trkpt><trkpt lat="43.548994132088275" lon="11.357750545648933"><ele>603.0</ele><time>2026-05-02T15:08:52.001Z</time></trkpt><trkpt lat="43.54901867722691" lon="11.357877167741414"><ele>604.0</ele><time>2026-05-02T15:08:53.001Z</time></trkpt><trkpt lat="43.549012651638236" lon="11.357972902484955"><ele>605.6</ele><time>2026-05-02T15:08:54.001Z</time></trkpt><trkpt lat="43.549009872134924" lon="11.358124550833624"><ele>607.2</ele><time>2026-05-02T15:08:56.001Z</time></trkpt><trkpt lat="43.54894899942191" lon="11.358171608621422"><ele>608.8000000000001</ele><time>2026-05-02T15:08:57.001Z</time></trkpt><trkpt lat="43.54883785702178" lon="11.358195109499315"><ele>610.4</ele><time>2026-05-02T15:08:59.001Z</time></trkpt><trkpt lat="43.54875596696431" lon="11.358039221844095"><ele>612.0</ele><time>2026-05-02T15:09:00.001Z</time></trkpt><trkpt lat="43.548667923875726" lon="11.357969633622899"><ele>612.3333333333334</ele><time>2026-05-02T15:09:01.001Z</time></trkpt><trkpt lat="43.548570764736574" lon="11.357911242125203"><ele>612.6666666666666</ele><time>2026-05-02T15:09:02.001Z</time></trkpt><trkpt lat="43.548486902616276" lon="11.357873275025968"><ele>613.0</ele><time>2026-05-02T15:09:03.001Z</time></trkpt><trkpt lat="43.54841168383994" lon="11.35788092764095"><ele>613.3333333333333</ele><time>2026-05-02T15:09:04.001Z</time></trkpt><trkpt lat="43.54833476088373" lon="11.357927981623176"><ele>613.6666666666666</ele><time>2026-05-02T15:09:06.001Z</time></trkpt><trkpt lat="43.54842081814098" lon="11.357928171218282"><ele>614.0</ele><time>2026-05-02T15:09:17Z</time></trkpt><trkpt lat="43.54849303843301" lon="11.357908275842325"><ele>614.0</ele><time>2026-05-02T15:09:19Z</time></trkpt><trkpt lat="43.548513343416566" lon="11.358015766136592"><ele>614.0</ele><time>2026-05-02T15:09:33Z</time></trkpt><trkpt lat="43.548463196279414" lon="11.358135927318132"><ele>614.0</ele><time>2026-05-02T15:09:35Z</time></trkpt><trkpt lat="43.54842462090606" lon="11.35830110520147"><ele>614.0</ele><time>2026-05-02T15:09:37Z</time></trkpt><trkpt lat="43.54836392411127" lon="11.35838924757371"><ele>614.0</ele><time>2026-05-02T15:09:38Z</time></trkpt><trkpt lat="43.54835320760555" lon="11.35849371839986"><ele>616.1666666666666</ele><time>2026-05-02T15:09:39Z</time></trkpt><trkpt lat="43.54834269358119" lon="11.35858702890985"><ele>618.3333333333333</ele><time>2026-05-02T15:09:40Z</time></trkpt><trkpt lat="43.548328133560055" lon="11.358681179378415"><ele>620.5</ele><time>2026-05-02T15:09:41Z</time></trkpt><trkpt lat="43.54831035986391" lon="11.358776369096953"><ele>622.6666666666666</ele><time>2026-05-02T15:09:42Z</time></trkpt><trkpt lat="43.54832711322775" lon="11.358869573673724"><ele>624.8333333333334</ele><time>2026-05-02T15:09:43Z</time></trkpt><trkpt lat="43.54833763943974" lon="11.358966673443126"><ele>627.0</ele><time>2026-05-02T15:09:44Z</time></trkpt><trkpt lat="43.54839367839454" lon="11.359103294331515"><ele>628.3333333333334</ele><time>2026-05-02T15:09:46Z</time></trkpt><trkpt lat="43.54844913407728" lon="11.359167046595692"><ele>629.6666666666666</ele><time>2026-05-02T15:09:47Z</time></trkpt><trkpt lat="43.548501924072596" lon="11.359235205127415"><ele>631.0</ele><time>2026-05-02T15:09:48Z</time></trkpt><trkpt lat="43.54849672687534" lon="11.359373411450655"><ele>632.3333333333333</ele><time>2026-05-02T15:09:50Z</time></trkpt><trkpt lat="43.548500114088725" lon="11.359540753124254"><ele>633.6666666666666</ele><time>2026-05-02T15:09:52Z</time></trkpt><trkpt lat="43.54850445098689" lon="11.359635038839118"><ele>635.0</ele><time>2026-05-02T15:09:53Z</time></trkpt><trkpt lat="43.548503889241736" lon="11.35973523338747"><ele>635.8571428571428</ele><time>2026-05-02T15:09:54Z</time></trkpt><trkpt lat="43.548496020426484" lon="11.359826600698824"><ele>636.7142857142857</ele><time>2026-05-02T15:09:55Z</time></trkpt><trkpt lat="43.548474426159395" lon="11.35991597184455"><ele>637.5714285714286</ele><time>2026-05-02T15:09:56Z</time></trkpt><trkpt lat="43.548458544792844" lon="11.360009188601984"><ele>638.4285714285713</ele><time>2026-05-02T15:09:57Z</time></trkpt><trkpt lat="43.54844210703028" lon="11.360105670959562"><ele>639.2857142857142</ele><time>2026-05-02T15:09:58Z</time></trkpt><trkpt lat="43.54842686737993" lon="11.360195121194883"><ele>640.1428571428571</ele><time>2026-05-02T15:09:59Z</time></trkpt><trkpt lat="43.54841076626544" lon="11.360291543679285"><ele>641.0</ele><time>2026-05-02T15:10:00Z</time></trkpt><trkpt lat="43.54840082558508" lon="11.360391651073195"><ele>641.0</ele><time>2026-05-02T15:10:01Z</time></trkpt><trkpt lat="43.5484213165048" lon="11.3604848643199"><ele>641.0</ele><time>2026-05-02T15:10:02Z</time></trkpt><trkpt lat="43.54842896300204" lon="11.360573517329511"><ele>641.0</ele><time>2026-05-02T15:10:03Z</time></trkpt><trkpt lat="43.5484251767885" lon="11.360661845792066"><ele>641.0</ele><time>2026-05-02T15:10:04Z</time></trkpt><trkpt lat="43.54839879504144" lon="11.360829568542076"><ele>641.0</ele><time>2026-05-02T15:10:06Z</time></trkpt><trkpt lat="43.548380790154944" lon="11.36092220400171"><ele>641.0</ele><time>2026-05-02T15:10:07Z</time></trkpt><trkpt lat="43.54835998938876" lon="11.361007349115074"><ele>642.1666666666666</ele><time>2026-05-02T15:10:08Z</time></trkpt><trkpt lat="43.548300187992325" lon="11.361161754120593"><ele>643.3333333333333</ele><time>2026-05-02T15:10:10Z</time></trkpt><trkpt lat="43.54826255975732" lon="11.361252868473304"><ele>644.5</ele><time>2026-05-02T15:10:11Z</time></trkpt><trkpt lat="43.54823108954665" lon="11.361337228429512"><ele>645.6666666666666</ele><time>2026-05-02T15:10:12Z</time></trkpt><trkpt lat="43.548206328973265" lon="11.361422796826085"><ele>646.8333333333334</ele><time>2026-05-02T15:10:13Z</time></trkpt><trkpt lat="43.548222457196694" lon="11.36153033874663"><ele>648.0</ele><time>2026-05-02T15:10:14Z</time></trkpt><trkpt lat="43.54819236142651" lon="11.361619182508377"><ele>649.0</ele><time>2026-05-02T15:10:15Z</time></trkpt><trkpt lat="43.54815269688055" lon="11.361688386162063"><ele>650.0</ele><time>2026-05-02T15:10:17Z</time></trkpt><trkpt lat="43.54811570357051" lon="11.361774562864817"><ele>651.0</ele><time>2026-05-02T15:10:29Z</time></trkpt><trkpt lat="43.54806862429733" lon="11.361847840786465"><ele>652.0</ele><time>2026-05-02T15:10:32Z</time></trkpt><trkpt lat="43.547945889795656" lon="11.3619108807793"><ele>653.0</ele><time>2026-05-02T15:10:34Z</time></trkpt><trkpt lat="43.547864200865895" lon="11.362017922632456"><ele>655.4</ele><time>2026-05-02T15:10:36Z</time></trkpt><trkpt lat="43.54780002711212" lon="11.362132053553665"><ele>657.8</ele><time>2026-05-02T15:10:38Z</time></trkpt><trkpt lat="43.54779387917183" lon="11.36222723027042"><ele>660.2</ele><time>2026-05-02T15:10:39Z</time></trkpt><trkpt lat="43.54777972331835" lon="11.362315312650534"><ele>662.6</ele><time>2026-05-02T15:10:40Z</time></trkpt><trkpt lat="43.54775187921236" lon="11.36249833712077"><ele>665.0</ele><time>2026-05-02T15:10:42Z</time></trkpt><trkpt lat="43.547699384973924" lon="11.362649519825188"><ele>666.2</ele><time>2026-05-02T15:10:44.001Z</time></trkpt><trkpt lat="43.54762025246099" lon="11.362745889332102"><ele>667.4</ele><time>2026-05-02T15:10:46.001Z</time></trkpt><trkpt lat="43.54752778039841" lon="11.362842905266445"><ele>668.5999999999999</ele><time>2026-05-02T15:10:48.001Z</time></trkpt><trkpt lat="43.5474986856536" lon="11.362926806107172"><ele>669.8</ele><time>2026-05-02T15:10:49.001Z</time></trkpt><trkpt lat="43.54745257772473" lon="11.363043928291065"><ele>671.0</ele><time>2026-05-02T15:10:51.001Z</time></trkpt><trkpt lat="43.54739841148803" lon="11.363109881071683"><ele>671.0</ele><time>2026-05-02T15:10:52.001Z</time></trkpt><trkpt lat="43.54733529226465" lon="11.36318113724122"><ele>671.0</ele><time>2026-05-02T15:10:53.001Z</time></trkpt><trkpt lat="43.547283916512924" lon="11.363232583447665"><ele>671.0</ele><time>2026-05-02T15:10:54.001Z</time></trkpt><trkpt lat="43.54720020011893" lon="11.363327484554423"><ele>671.0</ele><time>2026-05-02T15:10:56.001Z</time></trkpt><trkpt lat="43.54713721540765" lon="11.36333869211642"><ele>671.0</ele><time>2026-05-02T15:10:57.001Z</time></trkpt><trkpt lat="43.547062852090356" lon="11.363420646880304"><ele>671.0</ele><time>2026-05-02T15:10:59.001Z</time></trkpt><trkpt lat="43.547027018278214" lon="11.363500599929596"><ele>672.6666666666666</ele><time>2026-05-02T15:11:01.001Z</time></trkpt><trkpt lat="43.547001516423066" lon="11.363580833757215"><ele>674.3333333333333</ele><time>2026-05-02T15:11:05.001Z</time></trkpt><trkpt lat="43.54695397808451" lon="11.363688937923067"><ele>676.0</ele><time>2026-05-02T15:11:07.001Z</time></trkpt><trkpt lat="43.54689696929774" lon="11.363782288100904"><ele>677.6666666666666</ele><time>2026-05-02T15:11:09.001Z</time></trkpt><trkpt lat="43.54683691021476" lon="11.363923926579853"><ele>679.3333333333334</ele><time>2026-05-02T15:11:11.001Z</time></trkpt><trkpt lat="43.54680925189921" lon="11.364002730132288"><ele>681.0</ele><time>2026-05-02T15:11:12.001Z</time></trkpt><trkpt lat="43.54675377157181" lon="11.364136879129425"><ele>681.8</ele><time>2026-05-02T15:11:14.001Z</time></trkpt><trkpt lat="43.546725522310574" lon="11.364242020832757"><ele>682.5999999999999</ele><time>2026-05-02T15:11:16.001Z</time></trkpt><trkpt lat="43.54675025037472" lon="11.364373716961762"><ele>683.4</ele><time>2026-05-02T15:11:38Z</time></trkpt><trkpt lat="43.546794288905865" lon="11.364491972314502"><ele>684.2</ele><time>2026-05-02T15:11:40Z</time></trkpt><trkpt lat="43.54677130677682" lon="11.364610076288132"><ele>685.0</ele><time>2026-05-02T15:11:42Z</time></trkpt><trkpt lat="43.54671314804052" lon="11.364737370631577"><ele>685.8</ele><time>2026-05-02T15:11:44Z</time></trkpt><trkpt lat="43.546643602992965" lon="11.364841617863188"><ele>686.6</ele><time>2026-05-02T15:11:46Z</time></trkpt><trkpt lat="43.546619793213864" lon="11.365001799619952"><ele>687.4000000000001</ele><time>2026-05-02T15:11:48Z</time></trkpt><trkpt lat="43.546607710830685" lon="11.365091802123224"><ele>688.2</ele><time>2026-05-02T15:11:49Z</time></trkpt><trkpt lat="43.546572486039715" lon="11.365247263241773"><ele>689.0</ele><time>2026-05-02T15:11:51Z</time></trkpt><trkpt lat="43.5464932296927" lon="11.365404062805963"><ele>689.0</ele><time>2026-05-02T15:11:53Z</time></trkpt><trkpt lat="43.54645405674305" lon="11.365482792094442"><ele>689.0</ele><time>2026-05-02T15:11:54Z</time></trkpt><trkpt lat="43.54638062638708" lon="11.365606646382604"><ele>689.0</ele><time>2026-05-02T15:11:56Z</time></trkpt><trkpt lat="43.54628581026781" lon="11.365718614428458"><ele>689.0</ele><time>2026-05-02T15:11:58Z</time></trkpt><trkpt lat="43.54618984991178" lon="11.365815279539431"><ele>689.0</ele><time>2026-05-02T15:12:00Z</time></trkpt><trkpt lat="43.54610331101554" lon="11.365949901298162"><ele>691.8000000000001</ele><time>2026-05-02T15:12:02Z</time></trkpt><trkpt lat="43.54601680528343" lon="11.366064266439173"><ele>694.6</ele><time>2026-05-02T15:12:04Z</time></trkpt><trkpt lat="43.54595604806527" lon="11.366189689522086"><ele>697.4</ele><time>2026-05-02T15:12:06Z</time></trkpt><trkpt lat="43.545922566737765" lon="11.366338001729762"><ele>700.2</ele><time>2026-05-02T15:12:08Z</time></trkpt><trkpt lat="43.545890337179806" lon="11.366436696616246"><ele>703.0</ele><time>2026-05-02T15:12:10Z</time></trkpt><trkpt lat="43.54586587337321" lon="11.366517217468246"><ele>704.3333333333334</ele><time>2026-05-02T15:12:11Z</time></trkpt><trkpt lat="43.545842140067265" lon="11.366609015215639"><ele>705.6666666666667</ele><time>2026-05-02T15:12:12Z</time></trkpt><trkpt lat="43.54582706252223" lon="11.366710522494753"><ele>707.0</ele><time>2026-05-02T15:12:13Z</time></trkpt><trkpt lat="43.54580932107476" lon="11.366796030213377"><ele>708.3333333333334</ele><time>2026-05-02T15:12:14Z</time></trkpt><trkpt lat="43.545793615689156" lon="11.366951332778587"><ele>709.6666666666666</ele><time>2026-05-02T15:12:16Z</time></trkpt><trkpt lat="43.54577448546434" lon="11.367111740018016"><ele>711.0</ele><time>2026-05-02T15:12:18Z</time></trkpt><trkpt lat="43.54578153586023" lon="11.367278432567112"><ele>711.4</ele><time>2026-05-02T15:12:20Z</time></trkpt><trkpt lat="43.54576366196235" lon="11.367418708017627"><ele>711.8</ele><time>2026-05-02T15:12:22Z</time></trkpt><trkpt lat="43.54569961299957" lon="11.367537685268662"><ele>712.1999999999999</ele><time>2026-05-02T15:12:24Z</time></trkpt><trkpt lat="43.54562838154458" lon="11.367647513138571"><ele>712.5999999999999</ele><time>2026-05-02T15:12:26Z</time></trkpt><trkpt lat="43.545606041695855" lon="11.367768301542856"><ele>713.0</ele><time>2026-05-02T15:12:28Z</time></trkpt><trkpt lat="43.54558203423216" lon="11.36786467180169"><ele>713.0</ele><time>2026-05-02T15:12:40Z</time></trkpt><trkpt lat="43.54552315230387" lon="11.367988956566217"><ele>713.0</ele><time>2026-05-02T15:12:42Z</time></trkpt><trkpt lat="43.54547206490945" lon="11.368088696414524"><ele>713.0</ele><time>2026-05-02T15:12:44Z</time></trkpt><trkpt lat="43.54538559342432" lon="11.368145350976238"><ele>713.0</ele><time>2026-05-02T15:12:47Z</time></trkpt><trkpt lat="43.545295097068426" lon="11.368206882371659"><ele>713.0</ele><time>2026-05-02T15:12:49Z</time></trkpt><trkpt lat="43.54525869556632" lon="11.368314081584536"><ele>718.8</ele><time>2026-05-02T15:12:51Z</time></trkpt><trkpt lat="43.545211183729364" lon="11.368480379383412"><ele>724.5999999999999</ele><time>2026-05-02T15:12:53Z</time></trkpt><trkpt lat="43.54515474427824" lon="11.368607953547418"><ele>730.4000000000001</ele><time>2026-05-02T15:12:55Z</time></trkpt><trkpt lat="43.54507318931521" lon="11.36867102837464"><ele>736.2</ele><time>2026-05-02T15:12:57Z</time></trkpt><trkpt lat="43.5449870298346" lon="11.368770609747502"><ele>742.0</ele><time>2026-05-02T15:12:59Z</time></trkpt><trkpt lat="43.54490429227058" lon="11.368854512838908"><ele>741.8333333333334</ele><time>2026-05-02T15:13:01Z</time></trkpt><trkpt lat="43.54485673185093" lon="11.368922521648859"><ele>741.6666666666667</ele><time>2026-05-02T15:13:03Z</time></trkpt><trkpt lat="43.54483780945734" lon="11.369022863529342"><ele>741.5</ele><time>2026-05-02T15:13:05Z</time></trkpt><trkpt lat="43.54487314299348" lon="11.369147232636102"><ele>741.3333333333334</ele><time>2026-05-02T15:13:07Z</time></trkpt><trkpt lat="43.544896988367384" lon="11.36929741080673"><ele>741.1666666666666</ele><time>2026-05-02T15:13:09Z</time></trkpt><trkpt lat="43.54491791505896" lon="11.369425496614205"><ele>741.0</ele><time>2026-05-02T15:13:11Z</time></trkpt><trkpt lat="43.54494238292598" lon="11.369527148625957"><ele>741.0</ele><time>2026-05-02T15:13:13.001Z</time></trkpt><trkpt lat="43.54498811908449" lon="11.369648741805557"><ele>741.0</ele><time>2026-05-02T15:13:15.001Z</time></trkpt><trkpt lat="43.54500987084787" lon="11.369754317295163"><ele>741.0</ele><time>2026-05-02T15:13:17.001Z</time></trkpt><trkpt lat="43.545019137868636" lon="11.369867276108508"><ele>741.0</ele><time>2026-05-02T15:13:19.001Z</time></trkpt><trkpt lat="43.54505295311335" lon="11.370006843278302"><ele>741.0</ele><time>2026-05-02T15:13:21.001Z</time></trkpt><trkpt lat="43.545063799689856" lon="11.370094815940286"><ele>741.0</ele><time>2026-05-02T15:13:22.001Z</time></trkpt><trkpt lat="43.54508743300579" lon="11.370181289585794"><ele>742.5999999999999</ele><time>2026-05-02T15:13:23.001Z</time></trkpt><trkpt lat="43.54510202030959" lon="11.370323639776906"><ele>744.2</ele><time>2026-05-02T15:13:25.001Z</time></trkpt><trkpt lat="43.545137673449325" lon="11.370466430234767"><ele>745.8</ele><time>2026-05-02T15:13:27.001Z</time></trkpt><trkpt lat="43.54515676282998" lon="11.370626241044754"><ele>747.4000000000001</ele><time>2026-05-02T15:13:29.001Z</time></trkpt><trkpt lat="43.54518899900745" lon="11.370764907030626"><ele>749.0</ele><time>2026-05-02T15:13:31Z</time></trkpt><trkpt lat="43.54521073649459" lon="11.370873326055156"><ele>750.2</ele><time>2026-05-02T15:13:34Z</time></trkpt><trkpt lat="43.54519434142509" lon="11.3709646592285"><ele>751.4000000000001</ele><time>2026-05-02T15:13:36Z</time></trkpt><trkpt lat="43.54515712884584" lon="11.371110282606498"><ele>752.6</ele><time>2026-05-02T15:13:38Z</time></trkpt><trkpt lat="43.545142236306724" lon="11.371220501855035"><ele>753.8</ele><time>2026-05-02T15:13:40Z</time></trkpt><trkpt lat="43.54511932155006" lon="11.37135212318224"><ele>755.0</ele><time>2026-05-02T15:13:42Z</time></trkpt><trkpt lat="43.54510376817345" lon="11.371499179231646"><ele>755.0</ele><time>2026-05-02T15:13:44Z</time></trkpt><trkpt lat="43.54505323786082" lon="11.37165245912235"><ele>755.0</ele><time>2026-05-02T15:13:46Z</time></trkpt><trkpt lat="43.54502408003058" lon="11.371808247795936"><ele>755.0</ele><time>2026-05-02T15:13:48Z</time></trkpt><trkpt lat="43.54501401841185" lon="11.371957489244254"><ele>755.0</ele><time>2026-05-02T15:13:50Z</time></trkpt><trkpt lat="43.54499757033688" lon="11.372089281617365"><ele>755.0</ele><time>2026-05-02T15:13:52Z</time></trkpt><trkpt lat="43.54497615176367" lon="11.372172012165713"><ele>755.0</ele><time>2026-05-02T15:13:54Z</time></trkpt><trkpt lat="43.54495634272679" lon="11.372261900327011"><ele>755.0</ele><time>2026-05-02T15:13:58Z</time></trkpt><trkpt lat="43.545000646359" lon="11.372351738891016"><ele>755.0</ele><time>2026-05-02T15:14:01Z</time></trkpt><trkpt lat="43.54507821967632" lon="11.372328754268151"><ele>755.0</ele><time>2026-05-02T15:14:03Z</time></trkpt><trkpt lat="43.545172312879735" lon="11.372229419034852"><ele>755.0</ele><time>2026-05-02T15:14:05Z</time></trkpt><trkpt lat="43.54525723184043" lon="11.372174403549304"><ele>755.0</ele><time>2026-05-02T15:14:07Z</time></trkpt><trkpt lat="43.545340600693656" lon="11.372207887168043"><ele>755.6</ele><time>2026-05-02T15:14:09Z</time></trkpt><trkpt lat="43.545418231458136" lon="11.372256463564671"><ele>756.2</ele><time>2026-05-02T15:14:11Z</time></trkpt><trkpt lat="43.54543986799818" lon="11.37236830551222"><ele>756.8</ele><time>2026-05-02T15:14:14Z</time></trkpt><trkpt lat="43.54540549869989" lon="11.372461409691992"><ele>757.4</ele><time>2026-05-02T15:14:16Z</time></trkpt><trkpt lat="43.54531805840406" lon="11.37253585004188"><ele>758.0</ele><time>2026-05-02T15:14:18Z</time></trkpt><trkpt lat="43.54523348315121" lon="11.372615081905801"><ele>758.0</ele><time>2026-05-02T15:14:20Z</time></trkpt><trkpt lat="43.545175976515274" lon="11.372736513894179"><ele>758.0</ele><time>2026-05-02T15:14:22Z</time></trkpt><trkpt lat="43.545150129953974" lon="11.372889697282442"><ele>758.0</ele><time>2026-05-02T15:14:24Z</time></trkpt><trkpt lat="43.545150294936676" lon="11.37302677657841"><ele>758.0</ele><time>2026-05-02T15:14:26Z</time></trkpt><trkpt lat="43.54516311997698" lon="11.373189912344815"><ele>758.0</ele><time>2026-05-02T15:14:28Z</time></trkpt><trkpt lat="43.54518927876747" lon="11.373309325803678"><ele>760.1666666666666</ele><time>2026-05-02T15:14:30Z</time></trkpt><trkpt lat="43.5452509508686" lon="11.373376444991946"><ele>762.3333333333333</ele><time>2026-05-02T15:14:32Z</time></trkpt><trkpt lat="43.5453215406679" lon="11.373397244574969"><ele>764.5</ele><time>2026-05-02T15:14:34Z</time></trkpt><trkpt lat="43.54543073539272" lon="11.373415354960105"><ele>766.6666666666666</ele><time>2026-05-02T15:14:36Z</time></trkpt><trkpt lat="43.54549754414447" lon="11.373462033644184"><ele>768.8333333333334</ele><time>2026-05-02T15:14:38Z</time></trkpt><trkpt lat="43.54559156607672" lon="11.373535654303225"><ele>771.0</ele><time>2026-05-02T15:14:40Z</time></trkpt><trkpt lat="43.54564330212877" lon="11.373624477336453"><ele>771.0</ele><time>2026-05-02T15:14:42Z</time></trkpt><trkpt lat="43.54571323760345" lon="11.373725581562635"><ele>771.0</ele><time>2026-05-02T15:14:44Z</time></trkpt><trkpt lat="43.545758008102375" lon="11.373806517024342"><ele>771.0</ele><time>2026-05-02T15:14:46Z</time></trkpt><trkpt lat="43.545813194872956" lon="11.373904670239257"><ele>771.0</ele><time>2026-05-02T15:14:48Z</time></trkpt><trkpt lat="43.54590040561413" lon="11.373981907316962"><ele>771.0</ele><time>2026-05-02T15:14:50Z</time></trkpt><trkpt lat="43.545959265689355" lon="11.374039644220932"><ele>771.0</ele><time>2026-05-02T15:14:52Z</time></trkpt><trkpt lat="43.54598109565841" lon="11.374167902716906"><ele>774.1666666666666</ele><time>2026-05-02T15:17:54Z</time></trkpt><trkpt lat="43.54599160048379" lon="11.374275741460636"><ele>777.3333333333333</ele><time>2026-05-02T15:17:56Z</time></trkpt><trkpt lat="43.54598490285918" lon="11.374381400654599"><ele>780.5</ele><time>2026-05-02T15:17:58Z</time></trkpt><trkpt lat="43.54594170822522" lon="11.374509176245741"><ele>783.6666666666666</ele><time>2026-05-02T15:18:00Z</time></trkpt><trkpt lat="43.54588926286776" lon="11.374661879151002"><ele>786.8333333333333</ele><time>2026-05-02T15:18:02Z</time></trkpt><trkpt lat="43.54586665858572" lon="11.374748749514252"><ele>790.0</ele><time>2026-05-02T15:18:03Z</time></trkpt><trkpt lat="43.54582395472715" lon="11.37490854753969"><ele>792.2</ele><time>2026-05-02T15:18:05Z</time></trkpt><trkpt lat="43.54577007255925" lon="11.375028399472313"><ele>794.4</ele><time>2026-05-02T15:18:07Z</time></trkpt><trkpt lat="43.545674080518026" lon="11.375117684027401"><ele>796.5999999999999</ele><time>2026-05-02T15:18:09Z</time></trkpt><trkpt lat="43.54560862702542" lon="11.375157667794033"><ele>798.8</ele><time>2026-05-02T15:18:10Z</time></trkpt><trkpt lat="43.54551976042664" lon="11.375222836652556"><ele>801.0</ele><time>2026-05-02T15:18:11Z</time></trkpt><trkpt lat="43.5454525111468" lon="11.375274090323071"><ele>801.0</ele><time>2026-05-02T15:18:12Z</time></trkpt><trkpt lat="43.54539577156028" lon="11.375329959056288"><ele>801.0</ele><time>2026-05-02T15:18:13Z</time></trkpt><trkpt lat="43.545344630037505" lon="11.375422969451506"><ele>801.0</ele><time>2026-05-02T15:18:14Z</time></trkpt><trkpt lat="43.5453003630935" lon="11.375505416224435"><ele>801.0</ele><time>2026-05-02T15:18:15Z</time></trkpt><trkpt lat="43.54525148590895" lon="11.37557277671732"><ele>801.0</ele><time>2026-05-02T15:18:16Z</time></trkpt><trkpt lat="43.545191317049614" lon="11.375649557883298"><ele>801.0</ele><time>2026-05-02T15:18:17Z</time></trkpt><trkpt lat="43.545168274538966" lon="11.375733978048778"><ele>801.0</ele><time>2026-05-02T15:18:18Z</time></trkpt><trkpt lat="43.54513325874195" lon="11.37589681585422"><ele>804.1666666666666</ele><time>2026-05-02T15:18:20Z</time></trkpt><trkpt lat="43.54510040658321" lon="11.375984724056078"><ele>807.3333333333333</ele><time>2026-05-02T15:18:21Z</time></trkpt><trkpt lat="43.54504070393475" lon="11.376129788298664"><ele>810.5</ele><time>2026-05-02T15:18:23Z</time></trkpt><trkpt lat="43.544992213226244" lon="11.376241814435797"><ele>813.6666666666666</ele><time>2026-05-02T15:18:25Z</time></trkpt><trkpt lat="43.54492356636772" lon="11.376325340518088"><ele>816.8333333333333</ele><time>2026-05-02T15:18:27Z</time></trkpt><trkpt lat="43.54487623726778" lon="11.3763979162288"><ele>820.0</ele><time>2026-05-02T15:18:28Z</time></trkpt><trkpt lat="43.54482986934659" lon="11.376469937688938"><ele>822.2</ele><time>2026-05-02T15:18:29Z</time></trkpt><trkpt lat="43.54478193904749" lon="11.376536517921565"><ele>824.4</ele><time>2026-05-02T15:18:30Z</time></trkpt><trkpt lat="43.54469012449986" lon="11.376611593497616"><ele>826.5999999999999</ele><time>2026-05-02T15:18:32Z</time></trkpt><trkpt lat="43.544644690470264" lon="11.376673088749437"><ele>828.8</ele><time>2026-05-02T15:18:33Z</time></trkpt><trkpt lat="43.544593973692606" lon="11.376818114499413"><ele>831.0</ele><time>2026-05-02T15:18:35Z</time></trkpt><trkpt lat="43.54456913201055" lon="11.37697712242827"><ele>831.0</ele><time>2026-05-02T15:18:37Z</time></trkpt><trkpt lat="43.544552086637815" lon="11.37706783846604"><ele>831.0</ele><time>2026-05-02T15:18:38Z</time></trkpt><trkpt lat="43.54452151368239" lon="11.377232903341584"><ele>831.0</ele><time>2026-05-02T15:18:40Z</time></trkpt><trkpt lat="43.54449817007425" lon="11.377392347463811"><ele>831.0</ele><time>2026-05-02T15:18:42Z</time></trkpt><trkpt lat="43.54448347155348" lon="11.377519740567918"><ele>831.0</ele><time>2026-05-02T15:18:44Z</time></trkpt><trkpt lat="43.54445845685803" lon="11.377607470746897"><ele>833.5999999999999</ele><time>2026-05-02T15:18:46Z</time></trkpt><trkpt lat="43.54441759216003" lon="11.37771898038783"><ele>836.2</ele><time>2026-05-02T15:18:48Z</time></trkpt><trkpt lat="43.54439551877312" lon="11.37786591026634"><ele>838.8</ele><time>2026-05-02T15:18:50Z</time></trkpt><trkpt lat="43.54438927300115" lon="11.377957395182019"><ele>841.4000000000001</ele><time>2026-05-02T15:18:51Z</time></trkpt><trkpt lat="43.54443408243906" lon="11.378144101915824"><ele>844.0</ele><time>2026-05-02T15:18:53Z</time></trkpt><trkpt lat="43.54445905445841" lon="11.378265302695617"><ele>844.8000000000001</ele><time>2026-05-02T15:18:56Z</time></trkpt><trkpt lat="43.54448205118545" lon="11.378371852221294"><ele>845.6</ele><time>2026-05-02T15:18:59Z</time></trkpt><trkpt lat="43.54448788678717" lon="11.378466238122115"><ele>846.4</ele><time>2026-05-02T15:19:01Z</time></trkpt><trkpt lat="43.54451171615073" lon="11.378572378229329"><ele>847.2</ele><time>2026-05-02T15:19:03Z</time></trkpt><trkpt lat="43.54455318042226" lon="11.378712153415512"><ele>848.0</ele><time>2026-05-02T15:19:05Z</time></trkpt><trkpt lat="43.5445927052321" lon="11.378875068152285"><ele>845.2</ele><time>2026-05-02T15:19:07Z</time></trkpt><trkpt lat="43.54462935131073" lon="11.378980934380719"><ele>842.4</ele><time>2026-05-02T15:19:08Z</time></trkpt><trkpt lat="43.54468181324864" lon="11.379066125190727"><ele>839.6</ele><time>2026-05-02T15:19:09Z</time></trkpt><trkpt lat="43.54472685919603" lon="11.379179829604308"><ele>836.8000000000001</ele><time>2026-05-02T15:19:10Z</time></trkpt><trkpt lat="43.5447373662723" lon="11.379328207827529"><ele>834.0</ele><time>2026-05-02T15:19:11Z</time></trkpt><trkpt lat="43.54474340249499" lon="11.379545516211609"><ele>834.6666666666666</ele><time>2026-05-02T15:19:12Z</time></trkpt><trkpt lat="43.54473318693878" lon="11.379691126438376"><ele>835.3333333333333</ele><time>2026-05-02T15:19:13Z</time></trkpt><trkpt lat="43.544721332778145" lon="11.37981793103008"><ele>836.0</ele><time>2026-05-02T15:19:14Z</time></trkpt><trkpt lat="43.544711547036016" lon="11.37993697415732"><ele>836.6666666666666</ele><time>2026-05-02T15:19:15Z</time></trkpt><trkpt lat="43.54469085637823" lon="11.380030990494927"><ele>837.3333333333333</ele><time>2026-05-02T15:19:16Z</time></trkpt><trkpt lat="43.54467847031526" lon="11.380117262333366"><ele>838.0</ele><time>2026-05-02T15:19:17Z</time></trkpt><trkpt lat="43.54466934208207" lon="11.38020513825175"><ele>837.9999999999999</ele><time>2026-05-02T15:19:18Z</time></trkpt><trkpt lat="43.54466386707359" lon="11.380294312746623"><ele>838.0</ele><time>2026-05-02T15:19:19Z</time></trkpt><trkpt lat="43.54465878910461" lon="11.38039548396875"><ele>838.0</ele><time>2026-05-02T15:19:20Z</time></trkpt><trkpt lat="43.544660808633246" lon="11.380491972526823"><ele>838.0</ele><time>2026-05-02T15:19:21Z</time></trkpt><trkpt lat="43.54468527455871" lon="11.380667851734193"><ele>837.9999999999999</ele><time>2026-05-02T15:19:23Z</time></trkpt><trkpt lat="43.54470427312124" lon="11.380769290911163"><ele>838.0</ele><time>2026-05-02T15:19:24Z</time></trkpt><trkpt lat="43.544731199367064" lon="11.380875169682167"><ele>837.9999999999999</ele><time>2026-05-02T15:19:25Z</time></trkpt><trkpt lat="43.54475049396685" lon="11.380975834915388"><ele>838.0</ele><time>2026-05-02T15:19:26Z</time></trkpt><trkpt lat="43.54477867568753" lon="11.381077173539513"><ele>838.0</ele><time>2026-05-02T15:19:27Z</time></trkpt><trkpt lat="43.544815237180764" lon="11.381179043864945"><ele>838.0</ele><time>2026-05-02T15:19:28Z</time></trkpt><trkpt lat="43.54484130519038" lon="11.381289552362439"><ele>837.9999999999999</ele><time>2026-05-02T15:19:29Z</time></trkpt><trkpt lat="43.544860154092596" lon="11.3813835438741"><ele>838.0</ele><time>2026-05-02T15:19:30Z</time></trkpt><trkpt lat="43.54488559132006" lon="11.381491347755217"><ele>836.6666666666666</ele><time>2026-05-02T15:19:31Z</time></trkpt><trkpt lat="43.544920217390136" lon="11.381589030101235"><ele>835.3333333333333</ele><time>2026-05-02T15:19:32Z</time></trkpt><trkpt lat="43.5449577757693" lon="11.381677742167266"><ele>834.0</ele><time>2026-05-02T15:19:33Z</time></trkpt><trkpt lat="43.54500846682567" lon="11.381781536128834"><ele>832.6666666666667</ele><time>2026-05-02T15:19:34Z</time></trkpt><trkpt lat="43.545052591047146" lon="11.381890685478208"><ele>831.3333333333334</ele><time>2026-05-02T15:19:35Z</time></trkpt><trkpt lat="43.54510155968987" lon="11.38200347021266"><ele>830.0</ele><time>2026-05-02T15:19:36Z</time></trkpt><trkpt lat="43.545135747029335" lon="11.382097012051066"><ele>829.3333333333334</ele><time>2026-05-02T15:19:37Z</time></trkpt><trkpt lat="43.54516392174633" lon="11.382208916939536"><ele>828.6666666666667</ele><time>2026-05-02T15:19:38Z</time></trkpt><trkpt lat="43.54519240212916" lon="11.382307339761766"><ele>828.0</ele><time>2026-05-02T15:19:39Z</time></trkpt><trkpt lat="43.54524360104013" lon="11.382411906197783"><ele>827.3333333333333</ele><time>2026-05-02T15:19:41Z</time></trkpt><trkpt lat="43.54527694818139" lon="11.382502459125112"><ele>826.6666666666666</ele><time>2026-05-02T15:19:45Z</time></trkpt><trkpt lat="43.54527432805038" lon="11.382385012238197"><ele>826.0</ele><time>2026-05-02T15:19:49Z</time></trkpt><trkpt lat="43.5452062905536" lon="11.38238867691115"><ele>826.0</ele><time>2026-05-02T15:19:52Z</time></trkpt><trkpt lat="43.545246378320584" lon="11.382470617232663"><ele>826.0</ele><time>2026-05-02T15:19:55Z</time></trkpt><trkpt lat="43.545354007642935" lon="11.382450775033352"><ele>826.0</ele><time>2026-05-02T15:19:57Z</time></trkpt><trkpt lat="43.54542100873347" lon="11.38245416788563"><ele>826.0</ele><time>2026-05-02T15:19:59Z</time></trkpt><trkpt lat="43.545527942810075" lon="11.382493173751032"><ele>826.0</ele><time>2026-05-02T15:20:01Z</time></trkpt><trkpt lat="43.545628387562765" lon="11.382554974908828"><ele>830.1999999999999</ele><time>2026-05-02T15:20:03Z</time></trkpt><trkpt lat="43.54572535058117" lon="11.382599508263455"><ele>834.4</ele><time>2026-05-02T15:20:05Z</time></trkpt><trkpt lat="43.54583568398086" lon="11.382666222931183"><ele>838.6</ele><time>2026-05-02T15:20:07Z</time></trkpt><trkpt lat="43.54593584182286" lon="11.382768207740673"><ele>842.8</ele><time>2026-05-02T15:20:09Z</time></trkpt><trkpt lat="43.545975984861826" lon="11.382841070984998"><ele>847.0</ele><time>2026-05-02T15:20:10Z</time></trkpt><trkpt lat="43.5460122392651" lon="11.38291712160498"><ele>847.0</ele><time>2026-05-02T15:20:11Z</time></trkpt><trkpt lat="43.54604815660076" lon="11.382990323164515"><ele>847.0</ele><time>2026-05-02T15:20:12Z</time></trkpt><trkpt lat="43.546085560460895" lon="11.383062068678452"><ele>847.0</ele><time>2026-05-02T15:20:13Z</time></trkpt><trkpt lat="43.54613375519244" lon="11.383133254399715"><ele>847.0</ele><time>2026-05-02T15:20:14Z</time></trkpt><trkpt lat="43.5461832101881" lon="11.383212067102175"><ele>847.0</ele><time>2026-05-02T15:20:15Z</time></trkpt><trkpt lat="43.546228205519306" lon="11.383295797123887"><ele>847.0</ele><time>2026-05-02T15:20:16Z</time></trkpt><trkpt lat="43.5462761118334" lon="11.383353632227832"><ele>847.0</ele><time>2026-05-02T15:20:17Z</time></trkpt><trkpt lat="43.54632833717741" lon="11.38341917885864"><ele>848.3333333333333</ele><time>2026-05-02T15:20:18Z</time></trkpt><trkpt lat="43.54637909477915" lon="11.383490784902856"><ele>849.6666666666666</ele><time>2026-05-02T15:20:19Z</time></trkpt><trkpt lat="43.54643944312469" lon="11.383555268751884"><ele>851.0</ele><time>2026-05-02T15:20:20Z</time></trkpt><trkpt lat="43.54649295477475" lon="11.383617067818314"><ele>852.3333333333333</ele><time>2026-05-02T15:20:21Z</time></trkpt><trkpt lat="43.546555010919654" lon="11.383677356827075"><ele>853.6666666666666</ele><time>2026-05-02T15:20:22Z</time></trkpt><trkpt lat="43.54661558539136" lon="11.38373875038032"><ele>855.0</ele><time>2026-05-02T15:20:23Z</time></trkpt><trkpt lat="43.546688027396506" lon="11.383792150154731"><ele>855.0</ele><time>2026-05-02T15:20:24Z</time></trkpt><trkpt lat="43.54674725888709" lon="11.383842936851522"><ele>855.0</ele><time>2026-05-02T15:20:25Z</time></trkpt><trkpt lat="43.54685739144752" lon="11.38392446324618"><ele>855.0</ele><time>2026-05-02T15:20:27Z</time></trkpt><trkpt lat="43.546923164644326" lon="11.383960554579145"><ele>855.0</ele><time>2026-05-02T15:20:28Z</time></trkpt><trkpt lat="43.54699066204338" lon="11.38399234814055"><ele>855.0</ele><time>2026-05-02T15:20:29Z</time></trkpt><trkpt lat="43.54710424017314" lon="11.384024361964087"><ele>853.8</ele><time>2026-05-02T15:20:31Z</time></trkpt><trkpt lat="43.54721075104132" lon="11.384034042187135"><ele>852.6</ele><time>2026-05-02T15:20:33Z</time></trkpt><trkpt lat="43.54734316352888" lon="11.384060422098296"><ele>851.4000000000001</ele><time>2026-05-02T15:20:35Z</time></trkpt><trkpt lat="43.547415799506226" lon="11.384072283996142"><ele>850.2</ele><time>2026-05-02T15:20:36Z</time></trkpt><trkpt lat="43.54754536950871" lon="11.384072129967409"><ele>849.0</ele><time>2026-05-02T15:20:38Z</time></trkpt><trkpt lat="43.54765774318626" lon="11.384095138712976"><ele>849.0</ele><time>2026-05-02T15:20:40Z</time></trkpt><trkpt lat="43.547753276227375" lon="11.38412096237914"><ele>849.0</ele><time>2026-05-02T15:20:42Z</time></trkpt><trkpt lat="43.54786443419726" lon="11.384120658085111"><ele>849.0</ele><time>2026-05-02T15:20:44Z</time></trkpt><trkpt lat="43.547953780129745" lon="11.384148018585604"><ele>849.0</ele><time>2026-05-02T15:20:46Z</time></trkpt><trkpt lat="43.54804285913982" lon="11.384164729248047"><ele>849.0</ele><time>2026-05-02T15:20:48Z</time></trkpt><trkpt lat="43.54815419275636" lon="11.38417410112785"><ele>848.0</ele><time>2026-05-02T15:20:50Z</time></trkpt><trkpt lat="43.54827240382384" lon="11.384196596796395"><ele>847.0</ele><time>2026-05-02T15:20:52Z</time></trkpt><trkpt lat="43.54837871630197" lon="11.384194339780569"><ele>846.0</ele><time>2026-05-02T15:20:53Z</time></trkpt><trkpt lat="43.54845567274964" lon="11.38419182533588"><ele>845.0</ele><time>2026-05-02T15:20:54Z</time></trkpt><trkpt lat="43.54855951519547" lon="11.384197535491868"><ele>844.0</ele><time>2026-05-02T15:20:56Z</time></trkpt><trkpt lat="43.54865325682352" lon="11.384223553679567"><ele>843.4999999999999</ele><time>2026-05-02T15:20:58Z</time></trkpt><trkpt lat="43.54873206833674" lon="11.384264313224056"><ele>843.0</ele><time>2026-05-02T15:21:00Z</time></trkpt><trkpt lat="43.54880059216312" lon="11.384306558738494"><ele>842.5</ele><time>2026-05-02T15:21:02Z</time></trkpt><trkpt lat="43.54889816837197" lon="11.384349461739342"><ele>842.0</ele><time>2026-05-02T15:21:04Z</time></trkpt><trkpt lat="43.54897689373183" lon="11.384469506843129"><ele>841.4999999999999</ele><time>2026-05-02T15:21:06Z</time></trkpt><trkpt lat="43.54902993772619" lon="11.38451746822495"><ele>841.0</ele><time>2026-05-02T15:21:07Z</time></trkpt><trkpt lat="43.54912660093092" lon="11.384626723248326"><ele>841.25</ele><time>2026-05-02T15:21:09Z</time></trkpt><trkpt lat="43.54919503194443" lon="11.38475848329784"><ele>841.5</ele><time>2026-05-02T15:21:11Z</time></trkpt><trkpt lat="43.54927494311629" lon="11.384901786311094"><ele>841.75</ele><time>2026-05-02T15:21:13Z</time></trkpt><trkpt lat="43.5493319494433" lon="11.385037143712095"><ele>842.0</ele><time>2026-05-02T15:21:15Z</time></trkpt><trkpt lat="43.54941729072982" lon="11.385181071128114"><ele>842.0</ele><time>2026-05-02T15:21:17Z</time></trkpt><trkpt lat="43.549466656081094" lon="11.385263238213199"><ele>842.0</ele><time>2026-05-02T15:21:18Z</time></trkpt><trkpt lat="43.54954321391027" lon="11.3853862334445"><ele>842.0</ele><time>2026-05-02T15:21:20Z</time></trkpt><trkpt lat="43.54958744565774" lon="11.385473646497408"><ele>842.0</ele><time>2026-05-02T15:21:21Z</time></trkpt><trkpt lat="43.54968578942732" lon="11.38553684633056"><ele>842.0</ele><time>2026-05-02T15:21:23Z</time></trkpt><trkpt lat="43.54979354683464" lon="11.385534955074384"><ele>845.3333333333334</ele><time>2026-05-02T15:21:25Z</time></trkpt><trkpt lat="43.54985845404638" lon="11.38555258300789"><ele>848.6666666666667</ele><time>2026-05-02T15:21:28Z</time></trkpt><trkpt lat="43.549942267282255" lon="11.385607599977364"><ele>852.0</ele><time>2026-05-02T15:21:31Z</time></trkpt><trkpt lat="43.54999770826961" lon="11.385655524856293"><ele>855.3333333333333</ele><time>2026-05-02T15:21:33Z</time></trkpt><trkpt lat="43.550055886738136" lon="11.385718389227113"><ele>858.6666666666666</ele><time>2026-05-02T15:21:35Z</time></trkpt><trkpt lat="43.550094105835534" lon="11.38579808579782"><ele>862.0</ele><time>2026-05-02T15:21:37Z</time></trkpt><trkpt lat="43.550148490116776" lon="11.385885946118734"><ele>862.0</ele><time>2026-05-02T15:21:39Z</time></trkpt><trkpt lat="43.550221506105274" lon="11.38597984317006"><ele>862.0</ele><time>2026-05-02T15:21:41Z</time></trkpt><trkpt lat="43.55027011083693" lon="11.386088840542609"><ele>862.0</ele><time>2026-05-02T15:21:43Z</time></trkpt><trkpt lat="43.55030978791696" lon="11.38615804117018"><ele>862.0</ele><time>2026-05-02T15:21:44Z</time></trkpt><trkpt lat="43.55035311182136" lon="11.386233884395002"><ele>862.0</ele><time>2026-05-02T15:21:45Z</time></trkpt><trkpt lat="43.55042189010596" lon="11.386385883263019"><ele>863.6666666666666</ele><time>2026-05-02T15:21:47Z</time></trkpt><trkpt lat="43.550459718954606" lon="11.38647130152862"><ele>865.3333333333333</ele><time>2026-05-02T15:21:48Z</time></trkpt><trkpt lat="43.55048769004561" lon="11.386561894045721"><ele>867.0</ele><time>2026-05-02T15:21:49Z</time></trkpt><trkpt lat="43.55050901777724" lon="11.386648715110782"><ele>868.6666666666667</ele><time>2026-05-02T15:21:50Z</time></trkpt><trkpt lat="43.55051774623172" lon="11.386793139125357"><ele>870.3333333333334</ele><time>2026-05-02T15:21:52Z</time></trkpt><trkpt lat="43.550550709825046" lon="11.386888737181009"><ele>872.0</ele><time>2026-05-02T15:21:54Z</time></trkpt><trkpt lat="43.550651488004924" lon="11.386916272843726"><ele>872.0000000000001</ele><time>2026-05-02T15:21:56Z</time></trkpt><trkpt lat="43.550715181523294" lon="11.38689247271706"><ele>872.0</ele><time>2026-05-02T15:21:57Z</time></trkpt><trkpt lat="43.55077153808216" lon="11.386851024964479"><ele>872.0</ele><time>2026-05-02T15:21:58Z</time></trkpt><trkpt lat="43.550864624508876" lon="11.38676861028313"><ele>872.0</ele><time>2026-05-02T15:22:00Z</time></trkpt><trkpt lat="43.550979047760734" lon="11.38671614846431"><ele>872.0000000000001</ele><time>2026-05-02T15:22:02Z</time></trkpt><trkpt lat="43.551045513546335" lon="11.38670403581111"><ele>872.0</ele><time>2026-05-02T15:22:03Z</time></trkpt><trkpt lat="43.55111752056294" lon="11.386693478595346"><ele>871.5</ele><time>2026-05-02T15:22:04Z</time></trkpt><trkpt lat="43.55122086750334" lon="11.386667632059718"><ele>871.0</ele><time>2026-05-02T15:22:06Z</time></trkpt><trkpt lat="43.55133264687236" lon="11.386642688670925"><ele>870.5</ele><time>2026-05-02T15:22:08Z</time></trkpt><trkpt lat="43.551452280104236" lon="11.386670019778151"><ele>870.0</ele><time>2026-05-02T15:22:10Z</time></trkpt><trkpt lat="43.5515856365671" lon="11.38668330795045"><ele>870.0</ele><time>2026-05-02T15:22:12Z</time></trkpt><trkpt lat="43.55166140428471" lon="11.3867312992475"><ele>870.0</ele><time>2026-05-02T15:22:13Z</time></trkpt><trkpt lat="43.55178964350447" lon="11.386850443098949"><ele>870.0</ele><time>2026-05-02T15:22:15Z</time></trkpt><trkpt lat="43.55184674024239" lon="11.386918657229906"><ele>870.0</ele><time>2026-05-02T15:22:16Z</time></trkpt><trkpt lat="43.551890630262534" lon="11.38700184296075"><ele>870.0</ele><time>2026-05-02T15:22:17Z</time></trkpt><trkpt lat="43.551942493371406" lon="11.387075547588038"><ele>871.0</ele><time>2026-05-02T15:22:18Z</time></trkpt><trkpt lat="43.55204952451026" lon="11.387162539635584"><ele>872.0</ele><time>2026-05-02T15:22:20Z</time></trkpt><trkpt lat="43.552127030112615" lon="11.38713194745219"><ele>873.0</ele><time>2026-05-02T15:22:21Z</time></trkpt><trkpt lat="43.55221625781133" lon="11.387097608415395"><ele>874.0</ele><time>2026-05-02T15:22:22Z</time></trkpt><trkpt lat="43.55228154690467" lon="11.387081348148996"><ele>875.0</ele><time>2026-05-02T15:22:23Z</time></trkpt><trkpt lat="43.55242995182573" lon="11.387118858328083"><ele>875.0</ele><time>2026-05-02T15:22:25Z</time></trkpt><trkpt lat="43.55249361697173" lon="11.387151669499001"><ele>875.0</ele><time>2026-05-02T15:22:26Z</time></trkpt><trkpt lat="43.552566518963836" lon="11.387164196559098"><ele>875.0</ele><time>2026-05-02T15:22:27Z</time></trkpt><trkpt lat="43.55269262863262" lon="11.387108189830519"><ele>875.0</ele><time>2026-05-02T15:22:29Z</time></trkpt><trkpt lat="43.55279813661168" lon="11.387036130722578"><ele>875.0</ele><time>2026-05-02T15:22:31Z</time></trkpt><trkpt lat="43.55286304961517" lon="11.387040929207057"><ele>875.6666666666667</ele><time>2026-05-02T15:22:32Z</time></trkpt><trkpt lat="43.55292132575523" lon="11.386997312223691"><ele>876.3333333333334</ele><time>2026-05-02T15:22:33Z</time></trkpt><trkpt lat="43.55298469904822" lon="11.386963552861106"><ele>877.0</ele><time>2026-05-02T15:22:34Z</time></trkpt><trkpt lat="43.553050421724045" lon="11.386940703856775"><ele>877.6666666666667</ele><time>2026-05-02T15:22:35Z</time></trkpt><trkpt lat="43.55312033766207" lon="11.386909653359131"><ele>878.3333333333334</ele><time>2026-05-02T15:22:36Z</time></trkpt><trkpt lat="43.553251806465966" lon="11.386901635325978"><ele>879.0</ele><time>2026-05-02T15:22:38Z</time></trkpt><trkpt lat="43.553375004772214" lon="11.386898865725144"><ele>879.0</ele><time>2026-05-02T15:22:40Z</time></trkpt><trkpt lat="43.55350198445035" lon="11.386852322140028"><ele>879.0000000000001</ele><time>2026-05-02T15:22:42Z</time></trkpt><trkpt lat="43.553567486941205" lon="11.38681115030127"><ele>879.0000000000001</ele><time>2026-05-02T15:22:43Z</time></trkpt><trkpt lat="43.553665322646104" lon="11.386720013797406"><ele>879.0</ele><time>2026-05-02T15:22:45Z</time></trkpt><trkpt lat="43.55373554059993" lon="11.3866902653524"><ele>879.0</ele><time>2026-05-02T15:22:46Z</time></trkpt><trkpt lat="43.55380584944208" lon="11.386645500595446"><ele>879.2857142857143</ele><time>2026-05-02T15:22:47Z</time></trkpt><trkpt lat="43.55387956529891" lon="11.386634724531994"><ele>879.5714285714287</ele><time>2026-05-02T15:22:48Z</time></trkpt><trkpt lat="43.55394563542233" lon="11.386632492716668"><ele>879.8571428571429</ele><time>2026-05-02T15:22:49Z</time></trkpt><trkpt lat="43.55401617301875" lon="11.386611885756421"><ele>880.1428571428571</ele><time>2026-05-02T15:22:50Z</time></trkpt><trkpt lat="43.55407921684594" lon="11.38658885791532"><ele>880.4285714285714</ele><time>2026-05-02T15:22:51Z</time></trkpt><trkpt lat="43.55413800579264" lon="11.38655463205482"><ele>880.7142857142857</ele><time>2026-05-02T15:22:52Z</time></trkpt><trkpt lat="43.55423380448593" lon="11.38649380852282"><ele>881.0</ele><time>2026-05-02T15:22:54Z</time></trkpt><trkpt lat="43.554307906456174" lon="11.38635506490267"><ele>881.5000000000001</ele><time>2026-05-02T15:22:56Z</time></trkpt><trkpt lat="43.554329309971294" lon="11.386272340876888"><ele>882.0</ele><time>2026-05-02T15:22:57Z</time></trkpt><trkpt lat="43.55434939651672" lon="11.386183982497267"><ele>882.5</ele><time>2026-05-02T15:22:58Z</time></trkpt><trkpt lat="43.554373258058355" lon="11.386092702448103"><ele>883.0</ele><time>2026-05-02T15:22:59Z</time></trkpt><trkpt lat="43.554400920147074" lon="11.386011435180913"><ele>883.5000000000001</ele><time>2026-05-02T15:23:00Z</time></trkpt><trkpt lat="43.55446840342948" lon="11.385870646416151"><ele>884.0</ele><time>2026-05-02T15:23:02Z</time></trkpt><trkpt lat="43.554542994101936" lon="11.385730927726676"><ele>884.0000000000001</ele><time>2026-05-02T15:23:04Z</time></trkpt><trkpt lat="43.55458203862066" lon="11.385646411432445"><ele>884.0</ele><time>2026-05-02T15:23:05Z</time></trkpt><trkpt lat="43.554613614306376" lon="11.385562096788059"><ele>884.0</ele><time>2026-05-02T15:23:06Z</time></trkpt><trkpt lat="43.55464876932843" lon="11.38547909055841"><ele>884.0</ele><time>2026-05-02T15:23:07Z</time></trkpt><trkpt lat="43.55469167962792" lon="11.385388774609654"><ele>884.0</ele><time>2026-05-02T15:23:08Z</time></trkpt><trkpt lat="43.55472812201438" lon="11.385307806218268"><ele>884.0000000000001</ele><time>2026-05-02T15:23:09Z</time></trkpt><trkpt lat="43.554764178860616" lon="11.38522936813059"><ele>884.0</ele><time>2026-05-02T15:23:10Z</time></trkpt><trkpt lat="43.55480137882573" lon="11.385152495773239"><ele>881.3333333333334</ele><time>2026-05-02T15:23:11Z</time></trkpt><trkpt lat="43.554833446833996" lon="11.385068728586099"><ele>878.6666666666667</ele><time>2026-05-02T15:23:12Z</time></trkpt><trkpt lat="43.554858127004735" lon="11.384978667409014"><ele>876.0</ele><time>2026-05-02T15:23:13Z</time></trkpt><trkpt lat="43.55488681939977" lon="11.384890929240001"><ele>873.3333333333333</ele><time>2026-05-02T15:23:14Z</time></trkpt><trkpt lat="43.55494033889543" lon="11.384731216468943"><ele>870.6666666666666</ele><time>2026-05-02T15:23:16Z</time></trkpt><trkpt lat="43.554973060950495" lon="11.384647385086566"><ele>868.0</ele><time>2026-05-02T15:23:17Z</time></trkpt><trkpt lat="43.555013248545734" lon="11.384571667307464"><ele>866.9999999999999</ele><time>2026-05-02T15:23:18Z</time></trkpt><trkpt lat="43.5550448317574" lon="11.38448267000659"><ele>866.0</ele><time>2026-05-02T15:23:19Z</time></trkpt><trkpt lat="43.555124816134445" lon="11.384450980170998"><ele>865.0</ele><time>2026-05-02T15:23:20Z</time></trkpt><trkpt lat="43.55519804205459" lon="11.384428703845632"><ele>864.0</ele><time>2026-05-02T15:23:21Z</time></trkpt><trkpt lat="43.555277901167265" lon="11.384421663513102"><ele>862.9999999999999</ele><time>2026-05-02T15:23:22Z</time></trkpt><trkpt lat="43.555363146299555" lon="11.3844236796792"><ele>862.0</ele><time>2026-05-02T15:23:23Z</time></trkpt><trkpt lat="43.55545082685196" lon="11.384429462960192"><ele>862.0</ele><time>2026-05-02T15:23:24Z</time></trkpt><trkpt lat="43.55553754601607" lon="11.384421556455123"><ele>862.0</ele><time>2026-05-02T15:23:25Z</time></trkpt><trkpt lat="43.55562406892279" lon="11.384402510792356"><ele>862.0</ele><time>2026-05-02T15:23:26Z</time></trkpt><trkpt lat="43.55570495649692" lon="11.38436904538418"><ele>862.0</ele><time>2026-05-02T15:23:27Z</time></trkpt><trkpt lat="43.55577952297443" lon="11.384305156528711"><ele>862.0</ele><time>2026-05-02T15:23:28Z</time></trkpt><trkpt lat="43.55586735965333" lon="11.384203433663162"><ele>861.9999999999999</ele><time>2026-05-02T15:23:29Z</time></trkpt><trkpt lat="43.555930250879136" lon="11.38411988897571"><ele>862.0</ele><time>2026-05-02T15:23:30Z</time></trkpt><trkpt lat="43.55600775365699" lon="11.384064570475559"><ele>862.0</ele><time>2026-05-02T15:23:31Z</time></trkpt><trkpt lat="43.55608067377644" lon="11.38401529163369"><ele>862.0</ele><time>2026-05-02T15:23:32Z</time></trkpt><trkpt lat="43.55615632932635" lon="11.383969810710957"><ele>861.9999999999999</ele><time>2026-05-02T15:23:33Z</time></trkpt><trkpt lat="43.556240295460036" lon="11.383921162123096"><ele>862.0</ele><time>2026-05-02T15:23:34Z</time></trkpt><trkpt lat="43.55632988156165" lon="11.383871357702672"><ele>860.6666666666666</ele><time>2026-05-02T15:23:35Z</time></trkpt><trkpt lat="43.55640663167796" lon="11.38382376982037"><ele>859.3333333333333</ele><time>2026-05-02T15:23:35.999Z</time></trkpt><trkpt lat="43.55646977926743" lon="11.383790526938311"><ele>858.0</ele><time>2026-05-02T15:23:36.999Z</time></trkpt><trkpt lat="43.55652858143346" lon="11.383758335431184"><ele>856.6666666666667</ele><time>2026-05-02T15:23:37.999Z</time></trkpt><trkpt lat="43.55658919239396" lon="11.383726633787138"><ele>855.3333333333334</ele><time>2026-05-02T15:23:38.999Z</time></trkpt><trkpt lat="43.556703777543376" lon="11.383679077803682"><ele>854.0</ele><time>2026-05-02T15:23:40.999Z</time></trkpt><trkpt lat="43.556813310287325" lon="11.383643412690809"><ele>854.0</ele><time>2026-05-02T15:23:43Z</time></trkpt><trkpt lat="43.55687425267784" lon="11.38366549238113"><ele>854.0000000000001</ele><time>2026-05-02T15:23:44Z</time></trkpt><trkpt lat="43.55699597825059" lon="11.383730499416819"><ele>854.0000000000001</ele><time>2026-05-02T15:23:46Z</time></trkpt><trkpt lat="43.557063403177274" lon="11.38375377205136"><ele>854.0</ele><time>2026-05-02T15:23:47Z</time></trkpt><trkpt lat="43.55718807761555" lon="11.383769114242659"><ele>854.0</ele><time>2026-05-02T15:23:49Z</time></trkpt><trkpt lat="43.557300631437535" lon="11.38379163698722"><ele>854.0000000000001</ele><time>2026-05-02T15:23:51Z</time></trkpt><trkpt lat="43.55740979029262" lon="11.38375479030908"><ele>854.0</ele><time>2026-05-02T15:23:53Z</time></trkpt><trkpt lat="43.55752557833116" lon="11.383703106009948"><ele>854.0</ele><time>2026-05-02T15:23:55Z</time></trkpt><trkpt lat="43.55758955392427" lon="11.38366176443396"><ele>854.0</ele><time>2026-05-02T15:23:56Z</time></trkpt><trkpt lat="43.55765725488771" lon="11.383624196371548"><ele>854.0000000000001</ele><time>2026-05-02T15:23:57Z</time></trkpt><trkpt lat="43.55772059030992" lon="11.383588432192342"><ele>854.0</ele><time>2026-05-02T15:23:58Z</time></trkpt><trkpt lat="43.5577827975883" lon="11.383549763216845"><ele>854.0000000000001</ele><time>2026-05-02T15:23:59Z</time></trkpt><trkpt lat="43.557845409614764" lon="11.383505066461026"><ele>854.0</ele><time>2026-05-02T15:24:00Z</time></trkpt><trkpt lat="43.557915541162494" lon="11.383468880148147"><ele>854.0</ele><time>2026-05-02T15:24:01Z</time></trkpt><trkpt lat="43.55798850218321" lon="11.38342162066558"><ele>854.0</ele><time>2026-05-02T15:24:02Z</time></trkpt><trkpt lat="43.558052386440565" lon="11.383376785065614"><ele>854.0000000000001</ele><time>2026-05-02T15:24:03Z</time></trkpt><trkpt lat="43.558168298781695" lon="11.383311052237918"><ele>854.0</ele><time>2026-05-02T15:24:05Z</time></trkpt><trkpt lat="43.55828212919421" lon="11.383209162541187"><ele>854.2857142857143</ele><time>2026-05-02T15:24:07Z</time></trkpt><trkpt lat="43.55833739199642" lon="11.383158472856584"><ele>854.5714285714286</ele><time>2026-05-02T15:24:08Z</time></trkpt><trkpt lat="43.55838170428482" lon="11.38309503504896"><ele>854.8571428571429</ele><time>2026-05-02T15:24:09Z</time></trkpt><trkpt lat="43.55844085841409" lon="11.383058600793673"><ele>855.1428571428571</ele><time>2026-05-02T15:24:10Z</time></trkpt><trkpt lat="43.55849179273572" lon="11.383000676534971"><ele>855.4285714285714</ele><time>2026-05-02T15:24:11Z</time></trkpt><trkpt lat="43.5585429578778" lon="11.382948810755533"><ele>855.7142857142858</ele><time>2026-05-02T15:24:12Z</time></trkpt><trkpt lat="43.55859972527345" lon="11.382888051524843"><ele>856.0</ele><time>2026-05-02T15:24:13Z</time></trkpt><trkpt lat="43.55872163814977" lon="11.3828692351394"><ele>853.9999999999999</ele><time>2026-05-02T15:24:15Z</time></trkpt><trkpt lat="43.55885310938286" lon="11.382835452204686"><ele>852.0</ele><time>2026-05-02T15:24:17Z</time></trkpt><trkpt lat="43.55891861857208" lon="11.38281825936893"><ele>850.0</ele><time>2026-05-02T15:24:18Z</time></trkpt><trkpt lat="43.55899025932864" lon="11.382794214733769"><ele>848.0</ele><time>2026-05-02T15:24:19Z</time></trkpt><trkpt lat="43.559049507233794" lon="11.382746459435168"><ele>845.9999999999999</ele><time>2026-05-02T15:24:20Z</time></trkpt><trkpt lat="43.55911425435395" lon="11.38270253070446"><ele>844.0</ele><time>2026-05-02T15:24:21Z</time></trkpt><trkpt lat="43.55918103722021" lon="11.382652434843324"><ele>843.9999999999999</ele><time>2026-05-02T15:24:22Z</time></trkpt><trkpt lat="43.559247581617775" lon="11.382589375721581"><ele>844.0</ele><time>2026-05-02T15:24:23Z</time></trkpt><trkpt lat="43.55930158919093" lon="11.382518295741793"><ele>844.0</ele><time>2026-05-02T15:24:24Z</time></trkpt><trkpt lat="43.55935674684169" lon="11.382439968942888"><ele>844.0</ele><time>2026-05-02T15:24:25Z</time></trkpt><trkpt lat="43.559411930893035" lon="11.382366226833907"><ele>843.9999999999999</ele><time>2026-05-02T15:24:26Z</time></trkpt><trkpt lat="43.55946088222574" lon="11.382295137254774"><ele>844.0</ele><time>2026-05-02T15:24:27Z</time></trkpt><trkpt lat="43.55950924470208" lon="11.382211762876906"><ele>843.1666666666666</ele><time>2026-05-02T15:24:28Z</time></trkpt><trkpt lat="43.55956377589285" lon="11.38212681544231"><ele>842.3333333333333</ele><time>2026-05-02T15:24:29Z</time></trkpt><trkpt lat="43.5596142260374" lon="11.382034952910386"><ele>841.5</ele><time>2026-05-02T15:24:30Z</time></trkpt><trkpt lat="43.55965959876147" lon="11.381942690582461"><ele>840.6666666666667</ele><time>2026-05-02T15:24:31Z</time></trkpt><trkpt lat="43.55970965865086" lon="11.381855276371647"><ele>839.8333333333334</ele><time>2026-05-02T15:24:32Z</time></trkpt><trkpt lat="43.559767215750576" lon="11.381760405561279"><ele>839.0</ele><time>2026-05-02T15:24:33Z</time></trkpt><trkpt lat="43.55982642220291" lon="11.381651680881017"><ele>839.0</ele><time>2026-05-02T15:24:34Z</time></trkpt><trkpt lat="43.55989766762725" lon="11.381531195262566"><ele>839.0</ele><time>2026-05-02T15:24:35Z</time></trkpt><trkpt lat="43.55998640698588" lon="11.381386289528601"><ele>839.0</ele><time>2026-05-02T15:24:36Z</time></trkpt><trkpt lat="43.56007780957447" lon="11.381235612812949"><ele>839.0</ele><time>2026-05-02T15:24:37Z</time></trkpt><trkpt lat="43.56016790132272" lon="11.381074540381578"><ele>840.4000000000001</ele><time>2026-05-02T15:24:38Z</time></trkpt><trkpt lat="43.560253978892995" lon="11.380929211972838"><ele>841.8</ele><time>2026-05-02T15:24:39Z</time></trkpt><trkpt lat="43.56032343822685" lon="11.380803879178004"><ele>843.2</ele><time>2026-05-02T15:24:40Z</time></trkpt><trkpt lat="43.560397003787074" lon="11.380706930972554"><ele>844.5999999999999</ele><time>2026-05-02T15:24:41Z</time></trkpt><trkpt lat="43.56047952355482" lon="11.380638202687708"><ele>846.0</ele><time>2026-05-02T15:24:42Z</time></trkpt><trkpt lat="43.560572218781324" lon="11.380631546694696"><ele>846.0</ele><time>2026-05-02T15:24:43Z</time></trkpt><trkpt lat="43.56067700639348" lon="11.380606519041685"><ele>846.0</ele><time>2026-05-02T15:24:44Z</time></trkpt><trkpt lat="43.56081208201418" lon="11.380547192035188"><ele>846.0</ele><time>2026-05-02T15:24:45Z</time></trkpt><trkpt lat="43.56096983584637" lon="11.38048274375944"><ele>846.0</ele><time>2026-05-02T15:24:46Z</time></trkpt><trkpt lat="43.561129442966354" lon="11.380405605677684"><ele>847.4</ele><time>2026-05-02T15:24:47Z</time></trkpt><trkpt lat="43.5612515436223" lon="11.380345241704477"><ele>848.8</ele><time>2026-05-02T15:24:48Z</time></trkpt><trkpt lat="43.561344781228335" lon="11.380294809809163"><ele>850.1999999999999</ele><time>2026-05-02T15:24:49Z</time></trkpt><trkpt lat="43.56141707600714" lon="11.380230511514316"><ele>851.5999999999999</ele><time>2026-05-02T15:24:50Z</time></trkpt><trkpt lat="43.561495346542024" lon="11.380118449462147"><ele>853.0</ele><time>2026-05-02T15:24:51Z</time></trkpt><trkpt lat="43.561589452914944" lon="11.379948845552965"><ele>853.0</ele><time>2026-05-02T15:24:52Z</time></trkpt><trkpt lat="43.56168748153439" lon="11.379777460738346"><ele>853.0</ele><time>2026-05-02T15:24:53Z</time></trkpt><trkpt lat="43.56178026576608" lon="11.379641281607444"><ele>853.0</ele><time>2026-05-02T15:24:54Z</time></trkpt><trkpt lat="43.5618739155604" lon="11.379512208485865"><ele>853.0</ele><time>2026-05-02T15:24:55Z</time></trkpt><trkpt lat="43.56196507737174" lon="11.379359008918756"><ele>850.5</ele><time>2026-05-02T15:24:56Z</time></trkpt><trkpt lat="43.562051051541985" lon="11.379200129109064"><ele>848.0</ele><time>2026-05-02T15:24:57Z</time></trkpt><trkpt lat="43.56212186068349" lon="11.37903823136303"><ele>845.5</ele><time>2026-05-02T15:24:58Z</time></trkpt><trkpt lat="43.562182881242414" lon="11.378883076460156"><ele>843.0</ele><time>2026-05-02T15:24:59Z</time></trkpt><trkpt lat="43.56224608505816" lon="11.378736758558626"><ele>843.0</ele><time>2026-05-02T15:25:00Z</time></trkpt><trkpt lat="43.56231439320104" lon="11.37860619674776"><ele>843.0</ele><time>2026-05-02T15:25:01Z</time></trkpt><trkpt lat="43.56239163131163" lon="11.378495643670458"><ele>843.0</ele><time>2026-05-02T15:25:02Z</time></trkpt><trkpt lat="43.56246899288244" lon="11.378395496098841"><ele>843.0</ele><time>2026-05-02T15:25:03Z</time></trkpt><trkpt lat="43.56254078654349" lon="11.378314498407773"><ele>843.0</ele><time>2026-05-02T15:25:04Z</time></trkpt><trkpt lat="43.56261216165556" lon="11.378246347891686"><ele>843.0</ele><time>2026-05-02T15:25:05Z</time></trkpt><trkpt lat="43.56268298221075" lon="11.378208067208845"><ele>843.0</ele><time>2026-05-02T15:25:06Z</time></trkpt><trkpt lat="43.56276655870981" lon="11.378183261560645"><ele>843.0</ele><time>2026-05-02T15:25:07Z</time></trkpt><trkpt lat="43.56284722713632" lon="11.378147342968905"><ele>843.0</ele><time>2026-05-02T15:25:08Z</time></trkpt><trkpt lat="43.56293507221212" lon="11.37810591939872"><ele>843.0</ele><time>2026-05-02T15:25:09Z</time></trkpt><trkpt lat="43.56303502879163" lon="11.378059818423704"><ele>843.0</ele><time>2026-05-02T15:25:10Z</time></trkpt><trkpt lat="43.5631405220968" lon="11.378012408064823"><ele>840.2</ele><time>2026-05-02T15:25:11Z</time></trkpt><trkpt lat="43.563236684819735" lon="11.377967142750576"><ele>837.4</ele><time>2026-05-02T15:25:12Z</time></trkpt><trkpt lat="43.56332639795243" lon="11.377924859317996"><ele>834.6</ele><time>2026-05-02T15:25:13Z</time></trkpt><trkpt lat="43.56341243181389" lon="11.377884499427433"><ele>831.8000000000001</ele><time>2026-05-02T15:25:14Z</time></trkpt><trkpt lat="43.56349593162474" lon="11.37785073670896"><ele>829.0</ele><time>2026-05-02T15:25:15Z</time></trkpt><trkpt lat="43.563575703652006" lon="11.377825368218279"><ele>829.0</ele><time>2026-05-02T15:25:16Z</time></trkpt><trkpt lat="43.56365232063636" lon="11.377799201381054"><ele>829.0</ele><time>2026-05-02T15:25:17Z</time></trkpt><trkpt lat="43.563731160394035" lon="11.377783262756969"><ele>829.0</ele><time>2026-05-02T15:25:18Z</time></trkpt><trkpt lat="43.563798974626565" lon="11.377827932062837"><ele>829.0</ele><time>2026-05-02T15:25:19Z</time></trkpt><trkpt lat="43.56385728249544" lon="11.377872319680627"><ele>829.0</ele><time>2026-05-02T15:25:20Z</time></trkpt><trkpt lat="43.563897690119056" lon="11.3779389503829"><ele>829.0</ele><time>2026-05-02T15:25:21Z</time></trkpt><trkpt lat="43.56393475992976" lon="11.378009318085676"><ele>829.0</ele><time>2026-05-02T15:25:22Z</time></trkpt><trkpt lat="43.563921191580135" lon="11.37817234178201"><ele>827.8333333333333</ele><time>2026-05-02T15:25:24Z</time></trkpt><trkpt lat="43.563875003250516" lon="11.37823891666917"><ele>826.6666666666666</ele><time>2026-05-02T15:25:25Z</time></trkpt><trkpt lat="43.56383586107509" lon="11.378336087997"><ele>825.5</ele><time>2026-05-02T15:25:26Z</time></trkpt><trkpt lat="43.56380993153074" lon="11.378437407634415"><ele>824.3333333333333</ele><time>2026-05-02T15:25:27Z</time></trkpt><trkpt lat="43.563800353193095" lon="11.378549836796685"><ele>823.1666666666666</ele><time>2026-05-02T15:25:28Z</time></trkpt><trkpt lat="43.563824352771334" lon="11.37866197546357"><ele>822.0</ele><time>2026-05-02T15:25:29Z</time></trkpt><trkpt lat="43.56387618893206" lon="11.378749398272046"><ele>822.0</ele><time>2026-05-02T15:25:30Z</time></trkpt><trkpt lat="43.56393077443271" lon="11.378819698631814"><ele>822.0</ele><time>2026-05-02T15:25:31Z</time></trkpt><trkpt lat="43.564003921359145" lon="11.378856175356004"><ele>822.0</ele><time>2026-05-02T15:25:32Z</time></trkpt><trkpt lat="43.564093982162234" lon="11.378862625458416"><ele>822.0</ele><time>2026-05-02T15:25:33Z</time></trkpt><trkpt lat="43.564191168609504" lon="11.37885091521164"><ele>822.0</ele><time>2026-05-02T15:25:34Z</time></trkpt><trkpt lat="43.56429387360646" lon="11.378827229455142"><ele>822.0</ele><time>2026-05-02T15:25:35Z</time></trkpt><trkpt lat="43.564399500254744" lon="11.378798805466815"><ele>822.0</ele><time>2026-05-02T15:25:36Z</time></trkpt><trkpt lat="43.564510204339804" lon="11.378765257298339"><ele>822.0</ele><time>2026-05-02T15:25:37Z</time></trkpt><trkpt lat="43.56462803772803" lon="11.378724100193843"><ele>822.0</ele><time>2026-05-02T15:25:38Z</time></trkpt><trkpt lat="43.56473867037766" lon="11.378676333682876"><ele>822.0</ele><time>2026-05-02T15:25:39Z</time></trkpt><trkpt lat="43.564848673723446" lon="11.378624574736717"><ele>819.0</ele><time>2026-05-02T15:25:40Z</time></trkpt><trkpt lat="43.564944245061014" lon="11.37856728492672"><ele>816.0</ele><time>2026-05-02T15:25:41Z</time></trkpt><trkpt lat="43.565028403257664" lon="11.378505872582272"><ele>813.0</ele><time>2026-05-02T15:25:42Z</time></trkpt><trkpt lat="43.565102123612206" lon="11.378441754766044"><ele>810.0</ele><time>2026-05-02T15:25:42.999Z</time></trkpt><trkpt lat="43.56516647684122" lon="11.37835747109864"><ele>807.0</ele><time>2026-05-02T15:25:43.999Z</time></trkpt><trkpt lat="43.565239589856105" lon="11.378277058675378"><ele>807.0</ele><time>2026-05-02T15:25:44.999Z</time></trkpt><trkpt lat="43.565304681745495" lon="11.37818002331771"><ele>807.0</ele><time>2026-05-02T15:25:45.999Z</time></trkpt><trkpt lat="43.56536944352526" lon="11.378085596244164"><ele>807.0</ele><time>2026-05-02T15:25:46.999Z</time></trkpt><trkpt lat="43.56543080454539" lon="11.378003027986551"><ele>807.0</ele><time>2026-05-02T15:25:47.999Z</time></trkpt><trkpt lat="43.56549802822395" lon="11.377923835008767"><ele>807.0</ele><time>2026-05-02T15:25:49.001Z</time></trkpt><trkpt lat="43.56556520733701" lon="11.377848113582209"><ele>804.8333333333334</ele><time>2026-05-02T15:25:50.001Z</time></trkpt><trkpt lat="43.56563099792286" lon="11.377775215531996"><ele>802.6666666666667</ele><time>2026-05-02T15:25:51.001Z</time></trkpt><trkpt lat="43.565696523688445" lon="11.377709337962909"><ele>800.5</ele><time>2026-05-02T15:25:52.001Z</time></trkpt><trkpt lat="43.5657682268304" lon="11.377665388659738"><ele>798.3333333333334</ele><time>2026-05-02T15:25:53.001Z</time></trkpt><trkpt lat="43.56584759003124" lon="11.377643146609305"><ele>796.1666666666667</ele><time>2026-05-02T15:25:54.001Z</time></trkpt><trkpt lat="43.5659299341847" lon="11.377634841912917"><ele>794.0</ele><time>2026-05-02T15:25:55.001Z</time></trkpt><trkpt lat="43.566011636667874" lon="11.377643624708092"><ele>794.0</ele><time>2026-05-02T15:25:56.001Z</time></trkpt><trkpt lat="43.566091553376324" lon="11.377702222976286"><ele>794.0</ele><time>2026-05-02T15:25:57.001Z</time></trkpt><trkpt lat="43.56617730821748" lon="11.37775379525465"><ele>794.0</ele><time>2026-05-02T15:25:58.001Z</time></trkpt><trkpt lat="43.566269242723806" lon="11.377818255101143"><ele>794.0</ele><time>2026-05-02T15:25:59.001Z</time></trkpt><trkpt lat="43.56636361925448" lon="11.377877896624916"><ele>794.0</ele><time>2026-05-02T15:26:00Z</time></trkpt><trkpt lat="43.56646680369052" lon="11.377915338762502"><ele>792.4000000000001</ele><time>2026-05-02T15:26:01Z</time></trkpt><trkpt lat="43.5665656776105" lon="11.377966837381463"><ele>790.8</ele><time>2026-05-02T15:26:02Z</time></trkpt><trkpt lat="43.566668365662224" lon="11.377999262867514"><ele>789.2</ele><time>2026-05-02T15:26:03Z</time></trkpt><trkpt lat="43.56676774945392" lon="11.378039056389131"><ele>787.5999999999999</ele><time>2026-05-02T15:26:04Z</time></trkpt><trkpt lat="43.566873964222076" lon="11.378074500597693"><ele>786.0</ele><time>2026-05-02T15:26:05Z</time></trkpt><trkpt lat="43.5669871813916" lon="11.378106419269278"><ele>784.0</ele><time>2026-05-02T15:26:06Z</time></trkpt><trkpt lat="43.56709615359129" lon="11.378136475153559"><ele>782.0</ele><time>2026-05-02T15:26:07Z</time></trkpt><trkpt lat="43.56719597773442" lon="11.378164479135945"><ele>780.0</ele><time>2026-05-02T15:26:08Z</time></trkpt><trkpt lat="43.5672879967352" lon="11.37819096396641"><ele>778.0</ele><time>2026-05-02T15:26:09Z</time></trkpt><trkpt lat="43.56737529998782" lon="11.378214218159606"><ele>776.0</ele><time>2026-05-02T15:26:10Z</time></trkpt><trkpt lat="43.56745566632762" lon="11.378224017994379"><ele>776.0000000000001</ele><time>2026-05-02T15:26:11Z</time></trkpt><trkpt lat="43.56752973602596" lon="11.378224703448039"><ele>776.0</ele><time>2026-05-02T15:26:12Z</time></trkpt><trkpt lat="43.56760576768433" lon="11.378207056944907"><ele>776.0</ele><time>2026-05-02T15:26:13Z</time></trkpt><trkpt lat="43.56768072746618" lon="11.378174508861774"><ele>776.0</ele><time>2026-05-02T15:26:14Z</time></trkpt><trkpt lat="43.56776105983927" lon="11.378122641997493"><ele>776.0000000000001</ele><time>2026-05-02T15:26:15Z</time></trkpt><trkpt lat="43.56784047818692" lon="11.378048084129343"><ele>776.0</ele><time>2026-05-02T15:26:16Z</time></trkpt><trkpt lat="43.567913372603755" lon="11.377963217108562"><ele>774.1666666666667</ele><time>2026-05-02T15:26:17Z</time></trkpt><trkpt lat="43.5679834936482" lon="11.37787488579265"><ele>772.3333333333334</ele><time>2026-05-02T15:26:18Z</time></trkpt><trkpt lat="43.568045162761884" lon="11.377791637643405"><ele>770.5</ele><time>2026-05-02T15:26:19Z</time></trkpt><trkpt lat="43.56809543386457" lon="11.37769862166798"><ele>768.6666666666667</ele><time>2026-05-02T15:26:20Z</time></trkpt><trkpt lat="43.568129212371986" lon="11.37759724329484"><ele>766.8333333333334</ele><time>2026-05-02T15:26:21Z</time></trkpt><trkpt lat="43.56814422172964" lon="11.377484164195046"><ele>765.0</ele><time>2026-05-02T15:26:22Z</time></trkpt><trkpt lat="43.56814354802225" lon="11.377372864319724"><ele>765.0</ele><time>2026-05-02T15:26:23Z</time></trkpt><trkpt lat="43.56814082793648" lon="11.377267717724722"><ele>765.0</ele><time>2026-05-02T15:26:24Z</time></trkpt><trkpt lat="43.56815921562697" lon="11.377166367641093"><ele>765.0</ele><time>2026-05-02T15:26:25Z</time></trkpt><trkpt lat="43.568204844217846" lon="11.37708155953751"><ele>765.0</ele><time>2026-05-02T15:26:26Z</time></trkpt><trkpt lat="43.5683234124778" lon="11.37708170550633"><ele>765.0</ele><time>2026-05-02T15:26:28Z</time></trkpt><trkpt lat="43.56838568282653" lon="11.377187182022457"><ele>765.0</ele><time>2026-05-02T15:26:30Z</time></trkpt><trkpt lat="43.568414990116935" lon="11.377272037151986"><ele>765.0</ele><time>2026-05-02T15:26:32Z</time></trkpt><trkpt lat="43.56844079433957" lon="11.37735806817497"><ele>765.0</ele><time>2026-05-02T15:26:35Z</time></trkpt><trkpt lat="43.568470637765905" lon="11.377450436006901"><ele>765.0</ele><time>2026-05-02T15:26:37Z</time></trkpt><trkpt lat="43.56851677569639" lon="11.377579811850667"><ele>765.0</ele><time>2026-05-02T15:26:39Z</time></trkpt><trkpt lat="43.56854128536734" lon="11.377660700561075"><ele>765.0</ele><time>2026-05-02T15:26:40Z</time></trkpt><trkpt lat="43.5685873105114" lon="11.3778195170474"><ele>765.0</ele><time>2026-05-02T15:26:42Z</time></trkpt><trkpt lat="43.568601545646814" lon="11.377904677411347"><ele>765.0</ele><time>2026-05-02T15:26:43Z</time></trkpt><trkpt lat="43.56862626488833" lon="11.377986951234393"><ele>765.0</ele><time>2026-05-02T15:26:44Z</time></trkpt><trkpt lat="43.56865317940331" lon="11.378069377935685"><ele>765.0</ele><time>2026-05-02T15:26:45Z</time></trkpt><trkpt lat="43.56868418878918" lon="11.378154819499905"><ele>765.0</ele><time>2026-05-02T15:26:46Z</time></trkpt><trkpt lat="43.568735179568264" lon="11.37829179792004"><ele>765.0</ele><time>2026-05-02T15:26:48Z</time></trkpt><trkpt lat="43.568822028250814" lon="11.378369220441405"><ele>765.0</ele><time>2026-05-02T15:26:50Z</time></trkpt><trkpt lat="43.56893615753135" lon="11.378339591361943"><ele>761.8</ele><time>2026-05-02T15:26:52Z</time></trkpt><trkpt lat="43.56904897589395" lon="11.378217529018904"><ele>758.6</ele><time>2026-05-02T15:26:54Z</time></trkpt><trkpt lat="43.56911626241798" lon="11.378148288363624"><ele>755.4000000000001</ele><time>2026-05-02T15:26:55Z</time></trkpt><trkpt lat="43.56917967933705" lon="11.378078978786862"><ele>752.2</ele><time>2026-05-02T15:26:56Z</time></trkpt><trkpt lat="43.56923071471865" lon="11.378014125753742"><ele>749.0</ele><time>2026-05-02T15:26:57Z</time></trkpt><trkpt lat="43.56929889789386" lon="11.37792614901186"><ele>749.0</ele><time>2026-05-02T15:26:59Z</time></trkpt><trkpt lat="43.569370215617795" lon="11.377929007489376"><ele>749.0</ele><time>2026-05-02T15:27:02Z</time></trkpt><trkpt lat="43.56943032182592" lon="11.378001731908757"><ele>749.0</ele><time>2026-05-02T15:27:06Z</time></trkpt><trkpt lat="43.56935087306521" lon="11.378072190582062"><ele>749.0</ele><time>2026-05-02T15:27:08Z</time></trkpt><trkpt lat="43.56925369385461" lon="11.378164757606896"><ele>749.0</ele><time>2026-05-02T15:27:10Z</time></trkpt><trkpt lat="43.5691918124453" lon="11.37824332176062"><ele>749.0</ele><time>2026-05-02T15:27:11Z</time></trkpt><trkpt lat="43.56911748229947" lon="11.37834365393269"><ele>748.75</ele><time>2026-05-02T15:27:12Z</time></trkpt><trkpt lat="43.56903742470098" lon="11.378459723839802"><ele>748.5</ele><time>2026-05-02T15:27:13Z</time></trkpt><trkpt lat="43.56895693535186" lon="11.37857374430813"><ele>748.25</ele><time>2026-05-02T15:27:14Z</time></trkpt><trkpt lat="43.56887271837181" lon="11.378697570203467"><ele>748.0</ele><time>2026-05-02T15:27:15Z</time></trkpt><trkpt lat="43.568780480781555" lon="11.37881541270309"><ele>748.25</ele><time>2026-05-02T15:27:16Z</time></trkpt><trkpt lat="43.56868569923205" lon="11.378923960010837"><ele>748.5</ele><time>2026-05-02T15:27:17Z</time></trkpt><trkpt lat="43.56860122372534" lon="11.37902269250264"><ele>748.75</ele><time>2026-05-02T15:27:18Z</time></trkpt><trkpt lat="43.56851579814472" lon="11.379122504532614"><ele>749.0</ele><time>2026-05-02T15:27:19Z</time></trkpt><trkpt lat="43.56841701412119" lon="11.379205324582813"><ele>749.0</ele><time>2026-05-02T15:27:20Z</time></trkpt><trkpt lat="43.56832099199601" lon="11.379281060568042"><ele>749.0</ele><time>2026-05-02T15:27:21Z</time></trkpt><trkpt lat="43.56823637324327" lon="11.37935478594116"><ele>749.0</ele><time>2026-05-02T15:27:22Z</time></trkpt><trkpt lat="43.568166856565135" lon="11.379441167283918"><ele>749.0</ele><time>2026-05-02T15:27:23Z</time></trkpt><trkpt lat="43.56812066616831" lon="11.379564944333419"><ele>749.0</ele><time>2026-05-02T15:27:24Z</time></trkpt><trkpt lat="43.56810662155776" lon="11.379720826989168"><ele>748.2</ele><time>2026-05-02T15:27:25Z</time></trkpt><trkpt lat="43.56806864670841" lon="11.379847670975133"><ele>747.4000000000001</ele><time>2026-05-02T15:27:26Z</time></trkpt><trkpt lat="43.56802308055403" lon="11.379965255618979"><ele>746.6</ele><time>2026-05-02T15:27:27Z</time></trkpt><trkpt lat="43.5679557607506" lon="11.380072873473367"><ele>745.8</ele><time>2026-05-02T15:27:28Z</time></trkpt><trkpt lat="43.56788374475198" lon="11.380166555161695"><ele>745.0</ele><time>2026-05-02T15:27:29Z</time></trkpt><trkpt lat="43.5678057523227" lon="11.38021567515623"><ele>745.0</ele><time>2026-05-02T15:27:30Z</time></trkpt><trkpt lat="43.567719662375964" lon="11.380189914517157"><ele>745.0</ele><time>2026-05-02T15:27:31Z</time></trkpt><trkpt lat="43.56758840507562" lon="11.38020486553711"><ele>745.0</ele><time>2026-05-02T15:27:32Z</time></trkpt><trkpt lat="43.567463598019266" lon="11.380268061402138"><ele>745.0</ele><time>2026-05-02T15:27:33Z</time></trkpt><trkpt lat="43.56735279352313" lon="11.380367359210972"><ele>745.0</ele><time>2026-05-02T15:27:34Z</time></trkpt><trkpt lat="43.56724871209414" lon="11.380463116268988"><ele>745.0</ele><time>2026-05-02T15:27:35Z</time></trkpt><trkpt lat="43.56714895148374" lon="11.380579299947746"><ele>745.0</ele><time>2026-05-02T15:27:36Z</time></trkpt><trkpt lat="43.56702636273397" lon="11.380663696091078"><ele>745.0</ele><time>2026-05-02T15:27:37Z</time></trkpt><trkpt lat="43.56691389626419" lon="11.380765806811937"><ele>742.8</ele><time>2026-05-02T15:27:38Z</time></trkpt><trkpt lat="43.56681849549128" lon="11.380849211739381"><ele>740.6</ele><time>2026-05-02T15:27:38.999Z</time></trkpt><trkpt lat="43.56672339607352" lon="11.380920762034776"><ele>738.4000000000001</ele><time>2026-05-02T15:27:39.999Z</time></trkpt><trkpt lat="43.566637140153794" lon="11.380974670108536"><ele>736.2</ele><time>2026-05-02T15:27:40.999Z</time></trkpt><trkpt lat="43.566551534141446" lon="11.380982631674723"><ele>734.0</ele><time>2026-05-02T15:27:41.999Z</time></trkpt><trkpt lat="43.56645069109855" lon="11.380975299972222"><ele>734.0</ele><time>2026-05-02T15:27:42.999Z</time></trkpt><trkpt lat="43.566333843023536" lon="11.381006201123038"><ele>734.0</ele><time>2026-05-02T15:27:43.999Z</time></trkpt><trkpt lat="43.566228526531305" lon="11.38111985595319"><ele>734.0</ele><time>2026-05-02T15:27:44.999Z</time></trkpt><trkpt lat="43.56612819310801" lon="11.381205708522778"><ele>734.0</ele><time>2026-05-02T15:27:45.999Z</time></trkpt><trkpt lat="43.566010954836564" lon="11.381280927810423"><ele>732.25</ele><time>2026-05-02T15:27:46.999Z</time></trkpt><trkpt lat="43.56590037125693" lon="11.381391525631901"><ele>730.5</ele><time>2026-05-02T15:27:47.999Z</time></trkpt><trkpt lat="43.56579736344077" lon="11.381497531470968"><ele>728.75</ele><time>2026-05-02T15:27:48.999Z</time></trkpt><trkpt lat="43.56570427680224" lon="11.381578526917695"><ele>727.0</ele><time>2026-05-02T15:27:49.999Z</time></trkpt><trkpt lat="43.56559922621498" lon="11.38165914583652"><ele>727.0</ele><time>2026-05-02T15:27:50.999Z</time></trkpt><trkpt lat="43.565482892974075" lon="11.38174013958664"><ele>727.0</ele><time>2026-05-02T15:27:51.999Z</time></trkpt><trkpt lat="43.56535519899013" lon="11.381820743517007"><ele>727.0</ele><time>2026-05-02T15:27:52.999Z</time></trkpt><trkpt lat="43.56524269659979" lon="11.38189751596651"><ele>727.0</ele><time>2026-05-02T15:27:53.999Z</time></trkpt><trkpt lat="43.56515271313906" lon="11.382001378561327"><ele>725.0</ele><time>2026-05-02T15:27:55.001Z</time></trkpt><trkpt lat="43.56507311344853" lon="11.382108205096245"><ele>723.0</ele><time>2026-05-02T15:27:56.001Z</time></trkpt><trkpt lat="43.56501557075486" lon="11.382254897602692"><ele>721.0</ele><time>2026-05-02T15:27:57.001Z</time></trkpt><trkpt lat="43.564974061799646" lon="11.382392429742888"><ele>719.0</ele><time>2026-05-02T15:27:58.001Z</time></trkpt><trkpt lat="43.56490296454462" lon="11.382463871125708"><ele>717.0</ele><time>2026-05-02T15:27:59.001Z</time></trkpt><trkpt lat="43.56483426113805" lon="11.382509026633604"><ele>717.0</ele><time>2026-05-02T15:28:00.001Z</time></trkpt><trkpt lat="43.56475625885308" lon="11.382485218993466"><ele>717.0</ele><time>2026-05-02T15:28:01.001Z</time></trkpt><trkpt lat="43.564624115429595" lon="11.382480346293871"><ele>717.0</ele><time>2026-05-02T15:28:02.001Z</time></trkpt><trkpt lat="43.564476786554316" lon="11.382483372364614"><ele>717.0</ele><time>2026-05-02T15:28:03.001Z</time></trkpt><trkpt lat="43.56435755894064" lon="11.382498708214012"><ele>718.4000000000001</ele><time>2026-05-02T15:28:04.001Z</time></trkpt><trkpt lat="43.56427671252288" lon="11.382526328187508"><ele>719.8000000000001</ele><time>2026-05-02T15:28:05.001Z</time></trkpt><trkpt lat="43.564211448849946" lon="11.382566203927016"><ele>721.2</ele><time>2026-05-02T15:28:06.001Z</time></trkpt><trkpt lat="43.56416043107742" lon="11.382657502693736"><ele>722.6</ele><time>2026-05-02T15:28:07.001Z</time></trkpt><trkpt lat="43.56416705581895" lon="11.382793913243288"><ele>724.0</ele><time>2026-05-02T15:28:08.001Z</time></trkpt><trkpt lat="43.56422116501651" lon="11.38293056824021"><ele>721.6</ele><time>2026-05-02T15:28:09Z</time></trkpt><trkpt lat="43.56422554585669" lon="11.383098476260972"><ele>719.2</ele><time>2026-05-02T15:28:10Z</time></trkpt><trkpt lat="43.56423555372377" lon="11.383255421488272"><ele>716.8000000000001</ele><time>2026-05-02T15:28:11Z</time></trkpt><trkpt lat="43.564206431849215" lon="11.38339619856354"><ele>714.4000000000001</ele><time>2026-05-02T15:28:12Z</time></trkpt><trkpt lat="43.56418198192849" lon="11.383510750762133"><ele>712.0</ele><time>2026-05-02T15:28:13Z</time></trkpt><trkpt lat="43.56414140092446" lon="11.383636622454176"><ele>712.0</ele><time>2026-05-02T15:28:14Z</time></trkpt><trkpt lat="43.56407733488624" lon="11.383769879701385"><ele>712.0</ele><time>2026-05-02T15:28:15Z</time></trkpt><trkpt lat="43.56399890396347" lon="11.383928639998757"><ele>712.0</ele><time>2026-05-02T15:28:16Z</time></trkpt><trkpt lat="43.56392792281547" lon="11.384072280524311"><ele>712.0</ele><time>2026-05-02T15:28:17Z</time></trkpt><trkpt lat="43.56386873105287" lon="11.38418238158003"><ele>708.75</ele><time>2026-05-02T15:28:18Z</time></trkpt><trkpt lat="43.563808346344054" lon="11.384277171185177"><ele>705.5</ele><time>2026-05-02T15:28:19Z</time></trkpt><trkpt lat="43.56373076974662" lon="11.384377538350964"><ele>702.25</ele><time>2026-05-02T15:28:20Z</time></trkpt><trkpt lat="43.563630711109994" lon="11.384480299233118"><ele>699.0</ele><time>2026-05-02T15:28:21Z</time></trkpt><trkpt lat="43.56352469037821" lon="11.384589830836582"><ele>700.0</ele><time>2026-05-02T15:28:22Z</time></trkpt><trkpt lat="43.5634256946246" lon="11.384689376844683"><ele>701.0</ele><time>2026-05-02T15:28:23Z</time></trkpt><trkpt lat="43.56333219366191" lon="11.384766990006284"><ele>702.0</ele><time>2026-05-02T15:28:24Z</time></trkpt><trkpt lat="43.563229418307166" lon="11.384836070059263"><ele>703.0</ele><time>2026-05-02T15:28:25Z</time></trkpt><trkpt lat="43.56313503258292" lon="11.384898055483767"><ele>703.0</ele><time>2026-05-02T15:28:26Z</time></trkpt><trkpt lat="43.56304412565379" lon="11.384957327851959"><ele>703.0</ele><time>2026-05-02T15:28:27Z</time></trkpt><trkpt lat="43.56296902236819" lon="11.385007831257646"><ele>703.0</ele><time>2026-05-02T15:28:28Z</time></trkpt><trkpt lat="43.562880381115505" lon="11.385095478696885"><ele>703.0</ele><time>2026-05-02T15:28:30Z</time></trkpt><trkpt lat="43.562949064585794" lon="11.385131738540593"><ele>703.0</ele><time>2026-05-02T15:28:58Z</time></trkpt><trkpt lat="43.56302571823046" lon="11.385185721350265"><ele>703.0</ele><time>2026-05-02T15:29:00Z</time></trkpt><trkpt lat="43.563105369770184" lon="11.385131552207495"><ele>703.0</ele><time>2026-05-02T15:29:01Z</time></trkpt><trkpt lat="43.563182088325654" lon="11.385071454156167"><ele>703.0</ele><time>2026-05-02T15:29:02Z</time></trkpt><trkpt lat="43.563284783026724" lon="11.385009939003144"><ele>703.0</ele><time>2026-05-02T15:29:03Z</time></trkpt><trkpt lat="43.563394615055685" lon="11.384953363938164"><ele>703.0</ele><time>2026-05-02T15:29:04Z</time></trkpt><trkpt lat="43.563514339360616" lon="11.38488667978917"><ele>703.0</ele><time>2026-05-02T15:29:05Z</time></trkpt><trkpt lat="43.56363397911362" lon="11.384812434271128"><ele>703.0</ele><time>2026-05-02T15:29:06Z</time></trkpt><trkpt lat="43.563751821158384" lon="11.384732877759275"><ele>703.0</ele><time>2026-05-02T15:29:07Z</time></trkpt><trkpt lat="43.56386589956185" lon="11.384660822159654"><ele>703.0</ele><time>2026-05-02T15:29:08Z</time></trkpt><trkpt lat="43.56398126570827" lon="11.384617408028877"><ele>702.0</ele><time>2026-05-02T15:29:09Z</time></trkpt><trkpt lat="43.56411361474439" lon="11.38458043338835"><ele>701.0</ele><time>2026-05-02T15:29:10Z</time></trkpt><trkpt lat="43.56423350934456" lon="11.38453658751206"><ele>700.0</ele><time>2026-05-02T15:29:11Z</time></trkpt><trkpt lat="43.56434916677015" lon="11.384498615140537"><ele>699.0</ele><time>2026-05-02T15:29:12Z</time></trkpt><trkpt lat="43.56445772839936" lon="11.384460473961505"><ele>693.25</ele><time>2026-05-02T15:29:13Z</time></trkpt><trkpt lat="43.5645611741021" lon="11.38440308499993"><ele>687.5</ele><time>2026-05-02T15:29:14Z</time></trkpt><trkpt lat="43.56466284939691" lon="11.384311904153469"><ele>681.75</ele><time>2026-05-02T15:29:15Z</time></trkpt><trkpt lat="43.56474560001961" lon="11.38417072887045"><ele>676.0</ele><time>2026-05-02T15:29:16Z</time></trkpt><trkpt lat="43.564821153933536" lon="11.384039689171908"><ele>676.0</ele><time>2026-05-02T15:29:17Z</time></trkpt><trkpt lat="43.56490409231338" lon="11.383938189422404"><ele>676.0</ele><time>2026-05-02T15:29:18Z</time></trkpt><trkpt lat="43.5650079722726" lon="11.383871713032708"><ele>676.0</ele><time>2026-05-02T15:29:19Z</time></trkpt><trkpt lat="43.5651381651109" lon="11.383884105401119"><ele>676.0</ele><time>2026-05-02T15:29:20Z</time></trkpt><trkpt lat="43.56529066362142" lon="11.383875798265946"><ele>677.0</ele><time>2026-05-02T15:29:21Z</time></trkpt><trkpt lat="43.56544666483706" lon="11.383830776864077"><ele>678.0</ele><time>2026-05-02T15:29:22Z</time></trkpt><trkpt lat="43.565621060204734" lon="11.383794866798256"><ele>679.0</ele><time>2026-05-02T15:29:23Z</time></trkpt><trkpt lat="43.56580524972291" lon="11.38374330028388"><ele>679.0</ele><time>2026-05-02T15:29:24Z</time></trkpt><trkpt lat="43.5659778190637" lon="11.383688715618451"><ele>679.0</ele><time>2026-05-02T15:29:25Z</time></trkpt><trkpt lat="43.56615102896928" lon="11.38365679090838"><ele>679.0</ele><time>2026-05-02T15:29:26Z</time></trkpt><trkpt lat="43.566326251247084" lon="11.383652529601644"><ele>675.3333333333334</ele><time>2026-05-02T15:29:27Z</time></trkpt><trkpt lat="43.56650706838427" lon="11.3836636852076"><ele>671.6666666666666</ele><time>2026-05-02T15:29:28Z</time></trkpt><trkpt lat="43.56669242257173" lon="11.383683791782202"><ele>668.0</ele><time>2026-05-02T15:29:29Z</time></trkpt><trkpt lat="43.566881834294065" lon="11.383693916908129"><ele>663.6666666666666</ele><time>2026-05-02T15:29:30Z</time></trkpt><trkpt lat="43.567066091646645" lon="11.383688997753758"><ele>659.3333333333334</ele><time>2026-05-02T15:29:30.999Z</time></trkpt><trkpt lat="43.567238993581995" lon="11.383674837778823"><ele>655.0</ele><time>2026-05-02T15:29:31.999Z</time></trkpt><trkpt lat="43.56740671328417" lon="11.383635712663038"><ele>655.0</ele><time>2026-05-02T15:29:32.999Z</time></trkpt><trkpt lat="43.56756603982225" lon="11.383580982297781"><ele>655.0</ele><time>2026-05-02T15:29:33.999Z</time></trkpt><trkpt lat="43.56772555803824" lon="11.383507754921013"><ele>655.0</ele><time>2026-05-02T15:29:34.999Z</time></trkpt><trkpt lat="43.56788688050457" lon="11.383425608142964"><ele>650.6666666666667</ele><time>2026-05-02T15:29:35.999Z</time></trkpt><trkpt lat="43.56804596971915" lon="11.383350497901734"><ele>646.3333333333334</ele><time>2026-05-02T15:29:36.999Z</time></trkpt><trkpt lat="43.56819907912947" lon="11.383276539884323"><ele>642.0</ele><time>2026-05-02T15:29:37.999Z</time></trkpt><trkpt lat="43.56834286020096" lon="11.383202663439903"><ele>642.0</ele><time>2026-05-02T15:29:38.999Z</time></trkpt><trkpt lat="43.56848792586537" lon="11.383142435657854"><ele>642.0</ele><time>2026-05-02T15:29:39.999Z</time></trkpt><trkpt lat="43.5686274120773" lon="11.383085425433082"><ele>642.0</ele><time>2026-05-02T15:29:40.999Z</time></trkpt><trkpt lat="43.56875846269326" lon="11.38302362313796"><ele>642.0</ele><time>2026-05-02T15:29:41.999Z</time></trkpt><trkpt lat="43.56889347380123" lon="11.38297243262391"><ele>644.75</ele><time>2026-05-02T15:29:42.999Z</time></trkpt><trkpt lat="43.569025487976695" lon="11.382928368354454"><ele>647.5</ele><time>2026-05-02T15:29:43.999Z</time></trkpt><trkpt lat="43.56915066036497" lon="11.382888784030953"><ele>650.25</ele><time>2026-05-02T15:29:44.999Z</time></trkpt><trkpt lat="43.569275447287744" lon="11.382892725950914"><ele>653.0</ele><time>2026-05-02T15:29:45.999Z</time></trkpt><trkpt lat="43.56938656911062" lon="11.38291324161336"><ele>653.0</ele><time>2026-05-02T15:29:46.999Z</time></trkpt><trkpt lat="43.5694904596026" lon="11.382974803353756"><ele>653.0</ele><time>2026-05-02T15:29:47.999Z</time></trkpt><trkpt lat="43.569576656377436" lon="11.383083282907464"><ele>653.0</ele><time>2026-05-02T15:29:48.999Z</time></trkpt><trkpt lat="43.56967348063129" lon="11.383166983281942"><ele>653.0</ele><time>2026-05-02T15:29:49.999Z</time></trkpt><trkpt lat="43.569755327962866" lon="11.383223273312181"><ele>653.0</ele><time>2026-05-02T15:29:50.999Z</time></trkpt><trkpt lat="43.569867487673356" lon="11.383173176361396"><ele>645.0</ele><time>2026-05-02T15:29:51.999Z</time></trkpt><trkpt lat="43.56994781684784" lon="11.383200337958916"><ele>637.0</ele><time>2026-05-02T15:29:52.999Z</time></trkpt><trkpt lat="43.57001659584106" lon="11.383296662640804"><ele>629.0</ele><time>2026-05-02T15:29:53.999Z</time></trkpt><trkpt lat="43.570077744534366" lon="11.38345218943373"><ele>621.0</ele><time>2026-05-02T15:29:54.999Z</time></trkpt><trkpt lat="43.57017583372541" lon="11.3836370898678"><ele>621.0</ele><time>2026-05-02T15:29:55.999Z</time></trkpt><trkpt lat="43.570303433307565" lon="11.383821229104779"><ele>621.0</ele><time>2026-05-02T15:29:56.999Z</time></trkpt><trkpt lat="43.570460657486315" lon="11.383984401230508"><ele>621.0</ele><time>2026-05-02T15:29:57.999Z</time></trkpt><trkpt lat="43.57059993142627" lon="11.384148503766099"><ele>619.0</ele><time>2026-05-02T15:29:58.999Z</time></trkpt><trkpt lat="43.57073413742196" lon="11.38428972335391"><ele>617.0</ele><time>2026-05-02T15:29:59.999Z</time></trkpt><trkpt lat="43.57086510233793" lon="11.384420035996241"><ele>615.0</ele><time>2026-05-02T15:30:01Z</time></trkpt><trkpt lat="43.57100069155923" lon="11.384530422276699"><ele>615.0</ele><time>2026-05-02T15:30:02Z</time></trkpt><trkpt lat="43.57115029330085" lon="11.384600163880782"><ele>615.0</ele><time>2026-05-02T15:30:03Z</time></trkpt><trkpt lat="43.57128787596351" lon="11.384654991655275"><ele>615.0</ele><time>2026-05-02T15:30:04Z</time></trkpt><trkpt lat="43.57141785015177" lon="11.384702257750513"><ele>615.0</ele><time>2026-05-02T15:30:05Z</time></trkpt><trkpt lat="43.571534736291184" lon="11.384740424538565"><ele>613.6</ele><time>2026-05-02T15:30:06Z</time></trkpt><trkpt lat="43.57164547523675" lon="11.384781113672972"><ele>612.2</ele><time>2026-05-02T15:30:07Z</time></trkpt><trkpt lat="43.5717340223231" lon="11.384861737923611"><ele>610.8</ele><time>2026-05-02T15:30:08Z</time></trkpt><trkpt lat="43.57181794282352" lon="11.38495433413012"><ele>609.4</ele><time>2026-05-02T15:30:09Z</time></trkpt><trkpt lat="43.57184030653429" lon="11.385096879370845"><ele>608.0</ele><time>2026-05-02T15:30:10Z</time></trkpt><trkpt lat="43.571891117708326" lon="11.38523761772218"><ele>608.0</ele><time>2026-05-02T15:30:11Z</time></trkpt><trkpt lat="43.57183045325113" lon="11.385388543138895"><ele>608.0</ele><time>2026-05-02T15:30:12Z</time></trkpt><trkpt lat="43.57178199109474" lon="11.385531914491503"><ele>608.0</ele><time>2026-05-02T15:30:13Z</time></trkpt><trkpt lat="43.57171435731122" lon="11.38569806122507"><ele>608.0</ele><time>2026-05-02T15:30:14Z</time></trkpt><trkpt lat="43.5716265214526" lon="11.385856972411558"><ele>606.0</ele><time>2026-05-02T15:30:15Z</time></trkpt><trkpt lat="43.57152642165937" lon="11.386011866277464"><ele>604.0</ele><time>2026-05-02T15:30:16Z</time></trkpt><trkpt lat="43.571418665710446" lon="11.386133843969201"><ele>602.0</ele><time>2026-05-02T15:30:17Z</time></trkpt><trkpt lat="43.57130676665368" lon="11.386209197269775"><ele>600.0</ele><time>2026-05-02T15:30:18Z</time></trkpt><trkpt lat="43.571182263941715" lon="11.38625437852977"><ele>600.0</ele><time>2026-05-02T15:30:19Z</time></trkpt><trkpt lat="43.571035278830806" lon="11.386247399486543"><ele>600.0</ele><time>2026-05-02T15:30:20Z</time></trkpt><trkpt lat="43.5708580324436" lon="11.38624165936159"><ele>600.0</ele><time>2026-05-02T15:30:21Z</time></trkpt><trkpt lat="43.570695775208506" lon="11.386235707821541"><ele>600.0</ele><time>2026-05-02T15:30:22Z</time></trkpt><trkpt lat="43.57055507491193" lon="11.386227925444242"><ele>600.0</ele><time>2026-05-02T15:30:23Z</time></trkpt><trkpt lat="43.57043353369315" lon="11.386203741275592"><ele>600.0</ele><time>2026-05-02T15:30:24Z</time></trkpt><trkpt lat="43.570328212303025" lon="11.386150316768633"><ele>600.0</ele><time>2026-05-02T15:30:25Z</time></trkpt><trkpt lat="43.57022900760014" lon="11.386056656578045"><ele>597.0</ele><time>2026-05-02T15:30:26Z</time></trkpt><trkpt lat="43.570111142387745" lon="11.385925815968353"><ele>594.0</ele><time>2026-05-02T15:30:27Z</time></trkpt><trkpt lat="43.57000341700251" lon="11.385785836880142"><ele>591.0</ele><time>2026-05-02T15:30:28Z</time></trkpt><trkpt lat="43.569899812545685" lon="11.385661987268286"><ele>588.0</ele><time>2026-05-02T15:30:29Z</time></trkpt><trkpt lat="43.56981206682881" lon="11.385584727780726"><ele>588.0</ele><time>2026-05-02T15:30:30Z</time></trkpt><trkpt lat="43.56971727970461" lon="11.385583264526309"><ele>588.0</ele><time>2026-05-02T15:30:31Z</time></trkpt><trkpt lat="43.569621821997096" lon="11.385611265831555"><ele>588.0</ele><time>2026-05-02T15:30:32Z</time></trkpt><trkpt lat="43.569537569456664" lon="11.385692119888704"><ele>588.0</ele><time>2026-05-02T15:30:33Z</time></trkpt><trkpt lat="43.56949621533896" lon="11.385832843274791"><ele>588.0</ele><time>2026-05-02T15:30:34Z</time></trkpt><trkpt lat="43.56949643376373" lon="11.385997606502382"><ele>588.0</ele><time>2026-05-02T15:30:35Z</time></trkpt><trkpt lat="43.56954962455592" lon="11.386142890254181"><ele>588.0</ele><time>2026-05-02T15:30:36Z</time></trkpt><trkpt lat="43.56965056767047" lon="11.386257337534392"><ele>588.0</ele><time>2026-05-02T15:30:37Z</time></trkpt><trkpt lat="43.56979676027864" lon="11.386359222029304"><ele>588.0</ele><time>2026-05-02T15:30:38Z</time></trkpt><trkpt lat="43.56997185548521" lon="11.386468257098615"><ele>585.6666666666666</ele><time>2026-05-02T15:30:39Z</time></trkpt><trkpt lat="43.57014208702451" lon="11.386612318877049"><ele>583.3333333333333</ele><time>2026-05-02T15:30:40Z</time></trkpt><trkpt lat="43.570293235551866" lon="11.386782051252016"><ele>581.0</ele><time>2026-05-02T15:30:41Z</time></trkpt><trkpt lat="43.57041756764135" lon="11.386950058702817"><ele>581.0</ele><time>2026-05-02T15:30:42Z</time></trkpt><trkpt lat="43.57054882651662" lon="11.387101211976596"><ele>581.0</ele><time>2026-05-02T15:30:43Z</time></trkpt><trkpt lat="43.570696355773116" lon="11.387236364108878"><ele>581.0</ele><time>2026-05-02T15:30:44Z</time></trkpt><trkpt lat="43.57084910160491" lon="11.387349549474767"><ele>575.0</ele><time>2026-05-02T15:30:45Z</time></trkpt><trkpt lat="43.57099419926519" lon="11.387431771027417"><ele>569.0</ele><time>2026-05-02T15:30:46Z</time></trkpt><trkpt lat="43.57111942961957" lon="11.38748512210026"><ele>563.0</ele><time>2026-05-02T15:30:47Z</time></trkpt><trkpt lat="43.57123380022068" lon="11.387510651189572"><ele>557.0</ele><time>2026-05-02T15:30:48Z</time></trkpt><trkpt lat="43.57134343762603" lon="11.387487688183734"><ele>554.5</ele><time>2026-05-02T15:30:49Z</time></trkpt><trkpt lat="43.571442682613906" lon="11.387385778989437"><ele>552.0</ele><time>2026-05-02T15:30:50Z</time></trkpt><trkpt lat="43.571555777490715" lon="11.387261304550334"><ele>549.5</ele><time>2026-05-02T15:30:51Z</time></trkpt><trkpt lat="43.57166411859522" lon="11.38708149334782"><ele>547.0</ele><time>2026-05-02T15:30:52Z</time></trkpt><trkpt lat="43.5717690993574" lon="11.386935449434455"><ele>548.6666666666667</ele><time>2026-05-02T15:30:53Z</time></trkpt><trkpt lat="43.57189809873165" lon="11.386834861143688"><ele>550.3333333333334</ele><time>2026-05-02T15:30:54Z</time></trkpt><trkpt lat="43.572057100987955" lon="11.38678551064647"><ele>552.0</ele><time>2026-05-02T15:30:55Z</time></trkpt><trkpt lat="43.57221033323828" lon="11.386720690632574"><ele>552.0</ele><time>2026-05-02T15:30:56Z</time></trkpt><trkpt lat="43.57237476117178" lon="11.386747838430638"><ele>552.0</ele><time>2026-05-02T15:30:57Z</time></trkpt><trkpt lat="43.57253269818795" lon="11.386805596959874"><ele>552.0</ele><time>2026-05-02T15:30:58Z</time></trkpt><trkpt lat="43.57269018685665" lon="11.386862559638619"><ele>552.0</ele><time>2026-05-02T15:30:59Z</time></trkpt><trkpt lat="43.57282434218952" lon="11.386922761975681"><ele>552.0</ele><time>2026-05-02T15:31:00Z</time></trkpt><trkpt lat="43.57293214585482" lon="11.387002253883251"><ele>552.0</ele><time>2026-05-02T15:31:01Z</time></trkpt><trkpt lat="43.57301366592754" lon="11.387107212956622"><ele>552.0</ele><time>2026-05-02T15:31:02Z</time></trkpt><trkpt lat="43.57306483263571" lon="11.387242860674899"><ele>548.75</ele><time>2026-05-02T15:31:03Z</time></trkpt><trkpt lat="43.57308926795062" lon="11.387401483586682"><ele>545.5</ele><time>2026-05-02T15:31:04Z</time></trkpt><trkpt lat="43.57311435027827" lon="11.387570179653085"><ele>542.25</ele><time>2026-05-02T15:31:05Z</time></trkpt><trkpt lat="43.57310798842281" lon="11.387725599452944"><ele>539.0</ele><time>2026-05-02T15:31:06Z</time></trkpt><trkpt lat="43.5730611611681" lon="11.387891036761804"><ele>538.75</ele><time>2026-05-02T15:31:07Z</time></trkpt><trkpt lat="43.57300412395765" lon="11.38810508069535"><ele>538.5</ele><time>2026-05-02T15:31:08Z</time></trkpt><trkpt lat="43.57295289425786" lon="11.38829733076391"><ele>538.25</ele><time>2026-05-02T15:31:09Z</time></trkpt><trkpt lat="43.57290722068164" lon="11.388470516119732"><ele>538.0</ele><time>2026-05-02T15:31:10Z</time></trkpt><trkpt lat="43.57286792248367" lon="11.388633442272848"><ele>538.0</ele><time>2026-05-02T15:31:11Z</time></trkpt><trkpt lat="43.57286555183922" lon="11.388789666062353"><ele>538.0</ele><time>2026-05-02T15:31:12Z</time></trkpt><trkpt lat="43.57287900701771" lon="11.38893057978835"><ele>538.0</ele><time>2026-05-02T15:31:12.999Z</time></trkpt><trkpt lat="43.572937734349445" lon="11.38907418935969"><ele>538.0</ele><time>2026-05-02T15:31:13.999Z</time></trkpt><trkpt lat="43.57305108637567" lon="11.389222077077251"><ele>535.3333333333334</ele><time>2026-05-02T15:31:14.999Z</time></trkpt><trkpt lat="43.57321004228566" lon="11.389353221957942"><ele>532.6666666666666</ele><time>2026-05-02T15:31:15.999Z</time></trkpt><trkpt lat="43.57340577766686" lon="11.389461752948915"><ele>530.0</ele><time>2026-05-02T15:31:16.999Z</time></trkpt><trkpt lat="43.57358929346639" lon="11.389531849687929"><ele>528.3333333333333</ele><time>2026-05-02T15:31:17.999Z</time></trkpt><trkpt lat="43.57375891180664" lon="11.389571908652632"><ele>526.6666666666666</ele><time>2026-05-02T15:31:18.999Z</time></trkpt><trkpt lat="43.573918691788606" lon="11.38958877216246"><ele>525.0</ele><time>2026-05-02T15:31:19.999Z</time></trkpt><trkpt lat="43.574066446003805" lon="11.389592274922851"><ele>525.0</ele><time>2026-05-02T15:31:20.999Z</time></trkpt><trkpt lat="43.57419438328318" lon="11.38955399893806"><ele>525.0</ele><time>2026-05-02T15:31:21.999Z</time></trkpt><trkpt lat="43.57431321476556" lon="11.389461322690215"><ele>525.0</ele><time>2026-05-02T15:31:22.999Z</time></trkpt><trkpt lat="43.574413301651326" lon="11.389311796141266"><ele>525.0</ele><time>2026-05-02T15:31:23.999Z</time></trkpt><trkpt lat="43.574476528033415" lon="11.389115542320445"><ele>525.0</ele><time>2026-05-02T15:31:24.999Z</time></trkpt><trkpt lat="43.5744857579787" lon="11.38891385552022"><ele>525.0</ele><time>2026-05-02T15:31:25.999Z</time></trkpt><trkpt lat="43.574443373820635" lon="11.388708071007542"><ele>525.0</ele><time>2026-05-02T15:31:26.999Z</time></trkpt><trkpt lat="43.574364030769615" lon="11.388474853075138"><ele>525.6666666666666</ele><time>2026-05-02T15:31:27.999Z</time></trkpt><trkpt lat="43.57427824691198" lon="11.388228142724858"><ele>526.3333333333333</ele><time>2026-05-02T15:31:28.999Z</time></trkpt><trkpt lat="43.57420576771908" lon="11.388024814353564"><ele>527.0</ele><time>2026-05-02T15:31:29.999Z</time></trkpt><trkpt lat="43.574148425117365" lon="11.387841453609605"><ele>527.5</ele><time>2026-05-02T15:31:30.999Z</time></trkpt><trkpt lat="43.57410331361076" lon="11.387678912555467"><ele>528.0</ele><time>2026-05-02T15:31:31.999Z</time></trkpt><trkpt lat="43.57407597187319" lon="11.387523969860016"><ele>528.5</ele><time>2026-05-02T15:31:32.999Z</time></trkpt><trkpt lat="43.57407916257136" lon="11.387357971227269"><ele>529.0</ele><time>2026-05-02T15:31:33.999Z</time></trkpt><trkpt lat="43.57413851639471" lon="11.387201011899366"><ele>530.0</ele><time>2026-05-02T15:31:34.999Z</time></trkpt><trkpt lat="43.57420223427937" lon="11.387040776554695"><ele>531.0</ele><time>2026-05-02T15:31:35.999Z</time></trkpt><trkpt lat="43.574299239026196" lon="11.38690096916882"><ele>532.0</ele><time>2026-05-02T15:31:36.999Z</time></trkpt><trkpt lat="43.574413967630946" lon="11.38678431272017"><ele>533.0</ele><time>2026-05-02T15:31:37.999Z</time></trkpt><trkpt lat="43.574559734835894" lon="11.386696041340642"><ele>529.3333333333333</ele><time>2026-05-02T15:31:38.999Z</time></trkpt><trkpt lat="43.57473617610146" lon="11.38665840714661"><ele>525.6666666666666</ele><time>2026-05-02T15:31:39.999Z</time></trkpt><trkpt lat="43.574947866774984" lon="11.386611483312755"><ele>522.0</ele><time>2026-05-02T15:31:40.999Z</time></trkpt><trkpt lat="43.57519575917575" lon="11.386537664862834"><ele>518.3333333333334</ele><time>2026-05-02T15:31:41.999Z</time></trkpt><trkpt lat="43.57542646763843" lon="11.38648897141718"><ele>514.6666666666667</ele><time>2026-05-02T15:31:42.999Z</time></trkpt><trkpt lat="43.57563765255527" lon="11.386441189660166"><ele>511.0</ele><time>2026-05-02T15:31:43.999Z</time></trkpt><trkpt lat="43.575833219396124" lon="11.386401319457066"><ele>511.0</ele><time>2026-05-02T15:31:44.999Z</time></trkpt><trkpt lat="43.57602239303379" lon="11.386359942488031"><ele>511.0</ele><time>2026-05-02T15:31:45.999Z</time></trkpt><trkpt lat="43.576202680435244" lon="11.386321196822937"><ele>511.0</ele><time>2026-05-02T15:31:46.999Z</time></trkpt><trkpt lat="43.5763773729615" lon="11.3862836456482"><ele>513.0</ele><time>2026-05-02T15:31:47.999Z</time></trkpt><trkpt lat="43.57654408525283" lon="11.386246457123466"><ele>515.0</ele><time>2026-05-02T15:31:48.999Z</time></trkpt><trkpt lat="43.57670752636242" lon="11.386207628566595"><ele>517.0</ele><time>2026-05-02T15:31:49.999Z</time></trkpt><trkpt lat="43.576860371700434" lon="11.386183956149244"><ele>517.0</ele><time>2026-05-02T15:31:50.999Z</time></trkpt><trkpt lat="43.57700788399546" lon="11.38620001198381"><ele>517.0</ele><time>2026-05-02T15:31:51.999Z</time></trkpt><trkpt lat="43.57715274125645" lon="11.386234885356615"><ele>517.0</ele><time>2026-05-02T15:31:52.999Z</time></trkpt><trkpt lat="43.57730853161543" lon="11.386294414990074"><ele>509.33333333333337</ele><time>2026-05-02T15:31:53.999Z</time></trkpt><trkpt lat="43.57746257923629" lon="11.386387830092835"><ele>501.66666666666663</ele><time>2026-05-02T15:31:54.999Z</time></trkpt><trkpt lat="43.57761529797907" lon="11.386507797294021"><ele>494.0</ele><time>2026-05-02T15:31:55.999Z</time></trkpt><trkpt lat="43.57777626326092" lon="11.386655845047697"><ele>494.66666666666663</ele><time>2026-05-02T15:31:56.999Z</time></trkpt><trkpt lat="43.577948118170035" lon="11.386816687939312"><ele>495.33333333333337</ele><time>2026-05-02T15:31:57.999Z</time></trkpt><trkpt lat="43.57813615945629" lon="11.386992680114894"><ele>496.0</ele><time>2026-05-02T15:31:58.999Z</time></trkpt><trkpt lat="43.57833538485309" lon="11.387179139703413"><ele>494.0</ele><time>2026-05-02T15:31:59.999Z</time></trkpt><trkpt lat="43.578513984198686" lon="11.387346294927431"><ele>492.0</ele><time>2026-05-02T15:32:00.999Z</time></trkpt><trkpt lat="43.578668183166606" lon="11.387490035201418"><ele>490.0</ele><time>2026-05-02T15:32:01.999Z</time></trkpt><trkpt lat="43.57879299500215" lon="11.387605516221358"><ele>490.0</ele><time>2026-05-02T15:32:02.999Z</time></trkpt><trkpt lat="43.57891275161861" lon="11.387716319670846"><ele>490.0</ele><time>2026-05-02T15:32:03.999Z</time></trkpt><trkpt lat="43.579045916859734" lon="11.387812333135955"><ele>490.0</ele><time>2026-05-02T15:32:04.999Z</time></trkpt><trkpt lat="43.57917471206514" lon="11.387909697149764"><ele>490.0</ele><time>2026-05-02T15:32:05.999Z</time></trkpt><trkpt lat="43.5793147542356" lon="11.387972930159904"><ele>490.0</ele><time>2026-05-02T15:32:07Z</time></trkpt><trkpt lat="43.57947446502567" lon="11.387985296226736"><ele>490.0</ele><time>2026-05-02T15:32:08Z</time></trkpt><trkpt lat="43.57965703017666" lon="11.387945190177216"><ele>490.0</ele><time>2026-05-02T15:32:09Z</time></trkpt><trkpt lat="43.57986969387536" lon="11.387872640170768"><ele>488.0</ele><time>2026-05-02T15:32:10Z</time></trkpt><trkpt lat="43.58009758069356" lon="11.3877918134637"><ele>486.0</ele><time>2026-05-02T15:32:11Z</time></trkpt><trkpt lat="43.58032923618376" lon="11.387726768067559"><ele>485.0</ele><time>2026-05-02T15:32:12Z</time></trkpt><trkpt lat="43.58056102413329" lon="11.387685502261432"><ele>484.0</ele><time>2026-05-02T15:32:13Z</time></trkpt><trkpt lat="43.580768868006096" lon="11.387665496259718"><ele>483.0</ele><time>2026-05-02T15:32:14Z</time></trkpt><trkpt lat="43.58096592362853" lon="11.387649772248121"><ele>483.0</ele><time>2026-05-02T15:32:15Z</time></trkpt><trkpt lat="43.58114764757907" lon="11.387676352930661"><ele>483.0</ele><time>2026-05-02T15:32:16Z</time></trkpt><trkpt lat="43.581317166718804" lon="11.387708698097406"><ele>483.0</ele><time>2026-05-02T15:32:17Z</time></trkpt><trkpt lat="43.58148049343361" lon="11.38776710060244"><ele>480.33333333333337</ele><time>2026-05-02T15:32:18Z</time></trkpt><trkpt lat="43.581641860054226" lon="11.3878567166498"><ele>477.6666666666667</ele><time>2026-05-02T15:32:19Z</time></trkpt><trkpt lat="43.581813579901066" lon="11.387981682266123"><ele>475.0</ele><time>2026-05-02T15:32:20Z</time></trkpt><trkpt lat="43.58201007834426" lon="11.388129100019746"><ele>467.5</ele><time>2026-05-02T15:32:21Z</time></trkpt><trkpt lat="43.582219621761894" lon="11.388286304426206"><ele>460.0</ele><time>2026-05-02T15:32:22Z</time></trkpt><trkpt lat="43.58242946977925" lon="11.388443737331775"><ele>460.0</ele><time>2026-05-02T15:32:23Z</time></trkpt><trkpt lat="43.58263331599111" lon="11.388571096730907"><ele>460.0</ele><time>2026-05-02T15:32:24Z</time></trkpt><trkpt lat="43.58282240585182" lon="11.388717420160225"><ele>460.0</ele><time>2026-05-02T15:32:25Z</time></trkpt><trkpt lat="43.58300354820392" lon="11.388856666782702"><ele>457.33333333333337</ele><time>2026-05-02T15:32:26Z</time></trkpt><trkpt lat="43.583183590282474" lon="11.388997571317596"><ele>454.66666666666663</ele><time>2026-05-02T15:32:27Z</time></trkpt><trkpt lat="43.583374339505944" lon="11.389127324421178"><ele>452.0</ele><time>2026-05-02T15:32:28Z</time></trkpt><trkpt lat="43.58358243451771" lon="11.38924020389993"><ele>450.0</ele><time>2026-05-02T15:32:29Z</time></trkpt><trkpt lat="43.583791657125545" lon="11.389324395956315"><ele>448.0</ele><time>2026-05-02T15:32:30Z</time></trkpt><trkpt lat="43.58398978666279" lon="11.389396688204155"><ele>446.0</ele><time>2026-05-02T15:32:31Z</time></trkpt><trkpt lat="43.584181685796445" lon="11.38945363050937"><ele>446.0</ele><time>2026-05-02T15:32:32Z</time></trkpt><trkpt lat="43.584364897103" lon="11.389492481924158"><ele>446.0</ele><time>2026-05-02T15:32:33Z</time></trkpt><trkpt lat="43.58453161958228" lon="11.389497038016064"><ele>446.0</ele><time>2026-05-02T15:32:34Z</time></trkpt><trkpt lat="43.58468227629746" lon="11.389451488098562"><ele>447.3333333333333</ele><time>2026-05-02T15:32:35Z</time></trkpt><trkpt lat="43.58482872691118" lon="11.389456842894921"><ele>448.66666666666663</ele><time>2026-05-02T15:32:36Z</time></trkpt><trkpt lat="43.58497539946106" lon="11.38916135393446"><ele>450.0</ele><time>2026-05-02T15:32:37Z</time></trkpt><trkpt lat="43.58515282547177" lon="11.388957340349801"><ele>449.33333333333337</ele><time>2026-05-02T15:32:38Z</time></trkpt><trkpt lat="43.585305765267826" lon="11.388760586545262"><ele>448.6666666666667</ele><time>2026-05-02T15:32:39Z</time></trkpt><trkpt lat="43.58544635866639" lon="11.388592713933997"><ele>448.0</ele><time>2026-05-02T15:32:40Z</time></trkpt><trkpt lat="43.58557706098584" lon="11.38843900079559"><ele>448.0</ele><time>2026-05-02T15:32:41Z</time></trkpt><trkpt lat="43.58570313600491" lon="11.38828894972971"><ele>448.0</ele><time>2026-05-02T15:32:42Z</time></trkpt><trkpt lat="43.58582882552298" lon="11.388151772923445"><ele>448.0</ele><time>2026-05-02T15:32:43Z</time></trkpt><trkpt lat="43.585959596981944" lon="11.388031009943045"><ele>444.6666666666667</ele><time>2026-05-02T15:32:44Z</time></trkpt><trkpt lat="43.58610813975449" lon="11.387988778667168"><ele>441.33333333333337</ele><time>2026-05-02T15:32:45Z</time></trkpt><trkpt lat="43.58625545642526" lon="11.387972059505504"><ele>438.0</ele><time>2026-05-02T15:32:46Z</time></trkpt><trkpt lat="43.58641751334759" lon="11.387986359891144"><ele>437.33333333333337</ele><time>2026-05-02T15:32:47Z</time></trkpt><trkpt lat="43.586602796361454" lon="11.388028208390008"><ele>436.6666666666667</ele><time>2026-05-02T15:32:48Z</time></trkpt><trkpt lat="43.586826378756314" lon="11.388077781510304"><ele>436.0</ele><time>2026-05-02T15:32:49Z</time></trkpt><trkpt lat="43.58706306402536" lon="11.388132998824565"><ele>436.0</ele><time>2026-05-02T15:32:50Z</time></trkpt><trkpt lat="43.58727988197893" lon="11.388183438196531"><ele>436.0</ele><time>2026-05-02T15:32:51Z</time></trkpt><trkpt lat="43.587484360111695" lon="11.38822733502933"><ele>436.0</ele><time>2026-05-02T15:32:52Z</time></trkpt><trkpt lat="43.58768064194795" lon="11.388271169478333"><ele>433.0</ele><time>2026-05-02T15:32:53Z</time></trkpt><trkpt lat="43.58786590549579" lon="11.388317123232632"><ele>430.0</ele><time>2026-05-02T15:32:54Z</time></trkpt><trkpt lat="43.58804507993499" lon="11.388372114895425"><ele>427.0</ele><time>2026-05-02T15:32:55Z</time></trkpt><trkpt lat="43.58820908049274" lon="11.38844106758257"><ele>427.0</ele><time>2026-05-02T15:32:56Z</time></trkpt><trkpt lat="43.588371047940925" lon="11.3885216818468"><ele>427.0</ele><time>2026-05-02T15:32:57Z</time></trkpt><trkpt lat="43.58852890040695" lon="11.38861992388916"><ele>427.0</ele><time>2026-05-02T15:32:58Z</time></trkpt><trkpt lat="43.58867711517071" lon="11.388724429212685"><ele>428.33333333333337</ele><time>2026-05-02T15:32:59Z</time></trkpt><trkpt lat="43.588818983047226" lon="11.388826237014168"><ele>429.66666666666663</ele><time>2026-05-02T15:33:00Z</time></trkpt><trkpt lat="43.58895516625728" lon="11.38892424103233"><ele>431.0</ele><time>2026-05-02T15:33:01Z</time></trkpt><trkpt lat="43.58908851794778" lon="11.389017289124682"><ele>431.0</ele><time>2026-05-02T15:33:02Z</time></trkpt><trkpt lat="43.58923251518244" lon="11.389072250259941"><ele>431.0</ele><time>2026-05-02T15:33:03Z</time></trkpt><trkpt lat="43.58937565353331" lon="11.389133679500182"><ele>431.0</ele><time>2026-05-02T15:33:04Z</time></trkpt><trkpt lat="43.589535470043344" lon="11.38916541989355"><ele>427.3333333333333</ele><time>2026-05-02T15:33:05Z</time></trkpt><trkpt lat="43.58969348681842" lon="11.38916304618746"><ele>423.66666666666663</ele><time>2026-05-02T15:33:06Z</time></trkpt><trkpt lat="43.589844723141624" lon="11.389138088304513"><ele>420.0</ele><time>2026-05-02T15:33:07Z</time></trkpt><trkpt lat="43.58999447362286" lon="11.389098741628965"><ele>420.0</ele><time>2026-05-02T15:33:08Z</time></trkpt><trkpt lat="43.590146436674864" lon="11.389040230742317"><ele>420.0</ele><time>2026-05-02T15:33:09Z</time></trkpt><trkpt lat="43.59028728246792" lon="11.388961719401744"><ele>420.0</ele><time>2026-05-02T15:33:10Z</time></trkpt><trkpt lat="43.590425081581834" lon="11.388889903794295"><ele>413.33333333333337</ele><time>2026-05-02T15:33:11Z</time></trkpt><trkpt lat="43.59056466739981" lon="11.388841288332081"><ele>406.6666666666667</ele><time>2026-05-02T15:33:12Z</time></trkpt><trkpt lat="43.590718751356775" lon="11.388819210461655"><ele>400.0</ele><time>2026-05-02T15:33:13Z</time></trkpt><trkpt lat="43.5908861013928" lon="11.388814687230722"><ele>400.0</ele><time>2026-05-02T15:33:14Z</time></trkpt><trkpt lat="43.5910549546211" lon="11.388802315595346"><ele>400.0</ele><time>2026-05-02T15:33:15Z</time></trkpt><trkpt lat="43.591220698126165" lon="11.388785726494893"><ele>400.0</ele><time>2026-05-02T15:33:16Z</time></trkpt><trkpt lat="43.59137981701561" lon="11.38876855932762"><ele>396.0</ele><time>2026-05-02T15:33:17Z</time></trkpt><trkpt lat="43.59152799755093" lon="11.388754923854794"><ele>392.0</ele><time>2026-05-02T15:33:18Z</time></trkpt><trkpt lat="43.59166706309528" lon="11.388746600739085"><ele>388.0</ele><time>2026-05-02T15:33:19Z</time></trkpt><trkpt lat="43.591783278809125" lon="11.38873851569925"><ele>384.0</ele><time>2026-05-02T15:33:19.999Z</time></trkpt><trkpt lat="43.591881552541075" lon="11.388781440024339"><ele>382.6</ele><time>2026-05-02T15:33:20.999Z</time></trkpt><trkpt lat="43.59195243665346" lon="11.388858045020326"><ele>381.2</ele><time>2026-05-02T15:33:21.999Z</time></trkpt><trkpt lat="43.59197750250548" lon="11.388965531857158"><ele>379.8</ele><time>2026-05-02T15:33:22.999Z</time></trkpt><trkpt lat="43.59200007146812" lon="11.389098863131329"><ele>378.40000000000003</ele><time>2026-05-02T15:33:23.999Z</time></trkpt><trkpt lat="43.591998636714344" lon="11.389241730651813"><ele>377.0</ele><time>2026-05-02T15:33:24.999Z</time></trkpt><trkpt lat="43.59200742088193" lon="11.389392209238762"><ele>377.0</ele><time>2026-05-02T15:33:25.999Z</time></trkpt><trkpt lat="43.592032703737395" lon="11.389531140770412"><ele>377.0</ele><time>2026-05-02T15:33:26.999Z</time></trkpt><trkpt lat="43.592089956379375" lon="11.389649149644978"><ele>377.0</ele><time>2026-05-02T15:33:27.999Z</time></trkpt><trkpt lat="43.592199738033834" lon="11.389676714842862"><ele>377.0</ele><time>2026-05-02T15:33:28.999Z</time></trkpt><trkpt lat="43.592290169408265" lon="11.389668715050352"><ele>377.0</ele><time>2026-05-02T15:33:29.999Z</time></trkpt><trkpt lat="43.59235463174724" lon="11.389607588806532"><ele>377.0</ele><time>2026-05-02T15:33:30.999Z</time></trkpt><trkpt lat="43.592400304559014" lon="11.389515842225789"><ele>377.0</ele><time>2026-05-02T15:33:31.999Z</time></trkpt><trkpt lat="43.59242327817568" lon="11.389403001789335"><ele>377.0</ele><time>2026-05-02T15:33:32.999Z</time></trkpt><trkpt lat="43.592430415059376" lon="11.38924951059434"><ele>377.0</ele><time>2026-05-02T15:33:33.999Z</time></trkpt><trkpt lat="43.59243330177843" lon="11.389043916026052"><ele>377.0</ele><time>2026-05-02T15:33:34.999Z</time></trkpt><trkpt lat="43.59244756873588" lon="11.388773232246256"><ele>374.6666666666667</ele><time>2026-05-02T15:33:35.999Z</time></trkpt><trkpt lat="43.592462181026235" lon="11.388505474167355"><ele>372.3333333333333</ele><time>2026-05-02T15:33:36.999Z</time></trkpt><trkpt lat="43.592482559709076" lon="11.388255002744332"><ele>370.0</ele><time>2026-05-02T15:33:37.999Z</time></trkpt><trkpt lat="43.59250193804928" lon="11.388023563495087"><ele>369.66666666666663</ele><time>2026-05-02T15:33:38.999Z</time></trkpt><trkpt lat="43.592509756542746" lon="11.387795879811774"><ele>369.3333333333333</ele><time>2026-05-02T15:33:39.999Z</time></trkpt><trkpt lat="43.59251008398549" lon="11.387587120060513"><ele>369.0</ele><time>2026-05-02T15:33:40.999Z</time></trkpt><trkpt lat="43.59249868212088" lon="11.387380636482842"><ele>369.0</ele><time>2026-05-02T15:33:41.999Z</time></trkpt><trkpt lat="43.592480792213536" lon="11.3871874640466"><ele>369.0</ele><time>2026-05-02T15:33:42.999Z</time></trkpt><trkpt lat="43.59247521314546" lon="11.387042856442502"><ele>369.0</ele><time>2026-05-02T15:33:43.999Z</time></trkpt><trkpt lat="43.592480899418206" lon="11.38691861446516"><ele>369.0</ele><time>2026-05-02T15:33:44.999Z</time></trkpt><trkpt lat="43.59256027532454" lon="11.386842260755575"><ele>369.0</ele><time>2026-05-02T15:33:45.999Z</time></trkpt><trkpt lat="43.59264936576036" lon="11.386791368057708"><ele>367.75</ele><time>2026-05-02T15:33:46.999Z</time></trkpt><trkpt lat="43.59277286455578" lon="11.38672948225598"><ele>366.5</ele><time>2026-05-02T15:33:47.999Z</time></trkpt><trkpt lat="43.59289838802317" lon="11.386696171706987"><ele>365.25</ele><time>2026-05-02T15:33:48.999Z</time></trkpt><trkpt lat="43.59303115815361" lon="11.386677041351993"><ele>364.0</ele><time>2026-05-02T15:33:49.999Z</time></trkpt><trkpt lat="43.59315967400819" lon="11.38666721624779"><ele>361.75</ele><time>2026-05-02T15:33:50.999Z</time></trkpt><trkpt lat="43.59328970123845" lon="11.386657851722322"><ele>359.5</ele><time>2026-05-02T15:33:51.999Z</time></trkpt><trkpt lat="43.593428572433794" lon="11.386647850259758"><ele>357.25</ele><time>2026-05-02T15:33:52.999Z</time></trkpt><trkpt lat="43.59357181251947" lon="11.386637534150926"><ele>355.0</ele><time>2026-05-02T15:33:53.999Z</time></trkpt><trkpt lat="43.59370685050964" lon="11.386605930234557"><ele>353.0</ele><time>2026-05-02T15:33:54.999Z</time></trkpt><trkpt lat="43.59383654608196" lon="11.38662133635848"><ele>351.0</ele><time>2026-05-02T15:33:55.999Z</time></trkpt><trkpt lat="43.5939565377836" lon="11.386627204128416"><ele>349.0</ele><time>2026-05-02T15:33:56.999Z</time></trkpt><trkpt lat="43.59406519326536" lon="11.386650429300623"><ele>347.0</ele><time>2026-05-02T15:33:57.999Z</time></trkpt><trkpt lat="43.59414843386029" lon="11.386721418300775"><ele>347.0</ele><time>2026-05-02T15:33:58.999Z</time></trkpt><trkpt lat="43.59421032726489" lon="11.386819930622732"><ele>347.0</ele><time>2026-05-02T15:33:59.999Z</time></trkpt><trkpt lat="43.59424944760875" lon="11.386944459750481"><ele>347.0</ele><time>2026-05-02T15:34:00.999Z</time></trkpt><trkpt lat="43.59427280471136" lon="11.387095009487288"><ele>347.0</ele><time>2026-05-02T15:34:01.999Z</time></trkpt><trkpt lat="43.59427018779857" lon="11.387259755612778"><ele>347.0</ele><time>2026-05-02T15:34:02.999Z</time></trkpt><trkpt lat="43.594271168734274" lon="11.387438833157342"><ele>347.25</ele><time>2026-05-02T15:34:03.999Z</time></trkpt><trkpt lat="43.594284621343874" lon="11.387627127785187"><ele>347.5</ele><time>2026-05-02T15:34:04.999Z</time></trkpt><trkpt lat="43.594323414679856" lon="11.387804378375929"><ele>347.75</ele><time>2026-05-02T15:34:05.999Z</time></trkpt><trkpt lat="43.594399377012664" lon="11.387971019505448"><ele>348.0</ele><time>2026-05-02T15:34:06.999Z</time></trkpt><trkpt lat="43.59450334743819" lon="11.388130948763985"><ele>343.6666666666667</ele><time>2026-05-02T15:34:07.999Z</time></trkpt><trkpt lat="43.594633820557085" lon="11.388261820021501"><ele>339.33333333333337</ele><time>2026-05-02T15:34:08.999Z</time></trkpt><trkpt lat="43.59476122949179" lon="11.388384085486777"><ele>335.0</ele><time>2026-05-02T15:34:09.999Z</time></trkpt><trkpt lat="43.59487531035943" lon="11.388495079841494"><ele>335.0</ele><time>2026-05-02T15:34:10.999Z</time></trkpt><trkpt lat="43.59498997150887" lon="11.388578381308168"><ele>335.0</ele><time>2026-05-02T15:34:11.999Z</time></trkpt><trkpt lat="43.59510365829249" lon="11.388634280394468"><ele>335.0</ele><time>2026-05-02T15:34:13Z</time></trkpt><trkpt lat="43.59521612594129" lon="11.38865253293608"><ele>335.0</ele><time>2026-05-02T15:34:14Z</time></trkpt><trkpt lat="43.595320621630144" lon="11.388645369961466"><ele>336.0</ele><time>2026-05-02T15:34:15Z</time></trkpt><trkpt lat="43.59540385832031" lon="11.388626260654554"><ele>337.0</ele><time>2026-05-02T15:34:16Z</time></trkpt><trkpt lat="43.595466921827004" lon="11.388607627599287"><ele>338.0</ele><time>2026-05-02T15:34:17Z</time></trkpt><trkpt lat="43.59554850651534" lon="11.388594034743939"><ele>339.0</ele><time>2026-05-02T15:34:19Z</time></trkpt><trkpt lat="43.59562130625255" lon="11.388622922495507"><ele>340.0</ele><time>2026-05-02T15:34:22Z</time></trkpt><trkpt lat="43.595603283346385" lon="11.3888376252798"><ele>340.3333333333333</ele><time>2026-05-02T15:34:23Z</time></trkpt><trkpt lat="43.595631674555364" lon="11.38900558678422"><ele>340.6666666666667</ele><time>2026-05-02T15:34:24Z</time></trkpt><trkpt lat="43.595671940876535" lon="11.389204650702505"><ele>341.0</ele><time>2026-05-02T15:34:25Z</time></trkpt><trkpt lat="43.59573324560109" lon="11.389436637641923"><ele>340.0</ele><time>2026-05-02T15:34:26Z</time></trkpt><trkpt lat="43.59581596914258" lon="11.389720087795187"><ele>339.0</ele><time>2026-05-02T15:34:27Z</time></trkpt><trkpt lat="43.59592341699756" lon="11.390038046810806"><ele>339.0</ele><time>2026-05-02T15:34:28Z</time></trkpt><trkpt lat="43.59602990957005" lon="11.39040040694327"><ele>339.0</ele><time>2026-05-02T15:34:29Z</time></trkpt><trkpt lat="43.59612708615339" lon="11.390727472113326"><ele>347.5</ele><time>2026-05-02T15:34:30Z</time></trkpt><trkpt lat="43.59621383501065" lon="11.391020319036754"><ele>356.0</ele><time>2026-05-02T15:34:31Z</time></trkpt><trkpt lat="43.596304541716314" lon="11.391300639065415"><ele>351.6666666666667</ele><time>2026-05-02T15:34:32Z</time></trkpt><trkpt lat="43.596405498483776" lon="11.391561105606606"><ele>347.3333333333333</ele><time>2026-05-02T15:34:33Z</time></trkpt><trkpt lat="43.59650250618674" lon="11.391804830095788"><ele>343.0</ele><time>2026-05-02T15:34:34Z</time></trkpt><trkpt lat="43.59659332028833" lon="11.392051152264258"><ele>339.66666666666663</ele><time>2026-05-02T15:34:35Z</time></trkpt><trkpt lat="43.596685843723854" lon="11.39230224138521"><ele>336.3333333333333</ele><time>2026-05-02T15:34:36Z</time></trkpt><trkpt lat="43.59677501275536" lon="11.392528344731469"><ele>333.0</ele><time>2026-05-02T15:34:37Z</time></trkpt><trkpt lat="43.59686117571426" lon="11.392741786714884"><ele>333.0</ele><time>2026-05-02T15:34:38Z</time></trkpt><trkpt lat="43.59695182095348" lon="11.39294767903394"><ele>333.0</ele><time>2026-05-02T15:34:39Z</time></trkpt><trkpt lat="43.597043271896744" lon="11.393141248423028"><ele>333.0</ele><time>2026-05-02T15:34:40Z</time></trkpt><trkpt lat="43.597151285339514" lon="11.393319219444473"><ele>332.6666666666667</ele><time>2026-05-02T15:34:41Z</time></trkpt><trkpt lat="43.5972896105576" lon="11.393474042414457"><ele>332.33333333333337</ele><time>2026-05-02T15:34:42Z</time></trkpt><trkpt lat="43.59745324283906" lon="11.39359423463337"><ele>332.0</ele><time>2026-05-02T15:34:43Z</time></trkpt><trkpt lat="43.59760780886829" lon="11.393682085464807"><ele>332.0</ele><time>2026-05-02T15:34:44Z</time></trkpt><trkpt lat="43.59775137687506" lon="11.393782792455346"><ele>332.0</ele><time>2026-05-02T15:34:45Z</time></trkpt><trkpt lat="43.597845478496104" lon="11.393927189405181"><ele>332.0</ele><time>2026-05-02T15:34:46Z</time></trkpt><trkpt lat="43.59789971936541" lon="11.394087001953551"><ele>332.0</ele><time>2026-05-02T15:34:47Z</time></trkpt><trkpt lat="43.59793010826619" lon="11.394289741153518"><ele>330.6666666666667</ele><time>2026-05-02T15:34:48Z</time></trkpt><trkpt lat="43.597951512980885" lon="11.394543300248413"><ele>329.3333333333333</ele><time>2026-05-02T15:34:49Z</time></trkpt><trkpt lat="43.59797166331765" lon="11.394836036097514"><ele>328.0</ele><time>2026-05-02T15:34:50Z</time></trkpt><trkpt lat="43.598012519767074" lon="11.395114969325705"><ele>328.0</ele><time>2026-05-02T15:34:51Z</time></trkpt><trkpt lat="43.59808236823152" lon="11.395345600765081"><ele>328.0</ele><time>2026-05-02T15:34:52Z</time></trkpt><trkpt lat="43.59815602087778" lon="11.395572941310173"><ele>328.0</ele><time>2026-05-02T15:34:53Z</time></trkpt><trkpt lat="43.59825823818638" lon="11.395792876898149"><ele>326.3333333333333</ele><time>2026-05-02T15:34:54Z</time></trkpt><trkpt lat="43.598380567193296" lon="11.39600439054261"><ele>324.6666666666667</ele><time>2026-05-02T15:34:55Z</time></trkpt><trkpt lat="43.59848394503382" lon="11.39618376787393"><ele>323.0</ele><time>2026-05-02T15:34:56Z</time></trkpt><trkpt lat="43.59857270689456" lon="11.396327184887879"><ele>322.5</ele><time>2026-05-02T15:34:57Z</time></trkpt><trkpt lat="43.59865858451979" lon="11.396470504729676"><ele>322.0</ele><time>2026-05-02T15:34:58Z</time></trkpt><trkpt lat="43.598738693341346" lon="11.39660473276575"><ele>321.5</ele><time>2026-05-02T15:34:59Z</time></trkpt><trkpt lat="43.59881873988019" lon="11.396736955709944"><ele>321.0</ele><time>2026-05-02T15:35:00Z</time></trkpt><trkpt lat="43.59890448473172" lon="11.396865935533063"><ele>321.5</ele><time>2026-05-02T15:35:01Z</time></trkpt><trkpt lat="43.59901579132062" lon="11.397001998926344"><ele>322.0</ele><time>2026-05-02T15:35:02Z</time></trkpt><trkpt lat="43.599134718109" lon="11.397111615812857"><ele>322.5</ele><time>2026-05-02T15:35:03Z</time></trkpt><trkpt lat="43.59924226841822" lon="11.39719232940257"><ele>323.0</ele><time>2026-05-02T15:35:04Z</time></trkpt><trkpt lat="43.59934926806337" lon="11.39726150482873"><ele>323.0</ele><time>2026-05-02T15:35:05Z</time></trkpt><trkpt lat="43.599459354932186" lon="11.397343204087234"><ele>323.0</ele><time>2026-05-02T15:35:06Z</time></trkpt><trkpt lat="43.59956824418032" lon="11.39742491569302"><ele>323.0</ele><time>2026-05-02T15:35:07Z</time></trkpt><trkpt lat="43.5996785280885" lon="11.397527449639641"><ele>323.0</ele><time>2026-05-02T15:35:08Z</time></trkpt><trkpt lat="43.599787086071316" lon="11.397649830267243"><ele>322.75</ele><time>2026-05-02T15:35:09Z</time></trkpt><trkpt lat="43.59990082761448" lon="11.397776490363531"><ele>322.5</ele><time>2026-05-02T15:35:10Z</time></trkpt><trkpt lat="43.599999580925555" lon="11.397886532097026"><ele>322.25</ele><time>2026-05-02T15:35:11Z</time></trkpt><trkpt lat="43.600093457314756" lon="11.397999708854586"><ele>322.0</ele><time>2026-05-02T15:35:12Z</time></trkpt><trkpt lat="43.600189454518606" lon="11.398114299347037"><ele>322.0</ele><time>2026-05-02T15:35:13Z</time></trkpt><trkpt lat="43.60027866680535" lon="11.398251981368569"><ele>322.0</ele><time>2026-05-02T15:35:14Z</time></trkpt><trkpt lat="43.60037936980098" lon="11.398392120541057"><ele>322.0</ele><time>2026-05-02T15:35:15Z</time></trkpt><trkpt lat="43.60047913237285" lon="11.398549158940282"><ele>322.0</ele><time>2026-05-02T15:35:16Z</time></trkpt><trkpt lat="43.60057152826342" lon="11.398716729102107"><ele>322.25</ele><time>2026-05-02T15:35:17Z</time></trkpt><trkpt lat="43.60065362323228" lon="11.398869851137908"><ele>322.5</ele><time>2026-05-02T15:35:18Z</time></trkpt><trkpt lat="43.60072479583383" lon="11.399016766061083"><ele>322.75</ele><time>2026-05-02T15:35:19Z</time></trkpt><trkpt lat="43.60077295390044" lon="11.399173918822596"><ele>323.0</ele><time>2026-05-02T15:35:20Z</time></trkpt><trkpt lat="43.60082417576706" lon="11.399327089039367"><ele>323.0</ele><time>2026-05-02T15:35:21Z</time></trkpt><trkpt lat="43.60085615773795" lon="11.399493966966993"><ele>323.0</ele><time>2026-05-02T15:35:21.999Z</time></trkpt><trkpt lat="43.600868883133245" lon="11.399667503565267"><ele>323.0</ele><time>2026-05-02T15:35:22.999Z</time></trkpt><trkpt lat="43.60084937725943" lon="11.399842050211962"><ele>323.0</ele><time>2026-05-02T15:35:23.999Z</time></trkpt><trkpt lat="43.60081887202969" lon="11.400063949640176"><ele>321.6666666666667</ele><time>2026-05-02T15:35:24.999Z</time></trkpt><trkpt lat="43.60077928860562" lon="11.400325258826856"><ele>320.3333333333333</ele><time>2026-05-02T15:35:25.999Z</time></trkpt><trkpt lat="43.600728005618656" lon="11.400663802483033"><ele>319.0</ele><time>2026-05-02T15:35:26.999Z</time></trkpt><trkpt lat="43.600673348135004" lon="11.401028266500703"><ele>320.0</ele><time>2026-05-02T15:35:27.999Z</time></trkpt><trkpt lat="43.60062456099149" lon="11.401353864704076"><ele>321.0</ele><time>2026-05-02T15:35:28.999Z</time></trkpt><trkpt lat="43.60058086555089" lon="11.4016454814379"><ele>321.0</ele><time>2026-05-02T15:35:29.999Z</time></trkpt><trkpt lat="43.600542803002966" lon="11.401899505209952"><ele>321.0</ele><time>2026-05-02T15:35:30.999Z</time></trkpt><trkpt lat="43.60050658524804" lon="11.40213175980433"><ele>321.0</ele><time>2026-05-02T15:35:31.999Z</time></trkpt><trkpt lat="43.60046696209882" lon="11.402329136814068"><ele>321.3333333333333</ele><time>2026-05-02T15:35:32.999Z</time></trkpt><trkpt lat="43.6004079345065" lon="11.402496254788284"><ele>321.66666666666663</ele><time>2026-05-02T15:35:33.999Z</time></trkpt><trkpt lat="43.600311655100064" lon="11.402655908580835"><ele>322.0</ele><time>2026-05-02T15:35:34.999Z</time></trkpt><trkpt lat="43.60015742903609" lon="11.402778190303307"><ele>322.0</ele><time>2026-05-02T15:35:35.999Z</time></trkpt><trkpt lat="43.59996908224834" lon="11.402945399641624"><ele>322.0</ele><time>2026-05-02T15:35:36.999Z</time></trkpt><trkpt lat="43.59975065913801" lon="11.403138812005954"><ele>323.3333333333333</ele><time>2026-05-02T15:35:37.999Z</time></trkpt><trkpt lat="43.59956876975316" lon="11.403299873986427"><ele>324.6666666666667</ele><time>2026-05-02T15:35:38.999Z</time></trkpt><trkpt lat="43.59943575506655" lon="11.403438173682156"><ele>326.0</ele><time>2026-05-02T15:35:39.999Z</time></trkpt><trkpt lat="43.59930535628322" lon="11.403541489617142"><ele>323.0</ele><time>2026-05-02T15:35:40.999Z</time></trkpt><trkpt lat="43.59919028595226" lon="11.403637811736958"><ele>320.0</ele><time>2026-05-02T15:35:41.999Z</time></trkpt><trkpt lat="43.599092337569076" lon="11.403729740287234"><ele>317.0</ele><time>2026-05-02T15:35:42.999Z</time></trkpt><trkpt lat="43.59902747368613" lon="11.40383922426307"><ele>314.0</ele><time>2026-05-02T15:35:43.999Z</time></trkpt><trkpt lat="43.5990160335018" lon="11.403985076574406"><ele>312.6666666666667</ele><time>2026-05-02T15:35:44.999Z</time></trkpt><trkpt lat="43.59905735447943" lon="11.404166891574715"><ele>311.3333333333333</ele><time>2026-05-02T15:35:45.999Z</time></trkpt><trkpt lat="43.599169255964426" lon="11.404358374369751"><ele>310.0</ele><time>2026-05-02T15:35:46.999Z</time></trkpt><trkpt lat="43.59931389961177" lon="11.404578072772422"><ele>311.5</ele><time>2026-05-02T15:35:47.999Z</time></trkpt><trkpt lat="43.59947156996435" lon="11.40483363266758"><ele>313.0</ele><time>2026-05-02T15:35:48.999Z</time></trkpt><trkpt lat="43.5996227307655" lon="11.405098845863092"><ele>312.0</ele><time>2026-05-02T15:35:49.999Z</time></trkpt><trkpt lat="43.599751795418605" lon="11.40532485969452"><ele>311.0</ele><time>2026-05-02T15:35:50.999Z</time></trkpt><trkpt lat="43.5998744876619" lon="11.405511046598464"><ele>310.0</ele><time>2026-05-02T15:35:51.999Z</time></trkpt><trkpt lat="43.60001526483867" lon="11.405668563584639"><ele>310.0</ele><time>2026-05-02T15:35:52.999Z</time></trkpt><trkpt lat="43.60017699908039" lon="11.405810712806558"><ele>310.0</ele><time>2026-05-02T15:35:53.999Z</time></trkpt><trkpt lat="43.60034072101285" lon="11.405914229168305"><ele>310.0</ele><time>2026-05-02T15:35:54.999Z</time></trkpt><trkpt lat="43.60049695347549" lon="11.406014366462045"><ele>311.0</ele><time>2026-05-02T15:35:55.999Z</time></trkpt><trkpt lat="43.60061825867425" lon="11.40617386282972"><ele>312.0</ele><time>2026-05-02T15:35:56.999Z</time></trkpt><trkpt lat="43.60070529190207" lon="11.406374956919777"><ele>313.0</ele><time>2026-05-02T15:35:57.999Z</time></trkpt><trkpt lat="43.60077975938278" lon="11.406606282297124"><ele>313.0</ele><time>2026-05-02T15:35:58.999Z</time></trkpt><trkpt lat="43.60086006749993" lon="11.406859213205712"><ele>313.0</ele><time>2026-05-02T15:35:59.999Z</time></trkpt><trkpt lat="43.600929435537445" lon="11.407090580750419"><ele>313.0</ele><time>2026-05-02T15:36:00.999Z</time></trkpt><trkpt lat="43.60097924812" lon="11.407304163995194"><ele>311.5</ele><time>2026-05-02T15:36:01.999Z</time></trkpt><trkpt lat="43.601011713598474" lon="11.407503178328515"><ele>310.0</ele><time>2026-05-02T15:36:02.999Z</time></trkpt><trkpt lat="43.601023065594724" lon="11.407678204931424"><ele>308.5</ele><time>2026-05-02T15:36:03.999Z</time></trkpt><trkpt lat="43.60100613989179" lon="11.407846227326543"><ele>307.0</ele><time>2026-05-02T15:36:04.999Z</time></trkpt><trkpt lat="43.60094944669744" lon="11.407981910534863"><ele>308.25</ele><time>2026-05-02T15:36:05.999Z</time></trkpt><trkpt lat="43.60085908889514" lon="11.408055849128248"><ele>309.5</ele><time>2026-05-02T15:36:06.999Z</time></trkpt><trkpt lat="43.600745556212146" lon="11.408109705930913"><ele>310.75</ele><time>2026-05-02T15:36:07.999Z</time></trkpt><trkpt lat="43.600592548888265" lon="11.408183288806109"><ele>312.0</ele><time>2026-05-02T15:36:08.999Z</time></trkpt><trkpt lat="43.60046557882878" lon="11.40825360592101"><ele>312.0</ele><time>2026-05-02T15:36:09.999Z</time></trkpt><trkpt lat="43.60035277845017" lon="11.408365548455304"><ele>312.0</ele><time>2026-05-02T15:36:10.999Z</time></trkpt><trkpt lat="43.600312602551924" lon="11.408562425976038"><ele>312.0</ele><time>2026-05-02T15:36:11.999Z</time></trkpt><trkpt lat="43.60021240559363" lon="11.408725451007301"><ele>312.0</ele><time>2026-05-02T15:36:12.999Z</time></trkpt><trkpt lat="43.600344592481925" lon="11.408969790336323"><ele>311.3333333333333</ele><time>2026-05-02T15:36:13.999Z</time></trkpt><trkpt lat="43.600439899342" lon="11.409199838733912"><ele>310.66666666666663</ele><time>2026-05-02T15:36:14.999Z</time></trkpt><trkpt lat="43.60056272641351" lon="11.409448566290346"><ele>310.0</ele><time>2026-05-02T15:36:15.999Z</time></trkpt><trkpt lat="43.600670485925654" lon="11.40966589472744"><ele>310.0</ele><time>2026-05-02T15:36:16.999Z</time></trkpt><trkpt lat="43.60072513651079" lon="11.409877802828222"><ele>310.0</ele><time>2026-05-02T15:36:17.999Z</time></trkpt><trkpt lat="43.600744911575205" lon="11.41007983761567"><ele>310.0</ele><time>2026-05-02T15:36:19Z</time></trkpt><trkpt lat="43.60073361002305" lon="11.41028657049295"><ele>308.66666666666663</ele><time>2026-05-02T15:36:20Z</time></trkpt><trkpt lat="43.60069661878045" lon="11.410526863269919"><ele>307.3333333333333</ele><time>2026-05-02T15:36:21Z</time></trkpt><trkpt lat="43.6006541180615" lon="11.410753242124773"><ele>306.0</ele><time>2026-05-02T15:36:22Z</time></trkpt><trkpt lat="43.60061397941094" lon="11.410944770683024"><ele>306.0</ele><time>2026-05-02T15:36:23Z</time></trkpt><trkpt lat="43.600545678027295" lon="11.41110632569053"><ele>306.0</ele><time>2026-05-02T15:36:24Z</time></trkpt><trkpt lat="43.60048441332339" lon="11.411284059415026"><ele>306.0</ele><time>2026-05-02T15:36:25Z</time></trkpt><trkpt lat="43.600408311296" lon="11.411418955400274"><ele>306.0</ele><time>2026-05-02T15:36:26Z</time></trkpt><trkpt lat="43.60033262729314" lon="11.41158054588262"><ele>304.0</ele><time>2026-05-02T15:36:27Z</time></trkpt><trkpt lat="43.60046418217067" lon="11.411808075388027"><ele>302.0</ele><time>2026-05-02T15:36:28Z</time></trkpt><trkpt lat="43.600504976430706" lon="11.41195619735959"><ele>300.0</ele><time>2026-05-02T15:36:29Z</time></trkpt><trkpt lat="43.60058033733378" lon="11.412076707712544"><ele>298.0</ele><time>2026-05-02T15:36:30Z</time></trkpt><trkpt lat="43.600669999226525" lon="11.412157656492706"><ele>298.0</ele><time>2026-05-02T15:36:31Z</time></trkpt><trkpt lat="43.60076631849587" lon="11.412173053585086"><ele>298.0</ele><time>2026-05-02T15:36:32Z</time></trkpt><trkpt lat="43.600872376506786" lon="11.41214614681565"><ele>298.0</ele><time>2026-05-02T15:36:33Z</time></trkpt><trkpt lat="43.60099355729867" lon="11.412066562396701"><ele>298.0</ele><time>2026-05-02T15:36:34Z</time></trkpt><trkpt lat="43.60110025775319" lon="11.411962172993242"><ele>298.0</ele><time>2026-05-02T15:36:35Z</time></trkpt><trkpt lat="43.601196491303014" lon="11.411886519341103"><ele>298.0</ele><time>2026-05-02T15:36:36Z</time></trkpt><trkpt lat="43.6012880116284" lon="11.411835113251934"><ele>298.0</ele><time>2026-05-02T15:36:37Z</time></trkpt><trkpt lat="43.60136793217509" lon="11.41184206679608"><ele>298.0</ele><time>2026-05-02T15:36:38Z</time></trkpt><trkpt lat="43.601421987332984" lon="11.41191147368373"><ele>298.0</ele><time>2026-05-02T15:36:39Z</time></trkpt><trkpt lat="43.60140317413213" lon="11.412047378176988"><ele>297.8</ele><time>2026-05-02T15:36:40Z</time></trkpt><trkpt lat="43.6013796274061" lon="11.41217814990707"><ele>297.6</ele><time>2026-05-02T15:36:41Z</time></trkpt><trkpt lat="43.60134435269724" lon="11.412341330371794"><ele>297.4</ele><time>2026-05-02T15:36:42Z</time></trkpt><trkpt lat="43.60133019991117" lon="11.41249331892403"><ele>297.2</ele><time>2026-05-02T15:36:43Z</time></trkpt><trkpt lat="43.601328549765" lon="11.412612902148178"><ele>297.0</ele><time>2026-05-02T15:36:44Z</time></trkpt><trkpt lat="43.601354723034675" lon="11.412749570584383"><ele>297.0</ele><time>2026-05-02T15:36:45Z</time></trkpt><trkpt lat="43.60143906428225" lon="11.41284841448474"><ele>297.0</ele><time>2026-05-02T15:36:46Z</time></trkpt><trkpt lat="43.601531805465676" lon="11.412891192173944"><ele>297.0</ele><time>2026-05-02T15:36:47Z</time></trkpt><trkpt lat="43.601641447748285" lon="11.412874286201017"><ele>297.0</ele><time>2026-05-02T15:36:48Z</time></trkpt><trkpt lat="43.60175262111761" lon="11.41286079330982"><ele>297.0</ele><time>2026-05-02T15:36:49Z</time></trkpt><trkpt lat="43.601842156734314" lon="11.412934236084793"><ele>296.6</ele><time>2026-05-02T15:36:50Z</time></trkpt><trkpt lat="43.60190832779613" lon="11.413044890439162"><ele>296.2</ele><time>2026-05-02T15:36:51Z</time></trkpt><trkpt lat="43.60195059590294" lon="11.413178222018823"><ele>295.8</ele><time>2026-05-02T15:36:52Z</time></trkpt><trkpt lat="43.60195306006167" lon="11.413324965934931"><ele>295.4</ele><time>2026-05-02T15:36:53Z</time></trkpt><trkpt lat="43.6019105029648" lon="11.413483940473448"><ele>295.0</ele><time>2026-05-02T15:36:54Z</time></trkpt><trkpt lat="43.601880347179275" lon="11.413662212373003"><ele>296.3333333333333</ele><time>2026-05-02T15:36:55Z</time></trkpt><trkpt lat="43.60188708003987" lon="11.413854698050379"><ele>297.6666666666667</ele><time>2026-05-02T15:36:56Z</time></trkpt><trkpt lat="43.60191411271352" lon="11.414064888300013"><ele>299.0</ele><time>2026-05-02T15:36:57Z</time></trkpt><trkpt lat="43.60194777735124" lon="11.414305844961742"><ele>299.0</ele><time>2026-05-02T15:36:58Z</time></trkpt><trkpt lat="43.60198105214893" lon="11.414567874508622"><ele>299.0</ele><time>2026-05-02T15:36:59Z</time></trkpt><trkpt lat="43.60198581504256" lon="11.41480060364999"><ele>299.0</ele><time>2026-05-02T15:37:00Z</time></trkpt><trkpt lat="43.60196741185998" lon="11.415017731112204"><ele>301.0</ele><time>2026-05-02T15:37:01Z</time></trkpt><trkpt lat="43.60194020030574" lon="11.415251225359972"><ele>303.0</ele><time>2026-05-02T15:37:02Z</time></trkpt><trkpt lat="43.601919979570695" lon="11.415499048840452"><ele>305.0</ele><time>2026-05-02T15:37:03Z</time></trkpt><trkpt lat="43.601894921669754" lon="11.415756896565043"><ele>305.33333333333337</ele><time>2026-05-02T15:37:04Z</time></trkpt><trkpt lat="43.601870535635776" lon="11.416007830727077"><ele>305.6666666666667</ele><time>2026-05-02T15:37:05Z</time></trkpt><trkpt lat="43.60184886893102" lon="11.416227058041438"><ele>306.0</ele><time>2026-05-02T15:37:06Z</time></trkpt><trkpt lat="43.601827795488845" lon="11.416440137257148"><ele>306.0</ele><time>2026-05-02T15:37:07Z</time></trkpt><trkpt lat="43.60180826849526" lon="11.416637579997584"><ele>306.0</ele><time>2026-05-02T15:37:08Z</time></trkpt><trkpt lat="43.60179333310612" lon="11.41681291337203"><ele>306.0</ele><time>2026-05-02T15:37:09Z</time></trkpt><trkpt lat="43.60180038366594" lon="11.416974001019431"><ele>306.0</ele><time>2026-05-02T15:37:10Z</time></trkpt><trkpt lat="43.60180584049481" lon="11.417122680938263"><ele>305.5</ele><time>2026-05-02T15:37:11Z</time></trkpt><trkpt lat="43.601845401256405" lon="11.417258698122632"><ele>305.0</ele><time>2026-05-02T15:37:12Z</time></trkpt><trkpt lat="43.601925826739446" lon="11.417375429686244"><ele>304.5</ele><time>2026-05-02T15:37:13Z</time></trkpt><trkpt lat="43.602034116149895" lon="11.417463371043361"><ele>304.0</ele><time>2026-05-02T15:37:14Z</time></trkpt><trkpt lat="43.602156665194634" lon="11.417507421101345"><ele>304.0</ele><time>2026-05-02T15:37:14.999Z</time></trkpt><trkpt lat="43.60229992481206" lon="11.417517597782851"><ele>304.0</ele><time>2026-05-02T15:37:15.999Z</time></trkpt><trkpt lat="43.60247892396939" lon="11.417486506620284"><ele>304.0</ele><time>2026-05-02T15:37:16.999Z</time></trkpt><trkpt lat="43.602676816956986" lon="11.417458651724624"><ele>302.0</ele><time>2026-05-02T15:37:17.999Z</time></trkpt><trkpt lat="43.602867007923" lon="11.417442145785317"><ele>300.0</ele><time>2026-05-02T15:37:18.999Z</time></trkpt><trkpt lat="43.60304080300401" lon="11.417432100325422"><ele>298.0</ele><time>2026-05-02T15:37:19.999Z</time></trkpt><trkpt lat="43.60320174866788" lon="11.417422887985177"><ele>298.0</ele><time>2026-05-02T15:37:20.999Z</time></trkpt><trkpt lat="43.60334930876214" lon="11.417420824920539"><ele>298.0</ele><time>2026-05-02T15:37:21.999Z</time></trkpt><trkpt lat="43.60347707686532" lon="11.41748742611406"><ele>298.0</ele><time>2026-05-02T15:37:22.999Z</time></trkpt><trkpt lat="43.603597394659474" lon="11.41755354989622"><ele>298.0</ele><time>2026-05-02T15:37:23.999Z</time></trkpt><trkpt lat="43.60370419559974" lon="11.417649333303405"><ele>297.0</ele><time>2026-05-02T15:37:24.999Z</time></trkpt><trkpt lat="43.603799006813006" lon="11.417776818687548"><ele>296.0</ele><time>2026-05-02T15:37:25.999Z</time></trkpt><trkpt lat="43.60387932684567" lon="11.41794422362413"><ele>295.0</ele><time>2026-05-02T15:37:26.999Z</time></trkpt><trkpt lat="43.603932633075246" lon="11.41814752218481"><ele>294.0</ele><time>2026-05-02T15:37:27.999Z</time></trkpt><trkpt lat="43.6039879571012" lon="11.41838575269345"><ele>292.3333333333333</ele><time>2026-05-02T15:37:28.999Z</time></trkpt><trkpt lat="43.604039146503524" lon="11.418643882263323"><ele>290.66666666666663</ele><time>2026-05-02T15:37:29.999Z</time></trkpt><trkpt lat="43.60408729358586" lon="11.418915489182993"><ele>289.0</ele><time>2026-05-02T15:37:30.999Z</time></trkpt><trkpt lat="43.6041317679532" lon="11.419191021953385"><ele>287.66666666666663</ele><time>2026-05-02T15:37:31.999Z</time></trkpt><trkpt lat="43.60417219439015" lon="11.41944373704094"><ele>286.3333333333333</ele><time>2026-05-02T15:37:32.999Z</time></trkpt><trkpt lat="43.60420882719296" lon="11.419689702959918"><ele>285.0</ele><time>2026-05-02T15:37:33.999Z</time></trkpt><trkpt lat="43.604250807685474" lon="11.41992947434705"><ele>284.6666666666667</ele><time>2026-05-02T15:37:34.999Z</time></trkpt><trkpt lat="43.60432113500074" lon="11.420140037121167"><ele>284.33333333333337</ele><time>2026-05-02T15:37:35.999Z</time></trkpt><trkpt lat="43.60437758928862" lon="11.42033969552086"><ele>284.0</ele><time>2026-05-02T15:37:36.999Z</time></trkpt><trkpt lat="43.60444818686838" lon="11.420530172303257"><ele>280.0</ele><time>2026-05-02T15:37:37.999Z</time></trkpt><trkpt lat="43.60452836442854" lon="11.420707901687077"><ele>276.0</ele><time>2026-05-02T15:37:38.999Z</time></trkpt><trkpt lat="43.60461239903129" lon="11.42087827562947"><ele>272.0</ele><time>2026-05-02T15:37:39.999Z</time></trkpt><trkpt lat="43.604694399640024" lon="11.421046778631894"><ele>268.0</ele><time>2026-05-02T15:37:40.999Z</time></trkpt><trkpt lat="43.60475178052497" lon="11.42122919495354"><ele>268.25</ele><time>2026-05-02T15:37:41.999Z</time></trkpt><trkpt lat="43.60480811685251" lon="11.421410368874376"><ele>268.5</ele><time>2026-05-02T15:37:42.999Z</time></trkpt><trkpt lat="43.604829932070366" lon="11.42160519190595"><ele>268.75</ele><time>2026-05-02T15:37:43.999Z</time></trkpt><trkpt lat="43.60485033418891" lon="11.421804226484747"><ele>269.0</ele><time>2026-05-02T15:37:44.999Z</time></trkpt><trkpt lat="43.6048683916552" lon="11.421998699892644"><ele>268.5</ele><time>2026-05-02T15:37:45.999Z</time></trkpt><trkpt lat="43.60490485285226" lon="11.422184785605394"><ele>268.0</ele><time>2026-05-02T15:37:46.999Z</time></trkpt><trkpt lat="43.60494137421949" lon="11.422372840257747"><ele>267.5</ele><time>2026-05-02T15:37:47.999Z</time></trkpt><trkpt lat="43.60499487757565" lon="11.422565028007819"><ele>267.0</ele><time>2026-05-02T15:37:48.999Z</time></trkpt><trkpt lat="43.60505652601482" lon="11.422741170588207"><ele>267.0</ele><time>2026-05-02T15:37:49.999Z</time></trkpt><trkpt lat="43.60511242967519" lon="11.422908873040187"><ele>267.0</ele><time>2026-05-02T15:37:50.999Z</time></trkpt><trkpt lat="43.605170011563" lon="11.42307350738909"><ele>267.0</ele><time>2026-05-02T15:37:51.999Z</time></trkpt><trkpt lat="43.60523355095683" lon="11.423249634563868"><ele>267.0</ele><time>2026-05-02T15:37:52.999Z</time></trkpt><trkpt lat="43.60531011026117" lon="11.423422462456108"><ele>265.5</ele><time>2026-05-02T15:37:53.999Z</time></trkpt><trkpt lat="43.60539880312359" lon="11.423567801484097"><ele>264.0</ele><time>2026-05-02T15:37:54.999Z</time></trkpt><trkpt lat="43.60550364711176" lon="11.423709200013299"><ele>262.5</ele><time>2026-05-02T15:37:55.999Z</time></trkpt><trkpt lat="43.60561651549522" lon="11.423866017774708"><ele>261.0</ele><time>2026-05-02T15:37:56.999Z</time></trkpt><trkpt lat="43.60571115262138" lon="11.424073557314028"><ele>261.0</ele><time>2026-05-02T15:37:57.999Z</time></trkpt><trkpt lat="43.605808173135735" lon="11.424305314525204"><ele>261.0</ele><time>2026-05-02T15:37:58.999Z</time></trkpt><trkpt lat="43.60592120371469" lon="11.42457992402149"><ele>261.0</ele><time>2026-05-02T15:37:59.999Z</time></trkpt><trkpt lat="43.60605490832607" lon="11.424868569186776"><ele>264.0</ele><time>2026-05-02T15:38:00.999Z</time></trkpt><trkpt lat="43.60621496747894" lon="11.425154802728617"><ele>267.0</ele><time>2026-05-02T15:38:01.999Z</time></trkpt><trkpt lat="43.60634564206847" lon="11.425410229209112"><ele>267.0</ele><time>2026-05-02T15:38:02.999Z</time></trkpt><trkpt lat="43.6064454888168" lon="11.425644280290726"><ele>267.0</ele><time>2026-05-02T15:38:03.999Z</time></trkpt><trkpt lat="43.60653974757706" lon="11.425841299568388"><ele>267.0</ele><time>2026-05-02T15:38:04.999Z</time></trkpt><trkpt lat="43.60662262660744" lon="11.426031747357085"><ele>267.0</ele><time>2026-05-02T15:38:05.999Z</time></trkpt><trkpt lat="43.60668944270429" lon="11.426245544350953"><ele>267.0</ele><time>2026-05-02T15:38:06.999Z</time></trkpt><trkpt lat="43.60672865510538" lon="11.426480896076654"><ele>267.0</ele><time>2026-05-02T15:38:07.999Z</time></trkpt><trkpt lat="43.606753998966504" lon="11.4267205572307"><ele>267.0</ele><time>2026-05-02T15:38:08.999Z</time></trkpt><trkpt lat="43.60677068847284" lon="11.42697162911986"><ele>267.0</ele><time>2026-05-02T15:38:09.999Z</time></trkpt><trkpt lat="43.60678715089689" lon="11.427242584966333"><ele>267.0</ele><time>2026-05-02T15:38:10.999Z</time></trkpt><trkpt lat="43.60680513062197" lon="11.427517855927062"><ele>267.3333333333333</ele><time>2026-05-02T15:38:11.999Z</time></trkpt><trkpt lat="43.60682382393277" lon="11.427793234729782"><ele>267.66666666666663</ele><time>2026-05-02T15:38:12.999Z</time></trkpt><trkpt lat="43.60684033664048" lon="11.42806318223726"><ele>268.0</ele><time>2026-05-02T15:38:13.999Z</time></trkpt><trkpt lat="43.606853858077784" lon="11.428336689974826"><ele>268.0</ele><time>2026-05-02T15:38:14.999Z</time></trkpt><trkpt lat="43.60687558726529" lon="11.42861625195072"><ele>268.0</ele><time>2026-05-02T15:38:15.999Z</time></trkpt><trkpt lat="43.60689131521972" lon="11.428895339572831"><ele>268.0</ele><time>2026-05-02T15:38:16.999Z</time></trkpt><trkpt lat="43.60690734417811" lon="11.429178258872836"><ele>268.0</ele><time>2026-05-02T15:38:17.999Z</time></trkpt><trkpt lat="43.60692324090206" lon="11.429438082441454"><ele>268.0</ele><time>2026-05-02T15:38:18.999Z</time></trkpt><trkpt lat="43.606938373222796" lon="11.429685412264387"><ele>268.0</ele><time>2026-05-02T15:38:19.999Z</time></trkpt><trkpt lat="43.60694979177993" lon="11.429911835208488"><ele>268.25</ele><time>2026-05-02T15:38:20.999Z</time></trkpt><trkpt lat="43.6069409885166" lon="11.43011394940471"><ele>268.5</ele><time>2026-05-02T15:38:21.999Z</time></trkpt><trkpt lat="43.60690845179087" lon="11.430301596210619"><ele>268.75</ele><time>2026-05-02T15:38:22.999Z</time></trkpt><trkpt lat="43.60681661639916" lon="11.430482747239076"><ele>269.0</ele><time>2026-05-02T15:38:23.999Z</time></trkpt><trkpt lat="43.60669503365476" lon="11.430662453858261"><ele>269.0</ele><time>2026-05-02T15:38:25Z</time></trkpt><trkpt lat="43.60654503855472" lon="11.430872235805456"><ele>269.0</ele><time>2026-05-02T15:38:26Z</time></trkpt><trkpt lat="43.60639178628724" lon="11.43108552106492"><ele>269.0</ele><time>2026-05-02T15:38:27Z</time></trkpt><trkpt lat="43.60625567001218" lon="11.43127477662334"><ele>269.33333333333337</ele><time>2026-05-02T15:38:28Z</time></trkpt><trkpt lat="43.60613073937887" lon="11.431448478999382"><ele>269.6666666666667</ele><time>2026-05-02T15:38:29Z</time></trkpt><trkpt lat="43.60601407754931" lon="11.431609087397842"><ele>270.0</ele><time>2026-05-02T15:38:30Z</time></trkpt><trkpt lat="43.605917172277884" lon="11.431772558733211"><ele>270.0</ele><time>2026-05-02T15:38:31Z</time></trkpt><trkpt lat="43.60581263408394" lon="11.431905187704274"><ele>270.0</ele><time>2026-05-02T15:38:32Z</time></trkpt><trkpt lat="43.60572135937194" lon="11.432033999058554"><ele>270.0</ele><time>2026-05-02T15:38:33Z</time></trkpt><trkpt lat="43.60564633614672" lon="11.432172734047466"><ele>270.0</ele><time>2026-05-02T15:38:34Z</time></trkpt><trkpt lat="43.60559618360829" lon="11.43234265984481"><ele>269.3333333333333</ele><time>2026-05-02T15:38:35Z</time></trkpt><trkpt lat="43.605585060523666" lon="11.432547470537605"><ele>268.66666666666663</ele><time>2026-05-02T15:38:36Z</time></trkpt><trkpt lat="43.605638709113286" lon="11.432763826909529"><ele>268.0</ele><time>2026-05-02T15:38:37Z</time></trkpt><trkpt lat="43.60575592171798" lon="11.432964453033488"><ele>268.3333333333333</ele><time>2026-05-02T15:38:38Z</time></trkpt><trkpt lat="43.60588935232522" lon="11.43317316408487"><ele>268.6666666666667</ele><time>2026-05-02T15:38:39Z</time></trkpt><trkpt lat="43.60601758755818" lon="11.433411352740109"><ele>269.0</ele><time>2026-05-02T15:38:40Z</time></trkpt><trkpt lat="43.60614648413882" lon="11.43366408949841"><ele>269.0</ele><time>2026-05-02T15:38:41Z</time></trkpt><trkpt lat="43.60626991005646" lon="11.43392370265798"><ele>269.0</ele><time>2026-05-02T15:38:42Z</time></trkpt><trkpt lat="43.60639571253799" lon="11.434180203905532"><ele>269.0</ele><time>2026-05-02T15:38:43Z</time></trkpt><trkpt lat="43.60651158204956" lon="11.434408500984096"><ele>269.0</ele><time>2026-05-02T15:38:44Z</time></trkpt><trkpt lat="43.60662699978376" lon="11.434635022704803"><ele>269.0</ele><time>2026-05-02T15:38:45Z</time></trkpt><trkpt lat="43.606736514116946" lon="11.434860934374674"><ele>269.0</ele><time>2026-05-02T15:38:46Z</time></trkpt><trkpt lat="43.60684199324544" lon="11.43508282434367"><ele>269.0</ele><time>2026-05-02T15:38:47Z</time></trkpt><trkpt lat="43.60694425857867" lon="11.43529824403519"><ele>269.0</ele><time>2026-05-02T15:38:48Z</time></trkpt><trkpt lat="43.60705015942926" lon="11.435521570201626"><ele>269.0</ele><time>2026-05-02T15:38:49Z</time></trkpt><trkpt lat="43.6071621486626" lon="11.435751166811034"><ele>267.6666666666667</ele><time>2026-05-02T15:38:50Z</time></trkpt><trkpt lat="43.60727215401428" lon="11.435994507093074"><ele>266.3333333333333</ele><time>2026-05-02T15:38:51Z</time></trkpt><trkpt lat="43.607375226831444" lon="11.436228125810434"><ele>265.0</ele><time>2026-05-02T15:38:52Z</time></trkpt><trkpt lat="43.60747282578679" lon="11.436442878283735"><ele>265.0</ele><time>2026-05-02T15:38:53Z</time></trkpt><trkpt lat="43.60757478960276" lon="11.436644259550205"><ele>265.0</ele><time>2026-05-02T15:38:54Z</time></trkpt><trkpt lat="43.60768654308216" lon="11.436824147436726"><ele>265.0</ele><time>2026-05-02T15:38:55Z</time></trkpt><trkpt lat="43.607824156229455" lon="11.436982075400001"><ele>263.0</ele><time>2026-05-02T15:38:56Z</time></trkpt><trkpt lat="43.607994260427" lon="11.43711834370223"><ele>261.0</ele><time>2026-05-02T15:38:57Z</time></trkpt><trkpt lat="43.60818650607521" lon="11.43721775625846"><ele>259.0</ele><time>2026-05-02T15:38:58Z</time></trkpt><trkpt lat="43.608383862809" lon="11.437306650371683"><ele>259.0</ele><time>2026-05-02T15:38:59Z</time></trkpt><trkpt lat="43.608577164934836" lon="11.437417128473664"><ele>259.0</ele><time>2026-05-02T15:39:00Z</time></trkpt><trkpt lat="43.608743947884015" lon="11.43758684836796"><ele>259.0</ele><time>2026-05-02T15:39:01Z</time></trkpt><trkpt lat="43.608890754472235" lon="11.437802657375489"><ele>257.3333333333333</ele><time>2026-05-02T15:39:02Z</time></trkpt><trkpt lat="43.60903876367999" lon="11.438040619163667"><ele>255.66666666666669</ele><time>2026-05-02T15:39:03Z</time></trkpt><trkpt lat="43.609181396262656" lon="11.438264742773105"><ele>254.0</ele><time>2026-05-02T15:39:04Z</time></trkpt><trkpt lat="43.609311427653175" lon="11.438469107310906"><ele>254.0</ele><time>2026-05-02T15:39:05Z</time></trkpt><trkpt lat="43.60943245024538" lon="11.438661901804602"><ele>254.0</ele><time>2026-05-02T15:39:06Z</time></trkpt><trkpt lat="43.60956170436125" lon="11.438832661114613"><ele>254.0</ele><time>2026-05-02T15:39:07Z</time></trkpt><trkpt lat="43.60968438695071" lon="11.43901409988505"><ele>253.0</ele><time>2026-05-02T15:39:08Z</time></trkpt><trkpt lat="43.60983150017059" lon="11.439179462322368"><ele>252.0</ele><time>2026-05-02T15:39:09Z</time></trkpt><trkpt lat="43.610009907393426" lon="11.439319879737962"><ele>251.0</ele><time>2026-05-02T15:39:10Z</time></trkpt><trkpt lat="43.61019488015443" lon="11.439417937958856"><ele>251.33333333333334</ele><time>2026-05-02T15:39:11Z</time></trkpt><trkpt lat="43.61036646155216" lon="11.439493286486435"><ele>251.66666666666669</ele><time>2026-05-02T15:39:12Z</time></trkpt><trkpt lat="43.610524928190436" lon="11.43957538317885"><ele>252.0</ele><time>2026-05-02T15:39:13Z</time></trkpt><trkpt lat="43.610664555216225" lon="11.439673631699325"><ele>252.0</ele><time>2026-05-02T15:39:14Z</time></trkpt><trkpt lat="43.61077600433275" lon="11.43982674350118"><ele>252.0</ele><time>2026-05-02T15:39:15Z</time></trkpt><trkpt lat="43.61086443088453" lon="11.439993290071165"><ele>252.0</ele><time>2026-05-02T15:39:15.999Z</time></trkpt><trkpt lat="43.61092297927253" lon="11.440194574347894"><ele>252.0</ele><time>2026-05-02T15:39:16.999Z</time></trkpt><trkpt lat="43.61096103219263" lon="11.440439966328185"><ele>252.0</ele><time>2026-05-02T15:39:17.999Z</time></trkpt><trkpt lat="43.61099499502657" lon="11.440714332769502"><ele>252.0</ele><time>2026-05-02T15:39:18.999Z</time></trkpt><trkpt lat="43.61102999334621" lon="11.44099712847759"><ele>251.66666666666669</ele><time>2026-05-02T15:39:19.999Z</time></trkpt><trkpt lat="43.611063272505135" lon="11.441266033099234"><ele>251.33333333333334</ele><time>2026-05-02T15:39:20.999Z</time></trkpt><trkpt lat="43.61109850687044" lon="11.441519076724301"><ele>251.0</ele><time>2026-05-02T15:39:21.999Z</time></trkpt><trkpt lat="43.61113799053485" lon="11.441757121863025"><ele>250.66666666666669</ele><time>2026-05-02T15:39:22.999Z</time></trkpt><trkpt lat="43.61118951792366" lon="11.441991057913429"><ele>250.33333333333331</ele><time>2026-05-02T15:39:23.999Z</time></trkpt><trkpt lat="43.611269772469015" lon="11.442219270871227"><ele>250.0</ele><time>2026-05-02T15:39:24.999Z</time></trkpt><trkpt lat="43.61135438050649" lon="11.442458502130354"><ele>248.66666666666666</ele><time>2026-05-02T15:39:25.999Z</time></trkpt><trkpt lat="43.611447153314316" lon="11.442677019482757"><ele>247.33333333333331</ele><time>2026-05-02T15:39:26.999Z</time></trkpt><trkpt lat="43.61154213143704" lon="11.442872077934304"><ele>246.0</ele><time>2026-05-02T15:39:27.999Z</time></trkpt><trkpt lat="43.611605314920126" lon="11.443086740536865"><ele>244.33333333333331</ele><time>2026-05-02T15:39:28.999Z</time></trkpt><trkpt lat="43.611637551667286" lon="11.443312763463778"><ele>242.66666666666666</ele><time>2026-05-02T15:39:29.999Z</time></trkpt><trkpt lat="43.61165499680652" lon="11.443547743908494"><ele>241.0</ele><time>2026-05-02T15:39:30.999Z</time></trkpt><trkpt lat="43.61166912891927" lon="11.443772512147584"><ele>239.75</ele><time>2026-05-02T15:39:31.999Z</time></trkpt><trkpt lat="43.61168619732576" lon="11.443982718034427"><ele>238.5</ele><time>2026-05-02T15:39:32.999Z</time></trkpt><trkpt lat="43.61172704651719" lon="11.444181975859106"><ele>237.25</ele><time>2026-05-02T15:39:33.999Z</time></trkpt><trkpt lat="43.61177125890195" lon="11.444372381444694"><ele>236.0</ele><time>2026-05-02T15:39:34.999Z</time></trkpt><trkpt lat="43.611846222664035" lon="11.44454253456958"><ele>235.0</ele><time>2026-05-02T15:39:35.999Z</time></trkpt><trkpt lat="43.61197115282449" lon="11.444689725428384"><ele>234.0</ele><time>2026-05-02T15:39:36.999Z</time></trkpt><trkpt lat="43.61212878000761" lon="11.444833893636762"><ele>233.0</ele><time>2026-05-02T15:39:37.999Z</time></trkpt><trkpt lat="43.61227308810892" lon="11.444985518607101"><ele>232.33333333333334</ele><time>2026-05-02T15:39:38.999Z</time></trkpt><trkpt lat="43.61239687488444" lon="11.445126374674658"><ele>231.66666666666669</ele><time>2026-05-02T15:39:39.999Z</time></trkpt><trkpt lat="43.61251743763382" lon="11.445266829739797"><ele>231.0</ele><time>2026-05-02T15:39:40.999Z</time></trkpt><trkpt lat="43.61266304561877" lon="11.44537757106609"><ele>230.0</ele><time>2026-05-02T15:39:41.999Z</time></trkpt><trkpt lat="43.61283480301303" lon="11.445458057903942"><ele>229.0</ele><time>2026-05-02T15:39:42.999Z</time></trkpt><trkpt lat="43.613008505329425" lon="11.445518279679867"><ele>228.0</ele><time>2026-05-02T15:39:43.999Z</time></trkpt><trkpt lat="43.61316784619239" lon="11.445612139437749"><ele>228.0</ele><time>2026-05-02T15:39:44.999Z</time></trkpt><trkpt lat="43.61330838334903" lon="11.445746867755833"><ele>228.0</ele><time>2026-05-02T15:39:45.999Z</time></trkpt><trkpt lat="43.613441053935325" lon="11.445897204561366"><ele>228.0</ele><time>2026-05-02T15:39:46.999Z</time></trkpt><trkpt lat="43.61358506943378" lon="11.446017767949298"><ele>228.75</ele><time>2026-05-02T15:39:47.999Z</time></trkpt><trkpt lat="43.61372618833046" lon="11.44610331324444"><ele>229.5</ele><time>2026-05-02T15:39:48.999Z</time></trkpt><trkpt lat="43.61386158958291" lon="11.446167728961308"><ele>230.25</ele><time>2026-05-02T15:39:49.999Z</time></trkpt><trkpt lat="43.61397882415772" lon="11.446241953437951"><ele>231.0</ele><time>2026-05-02T15:39:50.999Z</time></trkpt><trkpt lat="43.614063559760076" lon="11.446312764821435"><ele>228.16666666666666</ele><time>2026-05-02T15:39:51.999Z</time></trkpt><trkpt lat="43.614133010615326" lon="11.44636619128882"><ele>225.33333333333331</ele><time>2026-05-02T15:39:52.999Z</time></trkpt><trkpt lat="43.61420051684899" lon="11.446413260830646"><ele>222.5</ele><time>2026-05-02T15:39:53.999Z</time></trkpt><trkpt lat="43.61428241318593" lon="11.446444137503837"><ele>219.66666666666666</ele><time>2026-05-02T15:39:54.999Z</time></trkpt><trkpt lat="43.61437968542069" lon="11.446441072703257"><ele>216.83333333333331</ele><time>2026-05-02T15:39:55.999Z</time></trkpt><trkpt lat="43.61446199103398" lon="11.446416224430076"><ele>214.0</ele><time>2026-05-02T15:39:56.999Z</time></trkpt><trkpt lat="43.61454501725548" lon="11.446379644145061"><ele>213.99999999999997</ele><time>2026-05-02T15:39:57.999Z</time></trkpt><trkpt lat="43.61462305734518" lon="11.446355869642368"><ele>214.0</ele><time>2026-05-02T15:39:58.999Z</time></trkpt><trkpt lat="43.6147038500136" lon="11.446331289280582"><ele>214.0</ele><time>2026-05-02T15:39:59.999Z</time></trkpt><trkpt lat="43.61478948981771" lon="11.446303274903514"><ele>214.0</ele><time>2026-05-02T15:40:00.999Z</time></trkpt><trkpt lat="43.61486888446834" lon="11.446287573189814"><ele>213.99999999999997</ele><time>2026-05-02T15:40:01.999Z</time></trkpt><trkpt lat="43.61498569607079" lon="11.44631094700563"><ele>214.0</ele><time>2026-05-02T15:40:03.999Z</time></trkpt><trkpt lat="43.61506309015252" lon="11.44636056686053"><ele>213.99999999999997</ele><time>2026-05-02T15:40:04.999Z</time></trkpt><trkpt lat="43.615101048511576" lon="11.446463339464223"><ele>214.0</ele><time>2026-05-02T15:40:05.999Z</time></trkpt><trkpt lat="43.61513445052962" lon="11.446569069756547"><ele>214.0</ele><time>2026-05-02T15:40:06.999Z</time></trkpt><trkpt lat="43.61517021542113" lon="11.446682249859105"><ele>214.0</ele><time>2026-05-02T15:40:07.999Z</time></trkpt><trkpt lat="43.615206184664416" lon="11.446791612441775"><ele>213.99999999999997</ele><time>2026-05-02T15:40:08.999Z</time></trkpt><trkpt lat="43.615267655168054" lon="11.446884084000974"><ele>214.0</ele><time>2026-05-02T15:40:09.999Z</time></trkpt><trkpt lat="43.61532253457044" lon="11.446977496858704"><ele>213.2</ele><time>2026-05-02T15:40:10.999Z</time></trkpt><trkpt lat="43.61539003011435" lon="11.447061816200424"><ele>212.39999999999998</ele><time>2026-05-02T15:40:11.999Z</time></trkpt><trkpt lat="43.61545941651593" lon="11.447135618895448"><ele>211.6</ele><time>2026-05-02T15:40:12.999Z</time></trkpt><trkpt lat="43.615533941524326" lon="11.447209484288651"><ele>210.8</ele><time>2026-05-02T15:40:13.999Z</time></trkpt><trkpt lat="43.615611344531935" lon="11.44728251239796"><ele>210.0</ele><time>2026-05-02T15:40:14.999Z</time></trkpt><trkpt lat="43.61568850508123" lon="11.447372535408043"><ele>210.0</ele><time>2026-05-02T15:40:15.999Z</time></trkpt><trkpt lat="43.61573956810086" lon="11.447497362078819"><ele>210.0</ele><time>2026-05-02T15:40:16.999Z</time></trkpt><trkpt lat="43.615811330542286" lon="11.447604554842453"><ele>210.0</ele><time>2026-05-02T15:40:17.999Z</time></trkpt><trkpt lat="43.615858794203376" lon="11.44772989497088"><ele>210.0</ele><time>2026-05-02T15:40:18.999Z</time></trkpt><trkpt lat="43.615924881062554" lon="11.44785397809793"><ele>210.0</ele><time>2026-05-02T15:40:19.999Z</time></trkpt><trkpt lat="43.615986901992905" lon="11.447963667642592"><ele>211.6</ele><time>2026-05-02T15:40:20.999Z</time></trkpt><trkpt lat="43.61605814900507" lon="11.448057341107331"><ele>213.2</ele><time>2026-05-02T15:40:21.999Z</time></trkpt><trkpt lat="43.61613329546737" lon="11.448145601470232"><ele>214.8</ele><time>2026-05-02T15:40:22.999Z</time></trkpt><trkpt lat="43.616204682351544" lon="11.448216411704417"><ele>216.4</ele><time>2026-05-02T15:40:23.999Z</time></trkpt><trkpt lat="43.61627869770542" lon="11.448283933748025"><ele>218.0</ele><time>2026-05-02T15:40:24.999Z</time></trkpt><trkpt lat="43.61635299151309" lon="11.448357153825546"><ele>218.0</ele><time>2026-05-02T15:40:25.999Z</time></trkpt><trkpt lat="43.61642088882161" lon="11.448436517147769"><ele>218.0</ele><time>2026-05-02T15:40:26.999Z</time></trkpt><trkpt lat="43.61649365457075" lon="11.44851899665351"><ele>218.0</ele><time>2026-05-02T15:40:27.999Z</time></trkpt><trkpt lat="43.616547037039346" lon="11.448630526230156"><ele>218.0</ele><time>2026-05-02T15:40:28.999Z</time></trkpt><trkpt lat="43.61660567336231" lon="11.448738353564005"><ele>218.0</ele><time>2026-05-02T15:40:29.999Z</time></trkpt><trkpt lat="43.616654893979" lon="11.448849003725828"><ele>216.00000000000003</ele><time>2026-05-02T15:40:31Z</time></trkpt><trkpt lat="43.61668687204016" lon="11.448960346691015"><ele>214.0</ele><time>2026-05-02T15:40:32Z</time></trkpt><trkpt lat="43.616681511384584" lon="11.44908002849705"><ele>212.0</ele><time>2026-05-02T15:40:33Z</time></trkpt><trkpt lat="43.616655067283766" lon="11.449198930023114"><ele>210.0</ele><time>2026-05-02T15:40:34Z</time></trkpt><trkpt lat="43.61661747436205" lon="11.4493061020689"><ele>208.00000000000003</ele><time>2026-05-02T15:40:35Z</time></trkpt><trkpt lat="43.61656345911803" lon="11.449412127184672"><ele>206.0</ele><time>2026-05-02T15:40:36Z</time></trkpt><trkpt lat="43.616492176777285" lon="11.449502623894425"><ele>206.00000000000003</ele><time>2026-05-02T15:40:37Z</time></trkpt><trkpt lat="43.61643350489399" lon="11.449600147935186"><ele>206.0</ele><time>2026-05-02T15:40:38Z</time></trkpt><trkpt lat="43.6163984701768" lon="11.449705060231041"><ele>206.0</ele><time>2026-05-02T15:40:39Z</time></trkpt><trkpt lat="43.61635723598636" lon="11.449792790484295"><ele>206.0</ele><time>2026-05-02T15:40:40Z</time></trkpt><trkpt lat="43.616339158789444" lon="11.449880714656844"><ele>206.00000000000003</ele><time>2026-05-02T15:40:41Z</time></trkpt><trkpt lat="43.616342275135544" lon="11.449969054948344"><ele>206.0</ele><time>2026-05-02T15:40:42Z</time></trkpt><trkpt lat="43.61636036041731" lon="11.450060582621227"><ele>204.50000000000003</ele><time>2026-05-02T15:40:43Z</time></trkpt><trkpt lat="43.616389009205754" lon="11.450141083154609"><ele>203.0</ele><time>2026-05-02T15:40:44Z</time></trkpt><trkpt lat="43.616442659731156" lon="11.450227194663741"><ele>201.5</ele><time>2026-05-02T15:40:45Z</time></trkpt><trkpt lat="43.61650533597498" lon="11.450307352381689"><ele>200.0</ele><time>2026-05-02T15:40:46Z</time></trkpt><trkpt lat="43.6165906381655" lon="11.450359765004697"><ele>198.50000000000003</ele><time>2026-05-02T15:40:47Z</time></trkpt><trkpt lat="43.61666716351647" lon="11.45038896611588"><ele>197.0</ele><time>2026-05-02T15:40:48Z</time></trkpt><trkpt lat="43.6167444575011" lon="11.450402744371731"><ele>197.00000000000003</ele><time>2026-05-02T15:40:49Z</time></trkpt><trkpt lat="43.61682616788109" lon="11.450418396050882"><ele>197.0</ele><time>2026-05-02T15:40:50Z</time></trkpt><trkpt lat="43.61690897434975" lon="11.450445226603438"><ele>197.0</ele><time>2026-05-02T15:40:51Z</time></trkpt><trkpt lat="43.616983565120066" lon="11.450483732674066"><ele>197.0</ele><time>2026-05-02T15:40:52Z</time></trkpt><trkpt lat="43.617038416481115" lon="11.450570496676534"><ele>197.00000000000003</ele><time>2026-05-02T15:40:53Z</time></trkpt><trkpt lat="43.61707035535868" lon="11.45067126510567"><ele>197.0</ele><time>2026-05-02T15:40:54Z</time></trkpt><trkpt lat="43.6171031648957" lon="11.45077662794069"><ele>198.0</ele><time>2026-05-02T15:40:55Z</time></trkpt><trkpt lat="43.61709024215337" lon="11.450898294692108"><ele>199.0</ele><time>2026-05-02T15:40:56Z</time></trkpt><trkpt lat="43.617087679688794" lon="11.451042630485876"><ele>200.0</ele><time>2026-05-02T15:40:57Z</time></trkpt><trkpt lat="43.617088789808065" lon="11.451194978129989"><ele>201.0</ele><time>2026-05-02T15:40:58Z</time></trkpt><trkpt lat="43.617090780157376" lon="11.451325843861285"><ele>202.0</ele><time>2026-05-02T15:40:59Z</time></trkpt><trkpt lat="43.6170975954666" lon="11.451453555787827"><ele>200.33333333333331</ele><time>2026-05-02T15:41:00Z</time></trkpt><trkpt lat="43.617134894257426" lon="11.451559707392677"><ele>198.66666666666666</ele><time>2026-05-02T15:41:01Z</time></trkpt><trkpt lat="43.61716394337395" lon="11.451657224184409"><ele>197.0</ele><time>2026-05-02T15:41:02Z</time></trkpt><trkpt lat="43.61720957737732" lon="11.451745457804684"><ele>195.33333333333331</ele><time>2026-05-02T15:41:03Z</time></trkpt><trkpt lat="43.6172767888771" lon="11.451819641228187"><ele>193.66666666666666</ele><time>2026-05-02T15:41:04Z</time></trkpt><trkpt lat="43.617332178047995" lon="11.451913571802045"><ele>192.0</ele><time>2026-05-02T15:41:05Z</time></trkpt><trkpt lat="43.61738419477002" lon="11.45198911540353"><ele>192.0</ele><time>2026-05-02T15:41:06Z</time></trkpt><trkpt lat="43.617425455254924" lon="11.45206457133121"><ele>192.0</ele><time>2026-05-02T15:41:07Z</time></trkpt><trkpt lat="43.61745959122472" lon="11.452146696620147"><ele>192.0</ele><time>2026-05-02T15:41:08Z</time></trkpt><trkpt lat="43.61745997814833" lon="11.452238200335543"><ele>192.0</ele><time>2026-05-02T15:41:09Z</time></trkpt><trkpt lat="43.61734848821215" lon="11.45233531160458"><ele>192.0</ele><time>2026-05-02T15:41:11Z</time></trkpt><trkpt lat="43.61724373034114" lon="11.45245440333895"><ele>192.0</ele><time>2026-05-02T15:41:12Z</time></trkpt><trkpt lat="43.61713618728033" lon="11.45257322620321"><ele>192.0</ele><time>2026-05-02T15:41:13Z</time></trkpt><trkpt lat="43.61704658578527" lon="11.452672221794092"><ele>192.0</ele><time>2026-05-02T15:41:14Z</time></trkpt><trkpt lat="43.61697520389957" lon="11.452780189321173"><ele>192.0</ele><time>2026-05-02T15:41:15Z</time></trkpt><trkpt lat="43.61689637124211" lon="11.452838577295587"><ele>192.0</ele><time>2026-05-02T15:41:16Z</time></trkpt><trkpt lat="43.61682201439457" lon="11.452920401595165"><ele>190.2</ele><time>2026-05-02T15:41:17Z</time></trkpt><trkpt lat="43.616739312464574" lon="11.45300829191421"><ele>188.39999999999998</ele><time>2026-05-02T15:41:18Z</time></trkpt><trkpt lat="43.61665790554844" lon="11.453088751514223"><ele>186.60000000000002</ele><time>2026-05-02T15:41:19Z</time></trkpt><trkpt lat="43.61658330290314" lon="11.453176472665612"><ele>184.8</ele><time>2026-05-02T15:41:20Z</time></trkpt><trkpt lat="43.61652229485559" lon="11.453262344748198"><ele>183.0</ele><time>2026-05-02T15:41:20.999Z</time></trkpt><trkpt lat="43.61648960557335" lon="11.453371109766582"><ele>183.0</ele><time>2026-05-02T15:41:21.999Z</time></trkpt><trkpt lat="43.616488647608215" lon="11.453489406179324"><ele>183.0</ele><time>2026-05-02T15:41:22.999Z</time></trkpt><trkpt lat="43.616522485356164" lon="11.45364129806012"><ele>183.0</ele><time>2026-05-02T15:41:23.999Z</time></trkpt><trkpt lat="43.616588724544876" lon="11.453873816442579"><ele>183.0</ele><time>2026-05-02T15:41:24.999Z</time></trkpt><trkpt lat="43.61663152940895" lon="11.45411456321996"><ele>179.66666666666666</ele><time>2026-05-02T15:41:25.999Z</time></trkpt><trkpt lat="43.61660778528515" lon="11.454327882308753"><ele>176.33333333333331</ele><time>2026-05-02T15:41:26.999Z</time></trkpt><trkpt lat="43.616541402658754" lon="11.454531111960044"><ele>173.0</ele><time>2026-05-02T15:41:27.999Z</time></trkpt><trkpt lat="43.616487464057606" lon="11.454728260226561"><ele>170.75</ele><time>2026-05-02T15:41:28.999Z</time></trkpt><trkpt lat="43.61647177143328" lon="11.454893627506081"><ele>168.5</ele><time>2026-05-02T15:41:29.999Z</time></trkpt><trkpt lat="43.6164756265654" lon="11.455047385611628"><ele>166.25</ele><time>2026-05-02T15:41:30.999Z</time></trkpt><trkpt lat="43.61652861542261" lon="11.4552050132976"><ele>164.0</ele><time>2026-05-02T15:41:31.999Z</time></trkpt><trkpt lat="43.61662286908615" lon="11.455328455522961"><ele>164.0</ele><time>2026-05-02T15:41:32.999Z</time></trkpt><trkpt lat="43.616749135866904" lon="11.455396536779617"><ele>164.0</ele><time>2026-05-02T15:41:33.999Z</time></trkpt><trkpt lat="43.61688964890273" lon="11.455399042993788"><ele>164.0</ele><time>2026-05-02T15:41:34.999Z</time></trkpt><trkpt lat="43.617031503850995" lon="11.455332339817144"><ele>164.0</ele><time>2026-05-02T15:41:35.999Z</time></trkpt><trkpt lat="43.61715647968553" lon="11.45519294431473"><ele>163.75</ele><time>2026-05-02T15:41:36.999Z</time></trkpt><trkpt lat="43.61726447978474" lon="11.455032921776544"><ele>163.5</ele><time>2026-05-02T15:41:37.999Z</time></trkpt><trkpt lat="43.61735662935048" lon="11.454902946245346"><ele>163.25</ele><time>2026-05-02T15:41:38.999Z</time></trkpt><trkpt lat="43.61744624205782" lon="11.45479968746638"><ele>163.0</ele><time>2026-05-02T15:41:39.999Z</time></trkpt><trkpt lat="43.61754022817121" lon="11.454729772947001"><ele>163.0</ele><time>2026-05-02T15:41:40.999Z</time></trkpt><trkpt lat="43.61763756135303" lon="11.454719966507836"><ele>163.0</ele><time>2026-05-02T15:41:41.999Z</time></trkpt><trkpt lat="43.61772366784362" lon="11.454824486971972"><ele>163.0</ele><time>2026-05-02T15:41:42.999Z</time></trkpt><trkpt lat="43.61777421579973" lon="11.454968863757252"><ele>163.0</ele><time>2026-05-02T15:41:43.999Z</time></trkpt><trkpt lat="43.61776187144188" lon="11.455140613426126"><ele>163.0</ele><time>2026-05-02T15:41:44.999Z</time></trkpt><trkpt lat="43.61776595065839" lon="11.455353719224748"><ele>163.0</ele><time>2026-05-02T15:41:45.999Z</time></trkpt><trkpt lat="43.617803125470026" lon="11.455567251293193"><ele>163.0</ele><time>2026-05-02T15:41:46.999Z</time></trkpt><trkpt lat="43.61788492485482" lon="11.455754655393546"><ele>160.0</ele><time>2026-05-02T15:41:47.999Z</time></trkpt><trkpt lat="43.61800111568775" lon="11.45591026421252"><ele>157.0</ele><time>2026-05-02T15:41:48.999Z</time></trkpt><trkpt lat="43.61814080042238" lon="11.456016784786794"><ele>154.0</ele><time>2026-05-02T15:41:49.999Z</time></trkpt><trkpt lat="43.618322147407206" lon="11.456073921624501"><ele>154.0</ele><time>2026-05-02T15:41:50.999Z</time></trkpt><trkpt lat="43.61850552346467" lon="11.456123467187542"><ele>154.0</ele><time>2026-05-02T15:41:51.999Z</time></trkpt><trkpt lat="43.61867043059559" lon="11.456220122767123"><ele>154.0</ele><time>2026-05-02T15:41:52.999Z</time></trkpt><trkpt lat="43.61882384840304" lon="11.456334858674712"><ele>152.0</ele><time>2026-05-02T15:41:53.999Z</time></trkpt><trkpt lat="43.61897857382523" lon="11.456434578199042"><ele>150.0</ele><time>2026-05-02T15:41:54.999Z</time></trkpt><trkpt lat="43.619116876799715" lon="11.456543390943384"><ele>148.0</ele><time>2026-05-02T15:41:55.999Z</time></trkpt><trkpt lat="43.619260552053646" lon="11.456641890107907"><ele>148.0</ele><time>2026-05-02T15:41:56.999Z</time></trkpt><trkpt lat="43.61939508232993" lon="11.456762065427647"><ele>148.0</ele><time>2026-05-02T15:41:57.999Z</time></trkpt><trkpt lat="43.6195407064953" lon="11.456870785358328"><ele>148.0</ele><time>2026-05-02T15:41:58.999Z</time></trkpt><trkpt lat="43.6196979287817" lon="11.456995798683351"><ele>145.0</ele><time>2026-05-02T15:41:59.999Z</time></trkpt><trkpt lat="43.619855132597515" lon="11.457136662723396"><ele>142.0</ele><time>2026-05-02T15:42:00.999Z</time></trkpt><trkpt lat="43.62000747198339" lon="11.457296024320275"><ele>139.0</ele><time>2026-05-02T15:42:01.999Z</time></trkpt><trkpt lat="43.62015552382671" lon="11.457465144356691"><ele>139.0</ele><time>2026-05-02T15:42:02.999Z</time></trkpt><trkpt lat="43.62028844638526" lon="11.457616472762561"><ele>139.0</ele><time>2026-05-02T15:42:03.999Z</time></trkpt><trkpt lat="43.620419864279654" lon="11.457762538455153"><ele>139.0</ele><time>2026-05-02T15:42:04.999Z</time></trkpt><trkpt lat="43.620561875867935" lon="11.457906101188224"><ele>136.66666666666669</ele><time>2026-05-02T15:42:05.999Z</time></trkpt><trkpt lat="43.62074145686828" lon="11.458006447766046"><ele>134.33333333333334</ele><time>2026-05-02T15:42:06.999Z</time></trkpt><trkpt lat="43.62092543998656" lon="11.458109177408762"><ele>132.0</ele><time>2026-05-02T15:42:07.999Z</time></trkpt><trkpt lat="43.62109914421572" lon="11.458185925936066"><ele>131.66666666666666</ele><time>2026-05-02T15:42:08.999Z</time></trkpt><trkpt lat="43.62125769045286" lon="11.458276696023807"><ele>131.33333333333331</ele><time>2026-05-02T15:42:09.999Z</time></trkpt><trkpt lat="43.62139828589789" lon="11.458393395720103"><ele>131.0</ele><time>2026-05-02T15:42:10.999Z</time></trkpt><trkpt lat="43.6215288313536" lon="11.458504249831082"><ele>131.0</ele><time>2026-05-02T15:42:11.999Z</time></trkpt><trkpt lat="43.62166091096363" lon="11.458581512333549"><ele>131.0</ele><time>2026-05-02T15:42:12.999Z</time></trkpt><trkpt lat="43.62177992269336" lon="11.45864327377583"><ele>131.0</ele><time>2026-05-02T15:42:13.999Z</time></trkpt><trkpt lat="43.62188654054675" lon="11.458683356630667"><ele>131.0</ele><time>2026-05-02T15:42:14.999Z</time></trkpt><trkpt lat="43.621978135972164" lon="11.458727542302826"><ele>130.6</ele><time>2026-05-02T15:42:15.999Z</time></trkpt><trkpt lat="43.62205902019996" lon="11.458809123204794"><ele>130.2</ele><time>2026-05-02T15:42:16.999Z</time></trkpt><trkpt lat="43.62213961805743" lon="11.458859196222084"><ele>129.8</ele><time>2026-05-02T15:42:17.999Z</time></trkpt><trkpt lat="43.62222811894424" lon="11.458834268799093"><ele>129.4</ele><time>2026-05-02T15:42:18.999Z</time></trkpt><trkpt lat="43.62232740005992" lon="11.458733013611031"><ele>129.0</ele><time>2026-05-02T15:42:19.999Z</time></trkpt><trkpt lat="43.62240337815771" lon="11.458573553802875"><ele>129.0</ele><time>2026-05-02T15:42:20.999Z</time></trkpt><trkpt lat="43.62249085847382" lon="11.458411095842942"><ele>129.0</ele><time>2026-05-02T15:42:21.999Z</time></trkpt><trkpt lat="43.622616043315325" lon="11.458293151415624"><ele>129.0</ele><time>2026-05-02T15:42:22.999Z</time></trkpt><trkpt lat="43.62279424928995" lon="11.45820002254009"><ele>130.33333333333334</ele><time>2026-05-02T15:42:23.999Z</time></trkpt><trkpt lat="43.62300078274513" lon="11.458136557154763"><ele>131.66666666666669</ele><time>2026-05-02T15:42:24.999Z</time></trkpt><trkpt lat="43.623211761452794" lon="11.458160135339083"><ele>133.0</ele><time>2026-05-02T15:42:25.999Z</time></trkpt><trkpt lat="43.62339782516547" lon="11.458201847978094"><ele>133.0</ele><time>2026-05-02T15:42:26.999Z</time></trkpt><trkpt lat="43.62358252351456" lon="11.458292388768621"><ele>133.0</ele><time>2026-05-02T15:42:27.999Z</time></trkpt><trkpt lat="43.62376854449899" lon="11.45840693775775"><ele>133.0</ele><time>2026-05-02T15:42:28.999Z</time></trkpt><trkpt lat="43.62394403806061" lon="11.458520940752871"><ele>132.33333333333334</ele><time>2026-05-02T15:42:29.999Z</time></trkpt><trkpt lat="43.62411340531252" lon="11.45861072396995"><ele>131.66666666666666</ele><time>2026-05-02T15:42:30.999Z</time></trkpt><trkpt lat="43.624270820667064" lon="11.458712760207197"><ele>131.0</ele><time>2026-05-02T15:42:31.999Z</time></trkpt><trkpt lat="43.624429674885796" lon="11.458792213471387"><ele>131.33333333333331</ele><time>2026-05-02T15:42:32.999Z</time></trkpt><trkpt lat="43.62459967958928" lon="11.458846429670054"><ele>131.66666666666666</ele><time>2026-05-02T15:42:33.999Z</time></trkpt><trkpt lat="43.624776146730575" lon="11.45887288610155"><ele>132.0</ele><time>2026-05-02T15:42:34.999Z</time></trkpt><trkpt lat="43.624965835244694" lon="11.458854748244446"><ele>132.0</ele><time>2026-05-02T15:42:35.999Z</time></trkpt><trkpt lat="43.62515645927812" lon="11.458785017930417"><ele>132.0</ele><time>2026-05-02T15:42:37Z</time></trkpt><trkpt lat="43.625335546835" lon="11.458682161231017"><ele>132.0</ele><time>2026-05-02T15:42:38Z</time></trkpt><trkpt lat="43.62550792420832" lon="11.458552698446443"><ele>133.66666666666666</ele><time>2026-05-02T15:42:39Z</time></trkpt><trkpt lat="43.625677784614695" lon="11.458431241953122"><ele>135.33333333333331</ele><time>2026-05-02T15:42:40Z</time></trkpt><trkpt lat="43.62584561854141" lon="11.458317654450383"><ele>137.0</ele><time>2026-05-02T15:42:41Z</time></trkpt><trkpt lat="43.626017360974885" lon="11.458210397930747"><ele>136.0</ele><time>2026-05-02T15:42:42Z</time></trkpt><trkpt lat="43.62618885166201" lon="11.458104228272537"><ele>135.0</ele><time>2026-05-02T15:42:43Z</time></trkpt><trkpt lat="43.62636740535055" lon="11.457996095462418"><ele>134.0</ele><time>2026-05-02T15:42:44Z</time></trkpt><trkpt lat="43.62654522779388" lon="11.457885807317243"><ele>134.66666666666666</ele><time>2026-05-02T15:42:45Z</time></trkpt><trkpt lat="43.62672497938254" lon="11.457769836677041"><ele>135.33333333333334</ele><time>2026-05-02T15:42:46Z</time></trkpt><trkpt lat="43.626903887098784" lon="11.457647960719608"><ele>136.0</ele><time>2026-05-02T15:42:47Z</time></trkpt><trkpt lat="43.62707197744718" lon="11.457534117475378"><ele>136.0</ele><time>2026-05-02T15:42:48Z</time></trkpt><trkpt lat="43.627226209059344" lon="11.457424781474483"><ele>136.0</ele><time>2026-05-02T15:42:49Z</time></trkpt><trkpt lat="43.627375790047424" lon="11.45731422794583"><ele>136.0</ele><time>2026-05-02T15:42:50Z</time></trkpt><trkpt lat="43.62752379531788" lon="11.45720935552906"><ele>134.66666666666669</ele><time>2026-05-02T15:42:51Z</time></trkpt><trkpt lat="43.62767013843569" lon="11.457099926587478"><ele>133.33333333333334</ele><time>2026-05-02T15:42:52Z</time></trkpt><trkpt lat="43.62781036285298" lon="11.456983598896024"><ele>132.0</ele><time>2026-05-02T15:42:53Z</time></trkpt><trkpt lat="43.62794776490681" lon="11.456862962462436"><ele>132.0</ele><time>2026-05-02T15:42:54Z</time></trkpt><trkpt lat="43.628068067554" lon="11.456748311659059"><ele>132.0</ele><time>2026-05-02T15:42:55Z</time></trkpt><trkpt lat="43.62818394270336" lon="11.456649508177124"><ele>132.0</ele><time>2026-05-02T15:42:56Z</time></trkpt><trkpt lat="43.62829418281236" lon="11.456551125391154"><ele>132.0</ele><time>2026-05-02T15:42:57Z</time></trkpt><trkpt lat="43.62839958646903" lon="11.45647799492355"><ele>132.0</ele><time>2026-05-02T15:42:58Z</time></trkpt><trkpt lat="43.62850400465047" lon="11.456412455232574"><ele>132.0</ele><time>2026-05-02T15:42:59Z</time></trkpt><trkpt lat="43.62860102733622" lon="11.45636324364868"><ele>132.0</ele><time>2026-05-02T15:43:00Z</time></trkpt><trkpt lat="43.62868763321747" lon="11.456341913296676"><ele>132.0</ele><time>2026-05-02T15:43:01Z</time></trkpt><trkpt lat="43.62875464380696" lon="11.456305046642422"><ele>132.0</ele><time>2026-05-02T15:43:02Z</time></trkpt><trkpt lat="43.62883074874916" lon="11.456289671026084"><ele>130.33333333333334</ele><time>2026-05-02T15:43:04Z</time></trkpt><trkpt lat="43.62885935228986" lon="11.456625737652537"><ele>128.66666666666669</ele><time>2026-05-02T15:43:05Z</time></trkpt><trkpt lat="43.6289061081825" lon="11.456806332276628"><ele>127.0</ele><time>2026-05-02T15:43:06Z</time></trkpt><trkpt lat="43.6289588653989" lon="11.457016684406142"><ele>126.66666666666667</ele><time>2026-05-02T15:43:07Z</time></trkpt><trkpt lat="43.62898726857629" lon="11.457252000559558"><ele>126.33333333333334</ele><time>2026-05-02T15:43:08Z</time></trkpt><trkpt lat="43.62896724828677" lon="11.457459590850453"><ele>126.0</ele><time>2026-05-02T15:43:09Z</time></trkpt><trkpt lat="43.628962084777385" lon="11.457662782090878"><ele>126.0</ele><time>2026-05-02T15:43:10Z</time></trkpt><trkpt lat="43.62897896318026" lon="11.457840119772973"><ele>126.0</ele><time>2026-05-02T15:43:11Z</time></trkpt><trkpt lat="43.629026598355225" lon="11.457996826834199"><ele>126.0</ele><time>2026-05-02T15:43:12Z</time></trkpt><trkpt lat="43.62907847828946" lon="11.458151404769628"><ele>126.0</ele><time>2026-05-02T15:43:13Z</time></trkpt><trkpt lat="43.62912933885001" lon="11.458291480577053"><ele>125.4</ele><time>2026-05-02T15:43:14Z</time></trkpt><trkpt lat="43.6291747221524" lon="11.458421838464952"><ele>124.8</ele><time>2026-05-02T15:43:15Z</time></trkpt><trkpt lat="43.62921267094442" lon="11.45855442067554"><ele>124.20000000000002</ele><time>2026-05-02T15:43:16Z</time></trkpt><trkpt lat="43.629241406685054" lon="11.458673968705016"><ele>123.60000000000001</ele><time>2026-05-02T15:43:17Z</time></trkpt><trkpt lat="43.62926687986646" lon="11.458783067202413"><ele>123.0</ele><time>2026-05-02T15:43:18Z</time></trkpt><trkpt lat="43.629285726209616" lon="11.458881471883887"><ele>122.71428571428572</ele><time>2026-05-02T15:43:19Z</time></trkpt><trkpt lat="43.62928815325973" lon="11.458974596591943"><ele>122.42857142857143</ele><time>2026-05-02T15:43:20Z</time></trkpt><trkpt lat="43.62927719813503" lon="11.459060337566074"><ele>122.14285714285714</ele><time>2026-05-02T15:43:21Z</time></trkpt><trkpt lat="43.62925775376432" lon="11.459159044273324"><ele>121.85714285714286</ele><time>2026-05-02T15:43:23Z</time></trkpt><trkpt lat="43.62924102330653" lon="11.459249505484697"><ele>121.57142857142856</ele><time>2026-05-02T15:43:27Z</time></trkpt><trkpt lat="43.62921056657453" lon="11.459345682500562"><ele>121.28571428571428</ele><time>2026-05-02T15:43:28Z</time></trkpt><trkpt lat="43.629181418605754" lon="11.459435379989245"><ele>121.0</ele><time>2026-05-02T15:43:29Z</time></trkpt><trkpt lat="43.629181216266986" lon="11.459525992298156"><ele>121.00000000000001</ele><time>2026-05-02T15:43:30Z</time></trkpt><trkpt lat="43.62921985676174" lon="11.459604370018237"><ele>121.0</ele><time>2026-05-02T15:43:31Z</time></trkpt><trkpt lat="43.62928924289635" lon="11.459665928345002"><ele>121.0</ele><time>2026-05-02T15:43:32Z</time></trkpt><trkpt lat="43.62936461880362" lon="11.45968131126539"><ele>121.0</ele><time>2026-05-02T15:43:33Z</time></trkpt><trkpt lat="43.62944478131574" lon="11.45965924869167"><ele>121.00000000000001</ele><time>2026-05-02T15:43:34Z</time></trkpt><trkpt lat="43.62952096229516" lon="11.459580511188129"><ele>121.0</ele><time>2026-05-02T15:43:35Z</time></trkpt><trkpt lat="43.629574154347665" lon="11.459461550425308"><ele>121.19999999999999</ele><time>2026-05-02T15:43:35.999Z</time></trkpt><trkpt lat="43.62962188676399" lon="11.45934610479444"><ele>121.39999999999999</ele><time>2026-05-02T15:43:36.999Z</time></trkpt><trkpt lat="43.62963094681903" lon="11.459254438681333"><ele>121.6</ele><time>2026-05-02T15:43:37.999Z</time></trkpt><trkpt lat="43.629792072702784" lon="11.459270379188375"><ele>121.8</ele><time>2026-05-02T15:43:38.999Z</time></trkpt><trkpt lat="43.62990260278022" lon="11.459268568625228"><ele>122.0</ele><time>2026-05-02T15:43:39.999Z</time></trkpt><trkpt lat="43.630015974716585" lon="11.459258769688544"><ele>122.0</ele><time>2026-05-02T15:43:40.999Z</time></trkpt><trkpt lat="43.630129108680556" lon="11.459245139324699"><ele>121.99999999999999</ele><time>2026-05-02T15:43:41.999Z</time></trkpt><trkpt lat="43.63023480832548" lon="11.459236296805617"><ele>121.99999999999999</ele><time>2026-05-02T15:43:42.999Z</time></trkpt><trkpt lat="43.63033049533882" lon="11.45922025185357"><ele>122.0</ele><time>2026-05-02T15:43:43.999Z</time></trkpt><trkpt lat="43.63042244272208" lon="11.459210537754805"><ele>122.0</ele><time>2026-05-02T15:43:44.999Z</time></trkpt><trkpt lat="43.63052894601826" lon="11.459201696473421"><ele>122.0</ele><time>2026-05-02T15:43:45.999Z</time></trkpt><trkpt lat="43.63064029128676" lon="11.459192133757272"><ele>121.99999999999999</ele><time>2026-05-02T15:43:46.999Z</time></trkpt><trkpt lat="43.63074753438557" lon="11.459185110363546"><ele>121.99999999999999</ele><time>2026-05-02T15:43:47.999Z</time></trkpt><trkpt lat="43.63084661620545" lon="11.45917661288031"><ele>122.0</ele><time>2026-05-02T15:43:48.999Z</time></trkpt><trkpt lat="43.63095322981215" lon="11.459171776543029"><ele>122.0</ele><time>2026-05-02T15:43:49.999Z</time></trkpt><trkpt lat="43.63105110092741" lon="11.459154362682902"><ele>121.75</ele><time>2026-05-02T15:43:50.999Z</time></trkpt><trkpt lat="43.63114622614752" lon="11.45914078101029"><ele>121.5</ele><time>2026-05-02T15:43:51.999Z</time></trkpt><trkpt lat="43.631256054163195" lon="11.45911897008325"><ele>121.25</ele><time>2026-05-02T15:43:52.999Z</time></trkpt><trkpt lat="43.631377655590306" lon="11.45906373731068"><ele>121.0</ele><time>2026-05-02T15:43:53.999Z</time></trkpt><trkpt lat="43.631538245053015" lon="11.45895175669615"><ele>121.0</ele><time>2026-05-02T15:43:54.999Z</time></trkpt><trkpt lat="43.63173386466976" lon="11.458798450687702"><ele>121.0</ele><time>2026-05-02T15:43:55.999Z</time></trkpt><trkpt lat="43.631944318816466" lon="11.458617637561984"><ele>120.66666666666667</ele><time>2026-05-02T15:43:56.999Z</time></trkpt><trkpt lat="43.63212997550136" lon="11.458444509176342"><ele>120.33333333333334</ele><time>2026-05-02T15:43:57.999Z</time></trkpt><trkpt lat="43.6322997261645" lon="11.458292672869888"><ele>120.0</ele><time>2026-05-02T15:43:58.999Z</time></trkpt><trkpt lat="43.63245670080893" lon="11.458147199247522"><ele>120.0</ele><time>2026-05-02T15:43:59.999Z</time></trkpt><trkpt lat="43.63260207571617" lon="11.458018285489901"><ele>120.0</ele><time>2026-05-02T15:44:00.999Z</time></trkpt><trkpt lat="43.63273124569868" lon="11.457906240332655"><ele>120.0</ele><time>2026-05-02T15:44:01.999Z</time></trkpt><trkpt lat="43.63284525941276" lon="11.457798018934731"><ele>120.0</ele><time>2026-05-02T15:44:02.999Z</time></trkpt><trkpt lat="43.6329486726981" lon="11.4576977346631"><ele>120.0</ele><time>2026-05-02T15:44:03.999Z</time></trkpt><trkpt lat="43.63306060399231" lon="11.457600478187935"><ele>120.0</ele><time>2026-05-02T15:44:04.999Z</time></trkpt><trkpt lat="43.633172805458365" lon="11.45749232823692"><ele>120.0</ele><time>2026-05-02T15:44:05.999Z</time></trkpt><trkpt lat="43.63328743521234" lon="11.457391137191417"><ele>120.0</ele><time>2026-05-02T15:44:06.999Z</time></trkpt><trkpt lat="43.63340974599179" lon="11.457291191281785"><ele>120.0</ele><time>2026-05-02T15:44:07.999Z</time></trkpt><trkpt lat="43.63352878866479" lon="11.4571875131395"><ele>120.0</ele><time>2026-05-02T15:44:08.999Z</time></trkpt><trkpt lat="43.63364666166521" lon="11.457091540023477"><ele>120.0</ele><time>2026-05-02T15:44:09.999Z</time></trkpt><trkpt lat="43.63375930853111" lon="11.45699274266613"><ele>120.25</ele><time>2026-05-02T15:44:10.999Z</time></trkpt><trkpt lat="43.63387295733078" lon="11.456897648981053"><ele>120.5</ele><time>2026-05-02T15:44:11.999Z</time></trkpt><trkpt lat="43.633983662269685" lon="11.456800003874493"><ele>120.75</ele><time>2026-05-02T15:44:12.999Z</time></trkpt><trkpt lat="43.63408676747175" lon="11.45670342389082"><ele>121.0</ele><time>2026-05-02T15:44:13.999Z</time></trkpt><trkpt lat="43.634196368966144" lon="11.456607801968529"><ele>121.0</ele><time>2026-05-02T15:44:14.999Z</time></trkpt><trkpt lat="43.6343121482338" lon="11.456507617549356"><ele>121.0</ele><time>2026-05-02T15:44:15.999Z</time></trkpt><trkpt lat="43.63442398501083" lon="11.456414164150114"><ele>121.0</ele><time>2026-05-02T15:44:16.999Z</time></trkpt><trkpt lat="43.634535814699966" lon="11.456310842497695"><ele>121.0</ele><time>2026-05-02T15:44:17.999Z</time></trkpt><trkpt lat="43.63464506142245" lon="11.45621497970714"><ele>121.25</ele><time>2026-05-02T15:44:18.999Z</time></trkpt><trkpt lat="43.634748187979575" lon="11.456127255725088"><ele>121.5</ele><time>2026-05-02T15:44:19.999Z</time></trkpt><trkpt lat="43.63484911461039" lon="11.456038962962877"><ele>121.75</ele><time>2026-05-02T15:44:20.999Z</time></trkpt><trkpt lat="43.63495223179841" lon="11.455951599493936"><ele>122.0</ele><time>2026-05-02T15:44:21.999Z</time></trkpt><trkpt lat="43.63504955134294" lon="11.455859615611542"><ele>121.99999999999999</ele><time>2026-05-02T15:44:22.999Z</time></trkpt><trkpt lat="43.635136007201496" lon="11.45578988981545"><ele>122.0</ele><time>2026-05-02T15:44:23.999Z</time></trkpt><trkpt lat="43.635216734230696" lon="11.455727767393842"><ele>122.0</ele><time>2026-05-02T15:44:24.999Z</time></trkpt><trkpt lat="43.635292799099425" lon="11.455662856524548"><ele>122.0</ele><time>2026-05-02T15:44:25.999Z</time></trkpt><trkpt lat="43.635357342010614" lon="11.455607893832253"><ele>121.99999999999999</ele><time>2026-05-02T15:44:26.999Z</time></trkpt><trkpt lat="43.635415294562016" lon="11.455564117892463"><ele>122.0</ele><time>2026-05-02T15:44:27.999Z</time></trkpt><trkpt lat="43.635479386224674" lon="11.455546478895835"><ele>121.6</ele><time>2026-05-02T15:44:28.999Z</time></trkpt><trkpt lat="43.63555767295791" lon="11.455530542019668"><ele>121.19999999999999</ele><time>2026-05-02T15:44:29.999Z</time></trkpt><trkpt lat="43.63563323582661" lon="11.4554654192738"><ele>120.8</ele><time>2026-05-02T15:44:30.999Z</time></trkpt><trkpt lat="43.63570443704575" lon="11.455343124043733"><ele>120.4</ele><time>2026-05-02T15:44:31.999Z</time></trkpt><trkpt lat="43.63578967316924" lon="11.45520785708102"><ele>120.0</ele><time>2026-05-02T15:44:32.999Z</time></trkpt><trkpt lat="43.63592577532144" lon="11.455098902520648"><ele>120.0</ele><time>2026-05-02T15:44:33.999Z</time></trkpt><trkpt lat="43.63609598027671" lon="11.454949287156701"><ele>120.0</ele><time>2026-05-02T15:44:34.999Z</time></trkpt><trkpt lat="43.63629467256592" lon="11.454732796849353"><ele>119.5</ele><time>2026-05-02T15:44:35.999Z</time></trkpt><trkpt lat="43.63651438448806" lon="11.45454261467777"><ele>119.0</ele><time>2026-05-02T15:44:36.999Z</time></trkpt><trkpt lat="43.63671272800399" lon="11.454379147296377"><ele>119.0</ele><time>2026-05-02T15:44:37.999Z</time></trkpt><trkpt lat="43.6368891711099" lon="11.454237901065977"><ele>119.0</ele><time>2026-05-02T15:44:38.999Z</time></trkpt><trkpt lat="43.63705436628642" lon="11.45409796593112"><ele>119.0</ele><time>2026-05-02T15:44:39.999Z</time></trkpt><trkpt lat="43.63721626748968" lon="11.453958315580481"><ele>118.66666666666666</ele><time>2026-05-02T15:44:40.999Z</time></trkpt><trkpt lat="43.637379253146115" lon="11.453819942278558"><ele>118.33333333333334</ele><time>2026-05-02T15:44:41.999Z</time></trkpt><trkpt lat="43.63754297322334" lon="11.453677235541342"><ele>118.0</ele><time>2026-05-02T15:44:43Z</time></trkpt><trkpt lat="43.63770917487533" lon="11.453527681935567"><ele>119.0</ele><time>2026-05-02T15:44:44Z</time></trkpt><trkpt lat="43.63787053976366" lon="11.453388409287475"><ele>120.0</ele><time>2026-05-02T15:44:45Z</time></trkpt><trkpt lat="43.6380259033653" lon="11.453252822572539"><ele>121.0</ele><time>2026-05-02T15:44:46Z</time></trkpt><trkpt lat="43.63817319749247" lon="11.453118578318875"><ele>121.0</ele><time>2026-05-02T15:44:47Z</time></trkpt><trkpt lat="43.63831769961987" lon="11.45299301948319"><ele>121.0</ele><time>2026-05-02T15:44:48Z</time></trkpt><trkpt lat="43.63846552798678" lon="11.452863181686096"><ele>121.0</ele><time>2026-05-02T15:44:49Z</time></trkpt><trkpt lat="43.63860868824793" lon="11.45273337498192"><ele>121.0</ele><time>2026-05-02T15:44:50Z</time></trkpt><trkpt lat="43.638752124448395" lon="11.452607903416506"><ele>121.0</ele><time>2026-05-02T15:44:51Z</time></trkpt><trkpt lat="43.63889334275068" lon="11.45248200074177"><ele>121.0</ele><time>2026-05-02T15:44:52Z</time></trkpt><trkpt lat="43.639038124463916" lon="11.452358479386099"><ele>121.0</ele><time>2026-05-02T15:44:53Z</time></trkpt><trkpt lat="43.639186055545224" lon="11.452234512109825"><ele>121.0</ele><time>2026-05-02T15:44:54Z</time></trkpt><trkpt lat="43.639321231731515" lon="11.452115609992859"><ele>121.0</ele><time>2026-05-02T15:44:55Z</time></trkpt><trkpt lat="43.63944433838968" lon="11.452006451386396"><ele>122.0</ele><time>2026-05-02T15:44:56Z</time></trkpt><trkpt lat="43.63955548503473" lon="11.451902296806203"><ele>123.0</ele><time>2026-05-02T15:44:57Z</time></trkpt><trkpt lat="43.63965550643279" lon="11.45181096814486"><ele>124.0</ele><time>2026-05-02T15:44:58Z</time></trkpt><trkpt lat="43.63975063993233" lon="11.451740666769055"><ele>125.0</ele><time>2026-05-02T15:44:59Z</time></trkpt><trkpt lat="43.63984442958544" lon="11.45169563258465"><ele>125.0</ele><time>2026-05-02T15:45:00Z</time></trkpt><trkpt lat="43.63994981051083" lon="11.451649746035313"><ele>125.0</ele><time>2026-05-02T15:45:01Z</time></trkpt><trkpt lat="43.640074480942374" lon="11.451655599428987"><ele>125.0</ele><time>2026-05-02T15:45:02Z</time></trkpt><trkpt lat="43.640200283845594" lon="11.451653125812006"><ele>125.0</ele><time>2026-05-02T15:45:03Z</time></trkpt><trkpt lat="43.64033485171874" lon="11.451676523762286"><ele>124.25</ele><time>2026-05-02T15:45:04Z</time></trkpt><trkpt lat="43.640466871492634" lon="11.451708473077577"><ele>123.5</ele><time>2026-05-02T15:45:05Z</time></trkpt><trkpt lat="43.64060123286411" lon="11.45174299591235"><ele>122.75</ele><time>2026-05-02T15:45:06Z</time></trkpt><trkpt lat="43.64072820298915" lon="11.451779516256542"><ele>122.0</ele><time>2026-05-02T15:45:07Z</time></trkpt><trkpt lat="43.640845936589535" lon="11.451815109615472"><ele>122.0</ele><time>2026-05-02T15:45:08Z</time></trkpt><trkpt lat="43.64095029961699" lon="11.45185495747862"><ele>122.0</ele><time>2026-05-02T15:45:09Z</time></trkpt><trkpt lat="43.64106523464475" lon="11.451912371538661"><ele>122.0</ele><time>2026-05-02T15:45:10Z</time></trkpt><trkpt lat="43.641176735600965" lon="11.451984209313215"><ele>122.0</ele><time>2026-05-02T15:45:11Z</time></trkpt><trkpt lat="43.641266461350654" lon="11.45205408267878"><ele>121.83333333333333</ele><time>2026-05-02T15:45:12Z</time></trkpt><trkpt lat="43.641326357603745" lon="11.452105406914347"><ele>121.66666666666666</ele><time>2026-05-02T15:45:13Z</time></trkpt><trkpt lat="43.64139596606654" lon="11.452179490984047"><ele>121.5</ele><time>2026-05-02T15:45:19Z</time></trkpt><trkpt lat="43.64145729087774" lon="11.452244307659312"><ele>121.33333333333334</ele><time>2026-05-02T15:45:21Z</time></trkpt><trkpt lat="43.641522054582396" lon="11.452391999732592"><ele>121.16666666666667</ele><time>2026-05-02T15:45:23Z</time></trkpt><trkpt lat="43.641528830169946" lon="11.452492208108056"><ele>121.0</ele><time>2026-05-02T15:45:24Z</time></trkpt><trkpt lat="43.64153154130177" lon="11.452596406439431"><ele>121.00000000000001</ele><time>2026-05-02T15:45:25Z</time></trkpt><trkpt lat="43.641544603989665" lon="11.452689528762104"><ele>121.0</ele><time>2026-05-02T15:45:26Z</time></trkpt><trkpt lat="43.64158270692774" lon="11.4527721947271"><ele>121.0</ele><time>2026-05-02T15:45:27Z</time></trkpt><trkpt lat="43.641645334310155" lon="11.452829867999169"><ele>121.0</ele><time>2026-05-02T15:45:28Z</time></trkpt><trkpt lat="43.64172140341617" lon="11.452857295143408"><ele>121.00000000000001</ele><time>2026-05-02T15:45:29Z</time></trkpt><trkpt lat="43.64180197666979" lon="11.452843111038353"><ele>121.0</ele><time>2026-05-02T15:45:30Z</time></trkpt><trkpt lat="43.64187994513384" lon="11.452786478094445"><ele>121.0</ele><time>2026-05-02T15:45:31Z</time></trkpt><trkpt lat="43.64192980981517" lon="11.452682093446358"><ele>121.0</ele><time>2026-05-02T15:45:32Z</time></trkpt><trkpt lat="43.642016608407545" lon="11.452629122984973"><ele>121.0</ele><time>2026-05-02T15:45:33Z</time></trkpt><trkpt lat="43.64208424175239" lon="11.452555131201413"><ele>121.0</ele><time>2026-05-02T15:45:34Z</time></trkpt><trkpt lat="43.64215838922746" lon="11.452496948372438"><ele>121.0</ele><time>2026-05-02T15:45:35Z</time></trkpt><trkpt lat="43.64224952679143" lon="11.452444690855524"><ele>121.25</ele><time>2026-05-02T15:45:36Z</time></trkpt><trkpt lat="43.64236155614188" lon="11.452401759220253"><ele>121.5</ele><time>2026-05-02T15:45:37Z</time></trkpt><trkpt lat="43.642492141325356" lon="11.452413699071238"><ele>121.75</ele><time>2026-05-02T15:45:38Z</time></trkpt><trkpt lat="43.64262772610538" lon="11.452384857472145"><ele>122.0</ele><time>2026-05-02T15:45:39Z</time></trkpt><trkpt lat="43.64275097217427" lon="11.45238914415733"><ele>121.75</ele><time>2026-05-02T15:45:40Z</time></trkpt><trkpt lat="43.642879356683444" lon="11.45238112779412"><ele>121.5</ele><time>2026-05-02T15:45:41Z</time></trkpt><trkpt lat="43.64300038247609" lon="11.452381091646794"><ele>121.25</ele><time>2026-05-02T15:45:42Z</time></trkpt><trkpt lat="43.643115056162884" lon="11.452375644842908"><ele>121.0</ele><time>2026-05-02T15:45:43Z</time></trkpt><trkpt lat="43.64323225356872" lon="11.452355521614102"><ele>121.0</ele><time>2026-05-02T15:45:44Z</time></trkpt><trkpt lat="43.64335145170162" lon="11.452322624969039"><ele>121.0</ele><time>2026-05-02T15:45:45Z</time></trkpt><trkpt lat="43.643466503737905" lon="11.45228859158059"><ele>121.0</ele><time>2026-05-02T15:45:46Z</time></trkpt><trkpt lat="43.643575039371825" lon="11.45224595895273"><ele>121.0</ele><time>2026-05-02T15:45:47Z</time></trkpt><trkpt lat="43.64368183024922" lon="11.452206417356923"><ele>120.75</ele><time>2026-05-02T15:45:48Z</time></trkpt><trkpt lat="43.64378787846773" lon="11.452174706890215"><ele>120.5</ele><time>2026-05-02T15:45:48.999Z</time></trkpt><trkpt lat="43.643902342287824" lon="11.452120452286907"><ele>120.25</ele><time>2026-05-02T15:45:49.999Z</time></trkpt><trkpt lat="43.644030750418146" lon="11.452066417349018"><ele>120.0</ele><time>2026-05-02T15:45:50.999Z</time></trkpt><trkpt lat="43.6441461371439" lon="11.452009515677744"><ele>120.25</ele><time>2026-05-02T15:45:51.999Z</time></trkpt><trkpt lat="43.644259692980356" lon="11.45195394439364"><ele>120.5</ele><time>2026-05-02T15:45:52.999Z</time></trkpt><trkpt lat="43.64437555702965" lon="11.451896591230502"><ele>120.75</ele><time>2026-05-02T15:45:53.999Z</time></trkpt><trkpt lat="43.6444878752037" lon="11.451842040858075"><ele>121.0</ele><time>2026-05-02T15:45:54.999Z</time></trkpt><trkpt lat="43.6446100096266" lon="11.451776673655548"><ele>121.0</ele><time>2026-05-02T15:45:55.999Z</time></trkpt><trkpt lat="43.644740863929286" lon="11.451706133351268"><ele>121.0</ele><time>2026-05-02T15:45:56.999Z</time></trkpt><trkpt lat="43.644865901805524" lon="11.451639427762435"><ele>121.0</ele><time>2026-05-02T15:45:57.999Z</time></trkpt><trkpt lat="43.644976682504186" lon="11.451574048381106"><ele>121.0</ele><time>2026-05-02T15:45:58.999Z</time></trkpt><trkpt lat="43.64509092193606" lon="11.451503768906889"><ele>121.0</ele><time>2026-05-02T15:45:59.999Z</time></trkpt><trkpt lat="43.64521529735774" lon="11.451444049392881"><ele>121.0</ele><time>2026-05-02T15:46:00.999Z</time></trkpt><trkpt lat="43.64533388382085" lon="11.451406428996256"><ele>121.0</ele><time>2026-05-02T15:46:01.999Z</time></trkpt><trkpt lat="43.64545920830443" lon="11.451369687974355"><ele>121.0</ele><time>2026-05-02T15:46:02.999Z</time></trkpt><trkpt lat="43.64560332962737" lon="11.451328069202969"><ele>121.33333333333334</ele><time>2026-05-02T15:46:03.999Z</time></trkpt><trkpt lat="43.6457642279831" lon="11.451277337046623"><ele>121.66666666666666</ele><time>2026-05-02T15:46:04.999Z</time></trkpt><trkpt lat="43.645955628452846" lon="11.451228031744261"><ele>122.0</ele><time>2026-05-02T15:46:05.999Z</time></trkpt><trkpt lat="43.64614767678791" lon="11.451191306280334"><ele>122.0</ele><time>2026-05-02T15:46:06.999Z</time></trkpt><trkpt lat="43.646329454591886" lon="11.451151154154454"><ele>122.0</ele><time>2026-05-02T15:46:07.999Z</time></trkpt><trkpt lat="43.64650482111015" lon="11.45110343414806"><ele>122.0</ele><time>2026-05-02T15:46:08.999Z</time></trkpt><trkpt lat="43.64667676564134" lon="11.451056540441861"><ele>122.0</ele><time>2026-05-02T15:46:09.999Z</time></trkpt><trkpt lat="43.64683737601373" lon="11.451010965141467"><ele>122.0</ele><time>2026-05-02T15:46:10.999Z</time></trkpt><trkpt lat="43.64699069516816" lon="11.450972859092376"><ele>122.0</ele><time>2026-05-02T15:46:11.999Z</time></trkpt><trkpt lat="43.647139811394545" lon="11.45093727406651"><ele>122.0</ele><time>2026-05-02T15:46:12.999Z</time></trkpt><trkpt lat="43.647288427266254" lon="11.45091123514537"><ele>122.0</ele><time>2026-05-02T15:46:13.999Z</time></trkpt><trkpt lat="43.64743147560153" lon="11.45089294840197"><ele>122.0</ele><time>2026-05-02T15:46:14.999Z</time></trkpt><trkpt lat="43.64756813096725" lon="11.450885044939453"><ele>122.0</ele><time>2026-05-02T15:46:15.999Z</time></trkpt><trkpt lat="43.647702500849036" lon="11.45087295873706"><ele>122.0</ele><time>2026-05-02T15:46:16.999Z</time></trkpt><trkpt lat="43.647839188583625" lon="11.450866943135074"><ele>122.0</ele><time>2026-05-02T15:46:17.999Z</time></trkpt><trkpt lat="43.64797790322648" lon="11.450855905436493"><ele>122.0</ele><time>2026-05-02T15:46:18.999Z</time></trkpt><trkpt lat="43.64810841014046" lon="11.450840243368123"><ele>122.0</ele><time>2026-05-02T15:46:19.999Z</time></trkpt><trkpt lat="43.648237272854786" lon="11.450828537855365"><ele>122.0</ele><time>2026-05-02T15:46:20.999Z</time></trkpt><trkpt lat="43.6483595735438" lon="11.450870970903093"><ele>122.0</ele><time>2026-05-02T15:46:21.999Z</time></trkpt><trkpt lat="43.64848652364916" lon="11.450852776098921"><ele>122.0</ele><time>2026-05-02T15:46:22.999Z</time></trkpt><trkpt lat="43.64860472755221" lon="11.45088498661964"><ele>122.0</ele><time>2026-05-02T15:46:23.999Z</time></trkpt><trkpt lat="43.64871117955995" lon="11.450910775256816"><ele>121.8</ele><time>2026-05-02T15:46:24.999Z</time></trkpt><trkpt lat="43.648816169187576" lon="11.45094525326259"><ele>121.6</ele><time>2026-05-02T15:46:25.999Z</time></trkpt><trkpt lat="43.648926739221" lon="11.450973245323176"><ele>121.39999999999999</ele><time>2026-05-02T15:46:26.999Z</time></trkpt><trkpt lat="43.64903705943429" lon="11.451000908034265"><ele>121.19999999999999</ele><time>2026-05-02T15:46:27.999Z</time></trkpt><trkpt lat="43.64914604740413" lon="11.451039217902569"><ele>121.0</ele><time>2026-05-02T15:46:28.999Z</time></trkpt><trkpt lat="43.64926077898413" lon="11.451064493709358"><ele>121.0</ele><time>2026-05-02T15:46:29.999Z</time></trkpt><trkpt lat="43.649374643483256" lon="11.451091599827407"><ele>121.0</ele><time>2026-05-02T15:46:30.999Z</time></trkpt><trkpt lat="43.649480256831694" lon="11.451121169170213"><ele>121.0</ele><time>2026-05-02T15:46:31.999Z</time></trkpt><trkpt lat="43.6495878748978" lon="11.451135514190845"><ele>121.0</ele><time>2026-05-02T15:46:32.999Z</time></trkpt><trkpt lat="43.649696529373486" lon="11.451138447459806"><ele>121.0</ele><time>2026-05-02T15:46:33.999Z</time></trkpt><trkpt lat="43.6498044216236" lon="11.451130857464214"><ele>121.19999999999999</ele><time>2026-05-02T15:46:34.999Z</time></trkpt><trkpt lat="43.64991413397882" lon="11.45112663258837"><ele>121.39999999999999</ele><time>2026-05-02T15:46:35.999Z</time></trkpt><trkpt lat="43.65002155133299" lon="11.451119137574757"><ele>121.6</ele><time>2026-05-02T15:46:36.999Z</time></trkpt><trkpt lat="43.65012366793528" lon="11.45110593724981"><ele>121.8</ele><time>2026-05-02T15:46:37.999Z</time></trkpt><trkpt lat="43.65022742907456" lon="11.451099022590387"><ele>122.0</ele><time>2026-05-02T15:46:38.999Z</time></trkpt><trkpt lat="43.6503313579931" lon="11.451105221633007"><ele>122.6</ele><time>2026-05-02T15:46:39.999Z</time></trkpt><trkpt lat="43.650439417217264" lon="11.451097425533773"><ele>123.19999999999999</ele><time>2026-05-02T15:46:40.999Z</time></trkpt><trkpt lat="43.65054524013459" lon="11.451089461597295"><ele>123.8</ele><time>2026-05-02T15:46:41.999Z</time></trkpt><trkpt lat="43.650647836405724" lon="11.451092377919226"><ele>124.4</ele><time>2026-05-02T15:46:42.999Z</time></trkpt><trkpt lat="43.65074977996033" lon="11.45110648562853"><ele>125.0</ele><time>2026-05-02T15:46:43.999Z</time></trkpt><trkpt lat="43.65085151042503" lon="11.451162224205332"><ele>125.0</ele><time>2026-05-02T15:46:44.999Z</time></trkpt><trkpt lat="43.65096398134614" lon="11.451167483783873"><ele>125.0</ele><time>2026-05-02T15:46:45.999Z</time></trkpt><trkpt lat="43.65107719377148" lon="11.451215332415973"><ele>125.0</ele><time>2026-05-02T15:46:46.999Z</time></trkpt><trkpt lat="43.65119209800407" lon="11.451276189437548"><ele>125.0</ele><time>2026-05-02T15:46:47.999Z</time></trkpt><trkpt lat="43.651307261470954" lon="11.451331559608603"><ele>124.6</ele><time>2026-05-02T15:46:49Z</time></trkpt><trkpt lat="43.651417690836496" lon="11.451383725796676"><ele>124.2</ele><time>2026-05-02T15:46:50Z</time></trkpt><trkpt lat="43.65152604460956" lon="11.451432681401108"><ele>123.80000000000001</ele><time>2026-05-02T15:46:51Z</time></trkpt><trkpt lat="43.65163169522519" lon="11.451468321456371"><ele>123.4</ele><time>2026-05-02T15:46:52Z</time></trkpt><trkpt lat="43.65173981096927" lon="11.451483366642051"><ele>123.0</ele><time>2026-05-02T15:46:53Z</time></trkpt><trkpt lat="43.651845939796" lon="11.451484146664786"><ele>122.5</ele><time>2026-05-02T15:46:54Z</time></trkpt><trkpt lat="43.651958717219074" lon="11.45147432523365"><ele>122.0</ele><time>2026-05-02T15:46:55Z</time></trkpt><trkpt lat="43.652074521219944" lon="11.45145354254559"><ele>121.5</ele><time>2026-05-02T15:46:56Z</time></trkpt><trkpt lat="43.652193832660295" lon="11.45143550878895"><ele>121.0</ele><time>2026-05-02T15:46:57Z</time></trkpt><trkpt lat="43.65231827109189" lon="11.451413829828752"><ele>121.0</ele><time>2026-05-02T15:46:58Z</time></trkpt><trkpt lat="43.652436743918784" lon="11.451400734670376"><ele>121.0</ele><time>2026-05-02T15:46:59Z</time></trkpt><trkpt lat="43.65255752832998" lon="11.451385123595633"><ele>121.0</ele><time>2026-05-02T15:47:00Z</time></trkpt><trkpt lat="43.65266359482421" lon="11.451360652975428"><ele>121.0</ele><time>2026-05-02T15:47:01Z</time></trkpt><trkpt lat="43.65276094873805" lon="11.45134392357068"><ele>121.0</ele><time>2026-05-02T15:47:02Z</time></trkpt><trkpt lat="43.65284989209117" lon="11.4513191339077"><ele>121.19999999999999</ele><time>2026-05-02T15:47:03Z</time></trkpt><trkpt lat="43.65295308877881" lon="11.451293589774073"><ele>121.39999999999999</ele><time>2026-05-02T15:47:04Z</time></trkpt><trkpt lat="43.65305525197141" lon="11.451263149184054"><ele>121.6</ele><time>2026-05-02T15:47:05Z</time></trkpt><trkpt lat="43.65314275164503" lon="11.451235585806641"><ele>121.8</ele><time>2026-05-02T15:47:06Z</time></trkpt><trkpt lat="43.6532229440851" lon="11.451197197880946"><ele>122.0</ele><time>2026-05-02T15:47:07Z</time></trkpt><trkpt lat="43.65329501047968" lon="11.45116267376183"><ele>122.19999999999999</ele><time>2026-05-02T15:47:08Z</time></trkpt><trkpt lat="43.65339318808292" lon="11.451119008098344"><ele>122.39999999999999</ele><time>2026-05-02T15:47:10Z</time></trkpt><trkpt lat="43.6534770544264" lon="11.45108725294059"><ele>122.60000000000001</ele><time>2026-05-02T15:47:12Z</time></trkpt><trkpt lat="43.65355610537908" lon="11.451060641183428"><ele>122.80000000000001</ele><time>2026-05-02T15:47:14Z</time></trkpt><trkpt lat="43.65364661777006" lon="11.451069365869762"><ele>123.0</ele><time>2026-05-02T15:47:16Z</time></trkpt><trkpt lat="43.653740844276506" lon="11.45102193765069"><ele>123.0</ele><time>2026-05-02T15:47:18Z</time></trkpt><trkpt lat="43.65379891274829" lon="11.450938431583769"><ele>123.00000000000001</ele><time>2026-05-02T15:47:19Z</time></trkpt><trkpt lat="43.6538744234724" lon="11.45085300131777"><ele>123.00000000000001</ele><time>2026-05-02T15:47:20Z</time></trkpt><trkpt lat="43.65396903910366" lon="11.450787606372742"><ele>123.0</ele><time>2026-05-02T15:47:21Z</time></trkpt><trkpt lat="43.654069844499276" lon="11.450723404999435"><ele>123.0</ele><time>2026-05-02T15:47:22Z</time></trkpt><trkpt lat="43.654176161536284" lon="11.450646164958368"><ele>123.0</ele><time>2026-05-02T15:47:23Z</time></trkpt><trkpt lat="43.654280426954664" lon="11.450563457902208"><ele>123.0</ele><time>2026-05-02T15:47:24Z</time></trkpt><trkpt lat="43.65438712392258" lon="11.450480782306252"><ele>123.0</ele><time>2026-05-02T15:47:25Z</time></trkpt><trkpt lat="43.65449090142519" lon="11.450398054923088"><ele>123.0</ele><time>2026-05-02T15:47:26Z</time></trkpt><trkpt lat="43.654598998744305" lon="11.450317990619116"><ele>123.0</ele><time>2026-05-02T15:47:27Z</time></trkpt><trkpt lat="43.65471041042496" lon="11.45024307793541"><ele>123.0</ele><time>2026-05-02T15:47:28Z</time></trkpt><trkpt lat="43.65480946160136" lon="11.450163130841716"><ele>123.0</ele><time>2026-05-02T15:47:29Z</time></trkpt><trkpt lat="43.654909146346036" lon="11.450089898771065"><ele>123.0</ele><time>2026-05-02T15:47:30Z</time></trkpt><trkpt lat="43.6550043039576" lon="11.450030016641538"><ele>123.0</ele><time>2026-05-02T15:47:31Z</time></trkpt><trkpt lat="43.65510387836956" lon="11.449974357466813"><ele>123.0</ele><time>2026-05-02T15:47:32Z</time></trkpt><trkpt lat="43.65521190636346" lon="11.449925327181834"><ele>123.0</ele><time>2026-05-02T15:47:33Z</time></trkpt><trkpt lat="43.65532702614254" lon="11.449884495565831"><ele>123.0</ele><time>2026-05-02T15:47:34Z</time></trkpt><trkpt lat="43.65544933198847" lon="11.449840755523683"><ele>123.2</ele><time>2026-05-02T15:47:35Z</time></trkpt><trkpt lat="43.65557148087768" lon="11.449793910384791"><ele>123.4</ele><time>2026-05-02T15:47:36Z</time></trkpt><trkpt lat="43.65567997742109" lon="11.449762805044571"><ele>123.60000000000001</ele><time>2026-05-02T15:47:37Z</time></trkpt><trkpt lat="43.655778363850594" lon="11.449736587743336"><ele>123.80000000000001</ele><time>2026-05-02T15:47:38Z</time></trkpt><trkpt lat="43.65586300866726" lon="11.449715286830028"><ele>124.0</ele><time>2026-05-02T15:47:39Z</time></trkpt><trkpt lat="43.65594128075321" lon="11.449704551671829"><ele>124.00000000000001</ele><time>2026-05-02T15:47:40Z</time></trkpt><trkpt lat="43.65601474905217" lon="11.449718247641423"><ele>124.0</ele><time>2026-05-02T15:47:41Z</time></trkpt><trkpt lat="43.65608294267333" lon="11.449699505927738"><ele>124.0</ele><time>2026-05-02T15:47:42Z</time></trkpt><trkpt lat="43.6561563845859" lon="11.449726192696028"><ele>124.0</ele><time>2026-05-02T15:47:43Z</time></trkpt><trkpt lat="43.65622655096423" lon="11.449772836810823"><ele>124.00000000000001</ele><time>2026-05-02T15:47:44Z</time></trkpt><trkpt lat="43.65630173356628" lon="11.449796969336653"><ele>124.0</ele><time>2026-05-02T15:47:45Z</time></trkpt><trkpt lat="43.65638702136887" lon="11.449790000023365"><ele>123.66666666666667</ele><time>2026-05-02T15:47:46Z</time></trkpt><trkpt lat="43.656473618317605" lon="11.449775690563222"><ele>123.33333333333334</ele><time>2026-05-02T15:47:47Z</time></trkpt><trkpt lat="43.65655457011029" lon="11.449782053916277"><ele>123.0</ele><time>2026-05-02T15:47:48Z</time></trkpt><trkpt lat="43.65663717748027" lon="11.44980939251561"><ele>122.66666666666666</ele><time>2026-05-02T15:47:49Z</time></trkpt><trkpt lat="43.65672417002068" lon="11.44983872512018"><ele>122.33333333333333</ele><time>2026-05-02T15:47:50Z</time></trkpt><trkpt lat="43.65681442614109" lon="11.449870834419883"><ele>122.0</ele><time>2026-05-02T15:47:51Z</time></trkpt><trkpt lat="43.65690476634511" lon="11.449906553522489"><ele>121.8</ele><time>2026-05-02T15:47:52Z</time></trkpt><trkpt lat="43.65699114906196" lon="11.449940285827543"><ele>121.6</ele><time>2026-05-02T15:47:53Z</time></trkpt><trkpt lat="43.65708049223028" lon="11.449974652938062"><ele>121.39999999999999</ele><time>2026-05-02T15:47:54Z</time></trkpt><trkpt lat="43.65718014937444" lon="11.450008979979483"><ele>121.19999999999999</ele><time>2026-05-02T15:47:55Z</time></trkpt><trkpt lat="43.65729462897237" lon="11.450045742743598"><ele>121.0</ele><time>2026-05-02T15:47:56Z</time></trkpt><trkpt lat="43.657410201280605" lon="11.450076682796622"><ele>121.0</ele><time>2026-05-02T15:47:57Z</time></trkpt><trkpt lat="43.657521895456036" lon="11.450108337395974"><ele>121.0</ele><time>2026-05-02T15:47:58Z</time></trkpt><trkpt lat="43.65763239761077" lon="11.450143207281188"><ele>121.0</ele><time>2026-05-02T15:47:59Z</time></trkpt><trkpt lat="43.65773944476422" lon="11.450197895371792"><ele>121.0</ele><time>2026-05-02T15:48:00Z</time></trkpt><trkpt lat="43.657847594301344" lon="11.450234758139384"><ele>120.6</ele><time>2026-05-02T15:48:01Z</time></trkpt><trkpt lat="43.65794876957495" lon="11.450270823569461"><ele>120.19999999999999</ele><time>2026-05-02T15:48:01.999Z</time></trkpt><trkpt lat="43.65805231136883" lon="11.450309076613863"><ele>119.80000000000001</ele><time>2026-05-02T15:48:02.999Z</time></trkpt><trkpt lat="43.658156420935654" lon="11.45034372255553"><ele>119.4</ele><time>2026-05-02T15:48:03.999Z</time></trkpt><trkpt lat="43.65825215096087" lon="11.450375632249292"><ele>119.0</ele><time>2026-05-02T15:48:04.999Z</time></trkpt><trkpt lat="43.65834245200073" lon="11.450404349823915"><ele>119.0</ele><time>2026-05-02T15:48:05.999Z</time></trkpt><trkpt lat="43.65843548020959" lon="11.450435465551573"><ele>119.0</ele><time>2026-05-02T15:48:06.999Z</time></trkpt><trkpt lat="43.65853029008656" lon="11.450468215179352"><ele>119.0</ele><time>2026-05-02T15:48:07.999Z</time></trkpt><trkpt lat="43.65862602569499" lon="11.450510905089875"><ele>119.0</ele><time>2026-05-02T15:48:08.999Z</time></trkpt><trkpt lat="43.65872804648663" lon="11.450549939151694"><ele>119.0</ele><time>2026-05-02T15:48:09.999Z</time></trkpt><trkpt lat="43.658835774938254" lon="11.450582284955445"><ele>118.75</ele><time>2026-05-02T15:48:10.999Z</time></trkpt><trkpt lat="43.65894219246444" lon="11.450620424372268"><ele>118.5</ele><time>2026-05-02T15:48:11.999Z</time></trkpt><trkpt lat="43.659049405260035" lon="11.450657286323242"><ele>118.25</ele><time>2026-05-02T15:48:12.999Z</time></trkpt><trkpt lat="43.65916224141074" lon="11.450693922368158"><ele>118.0</ele><time>2026-05-02T15:48:13.999Z</time></trkpt><trkpt lat="43.65931003628829" lon="11.450738152940483"><ele>118.0</ele><time>2026-05-02T15:48:14.999Z</time></trkpt><trkpt lat="43.65948834132753" lon="11.450815913690109"><ele>118.0</ele><time>2026-05-02T15:48:15.999Z</time></trkpt><trkpt lat="43.65970786793899" lon="11.45089342588949"><ele>118.0</ele><time>2026-05-02T15:48:16.999Z</time></trkpt><trkpt lat="43.659955282313874" lon="11.450963613933988"><ele>118.0</ele><time>2026-05-02T15:48:17.999Z</time></trkpt><trkpt lat="43.66016157307414" lon="11.451045755542868"><ele>118.0</ele><time>2026-05-02T15:48:18.999Z</time></trkpt><trkpt lat="43.66033859812449" lon="11.451105487059593"><ele>118.0</ele><time>2026-05-02T15:48:19.999Z</time></trkpt><trkpt lat="43.66050634135913" lon="11.451164171105255"><ele>118.33333333333334</ele><time>2026-05-02T15:48:20.999Z</time></trkpt><trkpt lat="43.660682027673" lon="11.451230093523655"><ele>118.66666666666666</ele><time>2026-05-02T15:48:21.999Z</time></trkpt><trkpt lat="43.660863386309956" lon="11.4512998951902"><ele>119.0</ele><time>2026-05-02T15:48:22.999Z</time></trkpt><trkpt lat="43.66104105048491" lon="11.451378199209282"><ele>122.0</ele><time>2026-05-02T15:48:23.999Z</time></trkpt><trkpt lat="43.661214562328105" lon="11.451462938329266"><ele>125.0</ele><time>2026-05-02T15:48:24.999Z</time></trkpt><trkpt lat="43.66137583668556" lon="11.451547215673438"><ele>128.0</ele><time>2026-05-02T15:48:25.999Z</time></trkpt><trkpt lat="43.66153960155628" lon="11.451640700337647"><ele>128.0</ele><time>2026-05-02T15:48:26.999Z</time></trkpt><trkpt lat="43.66171326833529" lon="11.451726542748032"><ele>128.0</ele><time>2026-05-02T15:48:27.999Z</time></trkpt><trkpt lat="43.66188973557941" lon="11.451804257341674"><ele>128.0</ele><time>2026-05-02T15:48:28.999Z</time></trkpt><trkpt lat="43.66207036950388" lon="11.45186485324654"><ele>128.66666666666666</ele><time>2026-05-02T15:48:29.999Z</time></trkpt><trkpt lat="43.66224971925124" lon="11.45190103025204"><ele>129.33333333333334</ele><time>2026-05-02T15:48:30.999Z</time></trkpt><trkpt lat="43.66243046141905" lon="11.451927327033728"><ele>130.0</ele><time>2026-05-02T15:48:31.999Z</time></trkpt><trkpt lat="43.6626118301935" lon="11.451954693024955"><ele>129.0</ele><time>2026-05-02T15:48:32.999Z</time></trkpt><trkpt lat="43.662788819377454" lon="11.451992772511762"><ele>128.0</ele><time>2026-05-02T15:48:33.999Z</time></trkpt><trkpt lat="43.6629605359774" lon="11.452084719694179"><ele>127.0</ele><time>2026-05-02T15:48:34.999Z</time></trkpt><trkpt lat="43.66313947857431" lon="11.45217804187957"><ele>129.33333333333334</ele><time>2026-05-02T15:48:35.999Z</time></trkpt><trkpt lat="43.663310206527505" lon="11.452274071024783"><ele>131.66666666666666</ele><time>2026-05-02T15:48:36.999Z</time></trkpt><trkpt lat="43.66345777851196" lon="11.452374671365108"><ele>134.0</ele><time>2026-05-02T15:48:37.999Z</time></trkpt><trkpt lat="43.663578817769405" lon="11.452484746386414"><ele>135.75</ele><time>2026-05-02T15:48:38.999Z</time></trkpt><trkpt lat="43.663677298485474" lon="11.452610949374316"><ele>137.5</ele><time>2026-05-02T15:48:39.999Z</time></trkpt><trkpt lat="43.66375338459647" lon="11.45275474121994"><ele>139.25</ele><time>2026-05-02T15:48:40.999Z</time></trkpt><trkpt lat="43.663865833117704" lon="11.452872425146868"><ele>141.0</ele><time>2026-05-02T15:48:41.999Z</time></trkpt><trkpt lat="43.6639180346108" lon="11.45301996924002"><ele>142.4</ele><time>2026-05-02T15:48:42.999Z</time></trkpt><trkpt lat="43.66396431880318" lon="11.453153638546429"><ele>143.8</ele><time>2026-05-02T15:48:43.999Z</time></trkpt><trkpt lat="43.66401296419051" lon="11.453277535797865"><ele>145.20000000000002</ele><time>2026-05-02T15:48:44.999Z</time></trkpt><trkpt lat="43.66402202107492" lon="11.453420547443388"><ele>146.6</ele><time>2026-05-02T15:48:45.999Z</time></trkpt><trkpt lat="43.66406061644053" lon="11.453548875495516"><ele>148.0</ele><time>2026-05-02T15:48:46.999Z</time></trkpt><trkpt lat="43.664097309799324" lon="11.453688595719635"><ele>147.5</ele><time>2026-05-02T15:48:47.999Z</time></trkpt><trkpt lat="43.66413275578301" lon="11.45384120562773"><ele>147.0</ele><time>2026-05-02T15:48:48.999Z</time></trkpt><trkpt lat="43.66416210549703" lon="11.45399897296038"><ele>146.5</ele><time>2026-05-02T15:48:49.999Z</time></trkpt><trkpt lat="43.664185019738504" lon="11.454156703761857"><ele>146.0</ele><time>2026-05-02T15:48:50.999Z</time></trkpt><trkpt lat="43.66420672126076" lon="11.454309988881866"><ele>146.0</ele><time>2026-05-02T15:48:51.999Z</time></trkpt><trkpt lat="43.66422729522276" lon="11.454451206512926"><ele>146.0</ele><time>2026-05-02T15:48:52.999Z</time></trkpt><trkpt lat="43.664251358838065" lon="11.45459224134574"><ele>146.0</ele><time>2026-05-02T15:48:53.999Z</time></trkpt><trkpt lat="43.66429278462276" lon="11.454724058378847"><ele>146.0</ele><time>2026-05-02T15:48:55Z</time></trkpt><trkpt lat="43.664309238226146" lon="11.45486054789873"><ele>146.0</ele><time>2026-05-02T15:48:56Z</time></trkpt><trkpt lat="43.66432411586897" lon="11.454986217892516"><ele>145.4</ele><time>2026-05-02T15:48:57Z</time></trkpt><trkpt lat="43.66433093616555" lon="11.455100546430952"><ele>144.8</ele><time>2026-05-02T15:48:58Z</time></trkpt><trkpt lat="43.66433591747626" lon="11.455201780400074"><ele>144.20000000000002</ele><time>2026-05-02T15:48:59Z</time></trkpt><trkpt lat="43.66434791816162" lon="11.455326005059431"><ele>143.6</ele><time>2026-05-02T15:49:01Z</time></trkpt><trkpt lat="43.66425570127211" lon="11.4554429983319"><ele>143.0</ele><time>2026-05-02T15:49:03Z</time></trkpt><trkpt lat="43.664226783212996" lon="11.455566309645885"><ele>142.66666666666666</ele><time>2026-05-02T15:49:05Z</time></trkpt><trkpt lat="43.66422868761337" lon="11.455655767961947"><ele>142.33333333333331</ele><time>2026-05-02T15:49:06Z</time></trkpt><trkpt lat="43.664259871886344" lon="11.455750554101465"><ele>142.0</ele><time>2026-05-02T15:49:07Z</time></trkpt><trkpt lat="43.664325682518786" lon="11.455832429815237"><ele>141.66666666666666</ele><time>2026-05-02T15:49:08Z</time></trkpt><trkpt lat="43.664409412292294" lon="11.455879817515875"><ele>141.33333333333334</ele><time>2026-05-02T15:49:09Z</time></trkpt><trkpt lat="43.664512663518416" lon="11.455866191376636"><ele>141.0</ele><time>2026-05-02T15:49:10Z</time></trkpt><trkpt lat="43.664603001315086" lon="11.455882323233261"><ele>141.0</ele><time>2026-05-02T15:49:11Z</time></trkpt><trkpt lat="43.66465955791188" lon="11.456187010942731"><ele>141.0</ele><time>2026-05-02T15:49:12Z</time></trkpt><trkpt lat="43.66472028000086" lon="11.456366791843468"><ele>141.0</ele><time>2026-05-02T15:49:13Z</time></trkpt><trkpt lat="43.664775810675884" lon="11.456551964011213"><ele>141.0</ele><time>2026-05-02T15:49:14Z</time></trkpt><trkpt lat="43.664838171813344" lon="11.456743292271332"><ele>141.0</ele><time>2026-05-02T15:49:15Z</time></trkpt><trkpt lat="43.664872024045756" lon="11.456973175200257"><ele>141.0</ele><time>2026-05-02T15:49:16Z</time></trkpt><trkpt lat="43.664940653870524" lon="11.45721343570553"><ele>140.66666666666666</ele><time>2026-05-02T15:49:17Z</time></trkpt><trkpt lat="43.66501307880709" lon="11.457463961711454"><ele>140.33333333333331</ele><time>2026-05-02T15:49:18Z</time></trkpt><trkpt lat="43.665082362569834" lon="11.457690240686853"><ele>140.0</ele><time>2026-05-02T15:49:19Z</time></trkpt><trkpt lat="43.66513864331359" lon="11.457896714287884"><ele>139.6</ele><time>2026-05-02T15:49:20Z</time></trkpt><trkpt lat="43.66518781427633" lon="11.45807636895935"><ele>139.2</ele><time>2026-05-02T15:49:21Z</time></trkpt><trkpt lat="43.665225117677075" lon="11.45821423833082"><ele>138.8</ele><time>2026-05-02T15:49:22Z</time></trkpt><trkpt lat="43.66525702327073" lon="11.458323182567934"><ele>138.4</ele><time>2026-05-02T15:49:23Z</time></trkpt><trkpt lat="43.66529129323859" lon="11.458434057110964"><ele>138.0</ele><time>2026-05-02T15:49:24Z</time></trkpt><trkpt lat="43.66532807582511" lon="11.45857095191534"><ele>138.0</ele><time>2026-05-02T15:49:25Z</time></trkpt><trkpt lat="43.66536772386476" lon="11.458742138132402"><ele>138.0</ele><time>2026-05-02T15:49:26Z</time></trkpt><trkpt lat="43.665420434430615" lon="11.458930904269332"><ele>138.0</ele><time>2026-05-02T15:49:27Z</time></trkpt><trkpt lat="43.66547805515143" lon="11.459120705558485"><ele>138.0</ele><time>2026-05-02T15:49:28Z</time></trkpt><trkpt lat="43.665514933870796" lon="11.459295914059393"><ele>138.4</ele><time>2026-05-02T15:49:29Z</time></trkpt><trkpt lat="43.66553889598926" lon="11.459449596523468"><ele>138.8</ele><time>2026-05-02T15:49:30Z</time></trkpt><trkpt lat="43.66555091453446" lon="11.459606510799178"><ele>139.2</ele><time>2026-05-02T15:49:31Z</time></trkpt><trkpt lat="43.66554054132385" lon="11.45975606941311"><ele>139.6</ele><time>2026-05-02T15:49:32Z</time></trkpt><trkpt lat="43.66552771304902" lon="11.459897744442875"><ele>140.0</ele><time>2026-05-02T15:49:33Z</time></trkpt><trkpt lat="43.66551653948598" lon="11.460020767809059"><ele>140.2</ele><time>2026-05-02T15:49:34Z</time></trkpt><trkpt lat="43.66546939814374" lon="11.460120835853154"><ele>140.4</ele><time>2026-05-02T15:49:35Z</time></trkpt><trkpt lat="43.665366869465174" lon="11.460166080183555"><ele>140.6</ele><time>2026-05-02T15:49:36Z</time></trkpt><trkpt lat="43.665284394439354" lon="11.46028899402982"><ele>140.8</ele><time>2026-05-02T15:49:37Z</time></trkpt><trkpt lat="43.66524278919875" lon="11.460444230448156"><ele>141.0</ele><time>2026-05-02T15:49:38Z</time></trkpt><trkpt lat="43.66522154086519" lon="11.460616258313532"><ele>141.0</ele><time>2026-05-02T15:49:39Z</time></trkpt><trkpt lat="43.66517572265803" lon="11.460779304885047"><ele>141.0</ele><time>2026-05-02T15:49:40Z</time></trkpt><trkpt lat="43.66507739065947" lon="11.460931653157965"><ele>141.0</ele><time>2026-05-02T15:49:41Z</time></trkpt><trkpt lat="43.66494544457201" lon="11.461037325586185"><ele>141.0</ele><time>2026-05-02T15:49:42Z</time></trkpt><trkpt lat="43.66483494156099" lon="11.461126818854828"><ele>141.0</ele><time>2026-05-02T15:49:43Z</time></trkpt><trkpt lat="43.664709362059455" lon="11.46120665700327"><ele>141.0</ele><time>2026-05-02T15:49:44Z</time></trkpt><trkpt lat="43.66457472083576" lon="11.461272881238722"><ele>141.0</ele><time>2026-05-02T15:49:45Z</time></trkpt><trkpt lat="43.664429070250186" lon="11.461316090050609"><ele>141.0</ele><time>2026-05-02T15:49:46Z</time></trkpt><trkpt lat="43.664272726770996" lon="11.461301274764608"><ele>141.33333333333334</ele><time>2026-05-02T15:49:47Z</time></trkpt><trkpt lat="43.66410715647181" lon="11.46126023355143"><ele>141.66666666666669</ele><time>2026-05-02T15:49:48Z</time></trkpt><trkpt lat="43.663937064765676" lon="11.461199601829911"><ele>142.0</ele><time>2026-05-02T15:49:49Z</time></trkpt><trkpt lat="43.66376828972218" lon="11.461155327493783"><ele>142.66666666666669</ele><time>2026-05-02T15:49:50Z</time></trkpt><trkpt lat="43.66360848801737" lon="11.461105517321325"><ele>143.33333333333334</ele><time>2026-05-02T15:49:51Z</time></trkpt><trkpt lat="43.66345066679195" lon="11.46106359392078"><ele>144.0</ele><time>2026-05-02T15:49:52Z</time></trkpt><trkpt lat="43.66329609873171" lon="11.461045631849997"><ele>144.0</ele><time>2026-05-02T15:49:53Z</time></trkpt><trkpt lat="43.66314007287371" lon="11.461047206601336"><ele>144.0</ele><time>2026-05-02T15:49:54Z</time></trkpt><trkpt lat="43.66298311608178" lon="11.461093542208578"><ele>144.0</ele><time>2026-05-02T15:49:55Z</time></trkpt><trkpt lat="43.66282431518402" lon="11.461158568680416"><ele>144.0</ele><time>2026-05-02T15:49:56Z</time></trkpt><trkpt lat="43.66267224618456" lon="11.461243402464545"><ele>144.0</ele><time>2026-05-02T15:49:57Z</time></trkpt><trkpt lat="43.66253248151553" lon="11.461360464230882"><ele>144.0</ele><time>2026-05-02T15:49:58Z</time></trkpt><trkpt lat="43.66239873351609" lon="11.461496340060595"><ele>144.0</ele><time>2026-05-02T15:49:59Z</time></trkpt><trkpt lat="43.662269650013776" lon="11.461643217684763"><ele>144.0</ele><time>2026-05-02T15:50:00Z</time></trkpt><trkpt lat="43.66214664683086" lon="11.46179393753956"><ele>144.0</ele><time>2026-05-02T15:50:01Z</time></trkpt><trkpt lat="43.66202559908783" lon="11.461949920114945"><ele>140.33333333333334</ele><time>2026-05-02T15:50:02Z</time></trkpt><trkpt lat="43.661910451712956" lon="11.462108119834754"><ele>136.66666666666669</ele><time>2026-05-02T15:50:03Z</time></trkpt><trkpt lat="43.66179578871173" lon="11.462268121916388"><ele>133.0</ele><time>2026-05-02T15:50:04Z</time></trkpt><trkpt lat="43.6616654201708" lon="11.462435359188564"><ele>132.66666666666669</ele><time>2026-05-02T15:50:05Z</time></trkpt><trkpt lat="43.66151292394092" lon="11.462609519125964"><ele>132.33333333333334</ele><time>2026-05-02T15:50:06Z</time></trkpt><trkpt lat="43.6613421659904" lon="11.462774984949123"><ele>132.0</ele><time>2026-05-02T15:50:07Z</time></trkpt><trkpt lat="43.66116024298204" lon="11.462927717803217"><ele>131.33333333333334</ele><time>2026-05-02T15:50:08Z</time></trkpt><trkpt lat="43.66096755501475" lon="11.46307485349668"><ele>130.66666666666669</ele><time>2026-05-02T15:50:09Z</time></trkpt><trkpt lat="43.660761954579634" lon="11.463209211846804"><ele>130.0</ele><time>2026-05-02T15:50:10Z</time></trkpt><trkpt lat="43.660531155208574" lon="11.463331570992292"><ele>130.0</ele><time>2026-05-02T15:50:11Z</time></trkpt><trkpt lat="43.66030781486476" lon="11.463506659600187"><ele>130.0</ele><time>2026-05-02T15:50:12Z</time></trkpt><trkpt lat="43.66008785373215" lon="11.463650666603819"><ele>133.5</ele><time>2026-05-02T15:50:13Z</time></trkpt><trkpt lat="43.659877682565984" lon="11.463807228090223"><ele>137.0</ele><time>2026-05-02T15:50:14Z</time></trkpt><trkpt lat="43.65968211315908" lon="11.463986806070718"><ele>137.0</ele><time>2026-05-02T15:50:15Z</time></trkpt><trkpt lat="43.6594964682746" lon="11.464163044415425"><ele>137.0</ele><time>2026-05-02T15:50:16Z</time></trkpt><trkpt lat="43.65931407531782" lon="11.46434530934496"><ele>136.33333333333331</ele><time>2026-05-02T15:50:17Z</time></trkpt><trkpt lat="43.659134629024294" lon="11.464529354732822"><ele>135.66666666666666</ele><time>2026-05-02T15:50:18Z</time></trkpt><trkpt lat="43.658953673553896" lon="11.464702768768326"><ele>135.0</ele><time>2026-05-02T15:50:19Z</time></trkpt><trkpt lat="43.658766153958126" lon="11.464869301486932"><ele>135.5</ele><time>2026-05-02T15:50:19.999Z</time></trkpt><trkpt lat="43.65857260835567" lon="11.465025297520667"><ele>136.0</ele><time>2026-05-02T15:50:20.999Z</time></trkpt><trkpt lat="43.65836395385911" lon="11.465145264698187"><ele>136.0</ele><time>2026-05-02T15:50:21.999Z</time></trkpt><trkpt lat="43.658160630270274" lon="11.465277381160332"><ele>136.0</ele><time>2026-05-02T15:50:22.999Z</time></trkpt><trkpt lat="43.65795141130811" lon="11.465389188534855"><ele>136.0</ele><time>2026-05-02T15:50:23.999Z</time></trkpt><trkpt lat="43.65773602454979" lon="11.465491169512891"><ele>138.0</ele><time>2026-05-02T15:50:24.999Z</time></trkpt><trkpt lat="43.65751730513745" lon="11.465565750021137"><ele>140.0</ele><time>2026-05-02T15:50:25.999Z</time></trkpt><trkpt lat="43.65729449937657" lon="11.4656191123925"><ele>140.0</ele><time>2026-05-02T15:50:26.999Z</time></trkpt><trkpt lat="43.65707281044485" lon="11.465671414531803"><ele>140.0</ele><time>2026-05-02T15:50:27.999Z</time></trkpt><trkpt lat="43.6568519524757" lon="11.465715219011653"><ele>140.0</ele><time>2026-05-02T15:50:28.999Z</time></trkpt><trkpt lat="43.65662663004769" lon="11.465746787980692"><ele>139.5</ele><time>2026-05-02T15:50:29.999Z</time></trkpt><trkpt lat="43.65639885421692" lon="11.465772306828073"><ele>139.0</ele><time>2026-05-02T15:50:30.999Z</time></trkpt><trkpt lat="43.65616818894328" lon="11.465795663660106"><ele>138.5</ele><time>2026-05-02T15:50:31.999Z</time></trkpt><trkpt lat="43.65593541018064" lon="11.46581768840474"><ele>138.0</ele><time>2026-05-02T15:50:32.999Z</time></trkpt><trkpt lat="43.6556979055872" lon="11.465848148010544"><ele>138.0</ele><time>2026-05-02T15:50:33.999Z</time></trkpt><trkpt lat="43.65546440332752" lon="11.465919311940661"><ele>138.0</ele><time>2026-05-02T15:50:34.999Z</time></trkpt><trkpt lat="43.65523018708113" lon="11.465974918747019"><ele>138.5</ele><time>2026-05-02T15:50:35.999Z</time></trkpt><trkpt lat="43.654998680527456" lon="11.466045531619148"><ele>139.0</ele><time>2026-05-02T15:50:36.999Z</time></trkpt><trkpt lat="43.65476556603822" lon="11.466122995335173"><ele>139.0</ele><time>2026-05-02T15:50:37.999Z</time></trkpt><trkpt lat="43.65453560449733" lon="11.466214177847837"><ele>139.0</ele><time>2026-05-02T15:50:38.999Z</time></trkpt><trkpt lat="43.654312431731256" lon="11.466346754003032"><ele>143.5</ele><time>2026-05-02T15:50:39.999Z</time></trkpt><trkpt lat="43.65409831766627" lon="11.466521810434317"><ele>148.0</ele><time>2026-05-02T15:50:40.999Z</time></trkpt><trkpt lat="43.653888387402574" lon="11.466733785423397"><ele>148.0</ele><time>2026-05-02T15:50:41.999Z</time></trkpt><trkpt lat="43.653701690985194" lon="11.46695073889558"><ele>148.0</ele><time>2026-05-02T15:50:42.999Z</time></trkpt><trkpt lat="43.65352986281209" lon="11.467133070835214"><ele>154.0</ele><time>2026-05-02T15:50:43.999Z</time></trkpt></trkseg></trk></gpx>